<?xml version="1.0" encoding="UTF-8" standalone="no" ?>
<gpx xmlns="http://www.topografix.com/GPX/1/1" xmlns:xsi="http://www.w3.org/2001/XMLSchema-instance" xsi:schemaLocation="http://www.topografix.com/GPX/1/1 http://www.topografix.com/GPX/1/1/gpx.xsd" version="1.1" creator="VisuGPX - https://www.visugpx.com">
  <metadata>
    <name>J2 Préstage 4C</name>
    <desc><![CDATA[Mecurey]]></desc>
  </metadata>
  <trk>
    <name><![CDATA[J2 Préstage 4C]]></name>
    <trkseg>
      <trkpt lat="46.86782" lon="4.65094">
        <ele>251.47129821777</ele>
        <time>2021-05-23T08:11:06Z</time>
      </trkpt>
      <trkpt lat="46.86778" lon="4.65091">
        <ele>238.47113037109</ele>
        <time>2021-05-23T08:13:53Z</time>
      </trkpt>
      <trkpt lat="46.8677" lon="4.65081">
        <ele>227.47082519531</ele>
        <time>2021-05-23T08:13:58Z</time>
      </trkpt>
      <trkpt lat="46.86776" lon="4.65073">
        <ele>235.47103881836</ele>
        <time>2021-05-23T08:14:39Z</time>
      </trkpt>
      <trkpt lat="46.86781" lon="4.65064">
        <ele>237.47123718262</ele>
        <time>2021-05-23T08:14:44Z</time>
      </trkpt>
      <trkpt lat="46.86777" lon="4.65055">
        <ele>235.47106933594</ele>
        <time>2021-05-23T08:14:49Z</time>
      </trkpt>
      <trkpt lat="46.86763" lon="4.65044">
        <ele>235.47050476074</ele>
        <time>2021-05-23T08:14:54Z</time>
      </trkpt>
      <trkpt lat="46.8675" lon="4.65038">
        <ele>237.47001647949</ele>
        <time>2021-05-23T08:14:58Z</time>
      </trkpt>
      <trkpt lat="46.86737" lon="4.65033">
        <ele>238.46946716309</ele>
        <time>2021-05-23T08:15:02Z</time>
      </trkpt>
      <trkpt lat="46.86723" lon="4.65028">
        <ele>239.46891784668</ele>
        <time>2021-05-23T08:15:06Z</time>
      </trkpt>
      <trkpt lat="46.8671" lon="4.65021">
        <ele>240.46841430664</ele>
        <time>2021-05-23T08:15:10Z</time>
      </trkpt>
      <trkpt lat="46.86699" lon="4.65011">
        <ele>241.46797180176</ele>
        <time>2021-05-23T08:15:14Z</time>
      </trkpt>
      <trkpt lat="46.86687" lon="4.65">
        <ele>240.46746826172</ele>
        <time>2021-05-23T08:15:19Z</time>
      </trkpt>
      <trkpt lat="46.86679" lon="4.6499">
        <ele>243.46714782715</ele>
        <time>2021-05-23T08:15:23Z</time>
      </trkpt>
      <trkpt lat="46.8667" lon="4.64981">
        <ele>243.466796875</ele>
        <time>2021-05-23T08:15:27Z</time>
      </trkpt>
      <trkpt lat="46.86662" lon="4.64967">
        <ele>244.46646118164</ele>
        <time>2021-05-23T08:15:31Z</time>
      </trkpt>
      <trkpt lat="46.86655" lon="4.64948">
        <ele>244.46621704102</ele>
        <time>2021-05-23T08:15:35Z</time>
      </trkpt>
      <trkpt lat="46.86649" lon="4.64923">
        <ele>242.4659576416</ele>
        <time>2021-05-23T08:15:39Z</time>
      </trkpt>
      <trkpt lat="46.86639" lon="4.64887">
        <ele>241.46556091309</ele>
        <time>2021-05-23T08:15:44Z</time>
      </trkpt>
      <trkpt lat="46.86627" lon="4.64865">
        <ele>242.46507263184</ele>
        <time>2021-05-23T08:15:48Z</time>
      </trkpt>
      <trkpt lat="46.86612" lon="4.6485">
        <ele>240.46447753906</ele>
        <time>2021-05-23T08:15:53Z</time>
      </trkpt>
      <trkpt lat="46.86619" lon="4.64817">
        <ele>243.46475219727</ele>
        <time>2021-05-23T08:15:58Z</time>
      </trkpt>
      <trkpt lat="46.86621" lon="4.64788">
        <ele>243.46484375</ele>
        <time>2021-05-23T08:16:02Z</time>
      </trkpt>
      <trkpt lat="46.86625" lon="4.64758">
        <ele>241.46501159668</ele>
        <time>2021-05-23T08:16:06Z</time>
      </trkpt>
      <trkpt lat="46.86631" lon="4.64718">
        <ele>239.46525573731</ele>
        <time>2021-05-23T08:16:11Z</time>
      </trkpt>
      <trkpt lat="46.86634" lon="4.6469">
        <ele>242.46537780762</ele>
        <time>2021-05-23T08:16:15Z</time>
      </trkpt>
      <trkpt lat="46.86638" lon="4.64667">
        <ele>241.46551513672</ele>
        <time>2021-05-23T08:16:19Z</time>
      </trkpt>
      <trkpt lat="46.86639" lon="4.64642">
        <ele>241.4655456543</ele>
        <time>2021-05-23T08:16:23Z</time>
      </trkpt>
      <trkpt lat="46.86636" lon="4.64623">
        <ele>242.46545410156</ele>
        <time>2021-05-23T08:16:27Z</time>
      </trkpt>
      <trkpt lat="46.86634" lon="4.64605">
        <ele>243.46534729004</ele>
        <time>2021-05-23T08:16:32Z</time>
      </trkpt>
      <trkpt lat="46.86629" lon="4.64593">
        <ele>242.46517944336</ele>
        <time>2021-05-23T08:16:36Z</time>
      </trkpt>
      <trkpt lat="46.86622" lon="4.64595">
        <ele>233.46488952637</ele>
        <time>2021-05-23T08:18:13Z</time>
      </trkpt>
      <trkpt lat="46.8661" lon="4.64598">
        <ele>232.46438598633</ele>
        <time>2021-05-23T08:18:17Z</time>
      </trkpt>
      <trkpt lat="46.86596" lon="4.64601">
        <ele>232.46383666992</ele>
        <time>2021-05-23T08:18:21Z</time>
      </trkpt>
      <trkpt lat="46.86578" lon="4.64604">
        <ele>232.46311950684</ele>
        <time>2021-05-23T08:18:26Z</time>
      </trkpt>
      <trkpt lat="46.86559" lon="4.64607">
        <ele>231.46235656738</ele>
        <time>2021-05-23T08:18:31Z</time>
      </trkpt>
      <trkpt lat="46.86538" lon="4.64611">
        <ele>230.46151733398</ele>
        <time>2021-05-23T08:18:35Z</time>
      </trkpt>
      <trkpt lat="46.86512" lon="4.64615">
        <ele>229.46046447754</ele>
        <time>2021-05-23T08:18:40Z</time>
      </trkpt>
      <trkpt lat="46.86494" lon="4.64617">
        <ele>228.45976257324</ele>
        <time>2021-05-23T08:18:44Z</time>
      </trkpt>
      <trkpt lat="46.86481" lon="4.64617">
        <ele>226.4592590332</ele>
        <time>2021-05-23T08:18:48Z</time>
      </trkpt>
      <trkpt lat="46.86464" lon="4.64622">
        <ele>225.45855712891</ele>
        <time>2021-05-23T08:18:53Z</time>
      </trkpt>
      <trkpt lat="46.86442" lon="4.64623">
        <ele>225.45767211914</ele>
        <time>2021-05-23T08:18:58Z</time>
      </trkpt>
      <trkpt lat="46.86417" lon="4.64622">
        <ele>226.45666503906</ele>
        <time>2021-05-23T08:19:03Z</time>
      </trkpt>
      <trkpt lat="46.86396" lon="4.64619">
        <ele>227.45582580566</ele>
        <time>2021-05-23T08:19:07Z</time>
      </trkpt>
      <trkpt lat="46.86372" lon="4.64612">
        <ele>228.45489501953</ele>
        <time>2021-05-23T08:19:11Z</time>
      </trkpt>
      <trkpt lat="46.86349" lon="4.64605">
        <ele>229.45397949219</ele>
        <time>2021-05-23T08:19:16Z</time>
      </trkpt>
      <trkpt lat="46.86326" lon="4.646">
        <ele>230.45304870606</ele>
        <time>2021-05-23T08:19:21Z</time>
      </trkpt>
      <trkpt lat="46.86311" lon="4.64594">
        <ele>233.4524230957</ele>
        <time>2021-05-23T08:19:25Z</time>
      </trkpt>
      <trkpt lat="46.86293" lon="4.64588">
        <ele>233.45173645019</ele>
        <time>2021-05-23T08:19:29Z</time>
      </trkpt>
      <trkpt lat="46.86271" lon="4.64579">
        <ele>232.45083618164</ele>
        <time>2021-05-23T08:19:34Z</time>
      </trkpt>
      <trkpt lat="46.86253" lon="4.64571">
        <ele>233.45011901856</ele>
        <time>2021-05-23T08:19:38Z</time>
      </trkpt>
      <trkpt lat="46.86228" lon="4.64561">
        <ele>232.44912719727</ele>
        <time>2021-05-23T08:19:43Z</time>
      </trkpt>
      <trkpt lat="46.86209" lon="4.64553">
        <ele>232.44834899902</ele>
        <time>2021-05-23T08:19:47Z</time>
      </trkpt>
      <trkpt lat="46.8619" lon="4.64544">
        <ele>232.44760131836</ele>
        <time>2021-05-23T08:19:51Z</time>
      </trkpt>
      <trkpt lat="46.86169" lon="4.64533">
        <ele>232.44677734375</ele>
        <time>2021-05-23T08:19:55Z</time>
      </trkpt>
      <trkpt lat="46.86143" lon="4.64518">
        <ele>232.44573974609</ele>
        <time>2021-05-23T08:20:00Z</time>
      </trkpt>
      <trkpt lat="46.86123" lon="4.64504">
        <ele>231.44493103027</ele>
        <time>2021-05-23T08:20:04Z</time>
      </trkpt>
      <trkpt lat="46.86103" lon="4.64493">
        <ele>233.44413757324</ele>
        <time>2021-05-23T08:20:08Z</time>
      </trkpt>
      <trkpt lat="46.86078" lon="4.64478">
        <ele>233.44311523438</ele>
        <time>2021-05-23T08:20:13Z</time>
      </trkpt>
      <trkpt lat="46.86059" lon="4.64465">
        <ele>235.44235229492</ele>
        <time>2021-05-23T08:20:17Z</time>
      </trkpt>
      <trkpt lat="46.86034" lon="4.64449">
        <ele>235.44137573242</ele>
        <time>2021-05-23T08:20:22Z</time>
      </trkpt>
      <trkpt lat="46.86012" lon="4.64435">
        <ele>235.44046020508</ele>
        <time>2021-05-23T08:20:27Z</time>
      </trkpt>
      <trkpt lat="46.85997" lon="4.64426">
        <ele>234.43988037109</ele>
        <time>2021-05-23T08:20:31Z</time>
      </trkpt>
      <trkpt lat="46.8598" lon="4.64417">
        <ele>233.43920898438</ele>
        <time>2021-05-23T08:20:35Z</time>
      </trkpt>
      <trkpt lat="46.85966" lon="4.64408">
        <ele>232.43865966797</ele>
        <time>2021-05-23T08:20:39Z</time>
      </trkpt>
      <trkpt lat="46.85949" lon="4.64398">
        <ele>232.43797302246</ele>
        <time>2021-05-23T08:20:44Z</time>
      </trkpt>
      <trkpt lat="46.85937" lon="4.6439">
        <ele>233.43746948242</ele>
        <time>2021-05-23T08:20:48Z</time>
      </trkpt>
      <trkpt lat="46.8592" lon="4.64378">
        <ele>233.43678283691</ele>
        <time>2021-05-23T08:20:53Z</time>
      </trkpt>
      <trkpt lat="46.85904" lon="4.6437">
        <ele>233.43618774414</ele>
        <time>2021-05-23T08:20:57Z</time>
      </trkpt>
      <trkpt lat="46.85886" lon="4.64361">
        <ele>233.43544006348</ele>
        <time>2021-05-23T08:21:02Z</time>
      </trkpt>
      <trkpt lat="46.85873" lon="4.64353">
        <ele>232.43490600586</ele>
        <time>2021-05-23T08:21:06Z</time>
      </trkpt>
      <trkpt lat="46.85859" lon="4.64345">
        <ele>231.43437194824</ele>
        <time>2021-05-23T08:21:10Z</time>
      </trkpt>
      <trkpt lat="46.85844" lon="4.64335">
        <ele>230.43377685547</ele>
        <time>2021-05-23T08:21:15Z</time>
      </trkpt>
      <trkpt lat="46.8583" lon="4.64325">
        <ele>230.43319702148</ele>
        <time>2021-05-23T08:21:20Z</time>
      </trkpt>
      <trkpt lat="46.85815" lon="4.64315">
        <ele>232.43258666992</ele>
        <time>2021-05-23T08:21:25Z</time>
      </trkpt>
      <trkpt lat="46.85801" lon="4.64302">
        <ele>233.43203735352</ele>
        <time>2021-05-23T08:21:30Z</time>
      </trkpt>
      <trkpt lat="46.85791" lon="4.64291">
        <ele>234.43162536621</ele>
        <time>2021-05-23T08:21:34Z</time>
      </trkpt>
      <trkpt lat="46.85782" lon="4.6428">
        <ele>234.43127441406</ele>
        <time>2021-05-23T08:21:38Z</time>
      </trkpt>
      <trkpt lat="46.8577" lon="4.64266">
        <ele>233.43081665039</ele>
        <time>2021-05-23T08:21:43Z</time>
      </trkpt>
      <trkpt lat="46.8576" lon="4.64253">
        <ele>232.43041992188</ele>
        <time>2021-05-23T08:21:47Z</time>
      </trkpt>
      <trkpt lat="46.85747" lon="4.64235">
        <ele>232.42988586426</ele>
        <time>2021-05-23T08:21:52Z</time>
      </trkpt>
      <trkpt lat="46.85733" lon="4.64217">
        <ele>232.42933654785</ele>
        <time>2021-05-23T08:21:57Z</time>
      </trkpt>
      <trkpt lat="46.8572" lon="4.64198">
        <ele>232.42880249023</ele>
        <time>2021-05-23T08:22:02Z</time>
      </trkpt>
      <trkpt lat="46.85709" lon="4.64184">
        <ele>232.42835998535</ele>
        <time>2021-05-23T08:22:06Z</time>
      </trkpt>
      <trkpt lat="46.85696" lon="4.64167">
        <ele>233.42784118652</ele>
        <time>2021-05-23T08:22:11Z</time>
      </trkpt>
      <trkpt lat="46.85683" lon="4.6415">
        <ele>232.42733764648</ele>
        <time>2021-05-23T08:22:16Z</time>
      </trkpt>
      <trkpt lat="46.85673" lon="4.64138">
        <ele>233.42694091797</ele>
        <time>2021-05-23T08:22:20Z</time>
      </trkpt>
      <trkpt lat="46.85664" lon="4.64125">
        <ele>232.42654418945</ele>
        <time>2021-05-23T08:22:24Z</time>
      </trkpt>
      <trkpt lat="46.85653" lon="4.64112">
        <ele>232.42613220215</ele>
        <time>2021-05-23T08:22:28Z</time>
      </trkpt>
      <trkpt lat="46.85641" lon="4.64096">
        <ele>233.42565917969</ele>
        <time>2021-05-23T08:22:33Z</time>
      </trkpt>
      <trkpt lat="46.8563" lon="4.64085">
        <ele>233.42520141602</ele>
        <time>2021-05-23T08:22:37Z</time>
      </trkpt>
      <trkpt lat="46.85616" lon="4.64075">
        <ele>233.42462158203</ele>
        <time>2021-05-23T08:22:41Z</time>
      </trkpt>
      <trkpt lat="46.85599" lon="4.64058">
        <ele>233.4239654541</ele>
        <time>2021-05-23T08:22:46Z</time>
      </trkpt>
      <trkpt lat="46.85584" lon="4.64037">
        <ele>232.42337036133</ele>
        <time>2021-05-23T08:22:51Z</time>
      </trkpt>
      <trkpt lat="46.85572" lon="4.64023">
        <ele>233.42289733887</ele>
        <time>2021-05-23T08:22:55Z</time>
      </trkpt>
      <trkpt lat="46.85559" lon="4.64013">
        <ele>233.42236328125</ele>
        <time>2021-05-23T08:22:59Z</time>
      </trkpt>
      <trkpt lat="46.8555" lon="4.64005">
        <ele>232.42196655273</ele>
        <time>2021-05-23T08:23:03Z</time>
      </trkpt>
      <trkpt lat="46.85535" lon="4.63993">
        <ele>233.42138671875</ele>
        <time>2021-05-23T08:23:07Z</time>
      </trkpt>
      <trkpt lat="46.85521" lon="4.63982">
        <ele>232.42082214356</ele>
        <time>2021-05-23T08:23:12Z</time>
      </trkpt>
      <trkpt lat="46.85506" lon="4.63971">
        <ele>231.42025756836</ele>
        <time>2021-05-23T08:23:17Z</time>
      </trkpt>
      <trkpt lat="46.85495" lon="4.63964">
        <ele>232.4197845459</ele>
        <time>2021-05-23T08:23:21Z</time>
      </trkpt>
      <trkpt lat="46.85478" lon="4.63955">
        <ele>233.41911315918</ele>
        <time>2021-05-23T08:23:26Z</time>
      </trkpt>
      <trkpt lat="46.85463" lon="4.6395">
        <ele>234.41851806641</ele>
        <time>2021-05-23T08:23:30Z</time>
      </trkpt>
      <trkpt lat="46.85444" lon="4.63946">
        <ele>233.41775512695</ele>
        <time>2021-05-23T08:23:35Z</time>
      </trkpt>
      <trkpt lat="46.85428" lon="4.63942">
        <ele>233.41711425781</ele>
        <time>2021-05-23T08:23:39Z</time>
      </trkpt>
      <trkpt lat="46.85408" lon="4.63938">
        <ele>233.41630554199</ele>
        <time>2021-05-23T08:23:44Z</time>
      </trkpt>
      <trkpt lat="46.85392" lon="4.63934">
        <ele>233.41566467285</ele>
        <time>2021-05-23T08:23:48Z</time>
      </trkpt>
      <trkpt lat="46.85372" lon="4.63929">
        <ele>235.41488647461</ele>
        <time>2021-05-23T08:23:53Z</time>
      </trkpt>
      <trkpt lat="46.85356" lon="4.63926">
        <ele>236.41424560547</ele>
        <time>2021-05-23T08:23:57Z</time>
      </trkpt>
      <trkpt lat="46.8534" lon="4.63923">
        <ele>237.41361999512</ele>
        <time>2021-05-23T08:24:01Z</time>
      </trkpt>
      <trkpt lat="46.85325" lon="4.63919">
        <ele>237.41299438477</ele>
        <time>2021-05-23T08:24:05Z</time>
      </trkpt>
      <trkpt lat="46.85306" lon="4.63913">
        <ele>236.4122467041</ele>
        <time>2021-05-23T08:24:10Z</time>
      </trkpt>
      <trkpt lat="46.85292" lon="4.63908">
        <ele>235.41166687012</ele>
        <time>2021-05-23T08:24:14Z</time>
      </trkpt>
      <trkpt lat="46.85274" lon="4.63906">
        <ele>237.41094970703</ele>
        <time>2021-05-23T08:24:19Z</time>
      </trkpt>
      <trkpt lat="46.8526" lon="4.63902">
        <ele>237.41041564941</ele>
        <time>2021-05-23T08:24:23Z</time>
      </trkpt>
      <trkpt lat="46.85247" lon="4.63893">
        <ele>237.4098815918</ele>
        <time>2021-05-23T08:24:27Z</time>
      </trkpt>
      <trkpt lat="46.85233" lon="4.63885">
        <ele>237.40930175781</ele>
        <time>2021-05-23T08:24:31Z</time>
      </trkpt>
      <trkpt lat="46.85215" lon="4.63875">
        <ele>238.40858459473</ele>
        <time>2021-05-23T08:24:36Z</time>
      </trkpt>
      <trkpt lat="46.85201" lon="4.63864">
        <ele>238.40802001953</ele>
        <time>2021-05-23T08:24:40Z</time>
      </trkpt>
      <trkpt lat="46.85182" lon="4.63851">
        <ele>237.40728759766</ele>
        <time>2021-05-23T08:24:45Z</time>
      </trkpt>
      <trkpt lat="46.85168" lon="4.63843">
        <ele>236.40672302246</ele>
        <time>2021-05-23T08:24:49Z</time>
      </trkpt>
      <trkpt lat="46.8515" lon="4.63831">
        <ele>237.40599060059</ele>
        <time>2021-05-23T08:24:54Z</time>
      </trkpt>
      <trkpt lat="46.85131" lon="4.63819">
        <ele>238.40524291992</ele>
        <time>2021-05-23T08:24:59Z</time>
      </trkpt>
      <trkpt lat="46.85113" lon="4.63805">
        <ele>237.40452575684</ele>
        <time>2021-05-23T08:25:04Z</time>
      </trkpt>
      <trkpt lat="46.85098" lon="4.63795">
        <ele>238.40393066406</ele>
        <time>2021-05-23T08:25:08Z</time>
      </trkpt>
      <trkpt lat="46.85084" lon="4.63786">
        <ele>238.40335083008</ele>
        <time>2021-05-23T08:25:12Z</time>
      </trkpt>
      <trkpt lat="46.85067" lon="4.63774">
        <ele>236.40266418457</ele>
        <time>2021-05-23T08:25:17Z</time>
      </trkpt>
      <trkpt lat="46.85049" lon="4.63762">
        <ele>235.40194702148</ele>
        <time>2021-05-23T08:25:22Z</time>
      </trkpt>
      <trkpt lat="46.85034" lon="4.63752">
        <ele>235.4013671875</ele>
        <time>2021-05-23T08:25:26Z</time>
      </trkpt>
      <trkpt lat="46.85016" lon="4.63743">
        <ele>235.40063476562</ele>
        <time>2021-05-23T08:25:31Z</time>
      </trkpt>
      <trkpt lat="46.84998" lon="4.63733">
        <ele>234.39993286133</ele>
        <time>2021-05-23T08:25:36Z</time>
      </trkpt>
      <trkpt lat="46.84985" lon="4.63723">
        <ele>234.39936828613</ele>
        <time>2021-05-23T08:25:40Z</time>
      </trkpt>
      <trkpt lat="46.8497" lon="4.63715">
        <ele>233.39880371094</ele>
        <time>2021-05-23T08:25:44Z</time>
      </trkpt>
      <trkpt lat="46.84952" lon="4.63705">
        <ele>232.39808654785</ele>
        <time>2021-05-23T08:25:49Z</time>
      </trkpt>
      <trkpt lat="46.84938" lon="4.63696">
        <ele>232.39750671387</ele>
        <time>2021-05-23T08:25:53Z</time>
      </trkpt>
      <trkpt lat="46.84921" lon="4.63684">
        <ele>233.39683532715</ele>
        <time>2021-05-23T08:25:58Z</time>
      </trkpt>
      <trkpt lat="46.84908" lon="4.63673">
        <ele>233.39630126953</ele>
        <time>2021-05-23T08:26:02Z</time>
      </trkpt>
      <trkpt lat="46.84893" lon="4.63655">
        <ele>236.39573669434</ele>
        <time>2021-05-23T08:26:07Z</time>
      </trkpt>
      <trkpt lat="46.84879" lon="4.63635">
        <ele>238.39514160156</ele>
        <time>2021-05-23T08:26:12Z</time>
      </trkpt>
      <trkpt lat="46.84866" lon="4.63612">
        <ele>235.39462280273</ele>
        <time>2021-05-23T08:26:17Z</time>
      </trkpt>
      <trkpt lat="46.84854" lon="4.63596">
        <ele>237.39416503906</ele>
        <time>2021-05-23T08:26:21Z</time>
      </trkpt>
      <trkpt lat="46.84841" lon="4.63583">
        <ele>240.39364624023</ele>
        <time>2021-05-23T08:26:25Z</time>
      </trkpt>
      <trkpt lat="46.84828" lon="4.63569">
        <ele>242.39311218262</ele>
        <time>2021-05-23T08:26:29Z</time>
      </trkpt>
      <trkpt lat="46.84815" lon="4.63555">
        <ele>240.39259338379</ele>
        <time>2021-05-23T08:26:33Z</time>
      </trkpt>
      <trkpt lat="46.84801" lon="4.63542">
        <ele>242.39204406738</ele>
        <time>2021-05-23T08:26:37Z</time>
      </trkpt>
      <trkpt lat="46.84789" lon="4.63527">
        <ele>243.39157104492</ele>
        <time>2021-05-23T08:26:41Z</time>
      </trkpt>
      <trkpt lat="46.84779" lon="4.63513">
        <ele>243.39114379883</ele>
        <time>2021-05-23T08:26:45Z</time>
      </trkpt>
      <trkpt lat="46.84762" lon="4.63495">
        <ele>242.3904876709</ele>
        <time>2021-05-23T08:26:50Z</time>
      </trkpt>
      <trkpt lat="46.84748" lon="4.63481">
        <ele>241.38993835449</ele>
        <time>2021-05-23T08:26:54Z</time>
      </trkpt>
      <trkpt lat="46.84735" lon="4.63467">
        <ele>241.38940429688</ele>
        <time>2021-05-23T08:26:58Z</time>
      </trkpt>
      <trkpt lat="46.84718" lon="4.6345">
        <ele>241.38870239258</ele>
        <time>2021-05-23T08:27:03Z</time>
      </trkpt>
      <trkpt lat="46.84701" lon="4.63433">
        <ele>242.38804626465</ele>
        <time>2021-05-23T08:27:08Z</time>
      </trkpt>
      <trkpt lat="46.84688" lon="4.63419">
        <ele>238.38752746582</ele>
        <time>2021-05-23T08:27:12Z</time>
      </trkpt>
      <trkpt lat="46.84673" lon="4.63404">
        <ele>239.38691711426</ele>
        <time>2021-05-23T08:27:17Z</time>
      </trkpt>
      <trkpt lat="46.84665" lon="4.63391">
        <ele>240.38659667969</ele>
        <time>2021-05-23T08:27:21Z</time>
      </trkpt>
      <trkpt lat="46.8467" lon="4.63374">
        <ele>242.38679504394</ele>
        <time>2021-05-23T08:27:25Z</time>
      </trkpt>
      <trkpt lat="46.84662" lon="4.63378">
        <ele>243.38648986816</ele>
        <time>2021-05-23T08:27:40Z</time>
      </trkpt>
      <trkpt lat="46.84657" lon="4.63386">
        <ele>242.38626098633</ele>
        <time>2021-05-23T08:27:44Z</time>
      </trkpt>
      <trkpt lat="46.84651" lon="4.634">
        <ele>241.38604736328</ele>
        <time>2021-05-23T08:27:48Z</time>
      </trkpt>
      <trkpt lat="46.84642" lon="4.63415">
        <ele>239.38571166992</ele>
        <time>2021-05-23T08:27:52Z</time>
      </trkpt>
      <trkpt lat="46.84631" lon="4.63436">
        <ele>238.38523864746</ele>
        <time>2021-05-23T08:27:56Z</time>
      </trkpt>
      <trkpt lat="46.84616" lon="4.63464">
        <ele>237.38464355469</ele>
        <time>2021-05-23T08:28:01Z</time>
      </trkpt>
      <trkpt lat="46.84597" lon="4.6348">
        <ele>238.38389587402</ele>
        <time>2021-05-23T08:28:06Z</time>
      </trkpt>
      <trkpt lat="46.84591" lon="4.63462">
        <ele>239.38362121582</ele>
        <time>2021-05-23T08:28:10Z</time>
      </trkpt>
      <trkpt lat="46.84596" lon="4.6344">
        <ele>240.38383483887</ele>
        <time>2021-05-23T08:28:14Z</time>
      </trkpt>
      <trkpt lat="46.84586" lon="4.63417">
        <ele>239.38343811035</ele>
        <time>2021-05-23T08:28:18Z</time>
      </trkpt>
      <trkpt lat="46.84572" lon="4.63401">
        <ele>238.38288879394</ele>
        <time>2021-05-23T08:28:22Z</time>
      </trkpt>
      <trkpt lat="46.84559" lon="4.63376">
        <ele>239.38235473633</ele>
        <time>2021-05-23T08:28:27Z</time>
      </trkpt>
      <trkpt lat="46.84546" lon="4.63359">
        <ele>241.3818359375</ele>
        <time>2021-05-23T08:28:31Z</time>
      </trkpt>
      <trkpt lat="46.84533" lon="4.63343">
        <ele>242.38131713867</ele>
        <time>2021-05-23T08:28:35Z</time>
      </trkpt>
      <trkpt lat="46.8452" lon="4.63327">
        <ele>241.38079833984</ele>
        <time>2021-05-23T08:28:39Z</time>
      </trkpt>
      <trkpt lat="46.84513" lon="4.6332">
        <ele>239.38053894043</ele>
        <time>2021-05-23T08:28:44Z</time>
      </trkpt>
      <trkpt lat="46.84521" lon="4.63327">
        <ele>243.38082885742</ele>
        <time>2021-05-23T08:28:52Z</time>
      </trkpt>
      <trkpt lat="46.84534" lon="4.63338">
        <ele>244.38137817383</ele>
        <time>2021-05-23T08:28:56Z</time>
      </trkpt>
      <trkpt lat="46.84528" lon="4.63339">
        <ele>242.38110351562</ele>
        <time>2021-05-23T08:29:03Z</time>
      </trkpt>
      <trkpt lat="46.84512" lon="4.63316">
        <ele>240.38046264648</ele>
        <time>2021-05-23T08:29:08Z</time>
      </trkpt>
      <trkpt lat="46.84493" lon="4.63294">
        <ele>237.37973022461</ele>
        <time>2021-05-23T08:29:12Z</time>
      </trkpt>
      <trkpt lat="46.84477" lon="4.63271">
        <ele>238.37908935547</ele>
        <time>2021-05-23T08:29:16Z</time>
      </trkpt>
      <trkpt lat="46.84467" lon="4.6323">
        <ele>235.37867736816</ele>
        <time>2021-05-23T08:29:21Z</time>
      </trkpt>
      <trkpt lat="46.84466" lon="4.63181">
        <ele>234.3786315918</ele>
        <time>2021-05-23T08:29:26Z</time>
      </trkpt>
      <trkpt lat="46.84446" lon="4.63155">
        <ele>237.37785339356</ele>
        <time>2021-05-23T08:29:30Z</time>
      </trkpt>
      <trkpt lat="46.84425" lon="4.6312">
        <ele>236.37699890137</ele>
        <time>2021-05-23T08:29:35Z</time>
      </trkpt>
      <trkpt lat="46.84407" lon="4.63086">
        <ele>236.37626647949</ele>
        <time>2021-05-23T08:29:40Z</time>
      </trkpt>
      <trkpt lat="46.84399" lon="4.63066">
        <ele>236.37594604492</ele>
        <time>2021-05-23T08:29:44Z</time>
      </trkpt>
      <trkpt lat="46.84389" lon="4.63042">
        <ele>237.37557983398</ele>
        <time>2021-05-23T08:29:49Z</time>
      </trkpt>
      <trkpt lat="46.84382" lon="4.63023">
        <ele>238.3752746582</ele>
        <time>2021-05-23T08:29:53Z</time>
      </trkpt>
      <trkpt lat="46.84374" lon="4.63001">
        <ele>239.37496948242</ele>
        <time>2021-05-23T08:29:58Z</time>
      </trkpt>
      <trkpt lat="46.8437" lon="4.62983">
        <ele>240.37480163574</ele>
        <time>2021-05-23T08:30:02Z</time>
      </trkpt>
      <trkpt lat="46.8436" lon="4.6296">
        <ele>240.37440490723</ele>
        <time>2021-05-23T08:30:07Z</time>
      </trkpt>
      <trkpt lat="46.84351" lon="4.62941">
        <ele>238.3740234375</ele>
        <time>2021-05-23T08:30:11Z</time>
      </trkpt>
      <trkpt lat="46.84342" lon="4.62921">
        <ele>237.37367248535</ele>
        <time>2021-05-23T08:30:15Z</time>
      </trkpt>
      <trkpt lat="46.84333" lon="4.62902">
        <ele>238.37333679199</ele>
        <time>2021-05-23T08:30:19Z</time>
      </trkpt>
      <trkpt lat="46.84323" lon="4.62877">
        <ele>238.3729095459</ele>
        <time>2021-05-23T08:30:24Z</time>
      </trkpt>
      <trkpt lat="46.84314" lon="4.62856">
        <ele>238.37257385254</ele>
        <time>2021-05-23T08:30:28Z</time>
      </trkpt>
      <trkpt lat="46.84306" lon="4.62836">
        <ele>236.37223815918</ele>
        <time>2021-05-23T08:30:32Z</time>
      </trkpt>
      <trkpt lat="46.84297" lon="4.62816">
        <ele>237.37187194824</ele>
        <time>2021-05-23T08:30:36Z</time>
      </trkpt>
      <trkpt lat="46.84286" lon="4.62799">
        <ele>236.37144470215</ele>
        <time>2021-05-23T08:30:40Z</time>
      </trkpt>
      <trkpt lat="46.84277" lon="4.6278">
        <ele>235.37104797363</ele>
        <time>2021-05-23T08:30:44Z</time>
      </trkpt>
      <trkpt lat="46.84265" lon="4.62754">
        <ele>235.37059020996</ele>
        <time>2021-05-23T08:30:49Z</time>
      </trkpt>
      <trkpt lat="46.84254" lon="4.62732">
        <ele>234.37017822266</ele>
        <time>2021-05-23T08:30:53Z</time>
      </trkpt>
      <trkpt lat="46.84243" lon="4.62712">
        <ele>234.36970520019</ele>
        <time>2021-05-23T08:30:57Z</time>
      </trkpt>
      <trkpt lat="46.84231" lon="4.62691">
        <ele>234.36923217773</ele>
        <time>2021-05-23T08:31:01Z</time>
      </trkpt>
      <trkpt lat="46.84218" lon="4.62672">
        <ele>234.36871337891</ele>
        <time>2021-05-23T08:31:05Z</time>
      </trkpt>
      <trkpt lat="46.84201" lon="4.62645">
        <ele>230.36805725098</ele>
        <time>2021-05-23T08:31:10Z</time>
      </trkpt>
      <trkpt lat="46.84189" lon="4.62624">
        <ele>230.36755371094</ele>
        <time>2021-05-23T08:31:14Z</time>
      </trkpt>
      <trkpt lat="46.84177" lon="4.62602">
        <ele>230.36708068848</ele>
        <time>2021-05-23T08:31:18Z</time>
      </trkpt>
      <trkpt lat="46.84164" lon="4.6258">
        <ele>230.36656188965</ele>
        <time>2021-05-23T08:31:22Z</time>
      </trkpt>
      <trkpt lat="46.8415" lon="4.62553">
        <ele>231.36598205566</ele>
        <time>2021-05-23T08:31:27Z</time>
      </trkpt>
      <trkpt lat="46.84137" lon="4.62534">
        <ele>231.36547851562</ele>
        <time>2021-05-23T08:31:31Z</time>
      </trkpt>
      <trkpt lat="46.84126" lon="4.62511">
        <ele>231.36502075195</ele>
        <time>2021-05-23T08:31:35Z</time>
      </trkpt>
      <trkpt lat="46.84114" lon="4.62481">
        <ele>229.36457824707</ele>
        <time>2021-05-23T08:31:40Z</time>
      </trkpt>
      <trkpt lat="46.84104" lon="4.62454">
        <ele>230.36416625977</ele>
        <time>2021-05-23T08:31:45Z</time>
      </trkpt>
      <trkpt lat="46.84097" lon="4.62432">
        <ele>232.36387634277</ele>
        <time>2021-05-23T08:31:49Z</time>
      </trkpt>
      <trkpt lat="46.8409" lon="4.62411">
        <ele>232.36358642578</ele>
        <time>2021-05-23T08:31:53Z</time>
      </trkpt>
      <trkpt lat="46.84082" lon="4.6239">
        <ele>233.36328125</ele>
        <time>2021-05-23T08:31:57Z</time>
      </trkpt>
      <trkpt lat="46.84074" lon="4.62368">
        <ele>234.36296081543</ele>
        <time>2021-05-23T08:32:01Z</time>
      </trkpt>
      <trkpt lat="46.84066" lon="4.62342">
        <ele>237.36262512207</ele>
        <time>2021-05-23T08:32:06Z</time>
      </trkpt>
      <trkpt lat="46.84057" lon="4.62317">
        <ele>237.36228942871</ele>
        <time>2021-05-23T08:32:11Z</time>
      </trkpt>
      <trkpt lat="46.84048" lon="4.62296">
        <ele>237.36193847656</ele>
        <time>2021-05-23T08:32:15Z</time>
      </trkpt>
      <trkpt lat="46.84036" lon="4.62275">
        <ele>235.36143493652</ele>
        <time>2021-05-23T08:32:19Z</time>
      </trkpt>
      <trkpt lat="46.84021" lon="4.62252">
        <ele>236.36085510254</ele>
        <time>2021-05-23T08:32:24Z</time>
      </trkpt>
      <trkpt lat="46.84015" lon="4.6223">
        <ele>236.36061096191</ele>
        <time>2021-05-23T08:32:28Z</time>
      </trkpt>
      <trkpt lat="46.84011" lon="4.622">
        <ele>237.36045837402</ele>
        <time>2021-05-23T08:32:33Z</time>
      </trkpt>
      <trkpt lat="46.84004" lon="4.62172">
        <ele>237.36015319824</ele>
        <time>2021-05-23T08:32:37Z</time>
      </trkpt>
      <trkpt lat="46.83996" lon="4.62147">
        <ele>239.35983276367</ele>
        <time>2021-05-23T08:32:41Z</time>
      </trkpt>
      <trkpt lat="46.83987" lon="4.62117">
        <ele>239.35949707031</ele>
        <time>2021-05-23T08:32:46Z</time>
      </trkpt>
      <trkpt lat="46.83979" lon="4.62093">
        <ele>240.35917663574</ele>
        <time>2021-05-23T08:32:50Z</time>
      </trkpt>
      <trkpt lat="46.83972" lon="4.62072">
        <ele>239.35888671875</ele>
        <time>2021-05-23T08:32:54Z</time>
      </trkpt>
      <trkpt lat="46.83963" lon="4.62049">
        <ele>238.35850524902</ele>
        <time>2021-05-23T08:32:59Z</time>
      </trkpt>
      <trkpt lat="46.83953" lon="4.62027">
        <ele>239.35813903809</ele>
        <time>2021-05-23T08:33:03Z</time>
      </trkpt>
      <trkpt lat="46.83939" lon="4.62002">
        <ele>239.3575592041</ele>
        <time>2021-05-23T08:33:08Z</time>
      </trkpt>
      <trkpt lat="46.83923" lon="4.61984">
        <ele>236.35690307617</ele>
        <time>2021-05-23T08:33:12Z</time>
      </trkpt>
      <trkpt lat="46.83902" lon="4.61971">
        <ele>238.35607910156</ele>
        <time>2021-05-23T08:33:16Z</time>
      </trkpt>
      <trkpt lat="46.8388" lon="4.61951">
        <ele>240.3551940918</ele>
        <time>2021-05-23T08:33:21Z</time>
      </trkpt>
      <trkpt lat="46.83861" lon="4.61941">
        <ele>239.35444641113</ele>
        <time>2021-05-23T08:33:25Z</time>
      </trkpt>
      <trkpt lat="46.83841" lon="4.61935">
        <ele>238.35362243652</ele>
        <time>2021-05-23T08:33:30Z</time>
      </trkpt>
      <trkpt lat="46.8382" lon="4.61935">
        <ele>238.3528137207</ele>
        <time>2021-05-23T08:33:35Z</time>
      </trkpt>
      <trkpt lat="46.83802" lon="4.61937">
        <ele>236.35208129883</ele>
        <time>2021-05-23T08:33:39Z</time>
      </trkpt>
      <trkpt lat="46.83781" lon="4.61945">
        <ele>235.35124206543</ele>
        <time>2021-05-23T08:33:44Z</time>
      </trkpt>
      <trkpt lat="46.83766" lon="4.61954">
        <ele>235.35063171387</ele>
        <time>2021-05-23T08:33:48Z</time>
      </trkpt>
      <trkpt lat="46.83752" lon="4.61965">
        <ele>237.35008239746</ele>
        <time>2021-05-23T08:33:52Z</time>
      </trkpt>
      <trkpt lat="46.83736" lon="4.61984">
        <ele>236.34945678711</ele>
        <time>2021-05-23T08:33:57Z</time>
      </trkpt>
      <trkpt lat="46.83726" lon="4.62008">
        <ele>237.34904479981</ele>
        <time>2021-05-23T08:34:02Z</time>
      </trkpt>
      <trkpt lat="46.83718" lon="4.62023">
        <ele>237.34872436523</ele>
        <time>2021-05-23T08:34:06Z</time>
      </trkpt>
      <trkpt lat="46.83706" lon="4.62037">
        <ele>239.34825134277</ele>
        <time>2021-05-23T08:34:11Z</time>
      </trkpt>
      <trkpt lat="46.83694" lon="4.62038">
        <ele>239.34776306152</ele>
        <time>2021-05-23T08:34:15Z</time>
      </trkpt>
      <trkpt lat="46.83686" lon="4.62037">
        <ele>240.34744262695</ele>
        <time>2021-05-23T08:34:20Z</time>
      </trkpt>
      <trkpt lat="46.83672" lon="4.62041">
        <ele>239.34686279297</ele>
        <time>2021-05-23T08:34:25Z</time>
      </trkpt>
      <trkpt lat="46.83659" lon="4.62044">
        <ele>239.34634399414</ele>
        <time>2021-05-23T08:34:29Z</time>
      </trkpt>
      <trkpt lat="46.83641" lon="4.62045">
        <ele>239.34567260742</ele>
        <time>2021-05-23T08:34:33Z</time>
      </trkpt>
      <trkpt lat="46.83628" lon="4.62045">
        <ele>242.34512329102</ele>
        <time>2021-05-23T08:34:37Z</time>
      </trkpt>
      <trkpt lat="46.83601" lon="4.62043">
        <ele>243.34403991699</ele>
        <time>2021-05-23T08:34:42Z</time>
      </trkpt>
      <trkpt lat="46.83577" lon="4.62048">
        <ele>243.34306335449</ele>
        <time>2021-05-23T08:34:47Z</time>
      </trkpt>
      <trkpt lat="46.83572" lon="4.62048">
        <ele>243.34288024902</ele>
        <time>2021-05-23T08:34:48Z</time>
      </trkpt>
      <trkpt lat="46.83567" lon="4.62049">
        <ele>243.34266662598</ele>
        <time>2021-05-23T08:34:54Z</time>
      </trkpt>
      <trkpt lat="46.83515" lon="4.62025">
        <ele>239.34059143066</ele>
        <time>2021-05-23T08:34:58Z</time>
      </trkpt>
      <trkpt lat="46.83498" lon="4.62015">
        <ele>242.33993530273</ele>
        <time>2021-05-23T08:35:02Z</time>
      </trkpt>
      <trkpt lat="46.8348" lon="4.62003">
        <ele>241.33918762207</ele>
        <time>2021-05-23T08:35:06Z</time>
      </trkpt>
      <trkpt lat="46.83466" lon="4.61989">
        <ele>240.33863830566</ele>
        <time>2021-05-23T08:35:10Z</time>
      </trkpt>
      <trkpt lat="46.83452" lon="4.61975">
        <ele>240.33808898926</ele>
        <time>2021-05-23T08:35:14Z</time>
      </trkpt>
      <trkpt lat="46.83436" lon="4.61956">
        <ele>237.33744812012</ele>
        <time>2021-05-23T08:35:19Z</time>
      </trkpt>
      <trkpt lat="46.83424" lon="4.61939">
        <ele>236.33694458008</ele>
        <time>2021-05-23T08:35:23Z</time>
      </trkpt>
      <trkpt lat="46.83407" lon="4.61918">
        <ele>236.33630371094</ele>
        <time>2021-05-23T08:35:28Z</time>
      </trkpt>
      <trkpt lat="46.83394" lon="4.61901">
        <ele>236.33576965332</ele>
        <time>2021-05-23T08:35:32Z</time>
      </trkpt>
      <trkpt lat="46.83378" lon="4.6188">
        <ele>236.33511352539</ele>
        <time>2021-05-23T08:35:37Z</time>
      </trkpt>
      <trkpt lat="46.83367" lon="4.61863">
        <ele>236.33467102051</ele>
        <time>2021-05-23T08:35:41Z</time>
      </trkpt>
      <trkpt lat="46.83353" lon="4.61838">
        <ele>235.33410644531</ele>
        <time>2021-05-23T08:35:46Z</time>
      </trkpt>
      <trkpt lat="46.83343" lon="4.61816">
        <ele>235.3337097168</ele>
        <time>2021-05-23T08:35:50Z</time>
      </trkpt>
      <trkpt lat="46.83333" lon="4.61796">
        <ele>234.33332824707</ele>
        <time>2021-05-23T08:35:54Z</time>
      </trkpt>
      <trkpt lat="46.83322" lon="4.61772">
        <ele>234.33288574219</ele>
        <time>2021-05-23T08:35:58Z</time>
      </trkpt>
      <trkpt lat="46.83311" lon="4.61747">
        <ele>234.33244323731</ele>
        <time>2021-05-23T08:36:02Z</time>
      </trkpt>
      <trkpt lat="46.833" lon="4.61723">
        <ele>234.33200073242</ele>
        <time>2021-05-23T08:36:06Z</time>
      </trkpt>
      <trkpt lat="46.83285" lon="4.61695">
        <ele>235.33140563965</ele>
        <time>2021-05-23T08:36:11Z</time>
      </trkpt>
      <trkpt lat="46.83274" lon="4.61676">
        <ele>234.33094787598</ele>
        <time>2021-05-23T08:36:15Z</time>
      </trkpt>
      <trkpt lat="46.8326" lon="4.61658">
        <ele>233.33041381836</ele>
        <time>2021-05-23T08:36:20Z</time>
      </trkpt>
      <trkpt lat="46.83247" lon="4.61633">
        <ele>231.32987976074</ele>
        <time>2021-05-23T08:36:24Z</time>
      </trkpt>
      <trkpt lat="46.83236" lon="4.61615">
        <ele>231.32943725586</ele>
        <time>2021-05-23T08:36:28Z</time>
      </trkpt>
      <trkpt lat="46.83222" lon="4.61586">
        <ele>232.32888793945</ele>
        <time>2021-05-23T08:36:33Z</time>
      </trkpt>
      <trkpt lat="46.83215" lon="4.61562">
        <ele>234.32859802246</ele>
        <time>2021-05-23T08:36:37Z</time>
      </trkpt>
      <trkpt lat="46.83208" lon="4.61536">
        <ele>234.32833862305</ele>
        <time>2021-05-23T08:36:41Z</time>
      </trkpt>
      <trkpt lat="46.832" lon="4.61511">
        <ele>236.32801818848</ele>
        <time>2021-05-23T08:36:45Z</time>
      </trkpt>
      <trkpt lat="46.8319" lon="4.61481">
        <ele>237.32760620117</ele>
        <time>2021-05-23T08:36:50Z</time>
      </trkpt>
      <trkpt lat="46.8318" lon="4.61451">
        <ele>236.32719421387</ele>
        <time>2021-05-23T08:36:55Z</time>
      </trkpt>
      <trkpt lat="46.83171" lon="4.61419">
        <ele>237.32685852051</ele>
        <time>2021-05-23T08:37:00Z</time>
      </trkpt>
      <trkpt lat="46.83165" lon="4.61393">
        <ele>237.32658386231</ele>
        <time>2021-05-23T08:37:04Z</time>
      </trkpt>
      <trkpt lat="46.83158" lon="4.61366">
        <ele>238.32633972168</ele>
        <time>2021-05-23T08:37:08Z</time>
      </trkpt>
      <trkpt lat="46.83151" lon="4.61344">
        <ele>237.32604980469</ele>
        <time>2021-05-23T08:37:13Z</time>
      </trkpt>
      <trkpt lat="46.83142" lon="4.61311">
        <ele>239.32568359375</ele>
        <time>2021-05-23T08:37:17Z</time>
      </trkpt>
      <trkpt lat="46.83133" lon="4.61282">
        <ele>239.32531738281</ele>
        <time>2021-05-23T08:37:22Z</time>
      </trkpt>
      <trkpt lat="46.83126" lon="4.61259">
        <ele>240.32504272461</ele>
        <time>2021-05-23T08:37:26Z</time>
      </trkpt>
      <trkpt lat="46.83118" lon="4.61233">
        <ele>241.32473754883</ele>
        <time>2021-05-23T08:37:30Z</time>
      </trkpt>
      <trkpt lat="46.83109" lon="4.61207">
        <ele>240.32437133789</ele>
        <time>2021-05-23T08:37:35Z</time>
      </trkpt>
      <trkpt lat="46.83099" lon="4.6118">
        <ele>237.32395935059</ele>
        <time>2021-05-23T08:37:40Z</time>
      </trkpt>
      <trkpt lat="46.83092" lon="4.61157">
        <ele>235.32366943359</ele>
        <time>2021-05-23T08:37:44Z</time>
      </trkpt>
      <trkpt lat="46.83082" lon="4.61127">
        <ele>236.32327270508</ele>
        <time>2021-05-23T08:37:49Z</time>
      </trkpt>
      <trkpt lat="46.83073" lon="4.61099">
        <ele>237.32292175293</ele>
        <time>2021-05-23T08:37:54Z</time>
      </trkpt>
      <trkpt lat="46.83062" lon="4.61072">
        <ele>236.32249450684</ele>
        <time>2021-05-23T08:37:59Z</time>
      </trkpt>
      <trkpt lat="46.83051" lon="4.61045">
        <ele>235.32203674316</ele>
        <time>2021-05-23T08:38:04Z</time>
      </trkpt>
      <trkpt lat="46.83037" lon="4.61026">
        <ele>236.32148742676</ele>
        <time>2021-05-23T08:38:08Z</time>
      </trkpt>
      <trkpt lat="46.83022" lon="4.61012">
        <ele>236.32089233398</ele>
        <time>2021-05-23T08:38:12Z</time>
      </trkpt>
      <trkpt lat="46.83009" lon="4.60999">
        <ele>238.32035827637</ele>
        <time>2021-05-23T08:38:16Z</time>
      </trkpt>
      <trkpt lat="46.82995" lon="4.6099">
        <ele>239.31980895996</ele>
        <time>2021-05-23T08:38:20Z</time>
      </trkpt>
      <trkpt lat="46.82981" lon="4.60987">
        <ele>240.31925964356</ele>
        <time>2021-05-23T08:38:24Z</time>
      </trkpt>
      <trkpt lat="46.82963" lon="4.60987">
        <ele>241.31851196289</ele>
        <time>2021-05-23T08:38:29Z</time>
      </trkpt>
      <trkpt lat="46.82952" lon="4.60986">
        <ele>241.31806945801</ele>
        <time>2021-05-23T08:38:33Z</time>
      </trkpt>
      <trkpt lat="46.82939" lon="4.60972">
        <ele>241.31756591797</ele>
        <time>2021-05-23T08:38:38Z</time>
      </trkpt>
      <trkpt lat="46.82935" lon="4.60949">
        <ele>243.31741333008</ele>
        <time>2021-05-23T08:38:43Z</time>
      </trkpt>
      <trkpt lat="46.82924" lon="4.60937">
        <ele>243.31697082519</ele>
        <time>2021-05-23T08:38:47Z</time>
      </trkpt>
      <trkpt lat="46.82912" lon="4.60922">
        <ele>242.31648254394</ele>
        <time>2021-05-23T08:38:51Z</time>
      </trkpt>
      <trkpt lat="46.82896" lon="4.609">
        <ele>242.31582641602</ele>
        <time>2021-05-23T08:38:56Z</time>
      </trkpt>
      <trkpt lat="46.82882" lon="4.60881">
        <ele>242.31526184082</ele>
        <time>2021-05-23T08:39:00Z</time>
      </trkpt>
      <trkpt lat="46.8287" lon="4.60854">
        <ele>243.31478881836</ele>
        <time>2021-05-23T08:39:05Z</time>
      </trkpt>
      <trkpt lat="46.82862" lon="4.60834">
        <ele>247.31448364258</ele>
        <time>2021-05-23T08:39:09Z</time>
      </trkpt>
      <trkpt lat="46.82856" lon="4.60808">
        <ele>248.31422424316</ele>
        <time>2021-05-23T08:39:13Z</time>
      </trkpt>
      <trkpt lat="46.82851" lon="4.60784">
        <ele>249.31405639648</ele>
        <time>2021-05-23T08:39:17Z</time>
      </trkpt>
      <trkpt lat="46.82847" lon="4.60747">
        <ele>246.31387329102</ele>
        <time>2021-05-23T08:39:22Z</time>
      </trkpt>
      <trkpt lat="46.82845" lon="4.60721">
        <ele>243.31378173828</ele>
        <time>2021-05-23T08:39:26Z</time>
      </trkpt>
      <trkpt lat="46.82837" lon="4.60691">
        <ele>249.31349182129</ele>
        <time>2021-05-23T08:39:31Z</time>
      </trkpt>
      <trkpt lat="46.8283" lon="4.60662">
        <ele>248.31318664551</ele>
        <time>2021-05-23T08:39:36Z</time>
      </trkpt>
      <trkpt lat="46.82821" lon="4.60639">
        <ele>245.31282043457</ele>
        <time>2021-05-23T08:39:40Z</time>
      </trkpt>
      <trkpt lat="46.82805" lon="4.60613">
        <ele>242.31221008301</ele>
        <time>2021-05-23T08:39:45Z</time>
      </trkpt>
      <trkpt lat="46.82793" lon="4.60602">
        <ele>241.31172180176</ele>
        <time>2021-05-23T08:39:49Z</time>
      </trkpt>
      <trkpt lat="46.82778" lon="4.60585">
        <ele>241.31111145019</ele>
        <time>2021-05-23T08:39:53Z</time>
      </trkpt>
      <trkpt lat="46.82758" lon="4.60565">
        <ele>243.31033325195</ele>
        <time>2021-05-23T08:39:58Z</time>
      </trkpt>
      <trkpt lat="46.8274" lon="4.60548">
        <ele>246.30960083008</ele>
        <time>2021-05-23T08:40:02Z</time>
      </trkpt>
      <trkpt lat="46.82721" lon="4.60532">
        <ele>245.30885314941</ele>
        <time>2021-05-23T08:40:07Z</time>
      </trkpt>
      <trkpt lat="46.82707" lon="4.6052">
        <ele>245.30827331543</ele>
        <time>2021-05-23T08:40:11Z</time>
      </trkpt>
      <trkpt lat="46.82692" lon="4.6051">
        <ele>246.30766296387</ele>
        <time>2021-05-23T08:40:15Z</time>
      </trkpt>
      <trkpt lat="46.82673" lon="4.60498">
        <ele>247.30693054199</ele>
        <time>2021-05-23T08:40:20Z</time>
      </trkpt>
      <trkpt lat="46.82658" lon="4.60489">
        <ele>247.30632019043</ele>
        <time>2021-05-23T08:40:24Z</time>
      </trkpt>
      <trkpt lat="46.82642" lon="4.60479">
        <ele>246.30567932129</ele>
        <time>2021-05-23T08:40:28Z</time>
      </trkpt>
      <trkpt lat="46.82626" lon="4.60469">
        <ele>246.30505371094</ele>
        <time>2021-05-23T08:40:32Z</time>
      </trkpt>
      <trkpt lat="46.82606" lon="4.60457">
        <ele>245.30422973633</ele>
        <time>2021-05-23T08:40:37Z</time>
      </trkpt>
      <trkpt lat="46.8259" lon="4.60447">
        <ele>246.30358886719</ele>
        <time>2021-05-23T08:40:41Z</time>
      </trkpt>
      <trkpt lat="46.82574" lon="4.60436">
        <ele>245.30296325684</ele>
        <time>2021-05-23T08:40:45Z</time>
      </trkpt>
      <trkpt lat="46.82558" lon="4.60428">
        <ele>245.30232238769</ele>
        <time>2021-05-23T08:40:49Z</time>
      </trkpt>
      <trkpt lat="46.82537" lon="4.60419">
        <ele>246.30149841309</ele>
        <time>2021-05-23T08:40:54Z</time>
      </trkpt>
      <trkpt lat="46.82521" lon="4.60414">
        <ele>247.30084228516</ele>
        <time>2021-05-23T08:40:58Z</time>
      </trkpt>
      <trkpt lat="46.825" lon="4.60408">
        <ele>247.29998779297</ele>
        <time>2021-05-23T08:41:03Z</time>
      </trkpt>
      <trkpt lat="46.82483" lon="4.60403">
        <ele>247.29931640625</ele>
        <time>2021-05-23T08:41:07Z</time>
      </trkpt>
      <trkpt lat="46.82462" lon="4.60396">
        <ele>247.29849243164</ele>
        <time>2021-05-23T08:41:12Z</time>
      </trkpt>
      <trkpt lat="46.82446" lon="4.60391">
        <ele>246.29782104492</ele>
        <time>2021-05-23T08:41:16Z</time>
      </trkpt>
      <trkpt lat="46.82425" lon="4.60385">
        <ele>246.2970123291</ele>
        <time>2021-05-23T08:41:21Z</time>
      </trkpt>
      <trkpt lat="46.82407" lon="4.6038">
        <ele>246.29626464844</ele>
        <time>2021-05-23T08:41:26Z</time>
      </trkpt>
      <trkpt lat="46.82391" lon="4.60375">
        <ele>246.29565429688</ele>
        <time>2021-05-23T08:41:30Z</time>
      </trkpt>
      <trkpt lat="46.82374" lon="4.60364">
        <ele>247.29495239258</ele>
        <time>2021-05-23T08:41:35Z</time>
      </trkpt>
      <trkpt lat="46.82368" lon="4.60356">
        <ele>248.29470825195</ele>
        <time>2021-05-23T08:41:39Z</time>
      </trkpt>
      <trkpt lat="46.82366" lon="4.60343">
        <ele>249.2946472168</ele>
        <time>2021-05-23T08:41:45Z</time>
      </trkpt>
      <trkpt lat="46.82364" lon="4.60329">
        <ele>250.29455566406</ele>
        <time>2021-05-23T08:41:50Z</time>
      </trkpt>
      <trkpt lat="46.82362" lon="4.60315">
        <ele>250.29446411133</ele>
        <time>2021-05-23T08:41:54Z</time>
      </trkpt>
      <trkpt lat="46.8236" lon="4.603">
        <ele>250.29438781738</ele>
        <time>2021-05-23T08:41:58Z</time>
      </trkpt>
      <trkpt lat="46.82357" lon="4.60285">
        <ele>252.29428100586</ele>
        <time>2021-05-23T08:42:02Z</time>
      </trkpt>
      <trkpt lat="46.82353" lon="4.60264">
        <ele>254.29414367676</ele>
        <time>2021-05-23T08:42:07Z</time>
      </trkpt>
      <trkpt lat="46.82351" lon="4.60248">
        <ele>253.29403686523</ele>
        <time>2021-05-23T08:42:11Z</time>
      </trkpt>
      <trkpt lat="46.82347" lon="4.60227">
        <ele>252.29389953613</ele>
        <time>2021-05-23T08:42:16Z</time>
      </trkpt>
      <trkpt lat="46.82345" lon="4.60211">
        <ele>254.29379272461</ele>
        <time>2021-05-23T08:42:20Z</time>
      </trkpt>
      <trkpt lat="46.82346" lon="4.60198">
        <ele>256.29382324219</ele>
        <time>2021-05-23T08:42:24Z</time>
      </trkpt>
      <trkpt lat="46.8235" lon="4.60182">
        <ele>256.29400634766</ele>
        <time>2021-05-23T08:42:29Z</time>
      </trkpt>
      <trkpt lat="46.82357" lon="4.60166">
        <ele>257.29431152344</ele>
        <time>2021-05-23T08:42:34Z</time>
      </trkpt>
      <trkpt lat="46.82365" lon="4.60149">
        <ele>254.29458618164</ele>
        <time>2021-05-23T08:42:38Z</time>
      </trkpt>
      <trkpt lat="46.82374" lon="4.60129">
        <ele>256.29495239258</ele>
        <time>2021-05-23T08:42:43Z</time>
      </trkpt>
      <trkpt lat="46.82383" lon="4.60114">
        <ele>254.29533386231</ele>
        <time>2021-05-23T08:42:47Z</time>
      </trkpt>
      <trkpt lat="46.82396" lon="4.60096">
        <ele>253.29586791992</ele>
        <time>2021-05-23T08:42:52Z</time>
      </trkpt>
      <trkpt lat="46.82414" lon="4.60074">
        <ele>250.29656982422</ele>
        <time>2021-05-23T08:42:57Z</time>
      </trkpt>
      <trkpt lat="46.82435" lon="4.60047">
        <ele>250.29739379883</ele>
        <time>2021-05-23T08:43:02Z</time>
      </trkpt>
      <trkpt lat="46.82458" lon="4.60019">
        <ele>246.29830932617</ele>
        <time>2021-05-23T08:43:07Z</time>
      </trkpt>
      <trkpt lat="46.82468" lon="4.59991">
        <ele>245.29870605469</ele>
        <time>2021-05-23T08:43:11Z</time>
      </trkpt>
      <trkpt lat="46.82471" lon="4.59968">
        <ele>247.29884338379</ele>
        <time>2021-05-23T08:43:15Z</time>
      </trkpt>
      <trkpt lat="46.8247" lon="4.5995">
        <ele>247.29878234863</ele>
        <time>2021-05-23T08:43:20Z</time>
      </trkpt>
      <trkpt lat="46.82473" lon="4.5994">
        <ele>248.29891967773</ele>
        <time>2021-05-23T08:43:24Z</time>
      </trkpt>
      <trkpt lat="46.82493" lon="4.59939">
        <ele>246.29972839356</ele>
        <time>2021-05-23T08:43:28Z</time>
      </trkpt>
      <trkpt lat="46.82521" lon="4.59941">
        <ele>245.30084228516</ele>
        <time>2021-05-23T08:43:33Z</time>
      </trkpt>
      <trkpt lat="46.82532" lon="4.59925">
        <ele>246.30128479004</ele>
        <time>2021-05-23T08:43:37Z</time>
      </trkpt>
      <trkpt lat="46.8252" lon="4.59915">
        <ele>246.30078125</ele>
        <time>2021-05-23T08:43:41Z</time>
      </trkpt>
      <trkpt lat="46.82499" lon="4.59914">
        <ele>246.29997253418</ele>
        <time>2021-05-23T08:43:46Z</time>
      </trkpt>
      <trkpt lat="46.8248" lon="4.59912">
        <ele>247.29920959473</ele>
        <time>2021-05-23T08:43:51Z</time>
      </trkpt>
      <trkpt lat="46.82464" lon="4.59911">
        <ele>247.29856872559</ele>
        <time>2021-05-23T08:43:55Z</time>
      </trkpt>
      <trkpt lat="46.82444" lon="4.59909">
        <ele>242.29777526856</ele>
        <time>2021-05-23T08:44:00Z</time>
      </trkpt>
      <trkpt lat="46.82421" lon="4.59904">
        <ele>242.29682922363</ele>
        <time>2021-05-23T08:44:05Z</time>
      </trkpt>
      <trkpt lat="46.82402" lon="4.59899">
        <ele>242.29606628418</ele>
        <time>2021-05-23T08:44:09Z</time>
      </trkpt>
      <trkpt lat="46.82379" lon="4.59899">
        <ele>239.29515075684</ele>
        <time>2021-05-23T08:44:13Z</time>
      </trkpt>
      <trkpt lat="46.82351" lon="4.59896">
        <ele>239.29402160644</ele>
        <time>2021-05-23T08:44:18Z</time>
      </trkpt>
      <trkpt lat="46.82336" lon="4.59895">
        <ele>241.29344177246</ele>
        <time>2021-05-23T08:44:22Z</time>
      </trkpt>
      <trkpt lat="46.8231" lon="4.59894">
        <ele>242.29241943359</ele>
        <time>2021-05-23T08:44:27Z</time>
      </trkpt>
      <trkpt lat="46.82291" lon="4.59891">
        <ele>243.29162597656</ele>
        <time>2021-05-23T08:44:31Z</time>
      </trkpt>
      <trkpt lat="46.82268" lon="4.59888">
        <ele>239.29071044922</ele>
        <time>2021-05-23T08:44:36Z</time>
      </trkpt>
      <trkpt lat="46.82251" lon="4.59878">
        <ele>238.29005432129</ele>
        <time>2021-05-23T08:44:40Z</time>
      </trkpt>
      <trkpt lat="46.82232" lon="4.59868">
        <ele>241.28926086426</ele>
        <time>2021-05-23T08:44:45Z</time>
      </trkpt>
      <trkpt lat="46.82215" lon="4.59858">
        <ele>240.28860473633</ele>
        <time>2021-05-23T08:44:49Z</time>
      </trkpt>
      <trkpt lat="46.82199" lon="4.5985">
        <ele>240.2879486084</ele>
        <time>2021-05-23T08:44:54Z</time>
      </trkpt>
      <trkpt lat="46.8218" lon="4.59841">
        <ele>245.28720092773</ele>
        <time>2021-05-23T08:44:59Z</time>
      </trkpt>
      <trkpt lat="46.82164" lon="4.59836">
        <ele>245.28656005859</ele>
        <time>2021-05-23T08:45:03Z</time>
      </trkpt>
      <trkpt lat="46.82144" lon="4.59827">
        <ele>244.28576660156</ele>
        <time>2021-05-23T08:45:08Z</time>
      </trkpt>
      <trkpt lat="46.82124" lon="4.59826">
        <ele>246.28497314453</ele>
        <time>2021-05-23T08:45:13Z</time>
      </trkpt>
      <trkpt lat="46.82104" lon="4.59822">
        <ele>247.2841796875</ele>
        <time>2021-05-23T08:45:17Z</time>
      </trkpt>
      <trkpt lat="46.82072" lon="4.59813">
        <ele>248.28288269043</ele>
        <time>2021-05-23T08:45:22Z</time>
      </trkpt>
      <trkpt lat="46.8205" lon="4.59794">
        <ele>247.28198242188</ele>
        <time>2021-05-23T08:45:27Z</time>
      </trkpt>
      <trkpt lat="46.82026" lon="4.59781">
        <ele>253.28105163574</ele>
        <time>2021-05-23T08:45:32Z</time>
      </trkpt>
      <trkpt lat="46.82015" lon="4.59769">
        <ele>254.28060913086</ele>
        <time>2021-05-23T08:45:37Z</time>
      </trkpt>
      <trkpt lat="46.82001" lon="4.59761">
        <ele>253.28004455566</ele>
        <time>2021-05-23T08:45:40Z</time>
      </trkpt>
      <trkpt lat="46.81977" lon="4.59745">
        <ele>257.27908325195</ele>
        <time>2021-05-23T08:45:45Z</time>
      </trkpt>
      <trkpt lat="46.81959" lon="4.59738">
        <ele>256.27835083008</ele>
        <time>2021-05-23T08:45:49Z</time>
      </trkpt>
      <trkpt lat="46.81936" lon="4.59727">
        <ele>255.27743530273</ele>
        <time>2021-05-23T08:45:54Z</time>
      </trkpt>
      <trkpt lat="46.81922" lon="4.59715">
        <ele>254.27687072754</ele>
        <time>2021-05-23T08:45:58Z</time>
      </trkpt>
      <trkpt lat="46.81899" lon="4.59693">
        <ele>252.27595520019</ele>
        <time>2021-05-23T08:46:03Z</time>
      </trkpt>
      <trkpt lat="46.81881" lon="4.59678">
        <ele>252.27522277832</ele>
        <time>2021-05-23T08:46:08Z</time>
      </trkpt>
      <trkpt lat="46.8186" lon="4.5966">
        <ele>256.2744140625</ele>
        <time>2021-05-23T08:46:13Z</time>
      </trkpt>
      <trkpt lat="46.81848" lon="4.59651">
        <ele>255.27391052246</ele>
        <time>2021-05-23T08:46:17Z</time>
      </trkpt>
      <trkpt lat="46.81833" lon="4.59629">
        <ele>260.27331542969</ele>
        <time>2021-05-23T08:46:22Z</time>
      </trkpt>
      <trkpt lat="46.81819" lon="4.59605">
        <ele>257.27276611328</ele>
        <time>2021-05-23T08:46:27Z</time>
      </trkpt>
      <trkpt lat="46.81807" lon="4.59577">
        <ele>257.27227783203</ele>
        <time>2021-05-23T08:46:31Z</time>
      </trkpt>
      <trkpt lat="46.81794" lon="4.59553">
        <ele>260.27172851562</ele>
        <time>2021-05-23T08:46:35Z</time>
      </trkpt>
      <trkpt lat="46.81778" lon="4.5953">
        <ele>257.27114868164</ele>
        <time>2021-05-23T08:46:40Z</time>
      </trkpt>
      <trkpt lat="46.81767" lon="4.59511">
        <ele>255.27067565918</ele>
        <time>2021-05-23T08:46:44Z</time>
      </trkpt>
      <trkpt lat="46.81757" lon="4.5949">
        <ele>253.27029418945</ele>
        <time>2021-05-23T08:46:48Z</time>
      </trkpt>
      <trkpt lat="46.81742" lon="4.59471">
        <ele>256.26968383789</ele>
        <time>2021-05-23T08:46:53Z</time>
      </trkpt>
      <trkpt lat="46.81727" lon="4.59448">
        <ele>256.26907348633</ele>
        <time>2021-05-23T08:46:58Z</time>
      </trkpt>
      <trkpt lat="46.81708" lon="4.59424">
        <ele>256.26831054688</ele>
        <time>2021-05-23T08:47:03Z</time>
      </trkpt>
      <trkpt lat="46.81691" lon="4.5941">
        <ele>258.26766967773</ele>
        <time>2021-05-23T08:47:07Z</time>
      </trkpt>
      <trkpt lat="46.8168" lon="4.59392">
        <ele>260.26718139648</ele>
        <time>2021-05-23T08:47:11Z</time>
      </trkpt>
      <trkpt lat="46.81664" lon="4.5937">
        <ele>257.26654052734</ele>
        <time>2021-05-23T08:47:15Z</time>
      </trkpt>
      <trkpt lat="46.81647" lon="4.59354">
        <ele>258.2658996582</ele>
        <time>2021-05-23T08:47:19Z</time>
      </trkpt>
      <trkpt lat="46.81634" lon="4.59337">
        <ele>258.2653503418</ele>
        <time>2021-05-23T08:47:23Z</time>
      </trkpt>
      <trkpt lat="46.8162" lon="4.59312">
        <ele>256.26480102539</ele>
        <time>2021-05-23T08:47:28Z</time>
      </trkpt>
      <trkpt lat="46.81609" lon="4.59288">
        <ele>259.2643737793</ele>
        <time>2021-05-23T08:47:33Z</time>
      </trkpt>
      <trkpt lat="46.81602" lon="4.59266">
        <ele>261.26406860352</ele>
        <time>2021-05-23T08:47:37Z</time>
      </trkpt>
      <trkpt lat="46.81596" lon="4.59243">
        <ele>259.26385498047</ele>
        <time>2021-05-23T08:47:41Z</time>
      </trkpt>
      <trkpt lat="46.81592" lon="4.5921">
        <ele>255.263671875</ele>
        <time>2021-05-23T08:47:46Z</time>
      </trkpt>
      <trkpt lat="46.81588" lon="4.59178">
        <ele>257.26351928711</ele>
        <time>2021-05-23T08:47:51Z</time>
      </trkpt>
      <trkpt lat="46.81587" lon="4.59153">
        <ele>256.26348876953</ele>
        <time>2021-05-23T08:47:55Z</time>
      </trkpt>
      <trkpt lat="46.81584" lon="4.59128">
        <ele>260.26336669922</ele>
        <time>2021-05-23T08:47:59Z</time>
      </trkpt>
      <trkpt lat="46.81585" lon="4.59096">
        <ele>260.2633972168</ele>
        <time>2021-05-23T08:48:04Z</time>
      </trkpt>
      <trkpt lat="46.81586" lon="4.59063">
        <ele>262.26345825195</ele>
        <time>2021-05-23T08:48:08Z</time>
      </trkpt>
      <trkpt lat="46.81576" lon="4.59031">
        <ele>262.26303100586</ele>
        <time>2021-05-23T08:48:13Z</time>
      </trkpt>
      <trkpt lat="46.8157" lon="4.58985">
        <ele>257.26278686523</ele>
        <time>2021-05-23T08:48:18Z</time>
      </trkpt>
      <trkpt lat="46.81566" lon="4.58954">
        <ele>256.26263427734</ele>
        <time>2021-05-23T08:48:22Z</time>
      </trkpt>
      <trkpt lat="46.8156" lon="4.58935">
        <ele>257.26239013672</ele>
        <time>2021-05-23T08:48:26Z</time>
      </trkpt>
      <trkpt lat="46.81556" lon="4.58905">
        <ele>257.26220703125</ele>
        <time>2021-05-23T08:48:30Z</time>
      </trkpt>
      <trkpt lat="46.81541" lon="4.5888">
        <ele>263.26165771484</ele>
        <time>2021-05-23T08:48:35Z</time>
      </trkpt>
      <trkpt lat="46.81537" lon="4.58853">
        <ele>266.26147460938</ele>
        <time>2021-05-23T08:48:39Z</time>
      </trkpt>
      <trkpt lat="46.81528" lon="4.58827">
        <ele>266.26110839844</ele>
        <time>2021-05-23T08:48:43Z</time>
      </trkpt>
      <trkpt lat="46.81516" lon="4.58801">
        <ele>265.26065063477</ele>
        <time>2021-05-23T08:48:48Z</time>
      </trkpt>
      <trkpt lat="46.81502" lon="4.5878">
        <ele>269.26007080078</ele>
        <time>2021-05-23T08:48:53Z</time>
      </trkpt>
      <trkpt lat="46.81486" lon="4.58761">
        <ele>267.25942993164</ele>
        <time>2021-05-23T08:48:57Z</time>
      </trkpt>
      <trkpt lat="46.81474" lon="4.5874">
        <ele>263.25897216797</ele>
        <time>2021-05-23T08:49:01Z</time>
      </trkpt>
      <trkpt lat="46.81453" lon="4.58719">
        <ele>260.25811767578</ele>
        <time>2021-05-23T08:49:06Z</time>
      </trkpt>
      <trkpt lat="46.8144" lon="4.58702">
        <ele>259.25759887695</ele>
        <time>2021-05-23T08:49:10Z</time>
      </trkpt>
      <trkpt lat="46.81424" lon="4.58689">
        <ele>259.25695800781</ele>
        <time>2021-05-23T08:49:14Z</time>
      </trkpt>
      <trkpt lat="46.81408" lon="4.58671">
        <ele>261.25631713867</ele>
        <time>2021-05-23T08:49:18Z</time>
      </trkpt>
      <trkpt lat="46.81392" lon="4.58655">
        <ele>257.25570678711</ele>
        <time>2021-05-23T08:49:22Z</time>
      </trkpt>
      <trkpt lat="46.81377" lon="4.58639">
        <ele>256.25506591797</ele>
        <time>2021-05-23T08:49:26Z</time>
      </trkpt>
      <trkpt lat="46.81359" lon="4.58621">
        <ele>251.25437927246</ele>
        <time>2021-05-23T08:49:30Z</time>
      </trkpt>
      <trkpt lat="46.81342" lon="4.58608">
        <ele>258.25369262695</ele>
        <time>2021-05-23T08:49:34Z</time>
      </trkpt>
      <trkpt lat="46.81324" lon="4.58587">
        <ele>257.2529296875</ele>
        <time>2021-05-23T08:49:39Z</time>
      </trkpt>
      <trkpt lat="46.81306" lon="4.58571">
        <ele>260.2522277832</ele>
        <time>2021-05-23T08:49:43Z</time>
      </trkpt>
      <trkpt lat="46.81288" lon="4.58552">
        <ele>259.25152587891</ele>
        <time>2021-05-23T08:49:48Z</time>
      </trkpt>
      <trkpt lat="46.81274" lon="4.58526">
        <ele>258.2509765625</ele>
        <time>2021-05-23T08:49:53Z</time>
      </trkpt>
      <trkpt lat="46.81267" lon="4.58507">
        <ele>261.25067138672</ele>
        <time>2021-05-23T08:49:57Z</time>
      </trkpt>
      <trkpt lat="46.81254" lon="4.58483">
        <ele>264.25015258789</ele>
        <time>2021-05-23T08:50:02Z</time>
      </trkpt>
      <trkpt lat="46.81239" lon="4.58465">
        <ele>265.24957275391</ele>
        <time>2021-05-23T08:50:06Z</time>
      </trkpt>
      <trkpt lat="46.81225" lon="4.58445">
        <ele>265.2490234375</ele>
        <time>2021-05-23T08:50:10Z</time>
      </trkpt>
      <trkpt lat="46.81206" lon="4.58418">
        <ele>263.24822998047</ele>
        <time>2021-05-23T08:50:14Z</time>
      </trkpt>
      <trkpt lat="46.81187" lon="4.58385">
        <ele>261.24749755859</ele>
        <time>2021-05-23T08:50:19Z</time>
      </trkpt>
      <trkpt lat="46.8117" lon="4.5836">
        <ele>261.24682617188</ele>
        <time>2021-05-23T08:50:24Z</time>
      </trkpt>
      <trkpt lat="46.81158" lon="4.58334">
        <ele>260.24633789062</ele>
        <time>2021-05-23T08:50:28Z</time>
      </trkpt>
      <trkpt lat="46.81146" lon="4.58302">
        <ele>259.24584960938</ele>
        <time>2021-05-23T08:50:33Z</time>
      </trkpt>
      <trkpt lat="46.81129" lon="4.58277">
        <ele>262.24517822266</ele>
        <time>2021-05-23T08:50:38Z</time>
      </trkpt>
      <trkpt lat="46.81118" lon="4.5826">
        <ele>265.24468994141</ele>
        <time>2021-05-23T08:50:42Z</time>
      </trkpt>
      <trkpt lat="46.81099" lon="4.58236">
        <ele>262.24398803711</ele>
        <time>2021-05-23T08:50:46Z</time>
      </trkpt>
      <trkpt lat="46.81083" lon="4.58222">
        <ele>261.24331665039</ele>
        <time>2021-05-23T08:50:50Z</time>
      </trkpt>
      <trkpt lat="46.81071" lon="4.58214">
        <ele>262.24285888672</ele>
        <time>2021-05-23T08:50:54Z</time>
      </trkpt>
      <trkpt lat="46.81054" lon="4.58205">
        <ele>264.24215698242</ele>
        <time>2021-05-23T08:50:58Z</time>
      </trkpt>
      <trkpt lat="46.81037" lon="4.58201">
        <ele>268.2414855957</ele>
        <time>2021-05-23T08:51:02Z</time>
      </trkpt>
      <trkpt lat="46.81021" lon="4.58193">
        <ele>268.24084472656</ele>
        <time>2021-05-23T08:51:06Z</time>
      </trkpt>
      <trkpt lat="46.81002" lon="4.58183">
        <ele>266.24005126953</ele>
        <time>2021-05-23T08:51:10Z</time>
      </trkpt>
      <trkpt lat="46.80979" lon="4.58169">
        <ele>263.23916625977</ele>
        <time>2021-05-23T08:51:15Z</time>
      </trkpt>
      <trkpt lat="46.80961" lon="4.58158">
        <ele>262.23846435547</ele>
        <time>2021-05-23T08:51:19Z</time>
      </trkpt>
      <trkpt lat="46.80945" lon="4.58153">
        <ele>260.23779296875</ele>
        <time>2021-05-23T08:51:23Z</time>
      </trkpt>
      <trkpt lat="46.80925" lon="4.58142">
        <ele>261.23699951172</ele>
        <time>2021-05-23T08:51:28Z</time>
      </trkpt>
      <trkpt lat="46.80908" lon="4.58129">
        <ele>262.236328125</ele>
        <time>2021-05-23T08:51:32Z</time>
      </trkpt>
      <trkpt lat="46.80895" lon="4.58109">
        <ele>262.23580932617</ele>
        <time>2021-05-23T08:51:36Z</time>
      </trkpt>
      <trkpt lat="46.8088" lon="4.58084">
        <ele>256.23519897461</ele>
        <time>2021-05-23T08:51:41Z</time>
      </trkpt>
      <trkpt lat="46.80865" lon="4.58065">
        <ele>255.23458862305</ele>
        <time>2021-05-23T08:51:46Z</time>
      </trkpt>
      <trkpt lat="46.80843" lon="4.58054">
        <ele>252.23374938965</ele>
        <time>2021-05-23T08:51:50Z</time>
      </trkpt>
      <trkpt lat="46.80827" lon="4.58039">
        <ele>251.23306274414</ele>
        <time>2021-05-23T08:51:55Z</time>
      </trkpt>
      <trkpt lat="46.80812" lon="4.58022">
        <ele>251.23248291016</ele>
        <time>2021-05-23T08:51:59Z</time>
      </trkpt>
      <trkpt lat="46.80798" lon="4.58004">
        <ele>250.23191833496</ele>
        <time>2021-05-23T08:52:03Z</time>
      </trkpt>
      <trkpt lat="46.80779" lon="4.57986">
        <ele>246.23115539551</ele>
        <time>2021-05-23T08:52:08Z</time>
      </trkpt>
      <trkpt lat="46.8077" lon="4.57964">
        <ele>247.23081970215</ele>
        <time>2021-05-23T08:52:12Z</time>
      </trkpt>
      <trkpt lat="46.80762" lon="4.57943">
        <ele>250.23046875</ele>
        <time>2021-05-23T08:52:16Z</time>
      </trkpt>
      <trkpt lat="46.8075" lon="4.57921">
        <ele>251.22998046875</ele>
        <time>2021-05-23T08:52:21Z</time>
      </trkpt>
      <trkpt lat="46.80747" lon="4.57903">
        <ele>251.22987365723</ele>
        <time>2021-05-23T08:52:25Z</time>
      </trkpt>
      <trkpt lat="46.80755" lon="4.57883">
        <ele>252.2301940918</ele>
        <time>2021-05-23T08:52:29Z</time>
      </trkpt>
      <trkpt lat="46.80768" lon="4.57866">
        <ele>252.23071289062</ele>
        <time>2021-05-23T08:52:33Z</time>
      </trkpt>
      <trkpt lat="46.80783" lon="4.57847">
        <ele>252.2313079834</ele>
        <time>2021-05-23T08:52:38Z</time>
      </trkpt>
      <trkpt lat="46.80792" lon="4.57823">
        <ele>250.23168945312</ele>
        <time>2021-05-23T08:52:43Z</time>
      </trkpt>
      <trkpt lat="46.80771" lon="4.57789">
        <ele>251.23085021973</ele>
        <time>2021-05-23T08:52:48Z</time>
      </trkpt>
      <trkpt lat="46.80758" lon="4.57766">
        <ele>251.23031616211</ele>
        <time>2021-05-23T08:52:52Z</time>
      </trkpt>
      <trkpt lat="46.80761" lon="4.57737">
        <ele>251.23045349121</ele>
        <time>2021-05-23T08:52:57Z</time>
      </trkpt>
      <trkpt lat="46.80773" lon="4.57711">
        <ele>251.23092651367</ele>
        <time>2021-05-23T08:53:02Z</time>
      </trkpt>
      <trkpt lat="46.80783" lon="4.57689">
        <ele>253.23132324219</ele>
        <time>2021-05-23T08:53:06Z</time>
      </trkpt>
      <trkpt lat="46.80789" lon="4.5766">
        <ele>250.23155212402</ele>
        <time>2021-05-23T08:53:11Z</time>
      </trkpt>
      <trkpt lat="46.80776" lon="4.5764">
        <ele>250.23104858398</ele>
        <time>2021-05-23T08:53:15Z</time>
      </trkpt>
      <trkpt lat="46.80762" lon="4.57625">
        <ele>250.23046875</ele>
        <time>2021-05-23T08:53:19Z</time>
      </trkpt>
      <trkpt lat="46.80745" lon="4.57601">
        <ele>249.22979736328</ele>
        <time>2021-05-23T08:53:24Z</time>
      </trkpt>
      <trkpt lat="46.80732" lon="4.57582">
        <ele>249.22927856445</ele>
        <time>2021-05-23T08:53:28Z</time>
      </trkpt>
      <trkpt lat="46.80718" lon="4.5756">
        <ele>248.22872924805</ele>
        <time>2021-05-23T08:53:32Z</time>
      </trkpt>
      <trkpt lat="46.80701" lon="4.57535">
        <ele>249.22805786133</ele>
        <time>2021-05-23T08:53:37Z</time>
      </trkpt>
      <trkpt lat="46.80688" lon="4.57513">
        <ele>248.22750854492</ele>
        <time>2021-05-23T08:53:41Z</time>
      </trkpt>
      <trkpt lat="46.80671" lon="4.57486">
        <ele>248.22685241699</ele>
        <time>2021-05-23T08:53:46Z</time>
      </trkpt>
      <trkpt lat="46.80654" lon="4.57461">
        <ele>248.22616577148</ele>
        <time>2021-05-23T08:53:51Z</time>
      </trkpt>
      <trkpt lat="46.80642" lon="4.57442">
        <ele>249.22566223144</ele>
        <time>2021-05-23T08:53:55Z</time>
      </trkpt>
      <trkpt lat="46.80629" lon="4.57423">
        <ele>249.22517395019</ele>
        <time>2021-05-23T08:53:59Z</time>
      </trkpt>
      <trkpt lat="46.80615" lon="4.57397">
        <ele>249.22459411621</ele>
        <time>2021-05-23T08:54:04Z</time>
      </trkpt>
      <trkpt lat="46.80602" lon="4.57376">
        <ele>249.22406005859</ele>
        <time>2021-05-23T08:54:08Z</time>
      </trkpt>
      <trkpt lat="46.80588" lon="4.57356">
        <ele>248.22352600098</ele>
        <time>2021-05-23T08:54:12Z</time>
      </trkpt>
      <trkpt lat="46.80573" lon="4.57329">
        <ele>247.22290039062</ele>
        <time>2021-05-23T08:54:17Z</time>
      </trkpt>
      <trkpt lat="46.8056" lon="4.57309">
        <ele>248.22239685059</ele>
        <time>2021-05-23T08:54:21Z</time>
      </trkpt>
      <trkpt lat="46.80544" lon="4.57284">
        <ele>248.22174072266</ele>
        <time>2021-05-23T08:54:26Z</time>
      </trkpt>
      <trkpt lat="46.80526" lon="4.57259">
        <ele>248.22105407715</ele>
        <time>2021-05-23T08:54:31Z</time>
      </trkpt>
      <trkpt lat="46.8051" lon="4.57233">
        <ele>248.22041320801</ele>
        <time>2021-05-23T08:54:36Z</time>
      </trkpt>
      <trkpt lat="46.80498" lon="4.57212">
        <ele>248.21992492676</ele>
        <time>2021-05-23T08:54:40Z</time>
      </trkpt>
      <trkpt lat="46.80482" lon="4.57186">
        <ele>248.21929931641</ele>
        <time>2021-05-23T08:54:45Z</time>
      </trkpt>
      <trkpt lat="46.80466" lon="4.57161">
        <ele>249.21862792969</ele>
        <time>2021-05-23T08:54:50Z</time>
      </trkpt>
      <trkpt lat="46.80452" lon="4.5714">
        <ele>249.21809387207</ele>
        <time>2021-05-23T08:54:54Z</time>
      </trkpt>
      <trkpt lat="46.80438" lon="4.57119">
        <ele>249.21752929688</ele>
        <time>2021-05-23T08:54:58Z</time>
      </trkpt>
      <trkpt lat="46.80421" lon="4.57093">
        <ele>250.21685791016</ele>
        <time>2021-05-23T08:55:03Z</time>
      </trkpt>
      <trkpt lat="46.80409" lon="4.57072">
        <ele>250.21635437012</ele>
        <time>2021-05-23T08:55:07Z</time>
      </trkpt>
      <trkpt lat="46.80396" lon="4.57054">
        <ele>250.21585083008</ele>
        <time>2021-05-23T08:55:11Z</time>
      </trkpt>
      <trkpt lat="46.8038" lon="4.57031">
        <ele>251.21519470215</ele>
        <time>2021-05-23T08:55:16Z</time>
      </trkpt>
      <trkpt lat="46.80363" lon="4.57018">
        <ele>252.21453857422</ele>
        <time>2021-05-23T08:55:20Z</time>
      </trkpt>
      <trkpt lat="46.80344" lon="4.57002">
        <ele>251.21374511719</ele>
        <time>2021-05-23T08:55:25Z</time>
      </trkpt>
      <trkpt lat="46.80327" lon="4.56985">
        <ele>251.21310424805</ele>
        <time>2021-05-23T08:55:29Z</time>
      </trkpt>
      <trkpt lat="46.80312" lon="4.5696">
        <ele>251.21246337891</ele>
        <time>2021-05-23T08:55:34Z</time>
      </trkpt>
      <trkpt lat="46.80298" lon="4.56942">
        <ele>251.2119140625</ele>
        <time>2021-05-23T08:55:38Z</time>
      </trkpt>
      <trkpt lat="46.80285" lon="4.56923">
        <ele>252.21139526367</ele>
        <time>2021-05-23T08:55:42Z</time>
      </trkpt>
      <trkpt lat="46.80269" lon="4.56906">
        <ele>252.21076965332</ele>
        <time>2021-05-23T08:55:46Z</time>
      </trkpt>
      <trkpt lat="46.8025" lon="4.56889">
        <ele>252.20999145508</ele>
        <time>2021-05-23T08:55:51Z</time>
      </trkpt>
      <trkpt lat="46.80237" lon="4.5688">
        <ele>253.20947265625</ele>
        <time>2021-05-23T08:55:55Z</time>
      </trkpt>
      <trkpt lat="46.8024" lon="4.5687">
        <ele>254.20959472656</ele>
        <time>2021-05-23T08:56:00Z</time>
      </trkpt>
      <trkpt lat="46.80251" lon="4.56863">
        <ele>254.21002197266</ele>
        <time>2021-05-23T08:56:04Z</time>
      </trkpt>
      <trkpt lat="46.80261" lon="4.56852">
        <ele>255.21043395996</ele>
        <time>2021-05-23T08:56:08Z</time>
      </trkpt>
      <trkpt lat="46.80252" lon="4.56829">
        <ele>254.2100982666</ele>
        <time>2021-05-23T08:56:13Z</time>
      </trkpt>
      <trkpt lat="46.80241" lon="4.56812">
        <ele>254.20964050293</ele>
        <time>2021-05-23T08:56:17Z</time>
      </trkpt>
      <trkpt lat="46.80231" lon="4.56792">
        <ele>254.2092590332</ele>
        <time>2021-05-23T08:56:21Z</time>
      </trkpt>
      <trkpt lat="46.80222" lon="4.56773">
        <ele>254.20887756348</ele>
        <time>2021-05-23T08:56:25Z</time>
      </trkpt>
      <trkpt lat="46.80211" lon="4.56755">
        <ele>253.20845031738</ele>
        <time>2021-05-23T08:56:29Z</time>
      </trkpt>
      <trkpt lat="46.80197" lon="4.56733">
        <ele>252.2078704834</ele>
        <time>2021-05-23T08:56:34Z</time>
      </trkpt>
      <trkpt lat="46.80183" lon="4.56712">
        <ele>250.20732116699</ele>
        <time>2021-05-23T08:56:38Z</time>
      </trkpt>
      <trkpt lat="46.80171" lon="4.56692">
        <ele>250.20683288574</ele>
        <time>2021-05-23T08:56:42Z</time>
      </trkpt>
      <trkpt lat="46.80157" lon="4.56675">
        <ele>251.20629882812</ele>
        <time>2021-05-23T08:56:46Z</time>
      </trkpt>
      <trkpt lat="46.80143" lon="4.56652">
        <ele>251.20570373535</ele>
        <time>2021-05-23T08:56:51Z</time>
      </trkpt>
      <trkpt lat="46.8013" lon="4.56633">
        <ele>251.20520019531</ele>
        <time>2021-05-23T08:56:55Z</time>
      </trkpt>
      <trkpt lat="46.80116" lon="4.56608">
        <ele>251.20465087891</ele>
        <time>2021-05-23T08:57:00Z</time>
      </trkpt>
      <trkpt lat="46.80103" lon="4.56585">
        <ele>251.2041015625</ele>
        <time>2021-05-23T08:57:05Z</time>
      </trkpt>
      <trkpt lat="46.8009" lon="4.56568">
        <ele>250.20361328125</ele>
        <time>2021-05-23T08:57:09Z</time>
      </trkpt>
      <trkpt lat="46.80071" lon="4.56547">
        <ele>249.20283508301</ele>
        <time>2021-05-23T08:57:14Z</time>
      </trkpt>
      <trkpt lat="46.80056" lon="4.56531">
        <ele>250.20222473144</ele>
        <time>2021-05-23T08:57:18Z</time>
      </trkpt>
      <trkpt lat="46.80045" lon="4.56518">
        <ele>251.20181274414</ele>
        <time>2021-05-23T08:57:21Z</time>
      </trkpt>
      <trkpt lat="46.79953" lon="4.56391">
        <ele>253.19813537598</ele>
        <time>2021-05-23T08:57:49Z</time>
      </trkpt>
      <trkpt lat="46.79935" lon="4.56368">
        <ele>251.19738769531</ele>
        <time>2021-05-23T08:57:54Z</time>
      </trkpt>
      <trkpt lat="46.79919" lon="4.56349">
        <ele>252.19676208496</ele>
        <time>2021-05-23T08:57:59Z</time>
      </trkpt>
      <trkpt lat="46.79905" lon="4.56326">
        <ele>253.19618225098</ele>
        <time>2021-05-23T08:58:04Z</time>
      </trkpt>
      <trkpt lat="46.79892" lon="4.56307">
        <ele>254.19567871094</ele>
        <time>2021-05-23T08:58:08Z</time>
      </trkpt>
      <trkpt lat="46.79877" lon="4.56283">
        <ele>254.19506835938</ele>
        <time>2021-05-23T08:58:13Z</time>
      </trkpt>
      <trkpt lat="46.79865" lon="4.56266">
        <ele>254.19458007812</ele>
        <time>2021-05-23T08:58:17Z</time>
      </trkpt>
      <trkpt lat="46.79852" lon="4.56249">
        <ele>255.19407653809</ele>
        <time>2021-05-23T08:58:21Z</time>
      </trkpt>
      <trkpt lat="46.79838" lon="4.56231">
        <ele>255.19352722168</ele>
        <time>2021-05-23T08:58:25Z</time>
      </trkpt>
      <trkpt lat="46.79823" lon="4.56215">
        <ele>255.19293212891</ele>
        <time>2021-05-23T08:58:29Z</time>
      </trkpt>
      <trkpt lat="46.79807" lon="4.56198">
        <ele>255.19226074219</ele>
        <time>2021-05-23T08:58:33Z</time>
      </trkpt>
      <trkpt lat="46.7979" lon="4.56185">
        <ele>255.19161987305</ele>
        <time>2021-05-23T08:58:37Z</time>
      </trkpt>
      <trkpt lat="46.79768" lon="4.56169">
        <ele>254.19071960449</ele>
        <time>2021-05-23T08:58:42Z</time>
      </trkpt>
      <trkpt lat="46.7975" lon="4.56158">
        <ele>253.19001770019</ele>
        <time>2021-05-23T08:58:46Z</time>
      </trkpt>
      <trkpt lat="46.79729" lon="4.56145">
        <ele>255.18916320801</ele>
        <time>2021-05-23T08:58:51Z</time>
      </trkpt>
      <trkpt lat="46.79711" lon="4.56133">
        <ele>255.18843078613</ele>
        <time>2021-05-23T08:58:56Z</time>
      </trkpt>
      <trkpt lat="46.79696" lon="4.56118">
        <ele>255.18782043457</ele>
        <time>2021-05-23T08:59:00Z</time>
      </trkpt>
      <trkpt lat="46.79679" lon="4.56102">
        <ele>255.18716430664</ele>
        <time>2021-05-23T08:59:04Z</time>
      </trkpt>
      <trkpt lat="46.79659" lon="4.56086">
        <ele>255.18637084961</ele>
        <time>2021-05-23T08:59:09Z</time>
      </trkpt>
      <trkpt lat="46.79643" lon="4.56073">
        <ele>254.18571472168</ele>
        <time>2021-05-23T08:59:13Z</time>
      </trkpt>
      <trkpt lat="46.79627" lon="4.56059">
        <ele>254.18508911133</ele>
        <time>2021-05-23T08:59:17Z</time>
      </trkpt>
      <trkpt lat="46.79607" lon="4.56043">
        <ele>255.18426513672</ele>
        <time>2021-05-23T08:59:22Z</time>
      </trkpt>
      <trkpt lat="46.79586" lon="4.56024">
        <ele>254.1834564209</ele>
        <time>2021-05-23T08:59:27Z</time>
      </trkpt>
      <trkpt lat="46.79569" lon="4.56011">
        <ele>254.18273925781</ele>
        <time>2021-05-23T08:59:31Z</time>
      </trkpt>
      <trkpt lat="46.79552" lon="4.55999">
        <ele>254.18208312988</ele>
        <time>2021-05-23T08:59:35Z</time>
      </trkpt>
      <trkpt lat="46.79536" lon="4.55975">
        <ele>255.18144226074</ele>
        <time>2021-05-23T08:59:40Z</time>
      </trkpt>
      <trkpt lat="46.79523" lon="4.55954">
        <ele>256.1809387207</ele>
        <time>2021-05-23T08:59:44Z</time>
      </trkpt>
      <trkpt lat="46.79508" lon="4.55937">
        <ele>255.18032836914</ele>
        <time>2021-05-23T08:59:48Z</time>
      </trkpt>
      <trkpt lat="46.79493" lon="4.55922">
        <ele>255.17970275879</ele>
        <time>2021-05-23T08:59:52Z</time>
      </trkpt>
      <trkpt lat="46.79472" lon="4.55903">
        <ele>255.17889404297</ele>
        <time>2021-05-23T08:59:57Z</time>
      </trkpt>
      <trkpt lat="46.79452" lon="4.55882">
        <ele>256.17807006836</ele>
        <time>2021-05-23T09:00:02Z</time>
      </trkpt>
      <trkpt lat="46.79434" lon="4.55866">
        <ele>256.17736816406</ele>
        <time>2021-05-23T09:00:06Z</time>
      </trkpt>
      <trkpt lat="46.79417" lon="4.5585">
        <ele>256.17669677734</ele>
        <time>2021-05-23T09:00:10Z</time>
      </trkpt>
      <trkpt lat="46.79276" lon="4.5572">
        <ele>240.17105102539</ele>
        <time>2021-05-23T09:00:43Z</time>
      </trkpt>
      <trkpt lat="46.79259" lon="4.55713">
        <ele>252.17037963867</ele>
        <time>2021-05-23T09:00:47Z</time>
      </trkpt>
      <trkpt lat="46.7924" lon="4.557">
        <ele>262.16961669922</ele>
        <time>2021-05-23T09:00:52Z</time>
      </trkpt>
      <trkpt lat="46.7923" lon="4.55695">
        <ele>261.1692199707</ele>
        <time>2021-05-23T09:00:56Z</time>
      </trkpt>
      <trkpt lat="46.79204" lon="4.5567">
        <ele>258.16815185547</ele>
        <time>2021-05-23T09:01:01Z</time>
      </trkpt>
      <trkpt lat="46.79188" lon="4.55662">
        <ele>259.16751098633</ele>
        <time>2021-05-23T09:01:05Z</time>
      </trkpt>
      <trkpt lat="46.79171" lon="4.55661">
        <ele>263.16683959961</ele>
        <time>2021-05-23T09:01:10Z</time>
      </trkpt>
      <trkpt lat="46.79169" lon="4.55681">
        <ele>261.16674804688</ele>
        <time>2021-05-23T09:01:14Z</time>
      </trkpt>
      <trkpt lat="46.79165" lon="4.55705">
        <ele>261.16659545898</ele>
        <time>2021-05-23T09:01:18Z</time>
      </trkpt>
      <trkpt lat="46.7916" lon="4.55731">
        <ele>261.16641235352</ele>
        <time>2021-05-23T09:01:23Z</time>
      </trkpt>
      <trkpt lat="46.79156" lon="4.55743">
        <ele>260.16622924805</ele>
        <time>2021-05-23T09:01:28Z</time>
      </trkpt>
      <trkpt lat="46.79148" lon="4.55739">
        <ele>259.16592407227</ele>
        <time>2021-05-23T09:01:32Z</time>
      </trkpt>
      <trkpt lat="46.79133" lon="4.55731">
        <ele>258.16534423828</ele>
        <time>2021-05-23T09:01:36Z</time>
      </trkpt>
      <trkpt lat="46.79119" lon="4.55723">
        <ele>261.1647644043</ele>
        <time>2021-05-23T09:01:40Z</time>
      </trkpt>
      <trkpt lat="46.79104" lon="4.55717">
        <ele>262.16415405273</ele>
        <time>2021-05-23T09:01:44Z</time>
      </trkpt>
      <trkpt lat="46.79087" lon="4.55711">
        <ele>263.16348266602</ele>
        <time>2021-05-23T09:01:48Z</time>
      </trkpt>
      <trkpt lat="46.79064" lon="4.55702">
        <ele>260.16256713867</ele>
        <time>2021-05-23T09:01:53Z</time>
      </trkpt>
      <trkpt lat="46.79047" lon="4.55698">
        <ele>263.16186523438</ele>
        <time>2021-05-23T09:01:57Z</time>
      </trkpt>
      <trkpt lat="46.79029" lon="4.55695">
        <ele>261.16119384766</ele>
        <time>2021-05-23T09:02:01Z</time>
      </trkpt>
      <trkpt lat="46.79013" lon="4.55693">
        <ele>261.16049194336</ele>
        <time>2021-05-23T09:02:05Z</time>
      </trkpt>
      <trkpt lat="46.78991" lon="4.55691">
        <ele>262.15960693359</ele>
        <time>2021-05-23T09:02:10Z</time>
      </trkpt>
      <trkpt lat="46.78969" lon="4.5569">
        <ele>259.15878295898</ele>
        <time>2021-05-23T09:02:14Z</time>
      </trkpt>
      <trkpt lat="46.7895" lon="4.55693">
        <ele>262.15802001953</ele>
        <time>2021-05-23T09:02:18Z</time>
      </trkpt>
      <trkpt lat="46.78928" lon="4.55696">
        <ele>263.15710449219</ele>
        <time>2021-05-23T09:02:22Z</time>
      </trkpt>
      <trkpt lat="46.78907" lon="4.55701">
        <ele>265.15625</ele>
        <time>2021-05-23T09:02:27Z</time>
      </trkpt>
      <trkpt lat="46.78886" lon="4.55709">
        <ele>265.15545654297</ele>
        <time>2021-05-23T09:02:31Z</time>
      </trkpt>
      <trkpt lat="46.7887" lon="4.55714">
        <ele>266.15478515625</ele>
        <time>2021-05-23T09:02:35Z</time>
      </trkpt>
      <trkpt lat="46.78846" lon="4.55721">
        <ele>267.15386962891</ele>
        <time>2021-05-23T09:02:40Z</time>
      </trkpt>
      <trkpt lat="46.78825" lon="4.55727">
        <ele>266.15301513672</ele>
        <time>2021-05-23T09:02:44Z</time>
      </trkpt>
      <trkpt lat="46.78809" lon="4.55731">
        <ele>269.15237426758</ele>
        <time>2021-05-23T09:02:48Z</time>
      </trkpt>
      <trkpt lat="46.78788" lon="4.55735">
        <ele>267.15151977539</ele>
        <time>2021-05-23T09:02:52Z</time>
      </trkpt>
      <trkpt lat="46.78769" lon="4.55736">
        <ele>264.15075683594</ele>
        <time>2021-05-23T09:02:56Z</time>
      </trkpt>
      <trkpt lat="46.78747" lon="4.55743">
        <ele>265.14987182617</ele>
        <time>2021-05-23T09:03:01Z</time>
      </trkpt>
      <trkpt lat="46.78728" lon="4.55746">
        <ele>263.14910888672</ele>
        <time>2021-05-23T09:03:05Z</time>
      </trkpt>
      <trkpt lat="46.78708" lon="4.55751">
        <ele>264.14831542969</ele>
        <time>2021-05-23T09:03:09Z</time>
      </trkpt>
      <trkpt lat="46.78682" lon="4.5575">
        <ele>266.14727783203</ele>
        <time>2021-05-23T09:03:14Z</time>
      </trkpt>
      <trkpt lat="46.78658" lon="4.5573">
        <ele>267.14633178711</ele>
        <time>2021-05-23T09:03:19Z</time>
      </trkpt>
      <trkpt lat="46.78645" lon="4.55708">
        <ele>264.1457824707</ele>
        <time>2021-05-23T09:03:23Z</time>
      </trkpt>
      <trkpt lat="46.7863" lon="4.55684">
        <ele>262.14520263672</ele>
        <time>2021-05-23T09:03:27Z</time>
      </trkpt>
      <trkpt lat="46.78616" lon="4.55664">
        <ele>260.14465332031</ele>
        <time>2021-05-23T09:03:31Z</time>
      </trkpt>
      <trkpt lat="46.78602" lon="4.55642">
        <ele>259.14410400391</ele>
        <time>2021-05-23T09:03:35Z</time>
      </trkpt>
      <trkpt lat="46.78581" lon="4.5562">
        <ele>259.14324951172</ele>
        <time>2021-05-23T09:03:40Z</time>
      </trkpt>
      <trkpt lat="46.78569" lon="4.55603">
        <ele>256.14276123047</ele>
        <time>2021-05-23T09:03:44Z</time>
      </trkpt>
      <trkpt lat="46.78555" lon="4.556">
        <ele>253.14219665527</ele>
        <time>2021-05-23T09:03:49Z</time>
      </trkpt>
      <trkpt lat="46.78538" lon="4.55588">
        <ele>256.14151000977</ele>
        <time>2021-05-23T09:03:53Z</time>
      </trkpt>
      <trkpt lat="46.78521" lon="4.55574">
        <ele>255.14083862305</ele>
        <time>2021-05-23T09:03:57Z</time>
      </trkpt>
      <trkpt lat="46.78501" lon="4.55548">
        <ele>257.14004516602</ele>
        <time>2021-05-23T09:04:02Z</time>
      </trkpt>
      <trkpt lat="46.78487" lon="4.55532">
        <ele>259.13946533203</ele>
        <time>2021-05-23T09:04:07Z</time>
      </trkpt>
      <trkpt lat="46.78457" lon="4.55505">
        <ele>261.13830566406</ele>
        <time>2021-05-23T09:04:12Z</time>
      </trkpt>
      <trkpt lat="46.78438" lon="4.55503">
        <ele>263.13754272461</ele>
        <time>2021-05-23T09:04:16Z</time>
      </trkpt>
      <trkpt lat="46.78431" lon="4.55511">
        <ele>263.13720703125</ele>
        <time>2021-05-23T09:04:20Z</time>
      </trkpt>
      <trkpt lat="46.78422" lon="4.55509">
        <ele>262.13687133789</ele>
        <time>2021-05-23T09:05:02Z</time>
      </trkpt>
      <trkpt lat="46.7843" lon="4.55512">
        <ele>264.13720703125</ele>
        <time>2021-05-23T09:06:20Z</time>
      </trkpt>
      <trkpt lat="46.78423" lon="4.55504">
        <ele>261.13690185547</ele>
        <time>2021-05-23T09:08:58Z</time>
      </trkpt>
      <trkpt lat="46.78415" lon="4.55497">
        <ele>262.13662719727</ele>
        <time>2021-05-23T09:09:26Z</time>
      </trkpt>
      <trkpt lat="46.78411" lon="4.55486">
        <ele>263.1364440918</ele>
        <time>2021-05-23T09:09:31Z</time>
      </trkpt>
      <trkpt lat="46.78405" lon="4.5547">
        <ele>263.13616943359</ele>
        <time>2021-05-23T09:09:36Z</time>
      </trkpt>
      <trkpt lat="46.78402" lon="4.55454">
        <ele>262.13607788086</ele>
        <time>2021-05-23T09:09:40Z</time>
      </trkpt>
      <trkpt lat="46.784" lon="4.55435">
        <ele>263.13598632812</ele>
        <time>2021-05-23T09:09:44Z</time>
      </trkpt>
      <trkpt lat="46.78399" lon="4.55414">
        <ele>263.13595581055</ele>
        <time>2021-05-23T09:09:48Z</time>
      </trkpt>
      <trkpt lat="46.78396" lon="4.55394">
        <ele>263.13586425781</ele>
        <time>2021-05-23T09:09:52Z</time>
      </trkpt>
      <trkpt lat="46.78394" lon="4.55366">
        <ele>264.13577270508</ele>
        <time>2021-05-23T09:09:57Z</time>
      </trkpt>
      <trkpt lat="46.78385" lon="4.55346">
        <ele>265.13540649414</ele>
        <time>2021-05-23T09:10:01Z</time>
      </trkpt>
      <trkpt lat="46.78371" lon="4.55323">
        <ele>267.13485717773</ele>
        <time>2021-05-23T09:10:06Z</time>
      </trkpt>
      <trkpt lat="46.7836" lon="4.55302">
        <ele>266.13439941406</ele>
        <time>2021-05-23T09:10:10Z</time>
      </trkpt>
      <trkpt lat="46.78346" lon="4.55275">
        <ele>266.13385009766</ele>
        <time>2021-05-23T09:10:15Z</time>
      </trkpt>
      <trkpt lat="46.78334" lon="4.55254">
        <ele>265.13336181641</ele>
        <time>2021-05-23T09:10:19Z</time>
      </trkpt>
      <trkpt lat="46.7832" lon="4.55225">
        <ele>264.13278198242</ele>
        <time>2021-05-23T09:10:24Z</time>
      </trkpt>
      <trkpt lat="46.78303" lon="4.55199">
        <ele>261.13214111328</ele>
        <time>2021-05-23T09:10:29Z</time>
      </trkpt>
      <trkpt lat="46.78289" lon="4.55178">
        <ele>260.1315612793</ele>
        <time>2021-05-23T09:10:33Z</time>
      </trkpt>
      <trkpt lat="46.78275" lon="4.5516">
        <ele>261.13098144531</ele>
        <time>2021-05-23T09:10:37Z</time>
      </trkpt>
      <trkpt lat="46.78262" lon="4.55137">
        <ele>261.13046264648</ele>
        <time>2021-05-23T09:10:41Z</time>
      </trkpt>
      <trkpt lat="46.78246" lon="4.55108">
        <ele>262.12982177734</ele>
        <time>2021-05-23T09:10:46Z</time>
      </trkpt>
      <trkpt lat="46.78234" lon="4.55082">
        <ele>263.12933349609</ele>
        <time>2021-05-23T09:10:50Z</time>
      </trkpt>
      <trkpt lat="46.7822" lon="4.55061">
        <ele>265.12881469727</ele>
        <time>2021-05-23T09:10:54Z</time>
      </trkpt>
      <trkpt lat="46.78207" lon="4.55041">
        <ele>266.12829589844</ele>
        <time>2021-05-23T09:10:58Z</time>
      </trkpt>
      <trkpt lat="46.7819" lon="4.55043">
        <ele>265.12759399414</ele>
        <time>2021-05-23T09:11:03Z</time>
      </trkpt>
      <trkpt lat="46.78176" lon="4.55048">
        <ele>265.12704467773</ele>
        <time>2021-05-23T09:11:07Z</time>
      </trkpt>
      <trkpt lat="46.78162" lon="4.5503">
        <ele>265.12649536133</ele>
        <time>2021-05-23T09:11:12Z</time>
      </trkpt>
      <trkpt lat="46.78152" lon="4.55013">
        <ele>265.12609863281</ele>
        <time>2021-05-23T09:11:16Z</time>
      </trkpt>
      <trkpt lat="46.78143" lon="4.54996">
        <ele>265.1257019043</ele>
        <time>2021-05-23T09:11:20Z</time>
      </trkpt>
      <trkpt lat="46.78131" lon="4.54976">
        <ele>266.12521362305</ele>
        <time>2021-05-23T09:11:25Z</time>
      </trkpt>
      <trkpt lat="46.7812" lon="4.5496">
        <ele>266.12478637695</ele>
        <time>2021-05-23T09:11:29Z</time>
      </trkpt>
      <trkpt lat="46.78108" lon="4.54942">
        <ele>267.12432861328</ele>
        <time>2021-05-23T09:11:33Z</time>
      </trkpt>
      <trkpt lat="46.78094" lon="4.5492">
        <ele>267.1237487793</ele>
        <time>2021-05-23T09:11:38Z</time>
      </trkpt>
      <trkpt lat="46.78082" lon="4.54902">
        <ele>267.12329101562</ele>
        <time>2021-05-23T09:11:42Z</time>
      </trkpt>
      <trkpt lat="46.78071" lon="4.54883">
        <ele>266.12283325195</ele>
        <time>2021-05-23T09:11:46Z</time>
      </trkpt>
      <trkpt lat="46.78059" lon="4.54862">
        <ele>265.1223449707</ele>
        <time>2021-05-23T09:11:50Z</time>
      </trkpt>
      <trkpt lat="46.78043" lon="4.5484">
        <ele>266.12173461914</ele>
        <time>2021-05-23T09:11:55Z</time>
      </trkpt>
      <trkpt lat="46.78027" lon="4.54825">
        <ele>265.12109375</ele>
        <time>2021-05-23T09:11:59Z</time>
      </trkpt>
      <trkpt lat="46.78015" lon="4.54805">
        <ele>265.12060546875</ele>
        <time>2021-05-23T09:12:03Z</time>
      </trkpt>
      <trkpt lat="46.78001" lon="4.54786">
        <ele>265.12002563477</ele>
        <time>2021-05-23T09:12:07Z</time>
      </trkpt>
      <trkpt lat="46.77977" lon="4.54768">
        <ele>266.11904907227</ele>
        <time>2021-05-23T09:12:12Z</time>
      </trkpt>
      <trkpt lat="46.7797" lon="4.54742">
        <ele>267.11880493164</ele>
        <time>2021-05-23T09:12:16Z</time>
      </trkpt>
      <trkpt lat="46.77958" lon="4.5473">
        <ele>267.11831665039</ele>
        <time>2021-05-23T09:12:19Z</time>
      </trkpt>
      <trkpt lat="46.77937" lon="4.54709">
        <ele>269.11749267578</ele>
        <time>2021-05-23T09:12:24Z</time>
      </trkpt>
      <trkpt lat="46.77924" lon="4.54692">
        <ele>270.11697387695</ele>
        <time>2021-05-23T09:12:28Z</time>
      </trkpt>
      <trkpt lat="46.77911" lon="4.54665">
        <ele>273.11642456055</ele>
        <time>2021-05-23T09:12:32Z</time>
      </trkpt>
      <trkpt lat="46.7789" lon="4.54652">
        <ele>272.11560058594</ele>
        <time>2021-05-23T09:12:37Z</time>
      </trkpt>
      <trkpt lat="46.77872" lon="4.54624">
        <ele>273.11489868164</ele>
        <time>2021-05-23T09:12:42Z</time>
      </trkpt>
      <trkpt lat="46.77861" lon="4.54609">
        <ele>272.11444091797</ele>
        <time>2021-05-23T09:12:46Z</time>
      </trkpt>
      <trkpt lat="46.77843" lon="4.54594">
        <ele>270.11373901367</ele>
        <time>2021-05-23T09:12:50Z</time>
      </trkpt>
      <trkpt lat="46.77824" lon="4.54573">
        <ele>269.11294555664</ele>
        <time>2021-05-23T09:12:55Z</time>
      </trkpt>
      <trkpt lat="46.77813" lon="4.54554">
        <ele>271.11251831055</ele>
        <time>2021-05-23T09:12:59Z</time>
      </trkpt>
      <trkpt lat="46.77799" lon="4.54535">
        <ele>269.11196899414</ele>
        <time>2021-05-23T09:13:03Z</time>
      </trkpt>
      <trkpt lat="46.7779" lon="4.54513">
        <ele>270.11157226562</ele>
        <time>2021-05-23T09:13:07Z</time>
      </trkpt>
      <trkpt lat="46.77778" lon="4.54494">
        <ele>271.11111450195</ele>
        <time>2021-05-23T09:13:11Z</time>
      </trkpt>
      <trkpt lat="46.77761" lon="4.54474">
        <ele>269.11047363281</ele>
        <time>2021-05-23T09:13:15Z</time>
      </trkpt>
      <trkpt lat="46.77745" lon="4.54452">
        <ele>267.10980224609</ele>
        <time>2021-05-23T09:13:20Z</time>
      </trkpt>
      <trkpt lat="46.7773" lon="4.54436">
        <ele>270.10919189453</ele>
        <time>2021-05-23T09:13:24Z</time>
      </trkpt>
      <trkpt lat="46.77713" lon="4.54421">
        <ele>270.10848999023</ele>
        <time>2021-05-23T09:13:28Z</time>
      </trkpt>
      <trkpt lat="46.777" lon="4.54412">
        <ele>270.10803222656</ele>
        <time>2021-05-23T09:13:32Z</time>
      </trkpt>
      <trkpt lat="46.7768" lon="4.54408">
        <ele>272.10717773438</ele>
        <time>2021-05-23T09:13:37Z</time>
      </trkpt>
      <trkpt lat="46.77661" lon="4.54404">
        <ele>272.1064453125</ele>
        <time>2021-05-23T09:13:41Z</time>
      </trkpt>
      <trkpt lat="46.77639" lon="4.54404">
        <ele>274.10556030273</ele>
        <time>2021-05-23T09:13:46Z</time>
      </trkpt>
      <trkpt lat="46.77617" lon="4.54404">
        <ele>276.10470581055</ele>
        <time>2021-05-23T09:13:51Z</time>
      </trkpt>
      <trkpt lat="46.77599" lon="4.544">
        <ele>279.10394287109</ele>
        <time>2021-05-23T09:13:55Z</time>
      </trkpt>
      <trkpt lat="46.77581" lon="4.5439">
        <ele>277.1032409668</ele>
        <time>2021-05-23T09:13:59Z</time>
      </trkpt>
      <trkpt lat="46.77558" lon="4.54372">
        <ele>274.10229492188</ele>
        <time>2021-05-23T09:14:04Z</time>
      </trkpt>
      <trkpt lat="46.77541" lon="4.54364">
        <ele>274.10162353516</ele>
        <time>2021-05-23T09:14:08Z</time>
      </trkpt>
      <trkpt lat="46.77522" lon="4.54358">
        <ele>274.10089111328</ele>
        <time>2021-05-23T09:14:12Z</time>
      </trkpt>
      <trkpt lat="46.77498" lon="4.54351">
        <ele>273.09991455078</ele>
        <time>2021-05-23T09:14:17Z</time>
      </trkpt>
      <trkpt lat="46.77485" lon="4.54364">
        <ele>273.09939575195</ele>
        <time>2021-05-23T09:14:22Z</time>
      </trkpt>
      <trkpt lat="46.7747" lon="4.54377">
        <ele>278.09878540039</ele>
        <time>2021-05-23T09:14:26Z</time>
      </trkpt>
      <trkpt lat="46.77454" lon="4.54384">
        <ele>280.09817504883</ele>
        <time>2021-05-23T09:14:30Z</time>
      </trkpt>
      <trkpt lat="46.7743" lon="4.5438">
        <ele>280.09719848633</ele>
        <time>2021-05-23T09:14:35Z</time>
      </trkpt>
      <trkpt lat="46.77408" lon="4.54379">
        <ele>280.09631347656</ele>
        <time>2021-05-23T09:14:40Z</time>
      </trkpt>
      <trkpt lat="46.7739" lon="4.54382">
        <ele>279.09561157227</ele>
        <time>2021-05-23T09:14:44Z</time>
      </trkpt>
      <trkpt lat="46.77368" lon="4.54385">
        <ele>277.0947265625</ele>
        <time>2021-05-23T09:14:49Z</time>
      </trkpt>
      <trkpt lat="46.7735" lon="4.54385">
        <ele>275.09399414062</ele>
        <time>2021-05-23T09:14:53Z</time>
      </trkpt>
      <trkpt lat="46.77332" lon="4.54384">
        <ele>278.09329223633</ele>
        <time>2021-05-23T09:14:57Z</time>
      </trkpt>
      <trkpt lat="46.77321" lon="4.54383">
        <ele>279.09283447266</ele>
        <time>2021-05-23T09:15:01Z</time>
      </trkpt>
      <trkpt lat="46.77313" lon="4.54395">
        <ele>278.0924987793</ele>
        <time>2021-05-23T09:15:06Z</time>
      </trkpt>
      <trkpt lat="46.77315" lon="4.54407">
        <ele>275.09259033203</ele>
        <time>2021-05-23T09:22:31Z</time>
      </trkpt>
      <trkpt lat="46.77311" lon="4.54428">
        <ele>273.09240722656</ele>
        <time>2021-05-23T09:22:36Z</time>
      </trkpt>
      <trkpt lat="46.77305" lon="4.5445">
        <ele>271.09222412109</ele>
        <time>2021-05-23T09:22:40Z</time>
      </trkpt>
      <trkpt lat="46.77306" lon="4.54477">
        <ele>271.09225463867</ele>
        <time>2021-05-23T09:22:45Z</time>
      </trkpt>
      <trkpt lat="46.77329" lon="4.54485">
        <ele>270.09313964844</ele>
        <time>2021-05-23T09:22:49Z</time>
      </trkpt>
      <trkpt lat="46.77355" lon="4.54487">
        <ele>271.09420776367</ele>
        <time>2021-05-23T09:22:54Z</time>
      </trkpt>
      <trkpt lat="46.77379" lon="4.54489">
        <ele>270.09518432617</ele>
        <time>2021-05-23T09:22:59Z</time>
      </trkpt>
      <trkpt lat="46.77401" lon="4.54506">
        <ele>270.09603881836</ele>
        <time>2021-05-23T09:23:04Z</time>
      </trkpt>
      <trkpt lat="46.77415" lon="4.5453">
        <ele>272.09661865234</ele>
        <time>2021-05-23T09:23:09Z</time>
      </trkpt>
      <trkpt lat="46.77424" lon="4.54553">
        <ele>272.0969543457</ele>
        <time>2021-05-23T09:23:13Z</time>
      </trkpt>
      <trkpt lat="46.7743" lon="4.54578">
        <ele>272.09719848633</ele>
        <time>2021-05-23T09:23:18Z</time>
      </trkpt>
      <trkpt lat="46.77429" lon="4.54597">
        <ele>272.09716796875</ele>
        <time>2021-05-23T09:23:22Z</time>
      </trkpt>
      <trkpt lat="46.77422" lon="4.54619">
        <ele>273.09689331055</ele>
        <time>2021-05-23T09:23:27Z</time>
      </trkpt>
      <trkpt lat="46.77415" lon="4.54636">
        <ele>273.09658813477</ele>
        <time>2021-05-23T09:23:31Z</time>
      </trkpt>
      <trkpt lat="46.77406" lon="4.54652">
        <ele>273.09625244141</ele>
        <time>2021-05-23T09:23:35Z</time>
      </trkpt>
      <trkpt lat="46.77396" lon="4.54668">
        <ele>273.09582519531</ele>
        <time>2021-05-23T09:23:40Z</time>
      </trkpt>
      <trkpt lat="46.77386" lon="4.54685">
        <ele>274.0954284668</ele>
        <time>2021-05-23T09:23:45Z</time>
      </trkpt>
      <trkpt lat="46.77375" lon="4.54703">
        <ele>274.0950012207</ele>
        <time>2021-05-23T09:23:50Z</time>
      </trkpt>
      <trkpt lat="46.77366" lon="4.54718">
        <ele>274.09463500977</ele>
        <time>2021-05-23T09:23:54Z</time>
      </trkpt>
      <trkpt lat="46.77357" lon="4.54734">
        <ele>274.09429931641</ele>
        <time>2021-05-23T09:23:58Z</time>
      </trkpt>
      <trkpt lat="46.77348" lon="4.54749">
        <ele>274.09393310547</ele>
        <time>2021-05-23T09:24:02Z</time>
      </trkpt>
      <trkpt lat="46.77337" lon="4.54769">
        <ele>274.09350585938</ele>
        <time>2021-05-23T09:24:07Z</time>
      </trkpt>
      <trkpt lat="46.7733" lon="4.54785">
        <ele>275.09317016602</ele>
        <time>2021-05-23T09:24:11Z</time>
      </trkpt>
      <trkpt lat="46.77323" lon="4.54802">
        <ele>276.09292602539</ele>
        <time>2021-05-23T09:24:15Z</time>
      </trkpt>
      <trkpt lat="46.77319" lon="4.54818">
        <ele>277.09274291992</ele>
        <time>2021-05-23T09:24:19Z</time>
      </trkpt>
      <trkpt lat="46.77316" lon="4.54834">
        <ele>278.09262084961</ele>
        <time>2021-05-23T09:24:23Z</time>
      </trkpt>
      <trkpt lat="46.77314" lon="4.54853">
        <ele>279.09255981445</ele>
        <time>2021-05-23T09:24:28Z</time>
      </trkpt>
      <trkpt lat="46.77314" lon="4.54868">
        <ele>280.09255981445</ele>
        <time>2021-05-23T09:24:32Z</time>
      </trkpt>
      <trkpt lat="46.77316" lon="4.54883">
        <ele>280.09265136719</ele>
        <time>2021-05-23T09:24:36Z</time>
      </trkpt>
      <trkpt lat="46.77319" lon="4.54897">
        <ele>282.09274291992</ele>
        <time>2021-05-23T09:24:40Z</time>
      </trkpt>
      <trkpt lat="46.77323" lon="4.54916">
        <ele>282.09292602539</ele>
        <time>2021-05-23T09:24:45Z</time>
      </trkpt>
      <trkpt lat="46.77327" lon="4.5493">
        <ele>283.09307861328</ele>
        <time>2021-05-23T09:24:49Z</time>
      </trkpt>
      <trkpt lat="46.7733" lon="4.54947">
        <ele>285.09323120117</ele>
        <time>2021-05-23T09:24:54Z</time>
      </trkpt>
      <trkpt lat="46.77333" lon="4.54961">
        <ele>285.09332275391</ele>
        <time>2021-05-23T09:24:58Z</time>
      </trkpt>
      <trkpt lat="46.77336" lon="4.54975">
        <ele>286.09344482422</ele>
        <time>2021-05-23T09:25:02Z</time>
      </trkpt>
      <trkpt lat="46.77335" lon="4.54992">
        <ele>287.09338378906</ele>
        <time>2021-05-23T09:25:07Z</time>
      </trkpt>
      <trkpt lat="46.77331" lon="4.55003">
        <ele>287.09326171875</ele>
        <time>2021-05-23T09:25:11Z</time>
      </trkpt>
      <trkpt lat="46.77327" lon="4.55011">
        <ele>289.09307861328</ele>
        <time>2021-05-23T09:25:20Z</time>
      </trkpt>
      <trkpt lat="46.77318" lon="4.55022">
        <ele>290.09271240234</ele>
        <time>2021-05-23T09:25:25Z</time>
      </trkpt>
      <trkpt lat="46.77312" lon="4.55031">
        <ele>289.09246826172</ele>
        <time>2021-05-23T09:25:29Z</time>
      </trkpt>
      <trkpt lat="46.77302" lon="4.5504">
        <ele>290.0920715332</ele>
        <time>2021-05-23T09:25:34Z</time>
      </trkpt>
      <trkpt lat="46.77295" lon="4.55054">
        <ele>291.091796875</ele>
        <time>2021-05-23T09:25:39Z</time>
      </trkpt>
      <trkpt lat="46.77291" lon="4.55067">
        <ele>292.09164428711</ele>
        <time>2021-05-23T09:25:43Z</time>
      </trkpt>
      <trkpt lat="46.77289" lon="4.55084">
        <ele>292.09155273438</ele>
        <time>2021-05-23T09:25:48Z</time>
      </trkpt>
      <trkpt lat="46.77288" lon="4.55102">
        <ele>294.0915222168</ele>
        <time>2021-05-23T09:25:53Z</time>
      </trkpt>
      <trkpt lat="46.77288" lon="4.55117">
        <ele>294.0915222168</ele>
        <time>2021-05-23T09:25:57Z</time>
      </trkpt>
      <trkpt lat="46.77288" lon="4.55132">
        <ele>295.0915222168</ele>
        <time>2021-05-23T09:26:01Z</time>
      </trkpt>
      <trkpt lat="46.77288" lon="4.5515">
        <ele>296.0915222168</ele>
        <time>2021-05-23T09:26:06Z</time>
      </trkpt>
      <trkpt lat="46.77288" lon="4.55166">
        <ele>297.0915222168</ele>
        <time>2021-05-23T09:26:11Z</time>
      </trkpt>
      <trkpt lat="46.77288" lon="4.5518">
        <ele>298.0915222168</ele>
        <time>2021-05-23T09:26:15Z</time>
      </trkpt>
      <trkpt lat="46.77288" lon="4.55194">
        <ele>300.0915222168</ele>
        <time>2021-05-23T09:26:19Z</time>
      </trkpt>
      <trkpt lat="46.77288" lon="4.55208">
        <ele>300.09149169922</ele>
        <time>2021-05-23T09:26:23Z</time>
      </trkpt>
      <trkpt lat="46.77287" lon="4.55227">
        <ele>301.09149169922</ele>
        <time>2021-05-23T09:26:28Z</time>
      </trkpt>
      <trkpt lat="46.77288" lon="4.55242">
        <ele>303.09149169922</ele>
        <time>2021-05-23T09:26:32Z</time>
      </trkpt>
      <trkpt lat="46.77288" lon="4.55257">
        <ele>304.0915222168</ele>
        <time>2021-05-23T09:26:36Z</time>
      </trkpt>
      <trkpt lat="46.77288" lon="4.55276">
        <ele>306.0915222168</ele>
        <time>2021-05-23T09:26:41Z</time>
      </trkpt>
      <trkpt lat="46.77288" lon="4.55291">
        <ele>306.09149169922</ele>
        <time>2021-05-23T09:26:45Z</time>
      </trkpt>
      <trkpt lat="46.77287" lon="4.5531">
        <ele>307.09149169922</ele>
        <time>2021-05-23T09:26:50Z</time>
      </trkpt>
      <trkpt lat="46.77287" lon="4.55325">
        <ele>307.09149169922</ele>
        <time>2021-05-23T09:26:54Z</time>
      </trkpt>
      <trkpt lat="46.7729" lon="4.55344">
        <ele>308.09158325195</ele>
        <time>2021-05-23T09:26:59Z</time>
      </trkpt>
      <trkpt lat="46.77295" lon="4.55359">
        <ele>310.09176635742</ele>
        <time>2021-05-23T09:27:03Z</time>
      </trkpt>
      <trkpt lat="46.77302" lon="4.55376">
        <ele>310.0920715332</ele>
        <time>2021-05-23T09:27:07Z</time>
      </trkpt>
      <trkpt lat="46.77309" lon="4.55392">
        <ele>310.09234619141</ele>
        <time>2021-05-23T09:27:11Z</time>
      </trkpt>
      <trkpt lat="46.77315" lon="4.55404">
        <ele>312.09259033203</ele>
        <time>2021-05-23T09:27:16Z</time>
      </trkpt>
      <trkpt lat="46.77317" lon="4.55414">
        <ele>311.09268188477</ele>
        <time>2021-05-23T09:27:23Z</time>
      </trkpt>
      <trkpt lat="46.77311" lon="4.55423">
        <ele>308.09246826172</ele>
        <time>2021-05-23T09:27:37Z</time>
      </trkpt>
      <trkpt lat="46.77308" lon="4.55437">
        <ele>308.09231567383</ele>
        <time>2021-05-23T09:27:41Z</time>
      </trkpt>
      <trkpt lat="46.77296" lon="4.55466">
        <ele>308.09185791016</ele>
        <time>2021-05-23T09:27:45Z</time>
      </trkpt>
      <trkpt lat="46.7729" lon="4.55495">
        <ele>311.09158325195</ele>
        <time>2021-05-23T09:27:49Z</time>
      </trkpt>
      <trkpt lat="46.77282" lon="4.5553">
        <ele>310.09130859375</ele>
        <time>2021-05-23T09:27:54Z</time>
      </trkpt>
      <trkpt lat="46.77275" lon="4.55559">
        <ele>308.09103393555</ele>
        <time>2021-05-23T09:27:59Z</time>
      </trkpt>
      <trkpt lat="46.77266" lon="4.55589">
        <ele>309.09066772461</ele>
        <time>2021-05-23T09:28:04Z</time>
      </trkpt>
      <trkpt lat="46.77259" lon="4.55609">
        <ele>310.09039306641</ele>
        <time>2021-05-23T09:28:08Z</time>
      </trkpt>
      <trkpt lat="46.77253" lon="4.5563">
        <ele>311.09008789062</ele>
        <time>2021-05-23T09:28:13Z</time>
      </trkpt>
      <trkpt lat="46.77245" lon="4.55644">
        <ele>312.08981323242</ele>
        <time>2021-05-23T09:28:17Z</time>
      </trkpt>
      <trkpt lat="46.7724" lon="4.55659">
        <ele>313.0895690918</ele>
        <time>2021-05-23T09:28:21Z</time>
      </trkpt>
      <trkpt lat="46.77236" lon="4.55675">
        <ele>312.08944702148</ele>
        <time>2021-05-23T09:28:25Z</time>
      </trkpt>
      <trkpt lat="46.77234" lon="4.55685">
        <ele>312.08935546875</ele>
        <time>2021-05-23T09:28:29Z</time>
      </trkpt>
      <trkpt lat="46.77225" lon="4.55694">
        <ele>310.08901977539</ele>
        <time>2021-05-23T09:28:34Z</time>
      </trkpt>
      <trkpt lat="46.77217" lon="4.55698">
        <ele>310.08868408203</ele>
        <time>2021-05-23T09:28:38Z</time>
      </trkpt>
      <trkpt lat="46.77206" lon="4.55702">
        <ele>311.08825683594</ele>
        <time>2021-05-23T09:28:43Z</time>
      </trkpt>
      <trkpt lat="46.77192" lon="4.55706">
        <ele>308.08767700195</ele>
        <time>2021-05-23T09:28:48Z</time>
      </trkpt>
      <trkpt lat="46.77169" lon="4.5571">
        <ele>307.08676147461</ele>
        <time>2021-05-23T09:28:52Z</time>
      </trkpt>
      <trkpt lat="46.7714" lon="4.55722">
        <ele>306.08557128906</ele>
        <time>2021-05-23T09:28:57Z</time>
      </trkpt>
      <trkpt lat="46.77109" lon="4.55758">
        <ele>305.08438110352</ele>
        <time>2021-05-23T09:29:01Z</time>
      </trkpt>
      <trkpt lat="46.77082" lon="4.55793">
        <ele>306.0832824707</ele>
        <time>2021-05-23T09:29:06Z</time>
      </trkpt>
      <trkpt lat="46.77065" lon="4.55809">
        <ele>310.08261108398</ele>
        <time>2021-05-23T09:29:10Z</time>
      </trkpt>
      <trkpt lat="46.77047" lon="4.55821">
        <ele>312.08187866211</ele>
        <time>2021-05-23T09:29:15Z</time>
      </trkpt>
      <trkpt lat="46.77037" lon="4.55836">
        <ele>314.08151245117</ele>
        <time>2021-05-23T09:29:19Z</time>
      </trkpt>
      <trkpt lat="46.77032" lon="4.5586">
        <ele>315.08129882812</ele>
        <time>2021-05-23T09:29:24Z</time>
      </trkpt>
      <trkpt lat="46.77029" lon="4.55875">
        <ele>316.08114624023</ele>
        <time>2021-05-23T09:29:28Z</time>
      </trkpt>
      <trkpt lat="46.77026" lon="4.55888">
        <ele>317.08102416992</ele>
        <time>2021-05-23T09:29:32Z</time>
      </trkpt>
      <trkpt lat="46.77022" lon="4.55903">
        <ele>316.08090209961</ele>
        <time>2021-05-23T09:29:37Z</time>
      </trkpt>
      <trkpt lat="46.7702" lon="4.55913">
        <ele>318.08081054688</ele>
        <time>2021-05-23T09:29:41Z</time>
      </trkpt>
      <trkpt lat="46.77015" lon="4.55926">
        <ele>318.08062744141</ele>
        <time>2021-05-23T09:29:45Z</time>
      </trkpt>
      <trkpt lat="46.77011" lon="4.55948">
        <ele>318.08044433594</ele>
        <time>2021-05-23T09:29:50Z</time>
      </trkpt>
      <trkpt lat="46.77004" lon="4.55965">
        <ele>320.08013916016</ele>
        <time>2021-05-23T09:29:54Z</time>
      </trkpt>
      <trkpt lat="46.76998" lon="4.55981">
        <ele>322.07989501953</ele>
        <time>2021-05-23T09:29:59Z</time>
      </trkpt>
      <trkpt lat="46.76996" lon="4.55995">
        <ele>325.07983398438</ele>
        <time>2021-05-23T09:30:03Z</time>
      </trkpt>
      <trkpt lat="46.77" lon="4.56011">
        <ele>324.08001708984</ele>
        <time>2021-05-23T09:30:08Z</time>
      </trkpt>
      <trkpt lat="46.77008" lon="4.56025">
        <ele>324.08029174805</ele>
        <time>2021-05-23T09:30:13Z</time>
      </trkpt>
      <trkpt lat="46.77012" lon="4.56032">
        <ele>325.08047485352</ele>
        <time>2021-05-23T09:30:16Z</time>
      </trkpt>
      <trkpt lat="46.77022" lon="4.56046">
        <ele>326.08087158203</ele>
        <time>2021-05-23T09:30:21Z</time>
      </trkpt>
      <trkpt lat="46.77028" lon="4.56056">
        <ele>327.08111572266</ele>
        <time>2021-05-23T09:30:25Z</time>
      </trkpt>
      <trkpt lat="46.77033" lon="4.56065">
        <ele>329.0813293457</ele>
        <time>2021-05-23T09:30:29Z</time>
      </trkpt>
      <trkpt lat="46.7704" lon="4.56081">
        <ele>330.08160400391</ele>
        <time>2021-05-23T09:30:34Z</time>
      </trkpt>
      <trkpt lat="46.77047" lon="4.56097">
        <ele>329.08187866211</ele>
        <time>2021-05-23T09:30:38Z</time>
      </trkpt>
      <trkpt lat="46.77053" lon="4.56108">
        <ele>329.08212280273</ele>
        <time>2021-05-23T09:30:42Z</time>
      </trkpt>
      <trkpt lat="46.77058" lon="4.56119">
        <ele>328.08233642578</ele>
        <time>2021-05-23T09:30:46Z</time>
      </trkpt>
      <trkpt lat="46.77064" lon="4.56131">
        <ele>328.08255004883</ele>
        <time>2021-05-23T09:30:50Z</time>
      </trkpt>
      <trkpt lat="46.77069" lon="4.56142">
        <ele>327.08276367188</ele>
        <time>2021-05-23T09:30:54Z</time>
      </trkpt>
      <trkpt lat="46.77074" lon="4.56151">
        <ele>328.08294677734</ele>
        <time>2021-05-23T09:30:58Z</time>
      </trkpt>
      <trkpt lat="46.7708" lon="4.5616">
        <ele>329.08319091797</ele>
        <time>2021-05-23T09:31:02Z</time>
      </trkpt>
      <trkpt lat="46.77085" lon="4.56173">
        <ele>330.08343505859</ele>
        <time>2021-05-23T09:31:07Z</time>
      </trkpt>
      <trkpt lat="46.77093" lon="4.56182">
        <ele>329.0837097168</ele>
        <time>2021-05-23T09:31:11Z</time>
      </trkpt>
      <trkpt lat="46.77102" lon="4.5619">
        <ele>330.08404541016</ele>
        <time>2021-05-23T09:31:16Z</time>
      </trkpt>
      <trkpt lat="46.77107" lon="4.56196">
        <ele>330.08428955078</ele>
        <time>2021-05-23T09:31:22Z</time>
      </trkpt>
      <trkpt lat="46.77116" lon="4.56234">
        <ele>329.08465576172</ele>
        <time>2021-05-23T09:31:42Z</time>
      </trkpt>
      <trkpt lat="46.7712" lon="4.56242">
        <ele>335.08480834961</ele>
        <time>2021-05-23T09:32:07Z</time>
      </trkpt>
      <trkpt lat="46.77126" lon="4.56262">
        <ele>336.08505249023</ele>
        <time>2021-05-23T09:32:12Z</time>
      </trkpt>
      <trkpt lat="46.77132" lon="4.56285">
        <ele>337.08529663086</ele>
        <time>2021-05-23T09:32:17Z</time>
      </trkpt>
      <trkpt lat="46.77137" lon="4.56302">
        <ele>338.08547973633</ele>
        <time>2021-05-23T09:32:21Z</time>
      </trkpt>
      <trkpt lat="46.77143" lon="4.56318">
        <ele>338.08572387695</ele>
        <time>2021-05-23T09:32:25Z</time>
      </trkpt>
      <trkpt lat="46.77153" lon="4.56335">
        <ele>337.08609008789</ele>
        <time>2021-05-23T09:32:30Z</time>
      </trkpt>
      <trkpt lat="46.77161" lon="4.56348">
        <ele>339.08645629883</ele>
        <time>2021-05-23T09:32:35Z</time>
      </trkpt>
      <trkpt lat="46.77169" lon="4.5635">
        <ele>338.08676147461</ele>
        <time>2021-05-23T09:32:56Z</time>
      </trkpt>
      <trkpt lat="46.77165" lon="4.5636">
        <ele>327.08660888672</ele>
        <time>2021-05-23T09:33:15Z</time>
      </trkpt>
      <trkpt lat="46.77158" lon="4.56368">
        <ele>323.08630371094</ele>
        <time>2021-05-23T09:33:19Z</time>
      </trkpt>
      <trkpt lat="46.77153" lon="4.56376">
        <ele>335.08612060547</ele>
        <time>2021-05-23T09:34:55Z</time>
      </trkpt>
      <trkpt lat="46.77148" lon="4.56387">
        <ele>337.08590698242</ele>
        <time>2021-05-23T09:34:59Z</time>
      </trkpt>
      <trkpt lat="46.77152" lon="4.564">
        <ele>342.08609008789</ele>
        <time>2021-05-23T09:35:04Z</time>
      </trkpt>
      <trkpt lat="46.77158" lon="4.56411">
        <ele>344.08633422852</ele>
        <time>2021-05-23T09:35:08Z</time>
      </trkpt>
      <trkpt lat="46.77167" lon="4.56423">
        <ele>349.08666992188</ele>
        <time>2021-05-23T09:35:13Z</time>
      </trkpt>
      <trkpt lat="46.77176" lon="4.56439">
        <ele>350.08706665039</ele>
        <time>2021-05-23T09:35:18Z</time>
      </trkpt>
      <trkpt lat="46.77186" lon="4.56453">
        <ele>348.08746337891</ele>
        <time>2021-05-23T09:35:22Z</time>
      </trkpt>
      <trkpt lat="46.77197" lon="4.56468">
        <ele>348.08786010742</ele>
        <time>2021-05-23T09:35:26Z</time>
      </trkpt>
      <trkpt lat="46.77206" lon="4.56482">
        <ele>351.08825683594</ele>
        <time>2021-05-23T09:35:30Z</time>
      </trkpt>
      <trkpt lat="46.77218" lon="4.56496">
        <ele>347.08871459961</ele>
        <time>2021-05-23T09:35:34Z</time>
      </trkpt>
      <trkpt lat="46.77235" lon="4.5652">
        <ele>346.08941650391</ele>
        <time>2021-05-23T09:35:39Z</time>
      </trkpt>
      <trkpt lat="46.77248" lon="4.5654">
        <ele>343.08993530273</ele>
        <time>2021-05-23T09:35:43Z</time>
      </trkpt>
      <trkpt lat="46.77262" lon="4.56578">
        <ele>341.09048461914</ele>
        <time>2021-05-23T09:35:48Z</time>
      </trkpt>
      <trkpt lat="46.77276" lon="4.56606">
        <ele>341.09106445312</ele>
        <time>2021-05-23T09:35:53Z</time>
      </trkpt>
      <trkpt lat="46.77283" lon="4.56633">
        <ele>341.09130859375</ele>
        <time>2021-05-23T09:35:57Z</time>
      </trkpt>
      <trkpt lat="46.77293" lon="4.56665">
        <ele>341.09170532227</ele>
        <time>2021-05-23T09:36:01Z</time>
      </trkpt>
      <trkpt lat="46.77304" lon="4.56697">
        <ele>344.09216308594</ele>
        <time>2021-05-23T09:36:05Z</time>
      </trkpt>
      <trkpt lat="46.7731" lon="4.56723">
        <ele>344.09240722656</ele>
        <time>2021-05-23T09:36:09Z</time>
      </trkpt>
      <trkpt lat="46.77335" lon="4.56771">
        <ele>338.09338378906</ele>
        <time>2021-05-23T09:36:14Z</time>
      </trkpt>
      <trkpt lat="46.77359" lon="4.56806">
        <ele>335.09436035156</ele>
        <time>2021-05-23T09:36:18Z</time>
      </trkpt>
      <trkpt lat="46.774" lon="4.56846">
        <ele>329.09600830078</ele>
        <time>2021-05-23T09:36:22Z</time>
      </trkpt>
      <trkpt lat="46.7744" lon="4.56911">
        <ele>323.09759521484</ele>
        <time>2021-05-23T09:36:27Z</time>
      </trkpt>
      <trkpt lat="46.77435" lon="4.56966">
        <ele>314.0973815918</ele>
        <time>2021-05-23T09:36:31Z</time>
      </trkpt>
      <trkpt lat="46.77429" lon="4.57027">
        <ele>306.09716796875</ele>
        <time>2021-05-23T09:36:35Z</time>
      </trkpt>
      <trkpt lat="46.77437" lon="4.57091">
        <ele>301.09747314453</ele>
        <time>2021-05-23T09:36:39Z</time>
      </trkpt>
      <trkpt lat="46.77467" lon="4.5716">
        <ele>300.09869384766</ele>
        <time>2021-05-23T09:36:44Z</time>
      </trkpt>
      <trkpt lat="46.77513" lon="4.57189">
        <ele>295.10052490234</ele>
        <time>2021-05-23T09:36:48Z</time>
      </trkpt>
      <trkpt lat="46.77552" lon="4.57232">
        <ele>290.10211181641</ele>
        <time>2021-05-23T09:36:52Z</time>
      </trkpt>
      <trkpt lat="46.7759" lon="4.57259">
        <ele>288.10360717773</ele>
        <time>2021-05-23T09:36:56Z</time>
      </trkpt>
      <trkpt lat="46.77636" lon="4.5727">
        <ele>286.10540771484</ele>
        <time>2021-05-23T09:37:01Z</time>
      </trkpt>
      <trkpt lat="46.77656" lon="4.57294">
        <ele>286.10623168945</ele>
        <time>2021-05-23T09:37:05Z</time>
      </trkpt>
      <trkpt lat="46.7766" lon="4.5732">
        <ele>286.10641479492</ele>
        <time>2021-05-23T09:37:09Z</time>
      </trkpt>
      <trkpt lat="46.77664" lon="4.5734">
        <ele>288.10656738281</ele>
        <time>2021-05-23T09:37:13Z</time>
      </trkpt>
      <trkpt lat="46.77669" lon="4.57358">
        <ele>289.10675048828</ele>
        <time>2021-05-23T09:37:17Z</time>
      </trkpt>
      <trkpt lat="46.77673" lon="4.57376">
        <ele>290.10690307617</ele>
        <time>2021-05-23T09:37:21Z</time>
      </trkpt>
      <trkpt lat="46.77678" lon="4.57396">
        <ele>293.10708618164</ele>
        <time>2021-05-23T09:37:26Z</time>
      </trkpt>
      <trkpt lat="46.7768" lon="4.5741">
        <ele>294.10720825195</ele>
        <time>2021-05-23T09:37:30Z</time>
      </trkpt>
      <trkpt lat="46.77685" lon="4.57428">
        <ele>295.107421875</ele>
        <time>2021-05-23T09:37:35Z</time>
      </trkpt>
      <trkpt lat="46.7769" lon="4.57442">
        <ele>297.10760498047</ele>
        <time>2021-05-23T09:37:39Z</time>
      </trkpt>
      <trkpt lat="46.77695" lon="4.57456">
        <ele>298.10781860352</ele>
        <time>2021-05-23T09:37:43Z</time>
      </trkpt>
      <trkpt lat="46.77702" lon="4.5747">
        <ele>299.10806274414</ele>
        <time>2021-05-23T09:37:47Z</time>
      </trkpt>
      <trkpt lat="46.77708" lon="4.57484">
        <ele>300.10830688477</ele>
        <time>2021-05-23T09:37:51Z</time>
      </trkpt>
      <trkpt lat="46.77716" lon="4.575">
        <ele>301.10861206055</ele>
        <time>2021-05-23T09:37:55Z</time>
      </trkpt>
      <trkpt lat="46.77724" lon="4.57521">
        <ele>302.10897827148</ele>
        <time>2021-05-23T09:37:59Z</time>
      </trkpt>
      <trkpt lat="46.77734" lon="4.57541">
        <ele>302.10934448242</ele>
        <time>2021-05-23T09:38:03Z</time>
      </trkpt>
      <trkpt lat="46.77745" lon="4.57564">
        <ele>304.10980224609</ele>
        <time>2021-05-23T09:38:08Z</time>
      </trkpt>
      <trkpt lat="46.77755" lon="4.57581">
        <ele>305.11016845703</ele>
        <time>2021-05-23T09:38:12Z</time>
      </trkpt>
      <trkpt lat="46.77765" lon="4.57602">
        <ele>306.11059570312</ele>
        <time>2021-05-23T09:38:17Z</time>
      </trkpt>
      <trkpt lat="46.77774" lon="4.57623">
        <ele>307.11099243164</ele>
        <time>2021-05-23T09:38:22Z</time>
      </trkpt>
      <trkpt lat="46.77782" lon="4.57639">
        <ele>307.11129760742</ele>
        <time>2021-05-23T09:38:26Z</time>
      </trkpt>
      <trkpt lat="46.77792" lon="4.57659">
        <ele>309.11169433594</ele>
        <time>2021-05-23T09:38:31Z</time>
      </trkpt>
      <trkpt lat="46.77801" lon="4.57681">
        <ele>307.1120300293</ele>
        <time>2021-05-23T09:38:36Z</time>
      </trkpt>
      <trkpt lat="46.77808" lon="4.57698">
        <ele>307.11233520508</ele>
        <time>2021-05-23T09:38:40Z</time>
      </trkpt>
      <trkpt lat="46.77816" lon="4.57714">
        <ele>306.11264038086</ele>
        <time>2021-05-23T09:38:44Z</time>
      </trkpt>
      <trkpt lat="46.77824" lon="4.57726">
        <ele>305.11294555664</ele>
        <time>2021-05-23T09:38:48Z</time>
      </trkpt>
      <trkpt lat="46.77833" lon="4.57736">
        <ele>306.11331176758</ele>
        <time>2021-05-23T09:38:52Z</time>
      </trkpt>
      <trkpt lat="46.77846" lon="4.57748">
        <ele>307.11383056641</ele>
        <time>2021-05-23T09:38:57Z</time>
      </trkpt>
      <trkpt lat="46.77857" lon="4.57756">
        <ele>315.11428833008</ele>
        <time>2021-05-23T09:39:01Z</time>
      </trkpt>
      <trkpt lat="46.77871" lon="4.57768">
        <ele>316.11483764648</ele>
        <time>2021-05-23T09:39:06Z</time>
      </trkpt>
      <trkpt lat="46.77886" lon="4.57777">
        <ele>317.11544799805</ele>
        <time>2021-05-23T09:39:11Z</time>
      </trkpt>
      <trkpt lat="46.77897" lon="4.57784">
        <ele>317.11587524414</ele>
        <time>2021-05-23T09:39:15Z</time>
      </trkpt>
      <trkpt lat="46.7791" lon="4.57797">
        <ele>321.11639404297</ele>
        <time>2021-05-23T09:39:20Z</time>
      </trkpt>
      <trkpt lat="46.77923" lon="4.57805">
        <ele>323.1169128418</ele>
        <time>2021-05-23T09:39:25Z</time>
      </trkpt>
      <trkpt lat="46.77934" lon="4.57813">
        <ele>323.11734008789</ele>
        <time>2021-05-23T09:39:29Z</time>
      </trkpt>
      <trkpt lat="46.77946" lon="4.57824">
        <ele>325.11785888672</ele>
        <time>2021-05-23T09:39:34Z</time>
      </trkpt>
      <trkpt lat="46.77957" lon="4.57832">
        <ele>326.11828613281</ele>
        <time>2021-05-23T09:39:38Z</time>
      </trkpt>
      <trkpt lat="46.77967" lon="4.5784">
        <ele>327.11871337891</ele>
        <time>2021-05-23T09:39:42Z</time>
      </trkpt>
      <trkpt lat="46.7798" lon="4.57851">
        <ele>329.11923217773</ele>
        <time>2021-05-23T09:39:47Z</time>
      </trkpt>
      <trkpt lat="46.77995" lon="4.5786">
        <ele>329.11981201172</ele>
        <time>2021-05-23T09:39:52Z</time>
      </trkpt>
      <trkpt lat="46.78007" lon="4.57866">
        <ele>330.12026977539</ele>
        <time>2021-05-23T09:39:56Z</time>
      </trkpt>
      <trkpt lat="46.78019" lon="4.57872">
        <ele>330.12075805664</ele>
        <time>2021-05-23T09:40:00Z</time>
      </trkpt>
      <trkpt lat="46.78032" lon="4.57877">
        <ele>331.12127685547</ele>
        <time>2021-05-23T09:40:04Z</time>
      </trkpt>
      <trkpt lat="46.78048" lon="4.57885">
        <ele>332.12194824219</ele>
        <time>2021-05-23T09:40:09Z</time>
      </trkpt>
      <trkpt lat="46.78061" lon="4.57891">
        <ele>333.12246704102</ele>
        <time>2021-05-23T09:40:13Z</time>
      </trkpt>
      <trkpt lat="46.78074" lon="4.57899">
        <ele>333.12295532227</ele>
        <time>2021-05-23T09:40:17Z</time>
      </trkpt>
      <trkpt lat="46.78086" lon="4.57907">
        <ele>334.12344360352</ele>
        <time>2021-05-23T09:40:21Z</time>
      </trkpt>
      <trkpt lat="46.78098" lon="4.57918">
        <ele>334.12390136719</ele>
        <time>2021-05-23T09:40:25Z</time>
      </trkpt>
      <trkpt lat="46.78109" lon="4.57929">
        <ele>335.12435913086</ele>
        <time>2021-05-23T09:40:29Z</time>
      </trkpt>
      <trkpt lat="46.78122" lon="4.57944">
        <ele>335.12490844727</ele>
        <time>2021-05-23T09:40:34Z</time>
      </trkpt>
      <trkpt lat="46.78133" lon="4.57955">
        <ele>337.12533569336</ele>
        <time>2021-05-23T09:40:38Z</time>
      </trkpt>
      <trkpt lat="46.78144" lon="4.57967">
        <ele>338.12576293945</ele>
        <time>2021-05-23T09:40:42Z</time>
      </trkpt>
      <trkpt lat="46.78154" lon="4.57981">
        <ele>339.12615966797</ele>
        <time>2021-05-23T09:40:47Z</time>
      </trkpt>
      <trkpt lat="46.78159" lon="4.57991">
        <ele>339.12637329102</ele>
        <time>2021-05-23T09:40:51Z</time>
      </trkpt>
      <trkpt lat="46.78164" lon="4.58">
        <ele>340.12655639648</ele>
        <time>2021-05-23T09:40:56Z</time>
      </trkpt>
      <trkpt lat="46.78173" lon="4.58">
        <ele>342.12692260742</ele>
        <time>2021-05-23T09:41:05Z</time>
      </trkpt>
      <trkpt lat="46.78173" lon="4.57984">
        <ele>342.12692260742</ele>
        <time>2021-05-23T09:41:10Z</time>
      </trkpt>
      <trkpt lat="46.78165" lon="4.57979">
        <ele>341.12658691406</ele>
        <time>2021-05-23T09:41:14Z</time>
      </trkpt>
      <trkpt lat="46.78159" lon="4.57986">
        <ele>342.12634277344</ele>
        <time>2021-05-23T09:41:20Z</time>
      </trkpt>
      <trkpt lat="46.78153" lon="4.57996">
        <ele>341.12609863281</ele>
        <time>2021-05-23T09:45:02Z</time>
      </trkpt>
      <trkpt lat="46.78161" lon="4.57999">
        <ele>342.12643432617</ele>
        <time>2021-05-23T09:45:30Z</time>
      </trkpt>
      <trkpt lat="46.78936" lon="4.59034">
        <ele>388.15744018555</ele>
        <time>2021-05-23T09:48:19Z</time>
      </trkpt>
      <trkpt lat="46.78936" lon="4.59042">
        <ele>389.15747070312</ele>
        <time>2021-05-23T09:54:18Z</time>
      </trkpt>
      <trkpt lat="46.78953" lon="4.59077">
        <ele>393.15814208984</ele>
        <time>2021-05-23T09:54:23Z</time>
      </trkpt>
      <trkpt lat="46.78976" lon="4.5912">
        <ele>394.15902709961</ele>
        <time>2021-05-23T09:54:28Z</time>
      </trkpt>
      <trkpt lat="46.78999" lon="4.59164">
        <ele>394.15997314453</ele>
        <time>2021-05-23T09:54:33Z</time>
      </trkpt>
      <trkpt lat="46.7901" lon="4.592">
        <ele>391.16040039062</ele>
        <time>2021-05-23T09:54:37Z</time>
      </trkpt>
      <trkpt lat="46.79018" lon="4.59228">
        <ele>390.16073608398</ele>
        <time>2021-05-23T09:54:41Z</time>
      </trkpt>
      <trkpt lat="46.79029" lon="4.59265">
        <ele>391.16116333008</ele>
        <time>2021-05-23T09:54:46Z</time>
      </trkpt>
      <trkpt lat="46.79044" lon="4.59293">
        <ele>393.16177368164</ele>
        <time>2021-05-23T09:54:50Z</time>
      </trkpt>
      <trkpt lat="46.79047" lon="4.59315">
        <ele>389.16186523438</ele>
        <time>2021-05-23T09:54:54Z</time>
      </trkpt>
      <trkpt lat="46.79058" lon="4.59343">
        <ele>391.16232299805</ele>
        <time>2021-05-23T09:54:59Z</time>
      </trkpt>
      <trkpt lat="46.79068" lon="4.59369">
        <ele>391.16271972656</ele>
        <time>2021-05-23T09:55:04Z</time>
      </trkpt>
      <trkpt lat="46.79075" lon="4.59388">
        <ele>394.16299438477</ele>
        <time>2021-05-23T09:55:08Z</time>
      </trkpt>
      <trkpt lat="46.79082" lon="4.5941">
        <ele>395.16326904297</ele>
        <time>2021-05-23T09:55:12Z</time>
      </trkpt>
      <trkpt lat="46.79087" lon="4.59432">
        <ele>396.16351318359</ele>
        <time>2021-05-23T09:55:16Z</time>
      </trkpt>
      <trkpt lat="46.79093" lon="4.59454">
        <ele>397.16369628906</ele>
        <time>2021-05-23T09:55:20Z</time>
      </trkpt>
      <trkpt lat="46.79097" lon="4.59476">
        <ele>397.16390991211</ele>
        <time>2021-05-23T09:55:24Z</time>
      </trkpt>
      <trkpt lat="46.79103" lon="4.59503">
        <ele>397.16412353516</ele>
        <time>2021-05-23T09:55:29Z</time>
      </trkpt>
      <trkpt lat="46.79108" lon="4.59526">
        <ele>398.16430664062</ele>
        <time>2021-05-23T09:55:33Z</time>
      </trkpt>
      <trkpt lat="46.79112" lon="4.59548">
        <ele>399.16448974609</ele>
        <time>2021-05-23T09:55:37Z</time>
      </trkpt>
      <trkpt lat="46.79118" lon="4.59574">
        <ele>400.16473388672</ele>
        <time>2021-05-23T09:55:42Z</time>
      </trkpt>
      <trkpt lat="46.79123" lon="4.59594">
        <ele>400.16491699219</ele>
        <time>2021-05-23T09:55:46Z</time>
      </trkpt>
      <trkpt lat="46.79129" lon="4.59617">
        <ele>401.16519165039</ele>
        <time>2021-05-23T09:55:51Z</time>
      </trkpt>
      <trkpt lat="46.79136" lon="4.5964">
        <ele>403.16546630859</ele>
        <time>2021-05-23T09:55:56Z</time>
      </trkpt>
      <trkpt lat="46.7914" lon="4.59653">
        <ele>403.16561889648</ele>
        <time>2021-05-23T09:55:59Z</time>
      </trkpt>
      <trkpt lat="46.79148" lon="4.59674">
        <ele>404.16592407227</ele>
        <time>2021-05-23T09:56:04Z</time>
      </trkpt>
      <trkpt lat="46.79154" lon="4.59691">
        <ele>404.16616821289</ele>
        <time>2021-05-23T09:56:08Z</time>
      </trkpt>
      <trkpt lat="46.79162" lon="4.59711">
        <ele>405.16647338867</ele>
        <time>2021-05-23T09:56:13Z</time>
      </trkpt>
      <trkpt lat="46.79167" lon="4.59729">
        <ele>405.16665649414</ele>
        <time>2021-05-23T09:56:17Z</time>
      </trkpt>
      <trkpt lat="46.79171" lon="4.59746">
        <ele>405.16683959961</ele>
        <time>2021-05-23T09:56:21Z</time>
      </trkpt>
      <trkpt lat="46.79175" lon="4.59763">
        <ele>405.1669921875</ele>
        <time>2021-05-23T09:56:25Z</time>
      </trkpt>
      <trkpt lat="46.79179" lon="4.59785">
        <ele>406.16714477539</ele>
        <time>2021-05-23T09:56:30Z</time>
      </trkpt>
      <trkpt lat="46.79183" lon="4.59807">
        <ele>406.16732788086</ele>
        <time>2021-05-23T09:56:35Z</time>
      </trkpt>
      <trkpt lat="46.79185" lon="4.59824">
        <ele>407.16741943359</ele>
        <time>2021-05-23T09:56:39Z</time>
      </trkpt>
      <trkpt lat="46.7919" lon="4.59843">
        <ele>408.16760253906</ele>
        <time>2021-05-23T09:56:44Z</time>
      </trkpt>
      <trkpt lat="46.79196" lon="4.59858">
        <ele>409.16781616211</ele>
        <time>2021-05-23T09:56:48Z</time>
      </trkpt>
      <trkpt lat="46.79201" lon="4.59873">
        <ele>410.16806030273</ele>
        <time>2021-05-23T09:56:52Z</time>
      </trkpt>
      <trkpt lat="46.79207" lon="4.59887">
        <ele>410.16827392578</ele>
        <time>2021-05-23T09:56:56Z</time>
      </trkpt>
      <trkpt lat="46.79213" lon="4.599">
        <ele>411.16851806641</ele>
        <time>2021-05-23T09:57:00Z</time>
      </trkpt>
      <trkpt lat="46.79219" lon="4.59912">
        <ele>412.16876220703</ele>
        <time>2021-05-23T09:57:04Z</time>
      </trkpt>
      <trkpt lat="46.79225" lon="4.59924">
        <ele>415.16897583008</ele>
        <time>2021-05-23T09:57:08Z</time>
      </trkpt>
      <trkpt lat="46.79232" lon="4.59939">
        <ele>416.16928100586</ele>
        <time>2021-05-23T09:57:13Z</time>
      </trkpt>
      <trkpt lat="46.79237" lon="4.5995">
        <ele>417.16949462891</ele>
        <time>2021-05-23T09:57:17Z</time>
      </trkpt>
      <trkpt lat="46.79243" lon="4.59963">
        <ele>417.16973876953</ele>
        <time>2021-05-23T09:57:21Z</time>
      </trkpt>
      <trkpt lat="46.79252" lon="4.5998">
        <ele>417.17007446289</ele>
        <time>2021-05-23T09:57:26Z</time>
      </trkpt>
      <trkpt lat="46.79259" lon="4.59992">
        <ele>418.17037963867</ele>
        <time>2021-05-23T09:57:30Z</time>
      </trkpt>
      <trkpt lat="46.79267" lon="4.60003">
        <ele>418.17068481445</ele>
        <time>2021-05-23T09:57:34Z</time>
      </trkpt>
      <trkpt lat="46.79275" lon="4.60014">
        <ele>419.17098999023</ele>
        <time>2021-05-23T09:57:38Z</time>
      </trkpt>
      <trkpt lat="46.79282" lon="4.60025">
        <ele>420.17129516602</ele>
        <time>2021-05-23T09:57:42Z</time>
      </trkpt>
      <trkpt lat="46.7929" lon="4.60035">
        <ele>420.1716003418</ele>
        <time>2021-05-23T09:57:46Z</time>
      </trkpt>
      <trkpt lat="46.79298" lon="4.60045">
        <ele>420.17190551758</ele>
        <time>2021-05-23T09:57:50Z</time>
      </trkpt>
      <trkpt lat="46.79306" lon="4.60052">
        <ele>420.17224121094</ele>
        <time>2021-05-23T09:57:54Z</time>
      </trkpt>
      <trkpt lat="46.79316" lon="4.60061">
        <ele>422.17263793945</ele>
        <time>2021-05-23T09:57:58Z</time>
      </trkpt>
      <trkpt lat="46.79328" lon="4.60068">
        <ele>422.1731262207</ele>
        <time>2021-05-23T09:58:02Z</time>
      </trkpt>
      <trkpt lat="46.7934" lon="4.6007">
        <ele>422.17361450195</ele>
        <time>2021-05-23T09:58:06Z</time>
      </trkpt>
      <trkpt lat="46.79353" lon="4.6007">
        <ele>423.1741027832</ele>
        <time>2021-05-23T09:58:10Z</time>
      </trkpt>
      <trkpt lat="46.79364" lon="4.60072">
        <ele>423.17456054688</ele>
        <time>2021-05-23T09:58:14Z</time>
      </trkpt>
      <trkpt lat="46.79376" lon="4.60077">
        <ele>423.17504882812</ele>
        <time>2021-05-23T09:58:18Z</time>
      </trkpt>
      <trkpt lat="46.79388" lon="4.60083">
        <ele>423.17553710938</ele>
        <time>2021-05-23T09:58:22Z</time>
      </trkpt>
      <trkpt lat="46.79401" lon="4.6009">
        <ele>423.17602539062</ele>
        <time>2021-05-23T09:58:26Z</time>
      </trkpt>
      <trkpt lat="46.79415" lon="4.601">
        <ele>423.17660522461</ele>
        <time>2021-05-23T09:58:30Z</time>
      </trkpt>
      <trkpt lat="46.79432" lon="4.60111">
        <ele>423.17727661133</ele>
        <time>2021-05-23T09:58:35Z</time>
      </trkpt>
      <trkpt lat="46.79448" lon="4.60121">
        <ele>423.17788696289</ele>
        <time>2021-05-23T09:58:40Z</time>
      </trkpt>
      <trkpt lat="46.79456" lon="4.60125">
        <ele>423.17825317383</ele>
        <time>2021-05-23T09:58:44Z</time>
      </trkpt>
      <trkpt lat="46.79461" lon="4.60132">
        <ele>423.1784362793</ele>
        <time>2021-05-23T10:01:25Z</time>
      </trkpt>
      <trkpt lat="46.79469" lon="4.60144">
        <ele>422.17874145508</ele>
        <time>2021-05-23T10:01:29Z</time>
      </trkpt>
      <trkpt lat="46.79475" lon="4.60158">
        <ele>423.17901611328</ele>
        <time>2021-05-23T10:01:33Z</time>
      </trkpt>
      <trkpt lat="46.79488" lon="4.60176">
        <ele>422.17950439453</ele>
        <time>2021-05-23T10:01:38Z</time>
      </trkpt>
      <trkpt lat="46.79499" lon="4.60192">
        <ele>418.1799621582</ele>
        <time>2021-05-23T10:01:42Z</time>
      </trkpt>
      <trkpt lat="46.79506" lon="4.60206">
        <ele>419.18023681641</ele>
        <time>2021-05-23T10:01:46Z</time>
      </trkpt>
      <trkpt lat="46.79513" lon="4.60223">
        <ele>420.18051147461</ele>
        <time>2021-05-23T10:01:51Z</time>
      </trkpt>
      <trkpt lat="46.79517" lon="4.60238">
        <ele>419.18069458008</ele>
        <time>2021-05-23T10:01:55Z</time>
      </trkpt>
      <trkpt lat="46.79522" lon="4.6026">
        <ele>420.18087768555</ele>
        <time>2021-05-23T10:02:00Z</time>
      </trkpt>
      <trkpt lat="46.79525" lon="4.60278">
        <ele>421.18099975586</ele>
        <time>2021-05-23T10:02:04Z</time>
      </trkpt>
      <trkpt lat="46.79528" lon="4.60294">
        <ele>423.18112182617</ele>
        <time>2021-05-23T10:02:08Z</time>
      </trkpt>
      <trkpt lat="46.7953" lon="4.60315">
        <ele>421.18121337891</ele>
        <time>2021-05-23T10:02:13Z</time>
      </trkpt>
      <trkpt lat="46.79533" lon="4.60333">
        <ele>422.18130493164</ele>
        <time>2021-05-23T10:02:17Z</time>
      </trkpt>
      <trkpt lat="46.79536" lon="4.60354">
        <ele>424.18142700195</ele>
        <time>2021-05-23T10:02:21Z</time>
      </trkpt>
      <trkpt lat="46.7954" lon="4.60379">
        <ele>425.18161010742</ele>
        <time>2021-05-23T10:02:25Z</time>
      </trkpt>
      <trkpt lat="46.79544" lon="4.60409">
        <ele>424.18176269531</ele>
        <time>2021-05-23T10:02:30Z</time>
      </trkpt>
      <trkpt lat="46.79547" lon="4.60435">
        <ele>425.18188476562</ele>
        <time>2021-05-23T10:02:35Z</time>
      </trkpt>
      <trkpt lat="46.79547" lon="4.60457">
        <ele>423.18188476562</ele>
        <time>2021-05-23T10:02:39Z</time>
      </trkpt>
      <trkpt lat="46.79549" lon="4.6048">
        <ele>426.18194580078</ele>
        <time>2021-05-23T10:02:43Z</time>
      </trkpt>
      <trkpt lat="46.79554" lon="4.60513">
        <ele>428.18212890625</ele>
        <time>2021-05-23T10:02:48Z</time>
      </trkpt>
      <trkpt lat="46.79557" lon="4.60535">
        <ele>428.18228149414</ele>
        <time>2021-05-23T10:02:52Z</time>
      </trkpt>
      <trkpt lat="46.79565" lon="4.60558">
        <ele>431.18258666992</ele>
        <time>2021-05-23T10:02:57Z</time>
      </trkpt>
      <trkpt lat="46.79569" lon="4.6058">
        <ele>430.18276977539</ele>
        <time>2021-05-23T10:03:02Z</time>
      </trkpt>
      <trkpt lat="46.79573" lon="4.60598">
        <ele>427.18292236328</ele>
        <time>2021-05-23T10:03:06Z</time>
      </trkpt>
      <trkpt lat="46.79578" lon="4.60619">
        <ele>428.18310546875</ele>
        <time>2021-05-23T10:03:11Z</time>
      </trkpt>
      <trkpt lat="46.79581" lon="4.6064">
        <ele>429.18325805664</ele>
        <time>2021-05-23T10:03:15Z</time>
      </trkpt>
      <trkpt lat="46.79584" lon="4.60661">
        <ele>427.18338012695</ele>
        <time>2021-05-23T10:03:19Z</time>
      </trkpt>
      <trkpt lat="46.79587" lon="4.60687">
        <ele>428.18347167969</ele>
        <time>2021-05-23T10:03:24Z</time>
      </trkpt>
      <trkpt lat="46.79588" lon="4.60706">
        <ele>430.18353271484</ele>
        <time>2021-05-23T10:03:28Z</time>
      </trkpt>
      <trkpt lat="46.79589" lon="4.60729">
        <ele>430.18356323242</ele>
        <time>2021-05-23T10:03:33Z</time>
      </trkpt>
      <trkpt lat="46.79589" lon="4.60745">
        <ele>431.18353271484</ele>
        <time>2021-05-23T10:03:37Z</time>
      </trkpt>
      <trkpt lat="46.79592" lon="4.60755">
        <ele>432.18365478516</ele>
        <time>2021-05-23T10:03:41Z</time>
      </trkpt>
      <trkpt lat="46.79596" lon="4.60768">
        <ele>432.18383789062</ele>
        <time>2021-05-23T10:03:45Z</time>
      </trkpt>
      <trkpt lat="46.79602" lon="4.60787">
        <ele>432.18408203125</ele>
        <time>2021-05-23T10:03:50Z</time>
      </trkpt>
      <trkpt lat="46.79606" lon="4.60801">
        <ele>434.18423461914</ele>
        <time>2021-05-23T10:03:54Z</time>
      </trkpt>
      <trkpt lat="46.79613" lon="4.60819">
        <ele>431.18453979492</ele>
        <time>2021-05-23T10:03:59Z</time>
      </trkpt>
      <trkpt lat="46.79623" lon="4.60838">
        <ele>433.18490600586</ele>
        <time>2021-05-23T10:04:04Z</time>
      </trkpt>
      <trkpt lat="46.79629" lon="4.60853">
        <ele>432.18515014648</ele>
        <time>2021-05-23T10:04:08Z</time>
      </trkpt>
      <trkpt lat="46.79634" lon="4.60873">
        <ele>432.18536376953</ele>
        <time>2021-05-23T10:04:13Z</time>
      </trkpt>
      <trkpt lat="46.79639" lon="4.60894">
        <ele>430.185546875</ele>
        <time>2021-05-23T10:04:17Z</time>
      </trkpt>
      <trkpt lat="46.79646" lon="4.60939">
        <ele>430.18585205078</ele>
        <time>2021-05-23T10:04:22Z</time>
      </trkpt>
      <trkpt lat="46.79671" lon="4.6098">
        <ele>437.18682861328</ele>
        <time>2021-05-23T10:04:27Z</time>
      </trkpt>
      <trkpt lat="46.7969" lon="4.6101">
        <ele>438.18759155273</ele>
        <time>2021-05-23T10:04:32Z</time>
      </trkpt>
      <trkpt lat="46.79701" lon="4.61033">
        <ele>441.18801879883</ele>
        <time>2021-05-23T10:04:36Z</time>
      </trkpt>
      <trkpt lat="46.7971" lon="4.61053">
        <ele>443.18841552734</ele>
        <time>2021-05-23T10:04:40Z</time>
      </trkpt>
      <trkpt lat="46.79723" lon="4.61076">
        <ele>446.18893432617</ele>
        <time>2021-05-23T10:04:45Z</time>
      </trkpt>
      <trkpt lat="46.79733" lon="4.61091">
        <ele>445.18930053711</ele>
        <time>2021-05-23T10:04:49Z</time>
      </trkpt>
      <trkpt lat="46.79742" lon="4.61107">
        <ele>445.18969726562</ele>
        <time>2021-05-23T10:04:53Z</time>
      </trkpt>
      <trkpt lat="46.79751" lon="4.61121">
        <ele>447.19003295898</ele>
        <time>2021-05-23T10:04:57Z</time>
      </trkpt>
      <trkpt lat="46.79758" lon="4.6114">
        <ele>450.19030761719</ele>
        <time>2021-05-23T10:05:02Z</time>
      </trkpt>
      <trkpt lat="46.79768" lon="4.61163">
        <ele>451.1907043457</ele>
        <time>2021-05-23T10:05:07Z</time>
      </trkpt>
      <trkpt lat="46.79774" lon="4.61183">
        <ele>449.19094848633</ele>
        <time>2021-05-23T10:05:11Z</time>
      </trkpt>
      <trkpt lat="46.79779" lon="4.61202">
        <ele>451.1911315918</ele>
        <time>2021-05-23T10:05:15Z</time>
      </trkpt>
      <trkpt lat="46.79782" lon="4.61221">
        <ele>451.19131469727</ele>
        <time>2021-05-23T10:05:19Z</time>
      </trkpt>
      <trkpt lat="46.79786" lon="4.6124">
        <ele>451.19143676758</ele>
        <time>2021-05-23T10:05:23Z</time>
      </trkpt>
      <trkpt lat="46.7979" lon="4.61263">
        <ele>452.19161987305</ele>
        <time>2021-05-23T10:05:28Z</time>
      </trkpt>
      <trkpt lat="46.79793" lon="4.61287">
        <ele>452.19171142578</ele>
        <time>2021-05-23T10:05:33Z</time>
      </trkpt>
      <trkpt lat="46.79794" lon="4.61309">
        <ele>451.19177246094</ele>
        <time>2021-05-23T10:05:37Z</time>
      </trkpt>
      <trkpt lat="46.79796" lon="4.61337">
        <ele>451.19183349609</ele>
        <time>2021-05-23T10:05:41Z</time>
      </trkpt>
      <trkpt lat="46.79798" lon="4.61371">
        <ele>449.19192504883</ele>
        <time>2021-05-23T10:05:45Z</time>
      </trkpt>
      <trkpt lat="46.79803" lon="4.6142">
        <ele>448.19213867188</ele>
        <time>2021-05-23T10:05:50Z</time>
      </trkpt>
      <trkpt lat="46.79808" lon="4.61464">
        <ele>445.19232177734</ele>
        <time>2021-05-23T10:05:54Z</time>
      </trkpt>
      <trkpt lat="46.79815" lon="4.61518">
        <ele>444.19259643555</ele>
        <time>2021-05-23T10:05:59Z</time>
      </trkpt>
      <trkpt lat="46.79822" lon="4.61561">
        <ele>444.19287109375</ele>
        <time>2021-05-23T10:06:03Z</time>
      </trkpt>
      <trkpt lat="46.79828" lon="4.61598">
        <ele>444.19311523438</ele>
        <time>2021-05-23T10:06:07Z</time>
      </trkpt>
      <trkpt lat="46.79826" lon="4.61616">
        <ele>444.19305419922</ele>
        <time>2021-05-23T10:06:11Z</time>
      </trkpt>
      <trkpt lat="46.79833" lon="4.61626">
        <ele>443.19332885742</ele>
        <time>2021-05-23T10:06:15Z</time>
      </trkpt>
      <trkpt lat="46.79837" lon="4.61636">
        <ele>445.19345092773</ele>
        <time>2021-05-23T10:07:50Z</time>
      </trkpt>
      <trkpt lat="46.79847" lon="4.61647">
        <ele>445.19384765625</ele>
        <time>2021-05-23T10:07:55Z</time>
      </trkpt>
      <trkpt lat="46.79873" lon="4.61647">
        <ele>440.19488525391</ele>
        <time>2021-05-23T10:08:00Z</time>
      </trkpt>
      <trkpt lat="46.79891" lon="4.6163">
        <ele>438.19564819336</ele>
        <time>2021-05-23T10:08:04Z</time>
      </trkpt>
      <trkpt lat="46.79921" lon="4.61624">
        <ele>437.19680786133</ele>
        <time>2021-05-23T10:08:09Z</time>
      </trkpt>
      <trkpt lat="46.79959" lon="4.61641">
        <ele>434.19833374023</ele>
        <time>2021-05-23T10:08:14Z</time>
      </trkpt>
      <trkpt lat="46.79988" lon="4.61663">
        <ele>435.19955444336</ele>
        <time>2021-05-23T10:08:18Z</time>
      </trkpt>
      <trkpt lat="46.80027" lon="4.6168">
        <ele>435.20111083984</ele>
        <time>2021-05-23T10:08:23Z</time>
      </trkpt>
      <trkpt lat="46.80048" lon="4.61693">
        <ele>429.20190429688</ele>
        <time>2021-05-23T10:08:28Z</time>
      </trkpt>
      <trkpt lat="46.80067" lon="4.61719">
        <ele>431.20266723633</ele>
        <time>2021-05-23T10:08:32Z</time>
      </trkpt>
      <trkpt lat="46.80082" lon="4.6175">
        <ele>429.20324707031</ele>
        <time>2021-05-23T10:08:36Z</time>
      </trkpt>
      <trkpt lat="46.8012" lon="4.61771">
        <ele>425.2048034668</ele>
        <time>2021-05-23T10:08:41Z</time>
      </trkpt>
      <trkpt lat="46.80133" lon="4.61764">
        <ele>424.20532226562</ele>
        <time>2021-05-23T10:08:45Z</time>
      </trkpt>
      <trkpt lat="46.80148" lon="4.61745">
        <ele>425.20593261719</ele>
        <time>2021-05-23T10:08:49Z</time>
      </trkpt>
      <trkpt lat="46.80156" lon="4.6172">
        <ele>427.20623779297</ele>
        <time>2021-05-23T10:08:53Z</time>
      </trkpt>
      <trkpt lat="46.80177" lon="4.61689">
        <ele>427.20709228516</ele>
        <time>2021-05-23T10:08:58Z</time>
      </trkpt>
      <trkpt lat="46.80198" lon="4.61666">
        <ele>422.20788574219</ele>
        <time>2021-05-23T10:09:02Z</time>
      </trkpt>
      <trkpt lat="46.80217" lon="4.61646">
        <ele>422.20864868164</ele>
        <time>2021-05-23T10:09:06Z</time>
      </trkpt>
      <trkpt lat="46.80238" lon="4.61623">
        <ele>422.20950317383</ele>
        <time>2021-05-23T10:09:11Z</time>
      </trkpt>
      <trkpt lat="46.80252" lon="4.61598">
        <ele>423.21008300781</ele>
        <time>2021-05-23T10:09:15Z</time>
      </trkpt>
      <trkpt lat="46.80267" lon="4.61567">
        <ele>424.21069335938</ele>
        <time>2021-05-23T10:09:20Z</time>
      </trkpt>
      <trkpt lat="46.80287" lon="4.61562">
        <ele>422.21145629883</ele>
        <time>2021-05-23T10:09:24Z</time>
      </trkpt>
      <trkpt lat="46.80305" lon="4.61576">
        <ele>425.2121887207</ele>
        <time>2021-05-23T10:09:29Z</time>
      </trkpt>
      <trkpt lat="46.80326" lon="4.61594">
        <ele>422.21304321289</ele>
        <time>2021-05-23T10:09:33Z</time>
      </trkpt>
      <trkpt lat="46.8035" lon="4.61613">
        <ele>423.21398925781</ele>
        <time>2021-05-23T10:09:37Z</time>
      </trkpt>
      <trkpt lat="46.8037" lon="4.61628">
        <ele>424.21478271484</ele>
        <time>2021-05-23T10:09:41Z</time>
      </trkpt>
      <trkpt lat="46.80388" lon="4.61643">
        <ele>423.21551513672</ele>
        <time>2021-05-23T10:09:45Z</time>
      </trkpt>
      <trkpt lat="46.80411" lon="4.61675">
        <ele>421.21643066406</ele>
        <time>2021-05-23T10:09:50Z</time>
      </trkpt>
      <trkpt lat="46.8043" lon="4.61699">
        <ele>421.21719360352</ele>
        <time>2021-05-23T10:09:55Z</time>
      </trkpt>
      <trkpt lat="46.80444" lon="4.61715">
        <ele>422.2177734375</ele>
        <time>2021-05-23T10:09:59Z</time>
      </trkpt>
      <trkpt lat="46.80462" lon="4.61736">
        <ele>421.2184753418</ele>
        <time>2021-05-23T10:10:03Z</time>
      </trkpt>
      <trkpt lat="46.80478" lon="4.61756">
        <ele>418.21914672852</ele>
        <time>2021-05-23T10:10:08Z</time>
      </trkpt>
      <trkpt lat="46.80496" lon="4.6177">
        <ele>417.21984863281</ele>
        <time>2021-05-23T10:10:12Z</time>
      </trkpt>
      <trkpt lat="46.80516" lon="4.61772">
        <ele>417.22064208984</ele>
        <time>2021-05-23T10:10:17Z</time>
      </trkpt>
      <trkpt lat="46.80531" lon="4.61773">
        <ele>413.22125244141</ele>
        <time>2021-05-23T10:10:21Z</time>
      </trkpt>
      <trkpt lat="46.80537" lon="4.61788">
        <ele>412.22146606445</ele>
        <time>2021-05-23T10:10:26Z</time>
      </trkpt>
      <trkpt lat="46.80534" lon="4.61801">
        <ele>416.22134399414</ele>
        <time>2021-05-23T10:10:30Z</time>
      </trkpt>
      <trkpt lat="46.8053" lon="4.61818">
        <ele>419.22119140625</ele>
        <time>2021-05-23T10:10:35Z</time>
      </trkpt>
      <trkpt lat="46.80529" lon="4.61838">
        <ele>417.22116088867</ele>
        <time>2021-05-23T10:10:39Z</time>
      </trkpt>
      <trkpt lat="46.8053" lon="4.61856">
        <ele>422.22119140625</ele>
        <time>2021-05-23T10:10:43Z</time>
      </trkpt>
      <trkpt lat="46.80531" lon="4.61873">
        <ele>427.22125244141</ele>
        <time>2021-05-23T10:10:47Z</time>
      </trkpt>
      <trkpt lat="46.80529" lon="4.61889">
        <ele>431.22116088867</ele>
        <time>2021-05-23T10:10:51Z</time>
      </trkpt>
      <trkpt lat="46.80527" lon="4.61907">
        <ele>433.22109985352</ele>
        <time>2021-05-23T10:10:56Z</time>
      </trkpt>
      <trkpt lat="46.80526" lon="4.61922">
        <ele>435.22103881836</ele>
        <time>2021-05-23T10:11:00Z</time>
      </trkpt>
      <trkpt lat="46.80522" lon="4.6194">
        <ele>433.22085571289</ele>
        <time>2021-05-23T10:11:05Z</time>
      </trkpt>
      <trkpt lat="46.80519" lon="4.61951">
        <ele>433.22073364258</ele>
        <time>2021-05-23T10:11:08Z</time>
      </trkpt>
      <trkpt lat="46.80518" lon="4.61954">
        <ele>433.22073364258</ele>
        <time>2021-05-23T10:11:12Z</time>
      </trkpt>
      <trkpt lat="46.80515" lon="4.61979">
        <ele>436.22061157227</ele>
        <time>2021-05-23T10:11:16Z</time>
      </trkpt>
      <trkpt lat="46.80512" lon="4.61997">
        <ele>435.22048950195</ele>
        <time>2021-05-23T10:11:21Z</time>
      </trkpt>
      <trkpt lat="46.80509" lon="4.6201">
        <ele>436.22036743164</ele>
        <time>2021-05-23T10:11:25Z</time>
      </trkpt>
      <trkpt lat="46.80504" lon="4.62023">
        <ele>438.22018432617</ele>
        <time>2021-05-23T10:11:29Z</time>
      </trkpt>
      <trkpt lat="46.80497" lon="4.6204">
        <ele>438.21987915039</ele>
        <time>2021-05-23T10:11:34Z</time>
      </trkpt>
      <trkpt lat="46.8049" lon="4.62051">
        <ele>440.21963500977</ele>
        <time>2021-05-23T10:11:38Z</time>
      </trkpt>
      <trkpt lat="46.80484" lon="4.62068">
        <ele>441.21936035156</ele>
        <time>2021-05-23T10:11:43Z</time>
      </trkpt>
      <trkpt lat="46.80478" lon="4.6208">
        <ele>442.21911621094</ele>
        <time>2021-05-23T10:11:47Z</time>
      </trkpt>
      <trkpt lat="46.80468" lon="4.62092">
        <ele>444.21871948242</ele>
        <time>2021-05-23T10:11:52Z</time>
      </trkpt>
      <trkpt lat="46.80456" lon="4.62101">
        <ele>444.21823120117</ele>
        <time>2021-05-23T10:11:57Z</time>
      </trkpt>
      <trkpt lat="46.80442" lon="4.62107">
        <ele>446.21771240234</ele>
        <time>2021-05-23T10:12:02Z</time>
      </trkpt>
      <trkpt lat="46.80433" lon="4.62113">
        <ele>449.21731567383</ele>
        <time>2021-05-23T10:12:06Z</time>
      </trkpt>
      <trkpt lat="46.80423" lon="4.62116">
        <ele>449.21691894531</ele>
        <time>2021-05-23T10:12:10Z</time>
      </trkpt>
      <trkpt lat="46.80412" lon="4.6212">
        <ele>451.21649169922</ele>
        <time>2021-05-23T10:12:14Z</time>
      </trkpt>
      <trkpt lat="46.804" lon="4.62124">
        <ele>453.21597290039</ele>
        <time>2021-05-23T10:12:19Z</time>
      </trkpt>
      <trkpt lat="46.80392" lon="4.62133">
        <ele>455.21566772461</ele>
        <time>2021-05-23T10:12:23Z</time>
      </trkpt>
      <trkpt lat="46.80384" lon="4.6215">
        <ele>458.21536254883</ele>
        <time>2021-05-23T10:12:28Z</time>
      </trkpt>
      <trkpt lat="46.80375" lon="4.62169">
        <ele>460.21499633789</ele>
        <time>2021-05-23T10:12:33Z</time>
      </trkpt>
      <trkpt lat="46.80369" lon="4.62187">
        <ele>464.21475219727</ele>
        <time>2021-05-23T10:12:37Z</time>
      </trkpt>
      <trkpt lat="46.80366" lon="4.62208">
        <ele>471.21463012695</ele>
        <time>2021-05-23T10:12:41Z</time>
      </trkpt>
      <trkpt lat="46.80363" lon="4.62232">
        <ele>473.21453857422</ele>
        <time>2021-05-23T10:12:46Z</time>
      </trkpt>
      <trkpt lat="46.8036" lon="4.62254">
        <ele>472.21441650391</ele>
        <time>2021-05-23T10:12:51Z</time>
      </trkpt>
      <trkpt lat="46.80357" lon="4.62275">
        <ele>470.21429443359</ele>
        <time>2021-05-23T10:12:56Z</time>
      </trkpt>
      <trkpt lat="46.80354" lon="4.62292">
        <ele>471.21417236328</ele>
        <time>2021-05-23T10:13:00Z</time>
      </trkpt>
      <trkpt lat="46.8035" lon="4.62315">
        <ele>471.21398925781</ele>
        <time>2021-05-23T10:13:05Z</time>
      </trkpt>
      <trkpt lat="46.80344" lon="4.62332">
        <ele>471.21377563477</ele>
        <time>2021-05-23T10:13:09Z</time>
      </trkpt>
      <trkpt lat="46.80336" lon="4.62353">
        <ele>470.21343994141</ele>
        <time>2021-05-23T10:13:14Z</time>
      </trkpt>
      <trkpt lat="46.80331" lon="4.6237">
        <ele>470.21322631836</ele>
        <time>2021-05-23T10:13:18Z</time>
      </trkpt>
      <trkpt lat="46.80323" lon="4.62393">
        <ele>472.21292114258</ele>
        <time>2021-05-23T10:13:23Z</time>
      </trkpt>
      <trkpt lat="46.80317" lon="4.62411">
        <ele>472.21267700195</ele>
        <time>2021-05-23T10:13:27Z</time>
      </trkpt>
      <trkpt lat="46.80308" lon="4.62432">
        <ele>472.21234130859</ele>
        <time>2021-05-23T10:13:32Z</time>
      </trkpt>
      <trkpt lat="46.803" lon="4.62446">
        <ele>473.21200561523</ele>
        <time>2021-05-23T10:13:36Z</time>
      </trkpt>
      <trkpt lat="46.80289" lon="4.6246">
        <ele>472.21157836914</ele>
        <time>2021-05-23T10:13:40Z</time>
      </trkpt>
      <trkpt lat="46.80279" lon="4.62473">
        <ele>473.21115112305</ele>
        <time>2021-05-23T10:13:44Z</time>
      </trkpt>
      <trkpt lat="46.80267" lon="4.62485">
        <ele>473.21069335938</ele>
        <time>2021-05-23T10:13:48Z</time>
      </trkpt>
      <trkpt lat="46.8025" lon="4.62497">
        <ele>472.20999145508</ele>
        <time>2021-05-23T10:13:53Z</time>
      </trkpt>
      <trkpt lat="46.80236" lon="4.62506">
        <ele>472.20944213867</ele>
        <time>2021-05-23T10:13:57Z</time>
      </trkpt>
      <trkpt lat="46.80223" lon="4.62517">
        <ele>472.20892333984</ele>
        <time>2021-05-23T10:14:01Z</time>
      </trkpt>
      <trkpt lat="46.80211" lon="4.6253">
        <ele>474.20843505859</ele>
        <time>2021-05-23T10:14:05Z</time>
      </trkpt>
      <trkpt lat="46.802" lon="4.62545">
        <ele>475.2080078125</ele>
        <time>2021-05-23T10:14:09Z</time>
      </trkpt>
      <trkpt lat="46.8019" lon="4.62567">
        <ele>475.20758056641</ele>
        <time>2021-05-23T10:14:14Z</time>
      </trkpt>
      <trkpt lat="46.80182" lon="4.62586">
        <ele>474.20727539062</ele>
        <time>2021-05-23T10:14:18Z</time>
      </trkpt>
      <trkpt lat="46.80177" lon="4.62606">
        <ele>474.20706176758</ele>
        <time>2021-05-23T10:14:22Z</time>
      </trkpt>
      <trkpt lat="46.80173" lon="4.62626">
        <ele>476.20690917969</ele>
        <time>2021-05-23T10:14:26Z</time>
      </trkpt>
      <trkpt lat="46.80169" lon="4.62648">
        <ele>475.2067565918</ele>
        <time>2021-05-23T10:14:30Z</time>
      </trkpt>
      <trkpt lat="46.80167" lon="4.62669">
        <ele>474.20666503906</ele>
        <time>2021-05-23T10:14:34Z</time>
      </trkpt>
      <trkpt lat="46.80166" lon="4.6269">
        <ele>474.20666503906</ele>
        <time>2021-05-23T10:14:38Z</time>
      </trkpt>
      <trkpt lat="46.80169" lon="4.62712">
        <ele>475.2067565918</ele>
        <time>2021-05-23T10:14:42Z</time>
      </trkpt>
      <trkpt lat="46.80174" lon="4.62739">
        <ele>476.20697021484</ele>
        <time>2021-05-23T10:14:47Z</time>
      </trkpt>
      <trkpt lat="46.80178" lon="4.62766">
        <ele>477.20715332031</ele>
        <time>2021-05-23T10:14:52Z</time>
      </trkpt>
      <trkpt lat="46.80181" lon="4.62788">
        <ele>477.20724487305</ele>
        <time>2021-05-23T10:14:56Z</time>
      </trkpt>
      <trkpt lat="46.80183" lon="4.62817">
        <ele>478.2073059082</ele>
        <time>2021-05-23T10:15:01Z</time>
      </trkpt>
      <trkpt lat="46.80183" lon="4.6284">
        <ele>477.20733642578</ele>
        <time>2021-05-23T10:15:05Z</time>
      </trkpt>
      <trkpt lat="46.80184" lon="4.62863">
        <ele>476.20736694336</ele>
        <time>2021-05-23T10:15:09Z</time>
      </trkpt>
      <trkpt lat="46.80183" lon="4.62892">
        <ele>475.20733642578</ele>
        <time>2021-05-23T10:15:14Z</time>
      </trkpt>
      <trkpt lat="46.80183" lon="4.62916">
        <ele>474.2073059082</ele>
        <time>2021-05-23T10:15:18Z</time>
      </trkpt>
      <trkpt lat="46.80182" lon="4.62947">
        <ele>475.20727539062</ele>
        <time>2021-05-23T10:15:23Z</time>
      </trkpt>
      <trkpt lat="46.80181" lon="4.62972">
        <ele>475.20721435547</ele>
        <time>2021-05-23T10:15:27Z</time>
      </trkpt>
      <trkpt lat="46.80179" lon="4.63001">
        <ele>476.20718383789</ele>
        <time>2021-05-23T10:15:32Z</time>
      </trkpt>
      <trkpt lat="46.80178" lon="4.63024">
        <ele>477.20715332031</ele>
        <time>2021-05-23T10:15:36Z</time>
      </trkpt>
      <trkpt lat="46.80178" lon="4.63046">
        <ele>478.20712280273</ele>
        <time>2021-05-23T10:15:40Z</time>
      </trkpt>
      <trkpt lat="46.80178" lon="4.63067">
        <ele>479.20712280273</ele>
        <time>2021-05-23T10:15:44Z</time>
      </trkpt>
      <trkpt lat="46.80178" lon="4.63089">
        <ele>480.20715332031</ele>
        <time>2021-05-23T10:15:48Z</time>
      </trkpt>
      <trkpt lat="46.80178" lon="4.6311">
        <ele>481.20712280273</ele>
        <time>2021-05-23T10:15:52Z</time>
      </trkpt>
      <trkpt lat="46.80176" lon="4.63137">
        <ele>482.20706176758</ele>
        <time>2021-05-23T10:15:57Z</time>
      </trkpt>
      <trkpt lat="46.80172" lon="4.63162">
        <ele>483.20687866211</ele>
        <time>2021-05-23T10:16:02Z</time>
      </trkpt>
      <trkpt lat="46.80168" lon="4.6318">
        <ele>485.20669555664</ele>
        <time>2021-05-23T10:16:06Z</time>
      </trkpt>
      <trkpt lat="46.80161" lon="4.63201">
        <ele>487.20645141602</ele>
        <time>2021-05-23T10:16:11Z</time>
      </trkpt>
      <trkpt lat="46.80154" lon="4.63218">
        <ele>486.20614624023</ele>
        <time>2021-05-23T10:16:15Z</time>
      </trkpt>
      <trkpt lat="46.80147" lon="4.63237">
        <ele>486.20587158203</ele>
        <time>2021-05-23T10:16:19Z</time>
      </trkpt>
      <trkpt lat="46.80141" lon="4.63257">
        <ele>486.20565795898</ele>
        <time>2021-05-23T10:16:23Z</time>
      </trkpt>
      <trkpt lat="46.80133" lon="4.63271">
        <ele>486.20529174805</ele>
        <time>2021-05-23T10:16:27Z</time>
      </trkpt>
      <trkpt lat="46.80124" lon="4.63287">
        <ele>487.20495605469</ele>
        <time>2021-05-23T10:16:32Z</time>
      </trkpt>
      <trkpt lat="46.80116" lon="4.63291">
        <ele>482.20465087891</ele>
        <time>2021-05-23T10:16:36Z</time>
      </trkpt>
      <trkpt lat="46.80118" lon="4.63281">
        <ele>482.20474243164</ele>
        <time>2021-05-23T10:16:49Z</time>
      </trkpt>
      <trkpt lat="46.80123" lon="4.63265">
        <ele>482.20492553711</ele>
        <time>2021-05-23T10:16:53Z</time>
      </trkpt>
      <trkpt lat="46.80132" lon="4.63248">
        <ele>483.20526123047</ele>
        <time>2021-05-23T10:16:58Z</time>
      </trkpt>
      <trkpt lat="46.80137" lon="4.63233">
        <ele>484.20550537109</ele>
        <time>2021-05-23T10:17:02Z</time>
      </trkpt>
      <trkpt lat="46.80149" lon="4.6321">
        <ele>484.20593261719</ele>
        <time>2021-05-23T10:17:07Z</time>
      </trkpt>
      <trkpt lat="46.80164" lon="4.63179">
        <ele>483.20654296875</ele>
        <time>2021-05-23T10:17:12Z</time>
      </trkpt>
      <trkpt lat="46.80167" lon="4.63156">
        <ele>484.20666503906</ele>
        <time>2021-05-23T10:17:16Z</time>
      </trkpt>
      <trkpt lat="46.80183" lon="4.63098">
        <ele>483.2073059082</ele>
        <time>2021-05-23T10:17:20Z</time>
      </trkpt>
      <trkpt lat="46.80176" lon="4.63071">
        <ele>482.20703125</ele>
        <time>2021-05-23T10:17:24Z</time>
      </trkpt>
      <trkpt lat="46.80179" lon="4.63025">
        <ele>477.20715332031</ele>
        <time>2021-05-23T10:17:28Z</time>
      </trkpt>
      <trkpt lat="46.80177" lon="4.62979">
        <ele>477.20706176758</ele>
        <time>2021-05-23T10:17:33Z</time>
      </trkpt>
      <trkpt lat="46.80177" lon="4.62944">
        <ele>475.20706176758</ele>
        <time>2021-05-23T10:17:38Z</time>
      </trkpt>
      <trkpt lat="46.80179" lon="4.62957">
        <ele>473.20718383789</ele>
        <time>2021-05-23T10:17:46Z</time>
      </trkpt>
      <trkpt lat="46.80179" lon="4.6298">
        <ele>473.20715332031</ele>
        <time>2021-05-23T10:17:51Z</time>
      </trkpt>
      <trkpt lat="46.80178" lon="4.63001">
        <ele>471.20712280273</ele>
        <time>2021-05-23T10:17:55Z</time>
      </trkpt>
      <trkpt lat="46.80177" lon="4.63021">
        <ele>472.20706176758</ele>
        <time>2021-05-23T10:17:59Z</time>
      </trkpt>
      <trkpt lat="46.80177" lon="4.63038">
        <ele>477.20706176758</ele>
        <time>2021-05-23T10:18:03Z</time>
      </trkpt>
      <trkpt lat="46.80177" lon="4.6306">
        <ele>479.20706176758</ele>
        <time>2021-05-23T10:18:08Z</time>
      </trkpt>
      <trkpt lat="46.80177" lon="4.63074">
        <ele>479.20706176758</ele>
        <time>2021-05-23T10:18:12Z</time>
      </trkpt>
      <trkpt lat="46.80176" lon="4.63089">
        <ele>481.20703125</ele>
        <time>2021-05-23T10:18:16Z</time>
      </trkpt>
      <trkpt lat="46.80175" lon="4.63104">
        <ele>481.20697021484</ele>
        <time>2021-05-23T10:18:20Z</time>
      </trkpt>
      <trkpt lat="46.80176" lon="4.63121">
        <ele>482.20703125</ele>
        <time>2021-05-23T10:18:25Z</time>
      </trkpt>
      <trkpt lat="46.80177" lon="4.63134">
        <ele>483.20706176758</ele>
        <time>2021-05-23T10:18:29Z</time>
      </trkpt>
      <trkpt lat="46.80175" lon="4.63148">
        <ele>482.20700073242</ele>
        <time>2021-05-23T10:18:33Z</time>
      </trkpt>
      <trkpt lat="46.80173" lon="4.63165">
        <ele>486.20690917969</ele>
        <time>2021-05-23T10:18:38Z</time>
      </trkpt>
      <trkpt lat="46.80171" lon="4.6318">
        <ele>487.20684814453</ele>
        <time>2021-05-23T10:18:43Z</time>
      </trkpt>
      <trkpt lat="46.80169" lon="4.6319">
        <ele>493.2067565918</ele>
        <time>2021-05-23T10:18:47Z</time>
      </trkpt>
      <trkpt lat="46.80168" lon="4.63203">
        <ele>492.20669555664</ele>
        <time>2021-05-23T10:18:51Z</time>
      </trkpt>
      <trkpt lat="46.80167" lon="4.63225">
        <ele>487.20669555664</ele>
        <time>2021-05-23T10:18:56Z</time>
      </trkpt>
      <trkpt lat="46.80165" lon="4.63246">
        <ele>486.20660400391</ele>
        <time>2021-05-23T10:19:01Z</time>
      </trkpt>
      <trkpt lat="46.80156" lon="4.63265">
        <ele>484.20620727539</ele>
        <time>2021-05-23T10:19:06Z</time>
      </trkpt>
      <trkpt lat="46.80144" lon="4.63278">
        <ele>484.20574951172</ele>
        <time>2021-05-23T10:19:10Z</time>
      </trkpt>
      <trkpt lat="46.80124" lon="4.63288">
        <ele>481.20495605469</ele>
        <time>2021-05-23T10:19:15Z</time>
      </trkpt>
      <trkpt lat="46.80116" lon="4.63289">
        <ele>479.20462036133</ele>
        <time>2021-05-23T10:19:34Z</time>
      </trkpt>
      <trkpt lat="46.80108" lon="4.63294">
        <ele>482.20431518555</ele>
        <time>2021-05-23T10:21:25Z</time>
      </trkpt>
      <trkpt lat="46.80102" lon="4.63313">
        <ele>481.2041015625</ele>
        <time>2021-05-23T10:21:30Z</time>
      </trkpt>
      <trkpt lat="46.80098" lon="4.63329">
        <ele>481.20391845703</ele>
        <time>2021-05-23T10:21:34Z</time>
      </trkpt>
      <trkpt lat="46.80095" lon="4.63346">
        <ele>483.20379638672</ele>
        <time>2021-05-23T10:21:38Z</time>
      </trkpt>
      <trkpt lat="46.8009" lon="4.63363">
        <ele>484.20361328125</ele>
        <time>2021-05-23T10:21:42Z</time>
      </trkpt>
      <trkpt lat="46.80083" lon="4.63384">
        <ele>483.20333862305</ele>
        <time>2021-05-23T10:21:46Z</time>
      </trkpt>
      <trkpt lat="46.80078" lon="4.63401">
        <ele>482.203125</ele>
        <time>2021-05-23T10:21:49Z</time>
      </trkpt>
      <trkpt lat="46.80073" lon="4.63417">
        <ele>482.20294189453</ele>
        <time>2021-05-23T10:21:53Z</time>
      </trkpt>
      <trkpt lat="46.80068" lon="4.63441">
        <ele>482.20272827148</ele>
        <time>2021-05-23T10:21:57Z</time>
      </trkpt>
      <trkpt lat="46.80064" lon="4.63472">
        <ele>485.20254516602</ele>
        <time>2021-05-23T10:22:02Z</time>
      </trkpt>
      <trkpt lat="46.80061" lon="4.63504">
        <ele>484.2024230957</ele>
        <time>2021-05-23T10:22:07Z</time>
      </trkpt>
      <trkpt lat="46.8006" lon="4.63536">
        <ele>484.20239257812</ele>
        <time>2021-05-23T10:22:12Z</time>
      </trkpt>
      <trkpt lat="46.80059" lon="4.63559">
        <ele>483.20236206055</ele>
        <time>2021-05-23T10:22:16Z</time>
      </trkpt>
      <trkpt lat="46.80056" lon="4.63588">
        <ele>484.20223999023</ele>
        <time>2021-05-23T10:22:21Z</time>
      </trkpt>
      <trkpt lat="46.80054" lon="4.63617">
        <ele>485.20217895508</ele>
        <time>2021-05-23T10:22:26Z</time>
      </trkpt>
      <trkpt lat="46.80054" lon="4.63639">
        <ele>486.2021484375</ele>
        <time>2021-05-23T10:22:30Z</time>
      </trkpt>
      <trkpt lat="46.80049" lon="4.6366">
        <ele>486.20196533203</ele>
        <time>2021-05-23T10:22:34Z</time>
      </trkpt>
      <trkpt lat="46.80035" lon="4.63683">
        <ele>480.20138549805</ele>
        <time>2021-05-23T10:22:38Z</time>
      </trkpt>
      <trkpt lat="46.80017" lon="4.63701">
        <ele>477.20068359375</ele>
        <time>2021-05-23T10:22:42Z</time>
      </trkpt>
      <trkpt lat="46.79997" lon="4.63709">
        <ele>479.19989013672</ele>
        <time>2021-05-23T10:22:46Z</time>
      </trkpt>
      <trkpt lat="46.79973" lon="4.6371">
        <ele>481.1989440918</ele>
        <time>2021-05-23T10:22:51Z</time>
      </trkpt>
      <trkpt lat="46.7995" lon="4.63706">
        <ele>483.1979675293</ele>
        <time>2021-05-23T10:22:56Z</time>
      </trkpt>
      <trkpt lat="46.79932" lon="4.63708">
        <ele>483.19729614258</ele>
        <time>2021-05-23T10:23:00Z</time>
      </trkpt>
      <trkpt lat="46.79917" lon="4.63711">
        <ele>483.19668579102</ele>
        <time>2021-05-23T10:23:04Z</time>
      </trkpt>
      <trkpt lat="46.79901" lon="4.63717">
        <ele>483.19604492188</ele>
        <time>2021-05-23T10:23:08Z</time>
      </trkpt>
      <trkpt lat="46.79886" lon="4.63728">
        <ele>484.19543457031</ele>
        <time>2021-05-23T10:23:12Z</time>
      </trkpt>
      <trkpt lat="46.79869" lon="4.63744">
        <ele>486.19476318359</ele>
        <time>2021-05-23T10:23:17Z</time>
      </trkpt>
      <trkpt lat="46.79852" lon="4.63759">
        <ele>487.19409179688</ele>
        <time>2021-05-23T10:23:22Z</time>
      </trkpt>
      <trkpt lat="46.79839" lon="4.63772">
        <ele>489.19354248047</ele>
        <time>2021-05-23T10:23:26Z</time>
      </trkpt>
      <trkpt lat="46.79825" lon="4.63786">
        <ele>490.19299316406</ele>
        <time>2021-05-23T10:23:30Z</time>
      </trkpt>
      <trkpt lat="46.79808" lon="4.63802">
        <ele>492.19232177734</ele>
        <time>2021-05-23T10:23:35Z</time>
      </trkpt>
      <trkpt lat="46.79795" lon="4.63815">
        <ele>493.19180297852</ele>
        <time>2021-05-23T10:23:39Z</time>
      </trkpt>
      <trkpt lat="46.79779" lon="4.63831">
        <ele>494.1911315918</ele>
        <time>2021-05-23T10:23:44Z</time>
      </trkpt>
      <trkpt lat="46.79762" lon="4.63846">
        <ele>495.19049072266</ele>
        <time>2021-05-23T10:23:49Z</time>
      </trkpt>
      <trkpt lat="46.7975" lon="4.63859">
        <ele>496.18997192383</ele>
        <time>2021-05-23T10:23:53Z</time>
      </trkpt>
      <trkpt lat="46.79734" lon="4.63873">
        <ele>498.18936157227</ele>
        <time>2021-05-23T10:23:58Z</time>
      </trkpt>
      <trkpt lat="46.79721" lon="4.63886">
        <ele>498.18884277344</ele>
        <time>2021-05-23T10:24:02Z</time>
      </trkpt>
      <trkpt lat="46.79706" lon="4.63904">
        <ele>500.18823242188</ele>
        <time>2021-05-23T10:24:07Z</time>
      </trkpt>
      <trkpt lat="46.79688" lon="4.63917">
        <ele>497.1875</ele>
        <time>2021-05-23T10:24:12Z</time>
      </trkpt>
      <trkpt lat="46.79672" lon="4.63929">
        <ele>497.18685913086</ele>
        <time>2021-05-23T10:24:16Z</time>
      </trkpt>
      <trkpt lat="46.79656" lon="4.63939">
        <ele>496.1862487793</ele>
        <time>2021-05-23T10:24:20Z</time>
      </trkpt>
      <trkpt lat="46.79638" lon="4.63951">
        <ele>496.18548583984</ele>
        <time>2021-05-23T10:24:25Z</time>
      </trkpt>
      <trkpt lat="46.79619" lon="4.63962">
        <ele>495.18478393555</ele>
        <time>2021-05-23T10:24:30Z</time>
      </trkpt>
      <trkpt lat="46.79605" lon="4.63972">
        <ele>497.18420410156</ele>
        <time>2021-05-23T10:24:34Z</time>
      </trkpt>
      <trkpt lat="46.7959" lon="4.63981">
        <ele>498.18362426758</ele>
        <time>2021-05-23T10:24:38Z</time>
      </trkpt>
      <trkpt lat="46.79572" lon="4.63993">
        <ele>497.1828918457</ele>
        <time>2021-05-23T10:24:43Z</time>
      </trkpt>
      <trkpt lat="46.7956" lon="4.64">
        <ele>498.18240356445</ele>
        <time>2021-05-23T10:24:47Z</time>
      </trkpt>
      <trkpt lat="46.79546" lon="4.64009">
        <ele>500.18185424805</ele>
        <time>2021-05-23T10:24:52Z</time>
      </trkpt>
      <trkpt lat="46.79531" lon="4.64017">
        <ele>499.18124389648</ele>
        <time>2021-05-23T10:24:57Z</time>
      </trkpt>
      <trkpt lat="46.79517" lon="4.64028">
        <ele>498.18069458008</ele>
        <time>2021-05-23T10:25:01Z</time>
      </trkpt>
      <trkpt lat="46.79503" lon="4.64037">
        <ele>498.18011474609</ele>
        <time>2021-05-23T10:25:05Z</time>
      </trkpt>
      <trkpt lat="46.79485" lon="4.6405">
        <ele>498.1794128418</ele>
        <time>2021-05-23T10:25:10Z</time>
      </trkpt>
      <trkpt lat="46.79477" lon="4.64063">
        <ele>498.17907714844</ele>
        <time>2021-05-23T10:25:14Z</time>
      </trkpt>
      <trkpt lat="46.79491" lon="4.64078">
        <ele>499.17962646484</ele>
        <time>2021-05-23T10:25:19Z</time>
      </trkpt>
      <trkpt lat="46.79504" lon="4.64084">
        <ele>501.18014526367</ele>
        <time>2021-05-23T10:25:23Z</time>
      </trkpt>
      <trkpt lat="46.79515" lon="4.64088">
        <ele>500.18060302734</ele>
        <time>2021-05-23T10:25:27Z</time>
      </trkpt>
      <trkpt lat="46.7953" lon="4.64096">
        <ele>500.18118286133</ele>
        <time>2021-05-23T10:25:32Z</time>
      </trkpt>
      <trkpt lat="46.79542" lon="4.64105">
        <ele>498.18167114258</ele>
        <time>2021-05-23T10:25:36Z</time>
      </trkpt>
      <trkpt lat="46.79553" lon="4.64113">
        <ele>496.18212890625</ele>
        <time>2021-05-23T10:25:40Z</time>
      </trkpt>
      <trkpt lat="46.7957" lon="4.64122">
        <ele>496.18280029297</ele>
        <time>2021-05-23T10:25:45Z</time>
      </trkpt>
      <trkpt lat="46.79586" lon="4.64132">
        <ele>499.18344116211</ele>
        <time>2021-05-23T10:25:49Z</time>
      </trkpt>
      <trkpt lat="46.79603" lon="4.64141">
        <ele>498.18411254883</ele>
        <time>2021-05-23T10:25:53Z</time>
      </trkpt>
      <trkpt lat="46.79623" lon="4.64152">
        <ele>498.18493652344</ele>
        <time>2021-05-23T10:25:58Z</time>
      </trkpt>
      <trkpt lat="46.79639" lon="4.64161">
        <ele>499.18557739258</ele>
        <time>2021-05-23T10:26:02Z</time>
      </trkpt>
      <trkpt lat="46.79655" lon="4.64169">
        <ele>500.18621826172</ele>
        <time>2021-05-23T10:26:06Z</time>
      </trkpt>
      <trkpt lat="46.79676" lon="4.64179">
        <ele>499.18704223633</ele>
        <time>2021-05-23T10:26:11Z</time>
      </trkpt>
      <trkpt lat="46.79696" lon="4.64189">
        <ele>499.18783569336</ele>
        <time>2021-05-23T10:26:16Z</time>
      </trkpt>
      <trkpt lat="46.79712" lon="4.64198">
        <ele>499.18850708008</ele>
        <time>2021-05-23T10:26:20Z</time>
      </trkpt>
      <trkpt lat="46.79728" lon="4.64208">
        <ele>500.18911743164</ele>
        <time>2021-05-23T10:26:24Z</time>
      </trkpt>
      <trkpt lat="46.79748" lon="4.64222">
        <ele>500.18991088867</ele>
        <time>2021-05-23T10:26:29Z</time>
      </trkpt>
      <trkpt lat="46.79763" lon="4.64233">
        <ele>500.19049072266</ele>
        <time>2021-05-23T10:26:33Z</time>
      </trkpt>
      <trkpt lat="46.79777" lon="4.64247">
        <ele>501.19107055664</ele>
        <time>2021-05-23T10:26:37Z</time>
      </trkpt>
      <trkpt lat="46.79794" lon="4.64268">
        <ele>501.19177246094</ele>
        <time>2021-05-23T10:26:42Z</time>
      </trkpt>
      <trkpt lat="46.79807" lon="4.64288">
        <ele>504.19226074219</ele>
        <time>2021-05-23T10:26:46Z</time>
      </trkpt>
      <trkpt lat="46.79819" lon="4.64301">
        <ele>503.19274902344</ele>
        <time>2021-05-23T10:26:50Z</time>
      </trkpt>
      <trkpt lat="46.7983" lon="4.64314">
        <ele>503.19320678711</ele>
        <time>2021-05-23T10:26:54Z</time>
      </trkpt>
      <trkpt lat="46.79846" lon="4.64335">
        <ele>504.19384765625</ele>
        <time>2021-05-23T10:26:59Z</time>
      </trkpt>
      <trkpt lat="46.79859" lon="4.64351">
        <ele>505.19436645508</ele>
        <time>2021-05-23T10:27:03Z</time>
      </trkpt>
      <trkpt lat="46.79875" lon="4.64372">
        <ele>506.19497680664</ele>
        <time>2021-05-23T10:27:08Z</time>
      </trkpt>
      <trkpt lat="46.79887" lon="4.64389">
        <ele>506.19549560547</ele>
        <time>2021-05-23T10:27:12Z</time>
      </trkpt>
      <trkpt lat="46.79903" lon="4.6441">
        <ele>507.19610595703</ele>
        <time>2021-05-23T10:27:17Z</time>
      </trkpt>
      <trkpt lat="46.79914" lon="4.64429">
        <ele>507.1965637207</ele>
        <time>2021-05-23T10:27:21Z</time>
      </trkpt>
      <trkpt lat="46.79924" lon="4.64442">
        <ele>507.19696044922</ele>
        <time>2021-05-23T10:27:24Z</time>
      </trkpt>
      <trkpt lat="46.79937" lon="4.64467">
        <ele>508.19747924805</ele>
        <time>2021-05-23T10:27:29Z</time>
      </trkpt>
      <trkpt lat="46.79949" lon="4.64497">
        <ele>506.1979675293</ele>
        <time>2021-05-23T10:27:34Z</time>
      </trkpt>
      <trkpt lat="46.79984" lon="4.64517">
        <ele>512.19934082031</ele>
        <time>2021-05-23T10:27:39Z</time>
      </trkpt>
      <trkpt lat="46.79996" lon="4.64544">
        <ele>511.19985961914</ele>
        <time>2021-05-23T10:27:43Z</time>
      </trkpt>
      <trkpt lat="46.80016" lon="4.64585">
        <ele>507.20062255859</ele>
        <time>2021-05-23T10:27:48Z</time>
      </trkpt>
      <trkpt lat="46.80035" lon="4.6461">
        <ele>508.20138549805</ele>
        <time>2021-05-23T10:27:53Z</time>
      </trkpt>
      <trkpt lat="46.80048" lon="4.6462">
        <ele>505.20190429688</ele>
        <time>2021-05-23T10:27:57Z</time>
      </trkpt>
      <trkpt lat="46.80071" lon="4.64635">
        <ele>504.2028503418</ele>
        <time>2021-05-23T10:28:02Z</time>
      </trkpt>
      <trkpt lat="46.80092" lon="4.64651">
        <ele>503.20370483398</ele>
        <time>2021-05-23T10:28:06Z</time>
      </trkpt>
      <trkpt lat="46.80105" lon="4.64668">
        <ele>500.20422363281</ele>
        <time>2021-05-23T10:28:10Z</time>
      </trkpt>
      <trkpt lat="46.80113" lon="4.64688">
        <ele>498.20449829102</ele>
        <time>2021-05-23T10:28:15Z</time>
      </trkpt>
      <trkpt lat="46.80121" lon="4.64709">
        <ele>498.20483398438</ele>
        <time>2021-05-23T10:28:19Z</time>
      </trkpt>
      <trkpt lat="46.80129" lon="4.6473">
        <ele>500.20513916016</ele>
        <time>2021-05-23T10:28:23Z</time>
      </trkpt>
      <trkpt lat="46.8014" lon="4.64759">
        <ele>500.20559692383</ele>
        <time>2021-05-23T10:28:28Z</time>
      </trkpt>
      <trkpt lat="46.80156" lon="4.64779">
        <ele>496.20620727539</ele>
        <time>2021-05-23T10:28:32Z</time>
      </trkpt>
      <trkpt lat="46.8017" lon="4.64806">
        <ele>496.20678710938</ele>
        <time>2021-05-23T10:28:37Z</time>
      </trkpt>
      <trkpt lat="46.80186" lon="4.64822">
        <ele>498.20742797852</ele>
        <time>2021-05-23T10:28:42Z</time>
      </trkpt>
      <trkpt lat="46.80202" lon="4.64832">
        <ele>498.20806884766</ele>
        <time>2021-05-23T10:28:46Z</time>
      </trkpt>
      <trkpt lat="46.80215" lon="4.64843">
        <ele>499.20858764648</ele>
        <time>2021-05-23T10:28:50Z</time>
      </trkpt>
      <trkpt lat="46.80231" lon="4.64854">
        <ele>498.2092590332</ele>
        <time>2021-05-23T10:28:55Z</time>
      </trkpt>
      <trkpt lat="46.80249" lon="4.64862">
        <ele>499.2099609375</ele>
        <time>2021-05-23T10:29:00Z</time>
      </trkpt>
      <trkpt lat="46.80264" lon="4.64869">
        <ele>495.21054077148</ele>
        <time>2021-05-23T10:29:04Z</time>
      </trkpt>
      <trkpt lat="46.80276" lon="4.64878">
        <ele>497.21102905273</ele>
        <time>2021-05-23T10:29:08Z</time>
      </trkpt>
      <trkpt lat="46.80288" lon="4.64886">
        <ele>499.21154785156</ele>
        <time>2021-05-23T10:29:12Z</time>
      </trkpt>
      <trkpt lat="46.80305" lon="4.64896">
        <ele>499.2121887207</ele>
        <time>2021-05-23T10:29:17Z</time>
      </trkpt>
      <trkpt lat="46.80319" lon="4.64903">
        <ele>501.21273803711</ele>
        <time>2021-05-23T10:29:21Z</time>
      </trkpt>
      <trkpt lat="46.80336" lon="4.64912">
        <ele>500.21343994141</ele>
        <time>2021-05-23T10:29:26Z</time>
      </trkpt>
      <trkpt lat="46.80349" lon="4.64921">
        <ele>499.21395874023</ele>
        <time>2021-05-23T10:29:30Z</time>
      </trkpt>
      <trkpt lat="46.80358" lon="4.64924">
        <ele>499.21432495117</ele>
        <time>2021-05-23T10:29:34Z</time>
      </trkpt>
      <trkpt lat="46.80372" lon="4.64928">
        <ele>498.21487426758</ele>
        <time>2021-05-23T10:29:39Z</time>
      </trkpt>
      <trkpt lat="46.80391" lon="4.64928">
        <ele>499.21563720703</ele>
        <time>2021-05-23T10:29:44Z</time>
      </trkpt>
      <trkpt lat="46.80399" lon="4.6493">
        <ele>497.21597290039</ele>
        <time>2021-05-23T10:29:48Z</time>
      </trkpt>
      <trkpt lat="46.80404" lon="4.6494">
        <ele>506.21618652344</ele>
        <time>2021-05-23T10:33:02Z</time>
      </trkpt>
      <trkpt lat="46.80434" lon="4.64996">
        <ele>501.21734619141</ele>
        <time>2021-05-23T10:33:06Z</time>
      </trkpt>
      <trkpt lat="46.80443" lon="4.65019">
        <ele>500.21771240234</ele>
        <time>2021-05-23T10:33:11Z</time>
      </trkpt>
      <trkpt lat="46.80451" lon="4.6504">
        <ele>499.21801757812</ele>
        <time>2021-05-23T10:33:15Z</time>
      </trkpt>
      <trkpt lat="46.80453" lon="4.65053">
        <ele>500.21810913086</ele>
        <time>2021-05-23T10:33:19Z</time>
      </trkpt>
      <trkpt lat="46.80453" lon="4.65071">
        <ele>501.21813964844</ele>
        <time>2021-05-23T10:33:24Z</time>
      </trkpt>
      <trkpt lat="46.80459" lon="4.65088">
        <ele>501.21835327148</ele>
        <time>2021-05-23T10:33:28Z</time>
      </trkpt>
      <trkpt lat="46.80461" lon="4.65104">
        <ele>501.21844482422</ele>
        <time>2021-05-23T10:33:32Z</time>
      </trkpt>
      <trkpt lat="46.80458" lon="4.65125">
        <ele>501.21832275391</ele>
        <time>2021-05-23T10:33:37Z</time>
      </trkpt>
      <trkpt lat="46.8046" lon="4.65149">
        <ele>498.21838378906</ele>
        <time>2021-05-23T10:33:41Z</time>
      </trkpt>
      <trkpt lat="46.80457" lon="4.65172">
        <ele>495.21826171875</ele>
        <time>2021-05-23T10:33:45Z</time>
      </trkpt>
      <trkpt lat="46.80451" lon="4.65195">
        <ele>494.21801757812</ele>
        <time>2021-05-23T10:33:49Z</time>
      </trkpt>
      <trkpt lat="46.80438" lon="4.65218">
        <ele>498.21752929688</ele>
        <time>2021-05-23T10:33:54Z</time>
      </trkpt>
      <trkpt lat="46.80426" lon="4.65233">
        <ele>498.21704101562</ele>
        <time>2021-05-23T10:33:58Z</time>
      </trkpt>
      <trkpt lat="46.80415" lon="4.65249">
        <ele>498.21658325195</ele>
        <time>2021-05-23T10:34:02Z</time>
      </trkpt>
      <trkpt lat="46.80402" lon="4.65264">
        <ele>502.2160949707</ele>
        <time>2021-05-23T10:34:06Z</time>
      </trkpt>
      <trkpt lat="46.80392" lon="4.65283">
        <ele>500.21566772461</ele>
        <time>2021-05-23T10:34:10Z</time>
      </trkpt>
      <trkpt lat="46.80381" lon="4.65306">
        <ele>500.21520996094</ele>
        <time>2021-05-23T10:34:14Z</time>
      </trkpt>
      <trkpt lat="46.8037" lon="4.65324">
        <ele>498.21478271484</ele>
        <time>2021-05-23T10:34:18Z</time>
      </trkpt>
      <trkpt lat="46.80357" lon="4.65346">
        <ele>498.21426391602</ele>
        <time>2021-05-23T10:34:23Z</time>
      </trkpt>
      <trkpt lat="46.80355" lon="4.65359">
        <ele>496.21423339844</ele>
        <time>2021-05-23T10:34:27Z</time>
      </trkpt>
      <trkpt lat="46.80351" lon="4.65372">
        <ele>497.21405029297</ele>
        <time>2021-05-23T10:34:31Z</time>
      </trkpt>
      <trkpt lat="46.80351" lon="4.65389">
        <ele>497.21405029297</ele>
        <time>2021-05-23T10:34:35Z</time>
      </trkpt>
      <trkpt lat="46.80352" lon="4.6541">
        <ele>497.21405029297</ele>
        <time>2021-05-23T10:34:40Z</time>
      </trkpt>
      <trkpt lat="46.80341" lon="4.65409">
        <ele>494.21365356445</ele>
        <time>2021-05-23T10:34:45Z</time>
      </trkpt>
      <trkpt lat="46.80328" lon="4.65403">
        <ele>490.21310424805</ele>
        <time>2021-05-23T10:34:50Z</time>
      </trkpt>
      <trkpt lat="46.80321" lon="4.65412">
        <ele>490.21282958984</ele>
        <time>2021-05-23T10:34:54Z</time>
      </trkpt>
      <trkpt lat="46.80313" lon="4.65426">
        <ele>487.21255493164</ele>
        <time>2021-05-23T10:34:59Z</time>
      </trkpt>
      <trkpt lat="46.80306" lon="4.65439">
        <ele>485.21224975586</ele>
        <time>2021-05-23T10:35:03Z</time>
      </trkpt>
      <trkpt lat="46.80297" lon="4.65457">
        <ele>488.21188354492</ele>
        <time>2021-05-23T10:35:08Z</time>
      </trkpt>
      <trkpt lat="46.80291" lon="4.65467">
        <ele>487.2116394043</ele>
        <time>2021-05-23T10:35:12Z</time>
      </trkpt>
      <trkpt lat="46.80284" lon="4.65481">
        <ele>486.21136474609</ele>
        <time>2021-05-23T10:35:17Z</time>
      </trkpt>
      <trkpt lat="46.8028" lon="4.65494">
        <ele>484.2112121582</ele>
        <time>2021-05-23T10:35:22Z</time>
      </trkpt>
      <trkpt lat="46.80275" lon="4.65501">
        <ele>482.21099853516</ele>
        <time>2021-05-23T10:35:26Z</time>
      </trkpt>
      <trkpt lat="46.80267" lon="4.655">
        <ele>482.2106628418</ele>
        <time>2021-05-23T10:35:31Z</time>
      </trkpt>
      <trkpt lat="46.80258" lon="4.65498">
        <ele>485.21032714844</ele>
        <time>2021-05-23T10:35:35Z</time>
      </trkpt>
      <trkpt lat="46.80245" lon="4.65501">
        <ele>484.20980834961</ele>
        <time>2021-05-23T10:35:40Z</time>
      </trkpt>
      <trkpt lat="46.80235" lon="4.65507">
        <ele>483.20941162109</ele>
        <time>2021-05-23T10:35:44Z</time>
      </trkpt>
      <trkpt lat="46.80229" lon="4.65515">
        <ele>482.20916748047</ele>
        <time>2021-05-23T10:35:49Z</time>
      </trkpt>
      <trkpt lat="46.80222" lon="4.65523">
        <ele>480.20889282227</ele>
        <time>2021-05-23T10:35:54Z</time>
      </trkpt>
      <trkpt lat="46.80214" lon="4.65526">
        <ele>481.20855712891</ele>
        <time>2021-05-23T10:35:59Z</time>
      </trkpt>
      <trkpt lat="46.80203" lon="4.6553">
        <ele>484.20809936523</ele>
        <time>2021-05-23T10:36:04Z</time>
      </trkpt>
      <trkpt lat="46.80194" lon="4.65537">
        <ele>485.2077331543</ele>
        <time>2021-05-23T10:36:09Z</time>
      </trkpt>
      <trkpt lat="46.8018" lon="4.65539">
        <ele>486.20721435547</ele>
        <time>2021-05-23T10:36:14Z</time>
      </trkpt>
      <trkpt lat="46.80175" lon="4.65545">
        <ele>482.20697021484</ele>
        <time>2021-05-23T10:36:28Z</time>
      </trkpt>
      <trkpt lat="46.80157" lon="4.65547">
        <ele>485.20629882812</ele>
        <time>2021-05-23T10:36:33Z</time>
      </trkpt>
      <trkpt lat="46.80143" lon="4.65547">
        <ele>484.20571899414</ele>
        <time>2021-05-23T10:36:38Z</time>
      </trkpt>
      <trkpt lat="46.80135" lon="4.65551">
        <ele>484.20541381836</ele>
        <time>2021-05-23T10:36:42Z</time>
      </trkpt>
      <trkpt lat="46.80124" lon="4.65548">
        <ele>485.20498657227</ele>
        <time>2021-05-23T10:36:47Z</time>
      </trkpt>
      <trkpt lat="46.80117" lon="4.6555">
        <ele>485.20468139648</ele>
        <time>2021-05-23T10:36:53Z</time>
      </trkpt>
      <trkpt lat="46.8011" lon="4.65552">
        <ele>487.20440673828</ele>
        <time>2021-05-23T10:37:01Z</time>
      </trkpt>
      <trkpt lat="46.80101" lon="4.65556">
        <ele>487.20407104492</ele>
        <time>2021-05-23T10:37:08Z</time>
      </trkpt>
      <trkpt lat="46.80095" lon="4.65556">
        <ele>487.20376586914</ele>
        <time>2021-05-23T10:37:18Z</time>
      </trkpt>
      <trkpt lat="46.80087" lon="4.6556">
        <ele>483.20346069336</ele>
        <time>2021-05-23T10:37:22Z</time>
      </trkpt>
      <trkpt lat="46.80078" lon="4.65566">
        <ele>485.203125</ele>
        <time>2021-05-23T10:37:26Z</time>
      </trkpt>
      <trkpt lat="46.8007" lon="4.65571">
        <ele>486.20278930664</ele>
        <time>2021-05-23T10:37:31Z</time>
      </trkpt>
      <trkpt lat="46.80063" lon="4.65575">
        <ele>487.20251464844</ele>
        <time>2021-05-23T10:37:35Z</time>
      </trkpt>
      <trkpt lat="46.80053" lon="4.65581">
        <ele>488.20211791992</ele>
        <time>2021-05-23T10:37:40Z</time>
      </trkpt>
      <trkpt lat="46.80043" lon="4.65585">
        <ele>490.20169067383</ele>
        <time>2021-05-23T10:37:44Z</time>
      </trkpt>
      <trkpt lat="46.80032" lon="4.65588">
        <ele>487.20129394531</ele>
        <time>2021-05-23T10:37:49Z</time>
      </trkpt>
      <trkpt lat="46.80024" lon="4.6559">
        <ele>488.20092773438</ele>
        <time>2021-05-23T10:37:53Z</time>
      </trkpt>
      <trkpt lat="46.80013" lon="4.65596">
        <ele>487.20050048828</ele>
        <time>2021-05-23T10:37:58Z</time>
      </trkpt>
      <trkpt lat="46.80003" lon="4.65597">
        <ele>486.20010375977</ele>
        <time>2021-05-23T10:38:02Z</time>
      </trkpt>
      <trkpt lat="46.79992" lon="4.656">
        <ele>488.19964599609</ele>
        <time>2021-05-23T10:38:07Z</time>
      </trkpt>
      <trkpt lat="46.79981" lon="4.65604">
        <ele>489.19924926758</ele>
        <time>2021-05-23T10:38:11Z</time>
      </trkpt>
      <trkpt lat="46.79975" lon="4.65611">
        <ele>483.19900512695</ele>
        <time>2021-05-23T10:38:34Z</time>
      </trkpt>
      <trkpt lat="46.79974" lon="4.65623">
        <ele>479.19897460938</ele>
        <time>2021-05-23T10:38:50Z</time>
      </trkpt>
      <trkpt lat="46.79975" lon="4.65638">
        <ele>481.19900512695</ele>
        <time>2021-05-23T10:38:55Z</time>
      </trkpt>
      <trkpt lat="46.79973" lon="4.65651">
        <ele>482.19891357422</ele>
        <time>2021-05-23T10:39:00Z</time>
      </trkpt>
      <trkpt lat="46.79974" lon="4.65662">
        <ele>483.1989440918</ele>
        <time>2021-05-23T10:39:06Z</time>
      </trkpt>
      <trkpt lat="46.79972" lon="4.65678">
        <ele>486.19888305664</ele>
        <time>2021-05-23T10:39:10Z</time>
      </trkpt>
      <trkpt lat="46.79974" lon="4.65694">
        <ele>488.19897460938</ele>
        <time>2021-05-23T10:39:15Z</time>
      </trkpt>
      <trkpt lat="46.79976" lon="4.65709">
        <ele>487.19906616211</ele>
        <time>2021-05-23T10:39:20Z</time>
      </trkpt>
      <trkpt lat="46.7998" lon="4.65721">
        <ele>484.19918823242</ele>
        <time>2021-05-23T10:39:24Z</time>
      </trkpt>
      <trkpt lat="46.79985" lon="4.65731">
        <ele>481.19940185547</ele>
        <time>2021-05-23T10:40:02Z</time>
      </trkpt>
      <trkpt lat="46.79979" lon="4.65739">
        <ele>480.19918823242</ele>
        <time>2021-05-23T10:40:08Z</time>
      </trkpt>
      <trkpt lat="46.79972" lon="4.65753">
        <ele>471.19891357422</ele>
        <time>2021-05-23T10:40:13Z</time>
      </trkpt>
      <trkpt lat="46.7997" lon="4.65763">
        <ele>469.19879150391</ele>
        <time>2021-05-23T10:40:17Z</time>
      </trkpt>
      <trkpt lat="46.79964" lon="4.65779">
        <ele>469.19857788086</ele>
        <time>2021-05-23T10:40:22Z</time>
      </trkpt>
      <trkpt lat="46.79951" lon="4.65799">
        <ele>469.19805908203</ele>
        <time>2021-05-23T10:40:27Z</time>
      </trkpt>
      <trkpt lat="46.79945" lon="4.65809">
        <ele>468.19778442383</ele>
        <time>2021-05-23T10:40:31Z</time>
      </trkpt>
      <trkpt lat="46.79952" lon="4.65813">
        <ele>472.19805908203</ele>
        <time>2021-05-23T10:41:15Z</time>
      </trkpt>
      <trkpt lat="46.79962" lon="4.65822">
        <ele>469.19845581055</ele>
        <time>2021-05-23T10:41:20Z</time>
      </trkpt>
      <trkpt lat="46.7997" lon="4.65827">
        <ele>466.19879150391</ele>
        <time>2021-05-23T10:41:24Z</time>
      </trkpt>
      <trkpt lat="46.7998" lon="4.6584">
        <ele>469.19918823242</ele>
        <time>2021-05-23T10:41:29Z</time>
      </trkpt>
      <trkpt lat="46.79989" lon="4.65855">
        <ele>470.19955444336</ele>
        <time>2021-05-23T10:41:34Z</time>
      </trkpt>
      <trkpt lat="46.79998" lon="4.65866">
        <ele>470.1999206543</ele>
        <time>2021-05-23T10:41:38Z</time>
      </trkpt>
      <trkpt lat="46.7999" lon="4.6586">
        <ele>470.19958496094</ele>
        <time>2021-05-23T10:41:47Z</time>
      </trkpt>
      <trkpt lat="46.79981" lon="4.65849">
        <ele>471.19924926758</ele>
        <time>2021-05-23T10:41:51Z</time>
      </trkpt>
      <trkpt lat="46.79973" lon="4.65837">
        <ele>472.19891357422</ele>
        <time>2021-05-23T10:41:55Z</time>
      </trkpt>
      <trkpt lat="46.79963" lon="4.65827">
        <ele>469.1985168457</ele>
        <time>2021-05-23T10:41:59Z</time>
      </trkpt>
      <trkpt lat="46.79949" lon="4.65816">
        <ele>467.1979675293</ele>
        <time>2021-05-23T10:42:03Z</time>
      </trkpt>
      <trkpt lat="46.79942" lon="4.65801">
        <ele>466.19769287109</ele>
        <time>2021-05-23T10:42:08Z</time>
      </trkpt>
      <trkpt lat="46.79944" lon="4.65789">
        <ele>467.19778442383</ele>
        <time>2021-05-23T10:42:19Z</time>
      </trkpt>
      <trkpt lat="46.79951" lon="4.65781">
        <ele>471.19802856445</ele>
        <time>2021-05-23T10:42:26Z</time>
      </trkpt>
      <trkpt lat="46.79958" lon="4.65774">
        <ele>476.19833374023</ele>
        <time>2021-05-23T10:42:39Z</time>
      </trkpt>
      <trkpt lat="46.79964" lon="4.65765">
        <ele>480.19857788086</ele>
        <time>2021-05-23T10:42:50Z</time>
      </trkpt>
      <trkpt lat="46.7997" lon="4.65756">
        <ele>482.19879150391</ele>
        <time>2021-05-23T10:43:17Z</time>
      </trkpt>
      <trkpt lat="46.79977" lon="4.65747">
        <ele>477.19909667969</ele>
        <time>2021-05-23T10:43:22Z</time>
      </trkpt>
      <trkpt lat="46.79979" lon="4.65735">
        <ele>478.19915771484</ele>
        <time>2021-05-23T10:43:31Z</time>
      </trkpt>
      <trkpt lat="46.79973" lon="4.65743">
        <ele>473.19891357422</ele>
        <time>2021-05-23T10:43:49Z</time>
      </trkpt>
      <trkpt lat="46.79967" lon="4.65756">
        <ele>472.19869995117</ele>
        <time>2021-05-23T10:43:53Z</time>
      </trkpt>
      <trkpt lat="46.79962" lon="4.65774">
        <ele>471.19848632812</ele>
        <time>2021-05-23T10:43:58Z</time>
      </trkpt>
      <trkpt lat="46.79955" lon="4.65785">
        <ele>474.19818115234</ele>
        <time>2021-05-23T10:44:02Z</time>
      </trkpt>
      <trkpt lat="46.79947" lon="4.65795">
        <ele>472.19787597656</ele>
        <time>2021-05-23T10:44:06Z</time>
      </trkpt>
      <trkpt lat="46.79947" lon="4.65809">
        <ele>470.19787597656</ele>
        <time>2021-05-23T10:44:11Z</time>
      </trkpt>
      <trkpt lat="46.79955" lon="4.65815">
        <ele>468.19818115234</ele>
        <time>2021-05-23T10:44:16Z</time>
      </trkpt>
      <trkpt lat="46.79962" lon="4.65819">
        <ele>465.19845581055</ele>
        <time>2021-05-23T10:44:20Z</time>
      </trkpt>
      <trkpt lat="46.79971" lon="4.65822">
        <ele>466.19882202148</ele>
        <time>2021-05-23T10:44:25Z</time>
      </trkpt>
      <trkpt lat="46.79977" lon="4.6583">
        <ele>466.19906616211</ele>
        <time>2021-05-23T10:44:33Z</time>
      </trkpt>
      <trkpt lat="46.79983" lon="4.65838">
        <ele>470.19931030273</ele>
        <time>2021-05-23T10:44:38Z</time>
      </trkpt>
      <trkpt lat="46.79987" lon="4.65848">
        <ele>470.19946289062</ele>
        <time>2021-05-23T10:44:43Z</time>
      </trkpt>
      <trkpt lat="46.79995" lon="4.6586">
        <ele>471.19979858398</ele>
        <time>2021-05-23T10:44:48Z</time>
      </trkpt>
      <trkpt lat="46.80003" lon="4.65871">
        <ele>472.20013427734</ele>
        <time>2021-05-23T10:44:52Z</time>
      </trkpt>
      <trkpt lat="46.80011" lon="4.6588">
        <ele>475.20040893555</ele>
        <time>2021-05-23T10:44:56Z</time>
      </trkpt>
      <trkpt lat="46.80018" lon="4.65885">
        <ele>477.20071411133</ele>
        <time>2021-05-23T10:45:00Z</time>
      </trkpt>
      <trkpt lat="46.80025" lon="4.6589">
        <ele>477.20101928711</ele>
        <time>2021-05-23T10:45:04Z</time>
      </trkpt>
      <trkpt lat="46.80032" lon="4.65899">
        <ele>480.20129394531</ele>
        <time>2021-05-23T10:45:08Z</time>
      </trkpt>
      <trkpt lat="46.80042" lon="4.6591">
        <ele>481.20169067383</ele>
        <time>2021-05-23T10:45:13Z</time>
      </trkpt>
      <trkpt lat="46.80053" lon="4.65923">
        <ele>478.20211791992</ele>
        <time>2021-05-23T10:45:18Z</time>
      </trkpt>
      <trkpt lat="46.8006" lon="4.65931">
        <ele>479.20239257812</ele>
        <time>2021-05-23T10:45:22Z</time>
      </trkpt>
      <trkpt lat="46.80069" lon="4.65938">
        <ele>472.20272827148</ele>
        <time>2021-05-23T10:45:27Z</time>
      </trkpt>
      <trkpt lat="46.80075" lon="4.65945">
        <ele>469.20300292969</ele>
        <time>2021-05-23T10:45:31Z</time>
      </trkpt>
      <trkpt lat="46.80082" lon="4.65951">
        <ele>467.20327758789</ele>
        <time>2021-05-23T10:45:35Z</time>
      </trkpt>
      <trkpt lat="46.80088" lon="4.65958">
        <ele>471.20352172852</ele>
        <time>2021-05-23T10:45:39Z</time>
      </trkpt>
      <trkpt lat="46.80096" lon="4.65964">
        <ele>474.20385742188</ele>
        <time>2021-05-23T10:45:46Z</time>
      </trkpt>
      <trkpt lat="46.80104" lon="4.65968">
        <ele>475.20416259766</ele>
        <time>2021-05-23T10:45:51Z</time>
      </trkpt>
      <trkpt lat="46.80112" lon="4.65975">
        <ele>475.20446777344</ele>
        <time>2021-05-23T10:45:56Z</time>
      </trkpt>
      <trkpt lat="46.80119" lon="4.6598">
        <ele>476.20477294922</ele>
        <time>2021-05-23T10:46:00Z</time>
      </trkpt>
      <trkpt lat="46.80129" lon="4.65987">
        <ele>473.20516967773</ele>
        <time>2021-05-23T10:46:05Z</time>
      </trkpt>
      <trkpt lat="46.80124" lon="4.65997">
        <ele>472.20492553711</ele>
        <time>2021-05-23T10:46:45Z</time>
      </trkpt>
      <trkpt lat="46.80131" lon="4.66003">
        <ele>478.20523071289</ele>
        <time>2021-05-23T10:46:53Z</time>
      </trkpt>
      <trkpt lat="46.80139" lon="4.66008">
        <ele>476.20556640625</ele>
        <time>2021-05-23T10:46:57Z</time>
      </trkpt>
      <trkpt lat="46.8015" lon="4.66016">
        <ele>473.20599365234</ele>
        <time>2021-05-23T10:47:01Z</time>
      </trkpt>
      <trkpt lat="46.80162" lon="4.66029">
        <ele>473.20648193359</ele>
        <time>2021-05-23T10:47:06Z</time>
      </trkpt>
      <trkpt lat="46.80173" lon="4.66047">
        <ele>477.20693969727</ele>
        <time>2021-05-23T10:47:10Z</time>
      </trkpt>
      <trkpt lat="46.80182" lon="4.66075">
        <ele>477.20727539062</ele>
        <time>2021-05-23T10:47:14Z</time>
      </trkpt>
      <trkpt lat="46.80188" lon="4.66086">
        <ele>479.20751953125</ele>
        <time>2021-05-23T10:47:18Z</time>
      </trkpt>
      <trkpt lat="46.80197" lon="4.66111">
        <ele>485.20788574219</ele>
        <time>2021-05-23T10:47:23Z</time>
      </trkpt>
      <trkpt lat="46.80204" lon="4.66148">
        <ele>488.20816040039</ele>
        <time>2021-05-23T10:47:28Z</time>
      </trkpt>
      <trkpt lat="46.80212" lon="4.66182">
        <ele>492.20849609375</ele>
        <time>2021-05-23T10:47:32Z</time>
      </trkpt>
      <trkpt lat="46.80222" lon="4.66216">
        <ele>492.20889282227</ele>
        <time>2021-05-23T10:47:36Z</time>
      </trkpt>
      <trkpt lat="46.80231" lon="4.66244">
        <ele>487.2092590332</ele>
        <time>2021-05-23T10:47:40Z</time>
      </trkpt>
      <trkpt lat="46.80241" lon="4.66268">
        <ele>492.20965576172</ele>
        <time>2021-05-23T10:47:44Z</time>
      </trkpt>
      <trkpt lat="46.80264" lon="4.66313">
        <ele>491.21057128906</ele>
        <time>2021-05-23T10:47:48Z</time>
      </trkpt>
      <trkpt lat="46.80286" lon="4.66355">
        <ele>488.21145629883</ele>
        <time>2021-05-23T10:47:53Z</time>
      </trkpt>
      <trkpt lat="46.80302" lon="4.66387">
        <ele>482.21209716797</ele>
        <time>2021-05-23T10:47:57Z</time>
      </trkpt>
      <trkpt lat="46.80317" lon="4.66406">
        <ele>485.21264648438</ele>
        <time>2021-05-23T10:48:01Z</time>
      </trkpt>
      <trkpt lat="46.8032" lon="4.66418">
        <ele>472.21279907227</ele>
        <time>2021-05-23T10:48:07Z</time>
      </trkpt>
      <trkpt lat="46.80322" lon="4.66428">
        <ele>458.21286010742</ele>
        <time>2021-05-23T10:49:34Z</time>
      </trkpt>
      <trkpt lat="46.80331" lon="4.66452">
        <ele>461.21322631836</ele>
        <time>2021-05-23T10:49:39Z</time>
      </trkpt>
      <trkpt lat="46.80337" lon="4.66469">
        <ele>463.21347045898</ele>
        <time>2021-05-23T10:49:43Z</time>
      </trkpt>
      <trkpt lat="46.80363" lon="4.66503">
        <ele>469.21450805664</ele>
        <time>2021-05-23T10:49:48Z</time>
      </trkpt>
      <trkpt lat="46.80385" lon="4.66537">
        <ele>472.21539306641</ele>
        <time>2021-05-23T10:49:52Z</time>
      </trkpt>
      <trkpt lat="46.80408" lon="4.6657">
        <ele>466.21633911133</ele>
        <time>2021-05-23T10:49:56Z</time>
      </trkpt>
      <trkpt lat="46.80444" lon="4.66618">
        <ele>466.2177734375</ele>
        <time>2021-05-23T10:50:01Z</time>
      </trkpt>
      <trkpt lat="46.8047" lon="4.66646">
        <ele>462.21878051758</ele>
        <time>2021-05-23T10:50:05Z</time>
      </trkpt>
      <trkpt lat="46.8049" lon="4.66659">
        <ele>459.21960449219</ele>
        <time>2021-05-23T10:50:09Z</time>
      </trkpt>
      <trkpt lat="46.80518" lon="4.66669">
        <ele>458.22073364258</ele>
        <time>2021-05-23T10:50:13Z</time>
      </trkpt>
      <trkpt lat="46.80533" lon="4.66676">
        <ele>454.22134399414</ele>
        <time>2021-05-23T10:50:18Z</time>
      </trkpt>
      <trkpt lat="46.80547" lon="4.66688">
        <ele>457.22189331055</ele>
        <time>2021-05-23T10:50:23Z</time>
      </trkpt>
      <trkpt lat="46.80556" lon="4.66693">
        <ele>452.22225952148</ele>
        <time>2021-05-23T10:50:27Z</time>
      </trkpt>
      <trkpt lat="46.80582" lon="4.66715">
        <ele>446.22329711914</ele>
        <time>2021-05-23T10:50:32Z</time>
      </trkpt>
      <trkpt lat="46.80611" lon="4.66732">
        <ele>444.22445678711</ele>
        <time>2021-05-23T10:50:36Z</time>
      </trkpt>
      <trkpt lat="46.80649" lon="4.66751">
        <ele>440.22595214844</ele>
        <time>2021-05-23T10:50:41Z</time>
      </trkpt>
      <trkpt lat="46.80677" lon="4.6677">
        <ele>441.22711181641</ele>
        <time>2021-05-23T10:50:45Z</time>
      </trkpt>
      <trkpt lat="46.80708" lon="4.6679">
        <ele>438.22830200195</ele>
        <time>2021-05-23T10:50:49Z</time>
      </trkpt>
      <trkpt lat="46.80737" lon="4.66804">
        <ele>437.2294921875</ele>
        <time>2021-05-23T10:50:54Z</time>
      </trkpt>
      <trkpt lat="46.80751" lon="4.66809">
        <ele>432.23007202148</ele>
        <time>2021-05-23T10:50:58Z</time>
      </trkpt>
      <trkpt lat="46.80765" lon="4.66817">
        <ele>424.23062133789</ele>
        <time>2021-05-23T10:51:02Z</time>
      </trkpt>
      <trkpt lat="46.80775" lon="4.66823">
        <ele>426.23098754883</ele>
        <time>2021-05-23T10:51:06Z</time>
      </trkpt>
      <trkpt lat="46.80786" lon="4.66835">
        <ele>425.2314453125</ele>
        <time>2021-05-23T10:51:11Z</time>
      </trkpt>
      <trkpt lat="46.808" lon="4.66839">
        <ele>423.23199462891</ele>
        <time>2021-05-23T10:51:15Z</time>
      </trkpt>
      <trkpt lat="46.80816" lon="4.66836">
        <ele>421.23263549805</ele>
        <time>2021-05-23T10:51:20Z</time>
      </trkpt>
      <trkpt lat="46.8083" lon="4.6684">
        <ele>418.23318481445</ele>
        <time>2021-05-23T10:51:25Z</time>
      </trkpt>
      <trkpt lat="46.80837" lon="4.66847">
        <ele>420.23348999023</ele>
        <time>2021-05-23T10:51:29Z</time>
      </trkpt>
      <trkpt lat="46.80846" lon="4.66854">
        <ele>420.23385620117</ele>
        <time>2021-05-23T10:51:33Z</time>
      </trkpt>
      <trkpt lat="46.80852" lon="4.6686">
        <ele>417.2341003418</ele>
        <time>2021-05-23T10:51:37Z</time>
      </trkpt>
      <trkpt lat="46.8086" lon="4.66868">
        <ele>419.23440551758</ele>
        <time>2021-05-23T10:51:41Z</time>
      </trkpt>
      <trkpt lat="46.8087" lon="4.66874">
        <ele>412.23477172852</ele>
        <time>2021-05-23T10:51:46Z</time>
      </trkpt>
      <trkpt lat="46.8088" lon="4.66883">
        <ele>413.23519897461</ele>
        <time>2021-05-23T10:51:50Z</time>
      </trkpt>
      <trkpt lat="46.80893" lon="4.66889">
        <ele>415.23574829102</ele>
        <time>2021-05-23T10:51:55Z</time>
      </trkpt>
      <trkpt lat="46.80902" lon="4.66891">
        <ele>407.23608398438</ele>
        <time>2021-05-23T10:52:00Z</time>
      </trkpt>
      <trkpt lat="46.8091" lon="4.66893">
        <ele>406.23641967773</ele>
        <time>2021-05-23T10:52:05Z</time>
      </trkpt>
      <trkpt lat="46.8092" lon="4.66893">
        <ele>405.23678588867</ele>
        <time>2021-05-23T10:52:10Z</time>
      </trkpt>
      <trkpt lat="46.80927" lon="4.66893">
        <ele>405.23709106445</ele>
        <time>2021-05-23T10:52:14Z</time>
      </trkpt>
      <trkpt lat="46.80938" lon="4.669">
        <ele>401.23754882812</ele>
        <time>2021-05-23T10:52:19Z</time>
      </trkpt>
      <trkpt lat="46.80949" lon="4.66905">
        <ele>397.23794555664</ele>
        <time>2021-05-23T10:52:23Z</time>
      </trkpt>
      <trkpt lat="46.80958" lon="4.66908">
        <ele>397.23831176758</ele>
        <time>2021-05-23T10:52:27Z</time>
      </trkpt>
      <trkpt lat="46.80968" lon="4.6691">
        <ele>396.23870849609</ele>
        <time>2021-05-23T10:52:31Z</time>
      </trkpt>
      <trkpt lat="46.80977" lon="4.66913">
        <ele>394.23910522461</ele>
        <time>2021-05-23T10:52:35Z</time>
      </trkpt>
      <trkpt lat="46.80985" lon="4.6692">
        <ele>398.23941040039</ele>
        <time>2021-05-23T10:52:39Z</time>
      </trkpt>
      <trkpt lat="46.80995" lon="4.66927">
        <ele>396.23980712891</ele>
        <time>2021-05-23T10:52:44Z</time>
      </trkpt>
      <trkpt lat="46.81002" lon="4.66932">
        <ele>392.24005126953</ele>
        <time>2021-05-23T10:52:48Z</time>
      </trkpt>
      <trkpt lat="46.81008" lon="4.66939">
        <ele>383.24029541016</ele>
        <time>2021-05-23T10:52:56Z</time>
      </trkpt>
      <trkpt lat="46.81018" lon="4.66947">
        <ele>380.24072265625</ele>
        <time>2021-05-23T10:53:01Z</time>
      </trkpt>
      <trkpt lat="46.81026" lon="4.66955">
        <ele>379.24105834961</ele>
        <time>2021-05-23T10:53:06Z</time>
      </trkpt>
      <trkpt lat="46.81033" lon="4.66962">
        <ele>378.24133300781</ele>
        <time>2021-05-23T10:53:11Z</time>
      </trkpt>
      <trkpt lat="46.81041" lon="4.66969">
        <ele>377.24163818359</ele>
        <time>2021-05-23T10:53:17Z</time>
      </trkpt>
      <trkpt lat="46.81047" lon="4.66979">
        <ele>376.24188232422</ele>
        <time>2021-05-23T10:53:22Z</time>
      </trkpt>
      <trkpt lat="46.81052" lon="4.66988">
        <ele>380.24206542969</ele>
        <time>2021-05-23T10:53:28Z</time>
      </trkpt>
      <trkpt lat="46.81059" lon="4.66999">
        <ele>388.24234008789</ele>
        <time>2021-05-23T10:53:33Z</time>
      </trkpt>
      <trkpt lat="46.81064" lon="4.6701">
        <ele>385.24258422852</ele>
        <time>2021-05-23T10:53:37Z</time>
      </trkpt>
      <trkpt lat="46.81071" lon="4.67025">
        <ele>386.24285888672</ele>
        <time>2021-05-23T10:53:41Z</time>
      </trkpt>
      <trkpt lat="46.81076" lon="4.67037">
        <ele>395.24304199219</ele>
        <time>2021-05-23T10:53:45Z</time>
      </trkpt>
      <trkpt lat="46.8108" lon="4.67047">
        <ele>396.24319458008</ele>
        <time>2021-05-23T10:53:50Z</time>
      </trkpt>
      <trkpt lat="46.81084" lon="4.67036">
        <ele>363.24334716797</ele>
        <time>2021-05-23T10:54:39Z</time>
      </trkpt>
      <trkpt lat="46.81091" lon="4.67028">
        <ele>357.24365234375</ele>
        <time>2021-05-23T10:54:47Z</time>
      </trkpt>
      <trkpt lat="46.81093" lon="4.67017">
        <ele>358.24371337891</ele>
        <time>2021-05-23T10:54:55Z</time>
      </trkpt>
      <trkpt lat="46.81094" lon="4.67005">
        <ele>356.24377441406</ele>
        <time>2021-05-23T10:55:01Z</time>
      </trkpt>
      <trkpt lat="46.81096" lon="4.66994">
        <ele>352.24383544922</ele>
        <time>2021-05-23T10:55:07Z</time>
      </trkpt>
      <trkpt lat="46.811" lon="4.66982">
        <ele>346.24401855469</ele>
        <time>2021-05-23T10:55:17Z</time>
      </trkpt>
      <trkpt lat="46.81099" lon="4.66993">
        <ele>345.24395751953</ele>
        <time>2021-05-23T10:55:37Z</time>
      </trkpt>
      <trkpt lat="46.81096" lon="4.67004">
        <ele>347.2438659668</ele>
        <time>2021-05-23T10:55:42Z</time>
      </trkpt>
      <trkpt lat="46.81091" lon="4.67014">
        <ele>351.24365234375</ele>
        <time>2021-05-23T10:55:49Z</time>
      </trkpt>
      <trkpt lat="46.81091" lon="4.67026">
        <ele>355.24362182617</ele>
        <time>2021-05-23T10:55:57Z</time>
      </trkpt>
      <trkpt lat="46.81089" lon="4.67038">
        <ele>355.24353027344</ele>
        <time>2021-05-23T10:56:07Z</time>
      </trkpt>
      <trkpt lat="46.81084" lon="4.67049">
        <ele>352.24337768555</ele>
        <time>2021-05-23T10:56:15Z</time>
      </trkpt>
      <trkpt lat="46.81078" lon="4.67056">
        <ele>354.24313354492</ele>
        <time>2021-05-23T10:56:31Z</time>
      </trkpt>
      <trkpt lat="46.81075" lon="4.67065">
        <ele>363.24301147461</ele>
        <time>2021-05-23T10:58:27Z</time>
      </trkpt>
      <trkpt lat="46.81075" lon="4.67084">
        <ele>365.24301147461</ele>
        <time>2021-05-23T10:58:31Z</time>
      </trkpt>
      <trkpt lat="46.81072" lon="4.671">
        <ele>369.2428894043</ele>
        <time>2021-05-23T10:58:35Z</time>
      </trkpt>
      <trkpt lat="46.81071" lon="4.67117">
        <ele>370.24282836914</ele>
        <time>2021-05-23T10:58:40Z</time>
      </trkpt>
      <trkpt lat="46.81072" lon="4.6713">
        <ele>374.2428894043</ele>
        <time>2021-05-23T10:58:44Z</time>
      </trkpt>
      <trkpt lat="46.81068" lon="4.67147">
        <ele>370.24273681641</ele>
        <time>2021-05-23T10:58:48Z</time>
      </trkpt>
      <trkpt lat="46.81065" lon="4.67163">
        <ele>367.24258422852</ele>
        <time>2021-05-23T10:58:52Z</time>
      </trkpt>
      <trkpt lat="46.8106" lon="4.67181">
        <ele>372.24240112305</ele>
        <time>2021-05-23T10:58:56Z</time>
      </trkpt>
      <trkpt lat="46.81054" lon="4.67202">
        <ele>375.24215698242</ele>
        <time>2021-05-23T10:59:01Z</time>
      </trkpt>
      <trkpt lat="46.81049" lon="4.67215">
        <ele>371.24194335938</ele>
        <time>2021-05-23T10:59:05Z</time>
      </trkpt>
      <trkpt lat="46.81044" lon="4.67226">
        <ele>367.24176025391</ele>
        <time>2021-05-23T10:59:11Z</time>
      </trkpt>
      <trkpt lat="46.8104" lon="4.67241">
        <ele>368.24160766602</ele>
        <time>2021-05-23T10:59:16Z</time>
      </trkpt>
      <trkpt lat="46.81036" lon="4.67254">
        <ele>367.24142456055</ele>
        <time>2021-05-23T10:59:20Z</time>
      </trkpt>
      <trkpt lat="46.81032" lon="4.6727">
        <ele>367.24127197266</ele>
        <time>2021-05-23T10:59:25Z</time>
      </trkpt>
      <trkpt lat="46.8103" lon="4.67281">
        <ele>359.24118041992</ele>
        <time>2021-05-23T10:59:30Z</time>
      </trkpt>
      <trkpt lat="46.81024" lon="4.67288">
        <ele>359.24096679688</ele>
        <time>2021-05-23T10:59:34Z</time>
      </trkpt>
      <trkpt lat="46.81018" lon="4.673">
        <ele>359.24069213867</ele>
        <time>2021-05-23T10:59:38Z</time>
      </trkpt>
      <trkpt lat="46.81013" lon="4.67313">
        <ele>352.24053955078</ele>
        <time>2021-05-23T10:59:42Z</time>
      </trkpt>
      <trkpt lat="46.81009" lon="4.67325">
        <ele>348.24035644531</ele>
        <time>2021-05-23T10:59:46Z</time>
      </trkpt>
      <trkpt lat="46.81004" lon="4.67339">
        <ele>348.24017333984</ele>
        <time>2021-05-23T10:59:50Z</time>
      </trkpt>
      <trkpt lat="46.81" lon="4.67353">
        <ele>348.23999023438</ele>
        <time>2021-05-23T10:59:54Z</time>
      </trkpt>
      <trkpt lat="46.80997" lon="4.67365">
        <ele>351.23986816406</ele>
        <time>2021-05-23T10:59:58Z</time>
      </trkpt>
      <trkpt lat="46.80991" lon="4.67382">
        <ele>349.23965454102</ele>
        <time>2021-05-23T11:00:03Z</time>
      </trkpt>
      <trkpt lat="46.80984" lon="4.67399">
        <ele>348.23937988281</ele>
        <time>2021-05-23T11:00:08Z</time>
      </trkpt>
      <trkpt lat="46.80976" lon="4.67416">
        <ele>351.23904418945</ele>
        <time>2021-05-23T11:00:13Z</time>
      </trkpt>
      <trkpt lat="46.8097" lon="4.6743">
        <ele>350.23880004883</ele>
        <time>2021-05-23T11:00:17Z</time>
      </trkpt>
      <trkpt lat="46.80964" lon="4.67445">
        <ele>347.2385559082</ele>
        <time>2021-05-23T11:00:21Z</time>
      </trkpt>
      <trkpt lat="46.80958" lon="4.6746">
        <ele>346.23831176758</ele>
        <time>2021-05-23T11:00:25Z</time>
      </trkpt>
      <trkpt lat="46.80952" lon="4.67476">
        <ele>347.23809814453</ele>
        <time>2021-05-23T11:00:29Z</time>
      </trkpt>
      <trkpt lat="46.80949" lon="4.67495">
        <ele>345.23797607422</ele>
        <time>2021-05-23T11:00:34Z</time>
      </trkpt>
      <trkpt lat="46.8095" lon="4.67507">
        <ele>344.2380065918</ele>
        <time>2021-05-23T11:00:38Z</time>
      </trkpt>
      <trkpt lat="46.80948" lon="4.67524">
        <ele>343.23791503906</ele>
        <time>2021-05-23T11:00:43Z</time>
      </trkpt>
      <trkpt lat="46.80946" lon="4.6754">
        <ele>341.23782348633</ele>
        <time>2021-05-23T11:00:47Z</time>
      </trkpt>
      <trkpt lat="46.80944" lon="4.67551">
        <ele>341.23776245117</ele>
        <time>2021-05-23T11:00:52Z</time>
      </trkpt>
      <trkpt lat="46.80939" lon="4.67574">
        <ele>342.23754882812</ele>
        <time>2021-05-23T11:00:56Z</time>
      </trkpt>
      <trkpt lat="46.80938" lon="4.67595">
        <ele>343.23751831055</ele>
        <time>2021-05-23T11:01:01Z</time>
      </trkpt>
      <trkpt lat="46.8094" lon="4.67609">
        <ele>344.2375793457</ele>
        <time>2021-05-23T11:01:06Z</time>
      </trkpt>
      <trkpt lat="46.80944" lon="4.67619">
        <ele>346.23776245117</ele>
        <time>2021-05-23T11:01:12Z</time>
      </trkpt>
      <trkpt lat="46.80943" lon="4.67631">
        <ele>347.23773193359</ele>
        <time>2021-05-23T11:01:17Z</time>
      </trkpt>
      <trkpt lat="46.80946" lon="4.6765">
        <ele>348.23782348633</ele>
        <time>2021-05-23T11:01:22Z</time>
      </trkpt>
      <trkpt lat="46.80946" lon="4.67665">
        <ele>348.23782348633</ele>
        <time>2021-05-23T11:01:27Z</time>
      </trkpt>
      <trkpt lat="46.80945" lon="4.67682">
        <ele>346.23779296875</ele>
        <time>2021-05-23T11:01:31Z</time>
      </trkpt>
      <trkpt lat="46.80952" lon="4.67692">
        <ele>348.23809814453</ele>
        <time>2021-05-23T11:01:36Z</time>
      </trkpt>
      <trkpt lat="46.80958" lon="4.67682">
        <ele>349.23831176758</ele>
        <time>2021-05-23T11:01:40Z</time>
      </trkpt>
      <trkpt lat="46.80964" lon="4.67671">
        <ele>350.2385559082</ele>
        <time>2021-05-23T11:01:45Z</time>
      </trkpt>
      <trkpt lat="46.80968" lon="4.67661">
        <ele>349.23873901367</ele>
        <time>2021-05-23T11:01:49Z</time>
      </trkpt>
      <trkpt lat="46.80975" lon="4.67654">
        <ele>351.23901367188</ele>
        <time>2021-05-23T11:01:53Z</time>
      </trkpt>
      <trkpt lat="46.80983" lon="4.67647">
        <ele>352.23931884766</ele>
        <time>2021-05-23T11:01:57Z</time>
      </trkpt>
      <trkpt lat="46.80988" lon="4.67635">
        <ele>354.2395324707</ele>
        <time>2021-05-23T11:02:01Z</time>
      </trkpt>
      <trkpt lat="46.80988" lon="4.6762">
        <ele>349.2395324707</ele>
        <time>2021-05-23T11:02:06Z</time>
      </trkpt>
      <trkpt lat="46.80987" lon="4.67608">
        <ele>351.23947143555</ele>
        <time>2021-05-23T11:02:10Z</time>
      </trkpt>
      <trkpt lat="46.8099" lon="4.67586">
        <ele>352.23962402344</ele>
        <time>2021-05-23T11:02:14Z</time>
      </trkpt>
      <trkpt lat="46.80993" lon="4.67565">
        <ele>350.23971557617</ele>
        <time>2021-05-23T11:02:18Z</time>
      </trkpt>
      <trkpt lat="46.81002" lon="4.67549">
        <ele>351.24008178711</ele>
        <time>2021-05-23T11:02:23Z</time>
      </trkpt>
      <trkpt lat="46.81013" lon="4.67538">
        <ele>346.2405090332</ele>
        <time>2021-05-23T11:02:27Z</time>
      </trkpt>
      <trkpt lat="46.81018" lon="4.67517">
        <ele>348.24072265625</ele>
        <time>2021-05-23T11:02:32Z</time>
      </trkpt>
      <trkpt lat="46.81026" lon="4.67503">
        <ele>349.24105834961</ele>
        <time>2021-05-23T11:02:36Z</time>
      </trkpt>
      <trkpt lat="46.81034" lon="4.67493">
        <ele>350.24136352539</ele>
        <time>2021-05-23T11:02:40Z</time>
      </trkpt>
      <trkpt lat="46.81041" lon="4.67484">
        <ele>348.24163818359</ele>
        <time>2021-05-23T11:02:44Z</time>
      </trkpt>
      <trkpt lat="46.81049" lon="4.6748">
        <ele>346.24197387695</ele>
        <time>2021-05-23T11:02:50Z</time>
      </trkpt>
      <trkpt lat="46.81058" lon="4.67475">
        <ele>348.24230957031</ele>
        <time>2021-05-23T11:02:56Z</time>
      </trkpt>
      <trkpt lat="46.81065" lon="4.67475">
        <ele>346.24261474609</ele>
        <time>2021-05-23T11:03:00Z</time>
      </trkpt>
      <trkpt lat="46.81073" lon="4.67467">
        <ele>348.24291992188</ele>
        <time>2021-05-23T11:03:04Z</time>
      </trkpt>
      <trkpt lat="46.8108" lon="4.67458">
        <ele>352.24322509766</ele>
        <time>2021-05-23T11:03:08Z</time>
      </trkpt>
      <trkpt lat="46.81088" lon="4.67449">
        <ele>347.24353027344</ele>
        <time>2021-05-23T11:03:13Z</time>
      </trkpt>
      <trkpt lat="46.81094" lon="4.67439">
        <ele>349.24374389648</ele>
        <time>2021-05-23T11:03:17Z</time>
      </trkpt>
      <trkpt lat="46.81099" lon="4.67431">
        <ele>350.24392700195</ele>
        <time>2021-05-23T11:03:21Z</time>
      </trkpt>
      <trkpt lat="46.81104" lon="4.67423">
        <ele>349.244140625</ele>
        <time>2021-05-23T11:03:25Z</time>
      </trkpt>
      <trkpt lat="46.81114" lon="4.67406">
        <ele>358.24453735352</ele>
        <time>2021-05-23T11:03:30Z</time>
      </trkpt>
      <trkpt lat="46.81121" lon="4.67391">
        <ele>358.2448425293</ele>
        <time>2021-05-23T11:03:34Z</time>
      </trkpt>
      <trkpt lat="46.81128" lon="4.67382">
        <ele>356.2451171875</ele>
        <time>2021-05-23T11:03:38Z</time>
      </trkpt>
      <trkpt lat="46.81134" lon="4.67374">
        <ele>361.24536132812</ele>
        <time>2021-05-23T11:03:43Z</time>
      </trkpt>
      <trkpt lat="46.81139" lon="4.67363">
        <ele>364.24554443359</ele>
        <time>2021-05-23T11:03:49Z</time>
      </trkpt>
      <trkpt lat="46.81141" lon="4.6735">
        <ele>362.24563598633</ele>
        <time>2021-05-23T11:03:54Z</time>
      </trkpt>
      <trkpt lat="46.81145" lon="4.67338">
        <ele>365.24578857422</ele>
        <time>2021-05-23T11:03:58Z</time>
      </trkpt>
      <trkpt lat="46.81153" lon="4.67321">
        <ele>363.24612426758</ele>
        <time>2021-05-23T11:04:03Z</time>
      </trkpt>
      <trkpt lat="46.81159" lon="4.67305">
        <ele>362.24633789062</ele>
        <time>2021-05-23T11:04:07Z</time>
      </trkpt>
      <trkpt lat="46.81167" lon="4.67288">
        <ele>362.24667358398</ele>
        <time>2021-05-23T11:04:12Z</time>
      </trkpt>
      <trkpt lat="46.81175" lon="4.67274">
        <ele>359.24700927734</ele>
        <time>2021-05-23T11:04:16Z</time>
      </trkpt>
      <trkpt lat="46.81186" lon="4.67258">
        <ele>350.24743652344</ele>
        <time>2021-05-23T11:04:20Z</time>
      </trkpt>
      <trkpt lat="46.81196" lon="4.67236">
        <ele>351.24783325195</ele>
        <time>2021-05-23T11:04:25Z</time>
      </trkpt>
      <trkpt lat="46.81203" lon="4.67215">
        <ele>350.24813842773</ele>
        <time>2021-05-23T11:04:30Z</time>
      </trkpt>
      <trkpt lat="46.81214" lon="4.67198">
        <ele>353.24856567383</ele>
        <time>2021-05-23T11:04:34Z</time>
      </trkpt>
      <trkpt lat="46.81223" lon="4.67172">
        <ele>359.24890136719</ele>
        <time>2021-05-23T11:04:39Z</time>
      </trkpt>
      <trkpt lat="46.81223" lon="4.67155">
        <ele>355.24890136719</ele>
        <time>2021-05-23T11:04:43Z</time>
      </trkpt>
      <trkpt lat="46.81225" lon="4.67136">
        <ele>347.24899291992</ele>
        <time>2021-05-23T11:04:48Z</time>
      </trkpt>
      <trkpt lat="46.81234" lon="4.67105">
        <ele>341.24935913086</ele>
        <time>2021-05-23T11:04:53Z</time>
      </trkpt>
      <trkpt lat="46.81252" lon="4.67079">
        <ele>348.25006103516</ele>
        <time>2021-05-23T11:04:58Z</time>
      </trkpt>
      <trkpt lat="46.81261" lon="4.67074">
        <ele>348.25045776367</ele>
        <time>2021-05-23T11:05:02Z</time>
      </trkpt>
      <trkpt lat="46.81276" lon="4.67076">
        <ele>348.25103759766</ele>
        <time>2021-05-23T11:05:06Z</time>
      </trkpt>
      <trkpt lat="46.81284" lon="4.67075">
        <ele>345.25137329102</ele>
        <time>2021-05-23T11:05:13Z</time>
      </trkpt>
      <trkpt lat="46.81293" lon="4.67073">
        <ele>345.25173950195</ele>
        <time>2021-05-23T11:05:18Z</time>
      </trkpt>
      <trkpt lat="46.81306" lon="4.67069">
        <ele>347.2522277832</ele>
        <time>2021-05-23T11:05:22Z</time>
      </trkpt>
      <trkpt lat="46.81319" lon="4.67061">
        <ele>349.25274658203</ele>
        <time>2021-05-23T11:05:26Z</time>
      </trkpt>
      <trkpt lat="46.81333" lon="4.67058">
        <ele>350.25329589844</ele>
        <time>2021-05-23T11:05:31Z</time>
      </trkpt>
      <trkpt lat="46.81348" lon="4.67055">
        <ele>352.25393676758</ele>
        <time>2021-05-23T11:05:36Z</time>
      </trkpt>
      <trkpt lat="46.81358" lon="4.67052">
        <ele>355.25433349609</ele>
        <time>2021-05-23T11:05:41Z</time>
      </trkpt>
      <trkpt lat="46.81367" lon="4.67051">
        <ele>351.25466918945</ele>
        <time>2021-05-23T11:05:47Z</time>
      </trkpt>
      <trkpt lat="46.81375" lon="4.67046">
        <ele>364.25500488281</ele>
        <time>2021-05-23T11:06:25Z</time>
      </trkpt>
      <trkpt lat="46.81383" lon="4.67045">
        <ele>366.25534057617</ele>
        <time>2021-05-23T11:06:29Z</time>
      </trkpt>
      <trkpt lat="46.8139" lon="4.67041">
        <ele>365.25561523438</ele>
        <time>2021-05-23T11:06:33Z</time>
      </trkpt>
      <trkpt lat="46.81397" lon="4.67037">
        <ele>367.25588989258</ele>
        <time>2021-05-23T11:06:38Z</time>
      </trkpt>
      <trkpt lat="46.81412" lon="4.67036">
        <ele>369.25646972656</ele>
        <time>2021-05-23T11:06:43Z</time>
      </trkpt>
      <trkpt lat="46.8142" lon="4.67032">
        <ele>372.25680541992</ele>
        <time>2021-05-23T11:06:50Z</time>
      </trkpt>
      <trkpt lat="46.81431" lon="4.67038">
        <ele>375.25723266602</ele>
        <time>2021-05-23T11:06:54Z</time>
      </trkpt>
      <trkpt lat="46.81438" lon="4.67045">
        <ele>380.2575378418</ele>
        <time>2021-05-23T11:06:59Z</time>
      </trkpt>
      <trkpt lat="46.81445" lon="4.67049">
        <ele>382.2578125</ele>
        <time>2021-05-23T11:07:05Z</time>
      </trkpt>
      <trkpt lat="46.81453" lon="4.67052">
        <ele>386.25814819336</ele>
        <time>2021-05-23T11:07:10Z</time>
      </trkpt>
      <trkpt lat="46.81462" lon="4.67058">
        <ele>396.25848388672</ele>
        <time>2021-05-23T11:07:15Z</time>
      </trkpt>
      <trkpt lat="46.81469" lon="4.67059">
        <ele>400.2587890625</ele>
        <time>2021-05-23T11:07:19Z</time>
      </trkpt>
      <trkpt lat="46.81478" lon="4.67063">
        <ele>407.25909423828</ele>
        <time>2021-05-23T11:07:24Z</time>
      </trkpt>
      <trkpt lat="46.81486" lon="4.67062">
        <ele>410.25942993164</ele>
        <time>2021-05-23T11:07:30Z</time>
      </trkpt>
      <trkpt lat="46.81494" lon="4.67064">
        <ele>408.259765625</ele>
        <time>2021-05-23T11:07:35Z</time>
      </trkpt>
      <trkpt lat="46.81503" lon="4.6707">
        <ele>412.26010131836</ele>
        <time>2021-05-23T11:07:40Z</time>
      </trkpt>
      <trkpt lat="46.81512" lon="4.67078">
        <ele>416.26049804688</ele>
        <time>2021-05-23T11:07:45Z</time>
      </trkpt>
      <trkpt lat="46.81522" lon="4.67086">
        <ele>419.26086425781</ele>
        <time>2021-05-23T11:07:49Z</time>
      </trkpt>
      <trkpt lat="46.81531" lon="4.67092">
        <ele>424.26123046875</ele>
        <time>2021-05-23T11:07:53Z</time>
      </trkpt>
      <trkpt lat="46.8154" lon="4.67099">
        <ele>428.26162719727</ele>
        <time>2021-05-23T11:07:58Z</time>
      </trkpt>
      <trkpt lat="46.81547" lon="4.67102">
        <ele>428.26187133789</ele>
        <time>2021-05-23T11:08:03Z</time>
      </trkpt>
      <trkpt lat="46.81554" lon="4.67107">
        <ele>431.26217651367</ele>
        <time>2021-05-23T11:08:08Z</time>
      </trkpt>
      <trkpt lat="46.81562" lon="4.67111">
        <ele>430.26248168945</ele>
        <time>2021-05-23T11:08:13Z</time>
      </trkpt>
      <trkpt lat="46.81569" lon="4.67116">
        <ele>434.26272583008</ele>
        <time>2021-05-23T11:08:17Z</time>
      </trkpt>
      <trkpt lat="46.81578" lon="4.67121">
        <ele>430.26309204102</ele>
        <time>2021-05-23T11:08:22Z</time>
      </trkpt>
      <trkpt lat="46.81588" lon="4.67124">
        <ele>432.26351928711</ele>
        <time>2021-05-23T11:08:27Z</time>
      </trkpt>
      <trkpt lat="46.81595" lon="4.67126">
        <ele>427.26379394531</ele>
        <time>2021-05-23T11:08:31Z</time>
      </trkpt>
      <trkpt lat="46.81603" lon="4.6713">
        <ele>427.26412963867</ele>
        <time>2021-05-23T11:08:35Z</time>
      </trkpt>
      <trkpt lat="46.8161" lon="4.67135">
        <ele>422.26440429688</ele>
        <time>2021-05-23T11:08:39Z</time>
      </trkpt>
      <trkpt lat="46.81621" lon="4.67139">
        <ele>422.26483154297</ele>
        <time>2021-05-23T11:08:44Z</time>
      </trkpt>
      <trkpt lat="46.81629" lon="4.67145">
        <ele>427.26516723633</ele>
        <time>2021-05-23T11:08:48Z</time>
      </trkpt>
      <trkpt lat="46.81639" lon="4.67153">
        <ele>433.26556396484</ele>
        <time>2021-05-23T11:08:53Z</time>
      </trkpt>
      <trkpt lat="46.81648" lon="4.67157">
        <ele>438.26593017578</ele>
        <time>2021-05-23T11:08:57Z</time>
      </trkpt>
      <trkpt lat="46.81657" lon="4.67159">
        <ele>437.26626586914</ele>
        <time>2021-05-23T11:09:01Z</time>
      </trkpt>
      <trkpt lat="46.81665" lon="4.67164">
        <ele>448.2666015625</ele>
        <time>2021-05-23T11:09:05Z</time>
      </trkpt>
      <trkpt lat="46.81672" lon="4.67171">
        <ele>453.26690673828</ele>
        <time>2021-05-23T11:09:13Z</time>
      </trkpt>
      <trkpt lat="46.81678" lon="4.67181">
        <ele>450.26712036133</ele>
        <time>2021-05-23T11:10:36Z</time>
      </trkpt>
      <trkpt lat="46.81671" lon="4.67176">
        <ele>450.26681518555</ele>
        <time>2021-05-23T11:17:27Z</time>
      </trkpt>
      <trkpt lat="46.81638" lon="4.67161">
        <ele>446.26553344727</ele>
        <time>2021-05-23T11:17:32Z</time>
      </trkpt>
      <trkpt lat="46.8161" lon="4.67132">
        <ele>433.26440429688</ele>
        <time>2021-05-23T11:17:36Z</time>
      </trkpt>
      <trkpt lat="46.81587" lon="4.67104">
        <ele>429.26348876953</ele>
        <time>2021-05-23T11:17:40Z</time>
      </trkpt>
      <trkpt lat="46.8157" lon="4.67077">
        <ele>426.26281738281</ele>
        <time>2021-05-23T11:17:45Z</time>
      </trkpt>
      <trkpt lat="46.81557" lon="4.67052">
        <ele>424.26229858398</ele>
        <time>2021-05-23T11:17:49Z</time>
      </trkpt>
      <trkpt lat="46.81547" lon="4.67034">
        <ele>423.26187133789</ele>
        <time>2021-05-23T11:17:54Z</time>
      </trkpt>
      <trkpt lat="46.81537" lon="4.67014">
        <ele>419.26147460938</ele>
        <time>2021-05-23T11:17:58Z</time>
      </trkpt>
      <trkpt lat="46.81522" lon="4.67">
        <ele>425.26086425781</ele>
        <time>2021-05-23T11:18:02Z</time>
      </trkpt>
      <trkpt lat="46.81511" lon="4.66988">
        <ele>423.26043701172</ele>
        <time>2021-05-23T11:18:07Z</time>
      </trkpt>
      <trkpt lat="46.81503" lon="4.66981">
        <ele>428.26010131836</ele>
        <time>2021-05-23T11:18:11Z</time>
      </trkpt>
      <trkpt lat="46.81493" lon="4.66968">
        <ele>429.25970458984</ele>
        <time>2021-05-23T11:18:16Z</time>
      </trkpt>
      <trkpt lat="46.81484" lon="4.66962">
        <ele>430.25936889648</ele>
        <time>2021-05-23T11:18:20Z</time>
      </trkpt>
      <trkpt lat="46.81473" lon="4.66954">
        <ele>429.25894165039</ele>
        <time>2021-05-23T11:18:24Z</time>
      </trkpt>
      <trkpt lat="46.81461" lon="4.6695">
        <ele>428.25845336914</ele>
        <time>2021-05-23T11:18:28Z</time>
      </trkpt>
      <trkpt lat="46.8144" lon="4.66949">
        <ele>429.25759887695</ele>
        <time>2021-05-23T11:18:33Z</time>
      </trkpt>
      <trkpt lat="46.81421" lon="4.66936">
        <ele>429.2568359375</ele>
        <time>2021-05-23T11:18:38Z</time>
      </trkpt>
      <trkpt lat="46.81407" lon="4.66906">
        <ele>430.25628662109</ele>
        <time>2021-05-23T11:18:42Z</time>
      </trkpt>
      <trkpt lat="46.81403" lon="4.66882">
        <ele>433.2561340332</ele>
        <time>2021-05-23T11:18:46Z</time>
      </trkpt>
      <trkpt lat="46.81399" lon="4.66855">
        <ele>434.25595092773</ele>
        <time>2021-05-23T11:18:51Z</time>
      </trkpt>
      <trkpt lat="46.81395" lon="4.6684">
        <ele>433.25579833984</ele>
        <time>2021-05-23T11:18:56Z</time>
      </trkpt>
      <trkpt lat="46.81394" lon="4.66828">
        <ele>438.25576782227</ele>
        <time>2021-05-23T11:19:00Z</time>
      </trkpt>
      <trkpt lat="46.81393" lon="4.66816">
        <ele>439.25570678711</ele>
        <time>2021-05-23T11:19:04Z</time>
      </trkpt>
      <trkpt lat="46.81391" lon="4.66795">
        <ele>436.25564575195</ele>
        <time>2021-05-23T11:19:09Z</time>
      </trkpt>
      <trkpt lat="46.81391" lon="4.66765">
        <ele>433.25564575195</ele>
        <time>2021-05-23T11:19:13Z</time>
      </trkpt>
      <trkpt lat="46.81397" lon="4.6673">
        <ele>431.255859375</ele>
        <time>2021-05-23T11:19:18Z</time>
      </trkpt>
      <trkpt lat="46.81402" lon="4.66708">
        <ele>425.25610351562</ele>
        <time>2021-05-23T11:19:22Z</time>
      </trkpt>
      <trkpt lat="46.81407" lon="4.66686">
        <ele>423.25628662109</ele>
        <time>2021-05-23T11:19:26Z</time>
      </trkpt>
      <trkpt lat="46.81411" lon="4.66669">
        <ele>426.25640869141</ele>
        <time>2021-05-23T11:19:31Z</time>
      </trkpt>
      <trkpt lat="46.81413" lon="4.66655">
        <ele>427.25650024414</ele>
        <time>2021-05-23T11:19:35Z</time>
      </trkpt>
      <trkpt lat="46.81414" lon="4.66643">
        <ele>422.25653076172</ele>
        <time>2021-05-23T11:19:40Z</time>
      </trkpt>
      <trkpt lat="46.81418" lon="4.66632">
        <ele>418.25671386719</ele>
        <time>2021-05-23T11:19:45Z</time>
      </trkpt>
      <trkpt lat="46.81415" lon="4.66619">
        <ele>419.25659179688</ele>
        <time>2021-05-23T11:19:54Z</time>
      </trkpt>
      <trkpt lat="46.81418" lon="4.6661">
        <ele>418.25671386719</ele>
        <time>2021-05-23T11:19:59Z</time>
      </trkpt>
      <trkpt lat="46.81423" lon="4.666">
        <ele>413.25692749023</ele>
        <time>2021-05-23T11:20:15Z</time>
      </trkpt>
      <trkpt lat="46.81424" lon="4.6661">
        <ele>415.25698852539</ele>
        <time>2021-05-23T11:20:28Z</time>
      </trkpt>
      <trkpt lat="46.81425" lon="4.66638">
        <ele>417.25698852539</ele>
        <time>2021-05-23T11:20:33Z</time>
      </trkpt>
      <trkpt lat="46.81427" lon="4.66674">
        <ele>414.25708007812</ele>
        <time>2021-05-23T11:20:38Z</time>
      </trkpt>
      <trkpt lat="46.81424" lon="4.66702">
        <ele>417.25695800781</ele>
        <time>2021-05-23T11:20:42Z</time>
      </trkpt>
      <trkpt lat="46.8142" lon="4.66728">
        <ele>417.25680541992</ele>
        <time>2021-05-23T11:20:46Z</time>
      </trkpt>
      <trkpt lat="46.81416" lon="4.66756">
        <ele>415.25662231445</ele>
        <time>2021-05-23T11:20:51Z</time>
      </trkpt>
      <trkpt lat="46.81416" lon="4.66786">
        <ele>413.25665283203</ele>
        <time>2021-05-23T11:20:55Z</time>
      </trkpt>
      <trkpt lat="46.81411" lon="4.66836">
        <ele>413.25643920898</ele>
        <time>2021-05-23T11:20:59Z</time>
      </trkpt>
      <trkpt lat="46.81409" lon="4.6687">
        <ele>414.25637817383</ele>
        <time>2021-05-23T11:21:03Z</time>
      </trkpt>
      <trkpt lat="46.81412" lon="4.66886">
        <ele>415.25650024414</ele>
        <time>2021-05-23T11:21:07Z</time>
      </trkpt>
      <trkpt lat="46.81427" lon="4.66895">
        <ele>416.25708007812</ele>
        <time>2021-05-23T11:21:12Z</time>
      </trkpt>
      <trkpt lat="46.8144" lon="4.66897">
        <ele>422.25759887695</ele>
        <time>2021-05-23T11:21:17Z</time>
      </trkpt>
      <trkpt lat="46.81451" lon="4.66906">
        <ele>426.25805664062</ele>
        <time>2021-05-23T11:21:21Z</time>
      </trkpt>
      <trkpt lat="46.81462" lon="4.66917">
        <ele>427.2585144043</ele>
        <time>2021-05-23T11:21:25Z</time>
      </trkpt>
      <trkpt lat="46.81477" lon="4.66932">
        <ele>427.2590637207</ele>
        <time>2021-05-23T11:21:30Z</time>
      </trkpt>
      <trkpt lat="46.81504" lon="4.66969">
        <ele>423.26016235352</ele>
        <time>2021-05-23T11:21:34Z</time>
      </trkpt>
      <trkpt lat="46.81525" lon="4.67001">
        <ele>423.26098632812</ele>
        <time>2021-05-23T11:21:38Z</time>
      </trkpt>
      <trkpt lat="46.81542" lon="4.67025">
        <ele>421.26168823242</ele>
        <time>2021-05-23T11:21:42Z</time>
      </trkpt>
      <trkpt lat="46.81557" lon="4.6706">
        <ele>422.26229858398</ele>
        <time>2021-05-23T11:21:47Z</time>
      </trkpt>
      <trkpt lat="46.81566" lon="4.6708">
        <ele>420.26263427734</ele>
        <time>2021-05-23T11:21:51Z</time>
      </trkpt>
      <trkpt lat="46.81581" lon="4.67104">
        <ele>418.26324462891</ele>
        <time>2021-05-23T11:21:56Z</time>
      </trkpt>
      <trkpt lat="46.8158" lon="4.67117">
        <ele>410.26321411133</ele>
        <time>2021-05-23T11:22:02Z</time>
      </trkpt>
      <trkpt lat="46.81578" lon="4.67126">
        <ele>404.26312255859</ele>
        <time>2021-05-23T11:22:06Z</time>
      </trkpt>
      <trkpt lat="46.81568" lon="4.67126">
        <ele>401.26272583008</ele>
        <time>2021-05-23T11:22:11Z</time>
      </trkpt>
      <trkpt lat="46.81561" lon="4.67126">
        <ele>405.2624206543</ele>
        <time>2021-05-23T11:22:19Z</time>
      </trkpt>
      <trkpt lat="46.81535" lon="4.67118">
        <ele>407.26141357422</ele>
        <time>2021-05-23T11:22:24Z</time>
      </trkpt>
      <trkpt lat="46.81513" lon="4.67108">
        <ele>407.26052856445</ele>
        <time>2021-05-23T11:22:28Z</time>
      </trkpt>
      <trkpt lat="46.81489" lon="4.67099">
        <ele>405.25958251953</ele>
        <time>2021-05-23T11:22:32Z</time>
      </trkpt>
      <trkpt lat="46.81458" lon="4.67073">
        <ele>398.25833129883</ele>
        <time>2021-05-23T11:22:37Z</time>
      </trkpt>
      <trkpt lat="46.81422" lon="4.67061">
        <ele>391.25689697266</ele>
        <time>2021-05-23T11:22:42Z</time>
      </trkpt>
      <trkpt lat="46.81408" lon="4.67056">
        <ele>390.25628662109</ele>
        <time>2021-05-23T11:22:46Z</time>
      </trkpt>
      <trkpt lat="46.81393" lon="4.67061">
        <ele>389.25573730469</ele>
        <time>2021-05-23T11:22:50Z</time>
      </trkpt>
      <trkpt lat="46.81386" lon="4.6706">
        <ele>390.25543212891</ele>
        <time>2021-05-23T11:23:02Z</time>
      </trkpt>
      <trkpt lat="46.81376" lon="4.67063">
        <ele>388.25500488281</ele>
        <time>2021-05-23T11:23:06Z</time>
      </trkpt>
      <trkpt lat="46.81367" lon="4.67064">
        <ele>387.25469970703</ele>
        <time>2021-05-23T11:23:12Z</time>
      </trkpt>
      <trkpt lat="46.81359" lon="4.67061">
        <ele>381.25439453125</ele>
        <time>2021-05-23T11:23:18Z</time>
      </trkpt>
      <trkpt lat="46.81354" lon="4.67056">
        <ele>377.25415039062</ele>
        <time>2021-05-23T11:23:34Z</time>
      </trkpt>
      <trkpt lat="46.8132" lon="4.67063">
        <ele>372.25280761719</ele>
        <time>2021-05-23T11:23:39Z</time>
      </trkpt>
      <trkpt lat="46.81284" lon="4.67068">
        <ele>371.25137329102</ele>
        <time>2021-05-23T11:23:44Z</time>
      </trkpt>
      <trkpt lat="46.81262" lon="4.67078">
        <ele>371.25048828125</ele>
        <time>2021-05-23T11:23:48Z</time>
      </trkpt>
      <trkpt lat="46.8127" lon="4.67076">
        <ele>362.25079345703</ele>
        <time>2021-05-23T11:24:06Z</time>
      </trkpt>
      <trkpt lat="46.8128" lon="4.67067">
        <ele>363.25119018555</ele>
        <time>2021-05-23T11:24:11Z</time>
      </trkpt>
      <trkpt lat="46.81289" lon="4.67063">
        <ele>365.25155639648</ele>
        <time>2021-05-23T11:24:15Z</time>
      </trkpt>
      <trkpt lat="46.81299" lon="4.67057">
        <ele>366.25198364258</ele>
        <time>2021-05-23T11:24:20Z</time>
      </trkpt>
      <trkpt lat="46.8131" lon="4.67054">
        <ele>371.25238037109</ele>
        <time>2021-05-23T11:24:25Z</time>
      </trkpt>
      <trkpt lat="46.81318" lon="4.67051">
        <ele>373.25271606445</ele>
        <time>2021-05-23T11:24:30Z</time>
      </trkpt>
      <trkpt lat="46.81327" lon="4.67051">
        <ele>370.25305175781</ele>
        <time>2021-05-23T11:24:35Z</time>
      </trkpt>
      <trkpt lat="46.81334" lon="4.67047">
        <ele>371.25335693359</ele>
        <time>2021-05-23T11:24:40Z</time>
      </trkpt>
      <trkpt lat="46.81342" lon="4.67041">
        <ele>379.25366210938</ele>
        <time>2021-05-23T11:24:46Z</time>
      </trkpt>
      <trkpt lat="46.81349" lon="4.67039">
        <ele>378.25396728516</ele>
        <time>2021-05-23T11:24:51Z</time>
      </trkpt>
      <trkpt lat="46.81357" lon="4.6704">
        <ele>381.25427246094</ele>
        <time>2021-05-23T11:24:57Z</time>
      </trkpt>
      <trkpt lat="46.81366" lon="4.6704">
        <ele>383.25463867188</ele>
        <time>2021-05-23T11:25:05Z</time>
      </trkpt>
      <trkpt lat="46.81375" lon="4.6704">
        <ele>383.25500488281</ele>
        <time>2021-05-23T11:25:15Z</time>
      </trkpt>
      <trkpt lat="46.81383" lon="4.67041">
        <ele>378.25531005859</ele>
        <time>2021-05-23T11:26:21Z</time>
      </trkpt>
      <trkpt lat="46.81395" lon="4.67043">
        <ele>378.25582885742</ele>
        <time>2021-05-23T11:26:26Z</time>
      </trkpt>
      <trkpt lat="46.81404" lon="4.67041">
        <ele>382.25616455078</ele>
        <time>2021-05-23T11:26:32Z</time>
      </trkpt>
      <trkpt lat="46.81414" lon="4.6704">
        <ele>392.25653076172</ele>
        <time>2021-05-23T11:26:37Z</time>
      </trkpt>
      <trkpt lat="46.81422" lon="4.67039">
        <ele>401.25689697266</ele>
        <time>2021-05-23T11:26:42Z</time>
      </trkpt>
      <trkpt lat="46.81429" lon="4.67039">
        <ele>405.25717163086</ele>
        <time>2021-05-23T11:26:47Z</time>
      </trkpt>
      <trkpt lat="46.81438" lon="4.67043">
        <ele>401.25750732422</ele>
        <time>2021-05-23T11:26:51Z</time>
      </trkpt>
      <trkpt lat="46.81445" lon="4.67045">
        <ele>402.2578125</ele>
        <time>2021-05-23T11:26:55Z</time>
      </trkpt>
      <trkpt lat="46.81453" lon="4.67049">
        <ele>399.25811767578</ele>
        <time>2021-05-23T11:27:02Z</time>
      </trkpt>
      <trkpt lat="46.81459" lon="4.67057">
        <ele>400.25836181641</ele>
        <time>2021-05-23T11:27:07Z</time>
      </trkpt>
      <trkpt lat="46.81467" lon="4.67061">
        <ele>402.25866699219</ele>
        <time>2021-05-23T11:27:12Z</time>
      </trkpt>
      <trkpt lat="46.81476" lon="4.67062">
        <ele>403.25903320312</ele>
        <time>2021-05-23T11:27:17Z</time>
      </trkpt>
      <trkpt lat="46.81483" lon="4.67068">
        <ele>400.25930786133</ele>
        <time>2021-05-23T11:27:24Z</time>
      </trkpt>
      <trkpt lat="46.8149" lon="4.67074">
        <ele>404.25961303711</ele>
        <time>2021-05-23T11:27:30Z</time>
      </trkpt>
      <trkpt lat="46.81498" lon="4.67077">
        <ele>407.25991821289</ele>
        <time>2021-05-23T11:27:40Z</time>
      </trkpt>
      <trkpt lat="46.81506" lon="4.67082">
        <ele>411.26022338867</ele>
        <time>2021-05-23T11:27:45Z</time>
      </trkpt>
      <trkpt lat="46.81514" lon="4.67085">
        <ele>410.26055908203</ele>
        <time>2021-05-23T11:27:50Z</time>
      </trkpt>
      <trkpt lat="46.81522" lon="4.67089">
        <ele>409.26089477539</ele>
        <time>2021-05-23T11:27:58Z</time>
      </trkpt>
      <trkpt lat="46.8153" lon="4.6709">
        <ele>408.26119995117</ele>
        <time>2021-05-23T11:28:05Z</time>
      </trkpt>
      <trkpt lat="46.81538" lon="4.67096">
        <ele>406.26150512695</ele>
        <time>2021-05-23T11:28:11Z</time>
      </trkpt>
      <trkpt lat="46.81546" lon="4.67097">
        <ele>410.26184082031</ele>
        <time>2021-05-23T11:28:17Z</time>
      </trkpt>
      <trkpt lat="46.81553" lon="4.67101">
        <ele>412.26208496094</ele>
        <time>2021-05-23T11:28:22Z</time>
      </trkpt>
      <trkpt lat="46.81559" lon="4.67106">
        <ele>410.26235961914</ele>
        <time>2021-05-23T11:28:26Z</time>
      </trkpt>
      <trkpt lat="46.81566" lon="4.67111">
        <ele>410.26266479492</ele>
        <time>2021-05-23T11:28:32Z</time>
      </trkpt>
      <trkpt lat="46.81574" lon="4.67115">
        <ele>412.26293945312</ele>
        <time>2021-05-23T11:28:39Z</time>
      </trkpt>
      <trkpt lat="46.81581" lon="4.6712">
        <ele>414.26324462891</ele>
        <time>2021-05-23T11:28:45Z</time>
      </trkpt>
      <trkpt lat="46.8159" lon="4.67124">
        <ele>417.26358032227</ele>
        <time>2021-05-23T11:28:54Z</time>
      </trkpt>
      <trkpt lat="46.81598" lon="4.67128">
        <ele>415.26391601562</ele>
        <time>2021-05-23T11:28:59Z</time>
      </trkpt>
      <trkpt lat="46.81605" lon="4.67133">
        <ele>419.26419067383</ele>
        <time>2021-05-23T11:29:03Z</time>
      </trkpt>
      <trkpt lat="46.81613" lon="4.67137">
        <ele>421.26449584961</ele>
        <time>2021-05-23T11:29:09Z</time>
      </trkpt>
      <trkpt lat="46.8162" lon="4.6714">
        <ele>420.26477050781</ele>
        <time>2021-05-23T11:29:15Z</time>
      </trkpt>
      <trkpt lat="46.81627" lon="4.67145">
        <ele>418.26507568359</ele>
        <time>2021-05-23T11:29:19Z</time>
      </trkpt>
      <trkpt lat="46.81634" lon="4.67151">
        <ele>422.2653503418</ele>
        <time>2021-05-23T11:29:23Z</time>
      </trkpt>
      <trkpt lat="46.8164" lon="4.67157">
        <ele>424.265625</ele>
        <time>2021-05-23T11:29:27Z</time>
      </trkpt>
      <trkpt lat="46.81647" lon="4.67166">
        <ele>430.2658996582</ele>
        <time>2021-05-23T11:29:32Z</time>
      </trkpt>
      <trkpt lat="46.81656" lon="4.67171">
        <ele>427.26623535156</ele>
        <time>2021-05-23T11:29:37Z</time>
      </trkpt>
      <trkpt lat="46.81667" lon="4.67177">
        <ele>426.26666259766</ele>
        <time>2021-05-23T11:29:42Z</time>
      </trkpt>
      <trkpt lat="46.81676" lon="4.67182">
        <ele>423.26705932617</ele>
        <time>2021-05-23T11:29:47Z</time>
      </trkpt>
      <trkpt lat="46.81684" lon="4.6719">
        <ele>424.26736450195</ele>
        <time>2021-05-23T11:29:51Z</time>
      </trkpt>
      <trkpt lat="46.81693" lon="4.67193">
        <ele>427.26773071289</ele>
        <time>2021-05-23T11:29:58Z</time>
      </trkpt>
      <trkpt lat="46.817" lon="4.67193">
        <ele>424.26800537109</ele>
        <time>2021-05-23T11:31:57Z</time>
      </trkpt>
      <trkpt lat="46.81709" lon="4.67192">
        <ele>427.26837158203</ele>
        <time>2021-05-23T11:32:03Z</time>
      </trkpt>
      <trkpt lat="46.8172" lon="4.67191">
        <ele>424.26879882812</ele>
        <time>2021-05-23T11:32:08Z</time>
      </trkpt>
      <trkpt lat="46.81728" lon="4.67187">
        <ele>427.26913452148</ele>
        <time>2021-05-23T11:32:13Z</time>
      </trkpt>
      <trkpt lat="46.81734" lon="4.67179">
        <ele>426.26934814453</ele>
        <time>2021-05-23T11:32:18Z</time>
      </trkpt>
      <trkpt lat="46.81744" lon="4.67176">
        <ele>425.26974487305</ele>
        <time>2021-05-23T11:32:23Z</time>
      </trkpt>
      <trkpt lat="46.81752" lon="4.67171">
        <ele>425.27005004883</ele>
        <time>2021-05-23T11:32:27Z</time>
      </trkpt>
      <trkpt lat="46.81758" lon="4.67163">
        <ele>427.27032470703</ele>
        <time>2021-05-23T11:32:31Z</time>
      </trkpt>
      <trkpt lat="46.81767" lon="4.6716">
        <ele>424.27069091797</ele>
        <time>2021-05-23T11:32:35Z</time>
      </trkpt>
      <trkpt lat="46.8178" lon="4.67158">
        <ele>424.2712097168</ele>
        <time>2021-05-23T11:32:39Z</time>
      </trkpt>
      <trkpt lat="46.81792" lon="4.67151">
        <ele>420.27166748047</ele>
        <time>2021-05-23T11:32:43Z</time>
      </trkpt>
      <trkpt lat="46.81802" lon="4.67139">
        <ele>415.27206420898</ele>
        <time>2021-05-23T11:32:48Z</time>
      </trkpt>
      <trkpt lat="46.8181" lon="4.6713">
        <ele>417.27239990234</ele>
        <time>2021-05-23T11:32:53Z</time>
      </trkpt>
      <trkpt lat="46.81818" lon="4.67123">
        <ele>418.2727355957</ele>
        <time>2021-05-23T11:32:57Z</time>
      </trkpt>
      <trkpt lat="46.81831" lon="4.67122">
        <ele>421.27325439453</ele>
        <time>2021-05-23T11:33:01Z</time>
      </trkpt>
      <trkpt lat="46.81843" lon="4.67123">
        <ele>423.2737121582</ele>
        <time>2021-05-23T11:33:05Z</time>
      </trkpt>
      <trkpt lat="46.81853" lon="4.67134">
        <ele>418.27410888672</ele>
        <time>2021-05-23T11:33:10Z</time>
      </trkpt>
      <trkpt lat="46.8186" lon="4.67148">
        <ele>415.2744140625</ele>
        <time>2021-05-23T11:33:14Z</time>
      </trkpt>
      <trkpt lat="46.81864" lon="4.67163">
        <ele>413.27453613281</ele>
        <time>2021-05-23T11:33:18Z</time>
      </trkpt>
      <trkpt lat="46.81868" lon="4.67175">
        <ele>408.27471923828</ele>
        <time>2021-05-23T11:33:22Z</time>
      </trkpt>
      <trkpt lat="46.81873" lon="4.67188">
        <ele>406.27493286133</ele>
        <time>2021-05-23T11:33:26Z</time>
      </trkpt>
      <trkpt lat="46.81882" lon="4.6721">
        <ele>405.27526855469</ele>
        <time>2021-05-23T11:33:31Z</time>
      </trkpt>
      <trkpt lat="46.8189" lon="4.67234">
        <ele>406.27560424805</ele>
        <time>2021-05-23T11:33:36Z</time>
      </trkpt>
      <trkpt lat="46.81898" lon="4.67257">
        <ele>410.27593994141</ele>
        <time>2021-05-23T11:33:40Z</time>
      </trkpt>
      <trkpt lat="46.81905" lon="4.67277">
        <ele>413.27621459961</ele>
        <time>2021-05-23T11:33:45Z</time>
      </trkpt>
      <trkpt lat="46.81911" lon="4.67289">
        <ele>415.27645874023</ele>
        <time>2021-05-23T11:33:49Z</time>
      </trkpt>
      <trkpt lat="46.81917" lon="4.67299">
        <ele>415.27667236328</ele>
        <time>2021-05-23T11:33:53Z</time>
      </trkpt>
      <trkpt lat="46.81924" lon="4.67304">
        <ele>415.27694702148</ele>
        <time>2021-05-23T11:33:57Z</time>
      </trkpt>
      <trkpt lat="46.81918" lon="4.67298">
        <ele>414.27670288086</ele>
        <time>2021-05-23T11:34:31Z</time>
      </trkpt>
      <trkpt lat="46.81912" lon="4.67288">
        <ele>410.27648925781</ele>
        <time>2021-05-23T11:34:35Z</time>
      </trkpt>
      <trkpt lat="46.81904" lon="4.67279">
        <ele>411.27615356445</ele>
        <time>2021-05-23T11:34:40Z</time>
      </trkpt>
      <trkpt lat="46.81899" lon="4.67288">
        <ele>410.27597045898</ele>
        <time>2021-05-23T11:34:44Z</time>
      </trkpt>
      <trkpt lat="46.81894" lon="4.67298">
        <ele>412.27575683594</ele>
        <time>2021-05-23T11:34:49Z</time>
      </trkpt>
      <trkpt lat="46.81888" lon="4.67308">
        <ele>412.27551269531</ele>
        <time>2021-05-23T11:34:54Z</time>
      </trkpt>
      <trkpt lat="46.81882" lon="4.67318">
        <ele>413.27526855469</ele>
        <time>2021-05-23T11:34:58Z</time>
      </trkpt>
      <trkpt lat="46.81876" lon="4.67332">
        <ele>414.27502441406</ele>
        <time>2021-05-23T11:35:03Z</time>
      </trkpt>
      <trkpt lat="46.81873" lon="4.67343">
        <ele>414.27493286133</ele>
        <time>2021-05-23T11:35:07Z</time>
      </trkpt>
      <trkpt lat="46.81871" lon="4.67356">
        <ele>414.27481079102</ele>
        <time>2021-05-23T11:35:12Z</time>
      </trkpt>
      <trkpt lat="46.8187" lon="4.67368">
        <ele>415.27478027344</ele>
        <time>2021-05-23T11:35:16Z</time>
      </trkpt>
      <trkpt lat="46.81867" lon="4.67381">
        <ele>415.2746887207</ele>
        <time>2021-05-23T11:35:21Z</time>
      </trkpt>
      <trkpt lat="46.81865" lon="4.67392">
        <ele>415.27462768555</ele>
        <time>2021-05-23T11:35:25Z</time>
      </trkpt>
      <trkpt lat="46.81864" lon="4.67405">
        <ele>416.27456665039</ele>
        <time>2021-05-23T11:35:30Z</time>
      </trkpt>
      <trkpt lat="46.81863" lon="4.67417">
        <ele>414.27453613281</ele>
        <time>2021-05-23T11:35:35Z</time>
      </trkpt>
      <trkpt lat="46.81861" lon="4.67431">
        <ele>417.27444458008</ele>
        <time>2021-05-23T11:35:40Z</time>
      </trkpt>
      <trkpt lat="46.8186" lon="4.67443">
        <ele>420.2744140625</ele>
        <time>2021-05-23T11:35:44Z</time>
      </trkpt>
      <trkpt lat="46.81859" lon="4.67455">
        <ele>421.27435302734</ele>
        <time>2021-05-23T11:35:48Z</time>
      </trkpt>
      <trkpt lat="46.81856" lon="4.67469">
        <ele>422.27423095703</ele>
        <time>2021-05-23T11:35:53Z</time>
      </trkpt>
      <trkpt lat="46.81855" lon="4.6748">
        <ele>422.27420043945</ele>
        <time>2021-05-23T11:35:57Z</time>
      </trkpt>
      <trkpt lat="46.81853" lon="4.67491">
        <ele>421.2741394043</ele>
        <time>2021-05-23T11:36:01Z</time>
      </trkpt>
      <trkpt lat="46.81852" lon="4.67505">
        <ele>419.27407836914</ele>
        <time>2021-05-23T11:36:06Z</time>
      </trkpt>
      <trkpt lat="46.8185" lon="4.67516">
        <ele>417.27401733398</ele>
        <time>2021-05-23T11:36:11Z</time>
      </trkpt>
      <trkpt lat="46.81849" lon="4.67531">
        <ele>419.27395629883</ele>
        <time>2021-05-23T11:36:16Z</time>
      </trkpt>
      <trkpt lat="46.81848" lon="4.67543">
        <ele>420.27392578125</ele>
        <time>2021-05-23T11:36:20Z</time>
      </trkpt>
      <trkpt lat="46.81847" lon="4.67556">
        <ele>422.27389526367</ele>
        <time>2021-05-23T11:36:26Z</time>
      </trkpt>
      <trkpt lat="46.81845" lon="4.67567">
        <ele>425.27380371094</ele>
        <time>2021-05-23T11:36:31Z</time>
      </trkpt>
      <trkpt lat="46.81842" lon="4.67578">
        <ele>424.27368164062</ele>
        <time>2021-05-23T11:36:36Z</time>
      </trkpt>
      <trkpt lat="46.81839" lon="4.6759">
        <ele>426.27352905273</ele>
        <time>2021-05-23T11:36:41Z</time>
      </trkpt>
      <trkpt lat="46.81841" lon="4.67602">
        <ele>426.27365112305</ele>
        <time>2021-05-23T11:36:48Z</time>
      </trkpt>
      <trkpt lat="46.8184" lon="4.67613">
        <ele>426.27359008789</ele>
        <time>2021-05-23T11:36:56Z</time>
      </trkpt>
      <trkpt lat="46.81836" lon="4.67625">
        <ele>429.27346801758</ele>
        <time>2021-05-23T11:37:00Z</time>
      </trkpt>
      <trkpt lat="46.81834" lon="4.67638">
        <ele>430.27337646484</ele>
        <time>2021-05-23T11:37:05Z</time>
      </trkpt>
      <trkpt lat="46.81832" lon="4.6765">
        <ele>431.27325439453</ele>
        <time>2021-05-23T11:37:10Z</time>
      </trkpt>
      <trkpt lat="46.8183" lon="4.67661">
        <ele>432.27319335938</ele>
        <time>2021-05-23T11:37:14Z</time>
      </trkpt>
      <trkpt lat="46.81828" lon="4.67671">
        <ele>434.27313232422</ele>
        <time>2021-05-23T11:37:18Z</time>
      </trkpt>
      <trkpt lat="46.81826" lon="4.67682">
        <ele>434.27304077148</ele>
        <time>2021-05-23T11:37:22Z</time>
      </trkpt>
      <trkpt lat="46.81824" lon="4.67694">
        <ele>435.27297973633</ele>
        <time>2021-05-23T11:37:27Z</time>
      </trkpt>
      <trkpt lat="46.81823" lon="4.67705">
        <ele>435.27291870117</ele>
        <time>2021-05-23T11:37:32Z</time>
      </trkpt>
      <trkpt lat="46.81821" lon="4.67717">
        <ele>435.27285766602</ele>
        <time>2021-05-23T11:37:37Z</time>
      </trkpt>
      <trkpt lat="46.81819" lon="4.67729">
        <ele>435.27276611328</ele>
        <time>2021-05-23T11:37:42Z</time>
      </trkpt>
      <trkpt lat="46.81818" lon="4.67742">
        <ele>436.27270507812</ele>
        <time>2021-05-23T11:37:47Z</time>
      </trkpt>
      <trkpt lat="46.81816" lon="4.67755">
        <ele>437.27267456055</ele>
        <time>2021-05-23T11:37:52Z</time>
      </trkpt>
      <trkpt lat="46.81817" lon="4.67766">
        <ele>437.27267456055</ele>
        <time>2021-05-23T11:37:58Z</time>
      </trkpt>
      <trkpt lat="46.81818" lon="4.67779">
        <ele>437.27270507812</ele>
        <time>2021-05-23T11:38:05Z</time>
      </trkpt>
      <trkpt lat="46.81817" lon="4.6779">
        <ele>435.27267456055</ele>
        <time>2021-05-23T11:38:11Z</time>
      </trkpt>
      <trkpt lat="46.81819" lon="4.67803">
        <ele>433.2727355957</ele>
        <time>2021-05-23T11:38:16Z</time>
      </trkpt>
      <trkpt lat="46.81819" lon="4.67818">
        <ele>437.27276611328</ele>
        <time>2021-05-23T11:38:21Z</time>
      </trkpt>
      <trkpt lat="46.8182" lon="4.67829">
        <ele>437.27279663086</ele>
        <time>2021-05-23T11:38:26Z</time>
      </trkpt>
      <trkpt lat="46.81823" lon="4.67843">
        <ele>441.27288818359</ele>
        <time>2021-05-23T11:38:30Z</time>
      </trkpt>
      <trkpt lat="46.81823" lon="4.67855">
        <ele>441.27291870117</ele>
        <time>2021-05-23T11:38:35Z</time>
      </trkpt>
      <trkpt lat="46.81823" lon="4.67868">
        <ele>444.27291870117</ele>
        <time>2021-05-23T11:38:40Z</time>
      </trkpt>
      <trkpt lat="46.81822" lon="4.67879">
        <ele>446.27288818359</ele>
        <time>2021-05-23T11:38:45Z</time>
      </trkpt>
      <trkpt lat="46.81821" lon="4.67892">
        <ele>448.27282714844</ele>
        <time>2021-05-23T11:38:51Z</time>
      </trkpt>
      <trkpt lat="46.81821" lon="4.67905">
        <ele>452.27285766602</ele>
        <time>2021-05-23T11:38:56Z</time>
      </trkpt>
      <trkpt lat="46.81824" lon="4.67917">
        <ele>450.27297973633</ele>
        <time>2021-05-23T11:39:01Z</time>
      </trkpt>
      <trkpt lat="46.81829" lon="4.67927">
        <ele>449.2731628418</ele>
        <time>2021-05-23T11:39:06Z</time>
      </trkpt>
      <trkpt lat="46.81834" lon="4.67937">
        <ele>450.27337646484</ele>
        <time>2021-05-23T11:39:11Z</time>
      </trkpt>
      <trkpt lat="46.81839" lon="4.67945">
        <ele>449.27352905273</ele>
        <time>2021-05-23T11:39:16Z</time>
      </trkpt>
      <trkpt lat="46.81842" lon="4.67955">
        <ele>447.27368164062</ele>
        <time>2021-05-23T11:39:20Z</time>
      </trkpt>
      <trkpt lat="46.81842" lon="4.67966">
        <ele>447.27368164062</ele>
        <time>2021-05-23T11:39:27Z</time>
      </trkpt>
      <trkpt lat="46.81844" lon="4.67979">
        <ele>451.27377319336</ele>
        <time>2021-05-23T11:39:31Z</time>
      </trkpt>
      <trkpt lat="46.81847" lon="4.67992">
        <ele>452.27389526367</ele>
        <time>2021-05-23T11:39:35Z</time>
      </trkpt>
      <trkpt lat="46.81849" lon="4.68009">
        <ele>453.27395629883</ele>
        <time>2021-05-23T11:39:40Z</time>
      </trkpt>
      <trkpt lat="46.81851" lon="4.68023">
        <ele>457.27404785156</ele>
        <time>2021-05-23T11:39:45Z</time>
      </trkpt>
      <trkpt lat="46.81854" lon="4.68034">
        <ele>456.27416992188</ele>
        <time>2021-05-23T11:39:49Z</time>
      </trkpt>
      <trkpt lat="46.81856" lon="4.68045">
        <ele>458.27423095703</ele>
        <time>2021-05-23T11:39:53Z</time>
      </trkpt>
      <trkpt lat="46.81857" lon="4.68056">
        <ele>463.27429199219</ele>
        <time>2021-05-23T11:39:57Z</time>
      </trkpt>
      <trkpt lat="46.81866" lon="4.68053">
        <ele>468.27462768555</ele>
        <time>2021-05-23T11:42:32Z</time>
      </trkpt>
      <trkpt lat="46.81881" lon="4.6806">
        <ele>467.27526855469</ele>
        <time>2021-05-23T11:42:36Z</time>
      </trkpt>
      <trkpt lat="46.81903" lon="4.68074">
        <ele>461.27615356445</ele>
        <time>2021-05-23T11:42:41Z</time>
      </trkpt>
      <trkpt lat="46.81928" lon="4.68081">
        <ele>459.27709960938</ele>
        <time>2021-05-23T11:42:46Z</time>
      </trkpt>
      <trkpt lat="46.8196" lon="4.68094">
        <ele>454.27841186523</ele>
        <time>2021-05-23T11:42:50Z</time>
      </trkpt>
      <trkpt lat="46.82006" lon="4.68115">
        <ele>449.28024291992</ele>
        <time>2021-05-23T11:42:55Z</time>
      </trkpt>
      <trkpt lat="46.82032" lon="4.68119">
        <ele>449.28128051758</ele>
        <time>2021-05-23T11:42:59Z</time>
      </trkpt>
      <trkpt lat="46.82065" lon="4.68132">
        <ele>442.28259277344</ele>
        <time>2021-05-23T11:43:04Z</time>
      </trkpt>
      <trkpt lat="46.82101" lon="4.68152">
        <ele>435.28405761719</ele>
        <time>2021-05-23T11:43:09Z</time>
      </trkpt>
      <trkpt lat="46.82111" lon="4.68153">
        <ele>434.28442382812</ele>
        <time>2021-05-23T11:43:13Z</time>
      </trkpt>
      <trkpt lat="46.82111" lon="4.68165">
        <ele>438.2844543457</ele>
        <time>2021-05-23T11:43:20Z</time>
      </trkpt>
      <trkpt lat="46.82113" lon="4.68175">
        <ele>436.28451538086</ele>
        <time>2021-05-23T11:43:24Z</time>
      </trkpt>
      <trkpt lat="46.82118" lon="4.68192">
        <ele>437.28472900391</ele>
        <time>2021-05-23T11:43:29Z</time>
      </trkpt>
      <trkpt lat="46.82119" lon="4.68211">
        <ele>439.28475952148</ele>
        <time>2021-05-23T11:43:34Z</time>
      </trkpt>
      <trkpt lat="46.82124" lon="4.68228">
        <ele>441.28497314453</ele>
        <time>2021-05-23T11:43:38Z</time>
      </trkpt>
      <trkpt lat="46.82128" lon="4.68242">
        <ele>440.28509521484</ele>
        <time>2021-05-23T11:43:42Z</time>
      </trkpt>
      <trkpt lat="46.82135" lon="4.68258">
        <ele>440.28540039062</ele>
        <time>2021-05-23T11:43:47Z</time>
      </trkpt>
      <trkpt lat="46.82137" lon="4.68269">
        <ele>439.28546142578</ele>
        <time>2021-05-23T11:43:51Z</time>
      </trkpt>
      <trkpt lat="46.82138" lon="4.6828">
        <ele>436.28552246094</ele>
        <time>2021-05-23T11:43:57Z</time>
      </trkpt>
      <trkpt lat="46.82143" lon="4.68292">
        <ele>436.28570556641</ele>
        <time>2021-05-23T11:44:01Z</time>
      </trkpt>
      <trkpt lat="46.82146" lon="4.68308">
        <ele>435.2858581543</ele>
        <time>2021-05-23T11:44:05Z</time>
      </trkpt>
      <trkpt lat="46.82149" lon="4.68323">
        <ele>436.28598022461</ele>
        <time>2021-05-23T11:44:09Z</time>
      </trkpt>
      <trkpt lat="46.82152" lon="4.68342">
        <ele>433.28607177734</ele>
        <time>2021-05-23T11:44:14Z</time>
      </trkpt>
      <trkpt lat="46.82162" lon="4.68365">
        <ele>437.28649902344</ele>
        <time>2021-05-23T11:44:19Z</time>
      </trkpt>
      <trkpt lat="46.82169" lon="4.68358">
        <ele>439.28674316406</ele>
        <time>2021-05-23T11:44:36Z</time>
      </trkpt>
      <trkpt lat="46.82163" lon="4.68365">
        <ele>432.28652954102</ele>
        <time>2021-05-23T11:44:54Z</time>
      </trkpt>
      <trkpt lat="46.82169" lon="4.6836">
        <ele>436.28677368164</ele>
        <time>2021-05-23T11:45:09Z</time>
      </trkpt>
      <trkpt lat="46.82181" lon="4.68351">
        <ele>435.28723144531</ele>
        <time>2021-05-23T11:45:13Z</time>
      </trkpt>
      <trkpt lat="46.82202" lon="4.68335">
        <ele>431.2880859375</ele>
        <time>2021-05-23T11:45:18Z</time>
      </trkpt>
      <trkpt lat="46.82222" lon="4.68319">
        <ele>427.28884887695</ele>
        <time>2021-05-23T11:45:22Z</time>
      </trkpt>
      <trkpt lat="46.82246" lon="4.68306">
        <ele>425.28982543945</ele>
        <time>2021-05-23T11:45:26Z</time>
      </trkpt>
      <trkpt lat="46.82272" lon="4.68285">
        <ele>421.29089355469</ele>
        <time>2021-05-23T11:45:31Z</time>
      </trkpt>
      <trkpt lat="46.82299" lon="4.68265">
        <ele>416.29196166992</ele>
        <time>2021-05-23T11:45:35Z</time>
      </trkpt>
      <trkpt lat="46.82323" lon="4.68242">
        <ele>414.29290771484</ele>
        <time>2021-05-23T11:45:39Z</time>
      </trkpt>
      <trkpt lat="46.82346" lon="4.68235">
        <ele>411.29382324219</ele>
        <time>2021-05-23T11:45:43Z</time>
      </trkpt>
      <trkpt lat="46.82369" lon="4.68204">
        <ele>411.29476928711</ele>
        <time>2021-05-23T11:45:48Z</time>
      </trkpt>
      <trkpt lat="46.82389" lon="4.68179">
        <ele>414.29553222656</ele>
        <time>2021-05-23T11:45:52Z</time>
      </trkpt>
      <trkpt lat="46.8241" lon="4.68145">
        <ele>410.29638671875</ele>
        <time>2021-05-23T11:45:57Z</time>
      </trkpt>
      <trkpt lat="46.82415" lon="4.68152">
        <ele>415.29663085938</ele>
        <time>2021-05-23T11:46:03Z</time>
      </trkpt>
      <trkpt lat="46.82424" lon="4.68166">
        <ele>412.29696655273</ele>
        <time>2021-05-23T11:46:07Z</time>
      </trkpt>
      <trkpt lat="46.82425" lon="4.68178">
        <ele>413.29699707031</ele>
        <time>2021-05-23T11:46:13Z</time>
      </trkpt>
      <trkpt lat="46.8243" lon="4.68187">
        <ele>409.29721069336</ele>
        <time>2021-05-23T11:46:18Z</time>
      </trkpt>
      <trkpt lat="46.82438" lon="4.68201">
        <ele>408.29751586914</ele>
        <time>2021-05-23T11:46:23Z</time>
      </trkpt>
      <trkpt lat="46.82439" lon="4.68211">
        <ele>408.29754638672</ele>
        <time>2021-05-23T11:46:27Z</time>
      </trkpt>
      <trkpt lat="46.82445" lon="4.68224">
        <ele>407.29779052734</ele>
        <time>2021-05-23T11:46:31Z</time>
      </trkpt>
      <trkpt lat="46.8245" lon="4.68235">
        <ele>403.29797363281</ele>
        <time>2021-05-23T11:46:36Z</time>
      </trkpt>
      <trkpt lat="46.82452" lon="4.68248">
        <ele>404.29809570312</ele>
        <time>2021-05-23T11:46:42Z</time>
      </trkpt>
      <trkpt lat="46.82455" lon="4.68259">
        <ele>399.29821777344</ele>
        <time>2021-05-23T11:46:49Z</time>
      </trkpt>
      <trkpt lat="46.8246" lon="4.68269">
        <ele>393.29840087891</ele>
        <time>2021-05-23T11:46:55Z</time>
      </trkpt>
      <trkpt lat="46.82463" lon="4.68281">
        <ele>395.29852294922</ele>
        <time>2021-05-23T11:47:01Z</time>
      </trkpt>
      <trkpt lat="46.8247" lon="4.68289">
        <ele>394.29879760742</ele>
        <time>2021-05-23T11:47:08Z</time>
      </trkpt>
      <trkpt lat="46.82478" lon="4.68295">
        <ele>398.2991027832</ele>
        <time>2021-05-23T11:47:13Z</time>
      </trkpt>
      <trkpt lat="46.82486" lon="4.68298">
        <ele>393.29943847656</ele>
        <time>2021-05-23T11:47:18Z</time>
      </trkpt>
      <trkpt lat="46.82492" lon="4.68305">
        <ele>390.29968261719</ele>
        <time>2021-05-23T11:47:23Z</time>
      </trkpt>
      <trkpt lat="46.82501" lon="4.68312">
        <ele>387.30004882812</ele>
        <time>2021-05-23T11:47:27Z</time>
      </trkpt>
      <trkpt lat="46.82509" lon="4.68324">
        <ele>385.30035400391</ele>
        <time>2021-05-23T11:47:31Z</time>
      </trkpt>
      <trkpt lat="46.82519" lon="4.68341">
        <ele>382.30078125</ele>
        <time>2021-05-23T11:47:36Z</time>
      </trkpt>
      <trkpt lat="46.82533" lon="4.68361">
        <ele>382.30130004883</ele>
        <time>2021-05-23T11:47:40Z</time>
      </trkpt>
      <trkpt lat="46.82556" lon="4.68392">
        <ele>381.30224609375</ele>
        <time>2021-05-23T11:47:45Z</time>
      </trkpt>
      <trkpt lat="46.82634" lon="4.68625">
        <ele>381.30532836914</ele>
        <time>2021-05-23T11:48:26Z</time>
      </trkpt>
      <trkpt lat="46.82627" lon="4.6863">
        <ele>381.30508422852</ele>
        <time>2021-05-23T11:48:29Z</time>
      </trkpt>
      <trkpt lat="46.82619" lon="4.68636">
        <ele>376.30474853516</ele>
        <time>2021-05-23T11:50:26Z</time>
      </trkpt>
      <trkpt lat="46.82611" lon="4.6864">
        <ele>376.30444335938</ele>
        <time>2021-05-23T11:50:32Z</time>
      </trkpt>
      <trkpt lat="46.82606" lon="4.68647">
        <ele>379.30422973633</ele>
        <time>2021-05-23T11:50:57Z</time>
      </trkpt>
      <trkpt lat="46.82593" lon="4.6866">
        <ele>375.3037109375</ele>
        <time>2021-05-23T11:51:02Z</time>
      </trkpt>
      <trkpt lat="46.82585" lon="4.68674">
        <ele>374.30340576172</ele>
        <time>2021-05-23T11:51:07Z</time>
      </trkpt>
      <trkpt lat="46.82578" lon="4.68685">
        <ele>373.30310058594</ele>
        <time>2021-05-23T11:51:10Z</time>
      </trkpt>
      <trkpt lat="46.82507" lon="4.68855">
        <ele>366.30029296875</ele>
        <time>2021-05-23T11:51:53Z</time>
      </trkpt>
      <trkpt lat="46.82504" lon="4.68873">
        <ele>366.30014038086</ele>
        <time>2021-05-23T11:51:57Z</time>
      </trkpt>
      <trkpt lat="46.82492" lon="4.6889">
        <ele>365.29971313477</ele>
        <time>2021-05-23T11:52:02Z</time>
      </trkpt>
      <trkpt lat="46.82479" lon="4.68911">
        <ele>364.29916381836</ele>
        <time>2021-05-23T11:52:06Z</time>
      </trkpt>
      <trkpt lat="46.82469" lon="4.68933">
        <ele>366.29876708984</ele>
        <time>2021-05-23T11:52:11Z</time>
      </trkpt>
      <trkpt lat="46.82468" lon="4.68952">
        <ele>369.29873657227</ele>
        <time>2021-05-23T11:52:16Z</time>
      </trkpt>
      <trkpt lat="46.82466" lon="4.68967">
        <ele>373.29861450195</ele>
        <time>2021-05-23T11:52:20Z</time>
      </trkpt>
      <trkpt lat="46.8246" lon="4.68981">
        <ele>375.29840087891</ele>
        <time>2021-05-23T11:52:24Z</time>
      </trkpt>
      <trkpt lat="46.82457" lon="4.68993">
        <ele>374.29827880859</ele>
        <time>2021-05-23T11:52:33Z</time>
      </trkpt>
      <trkpt lat="46.82455" lon="4.69005">
        <ele>375.29818725586</ele>
        <time>2021-05-23T11:52:40Z</time>
      </trkpt>
      <trkpt lat="46.82449" lon="4.69017">
        <ele>378.29794311523</ele>
        <time>2021-05-23T11:52:45Z</time>
      </trkpt>
      <trkpt lat="46.82439" lon="4.69026">
        <ele>378.2975769043</ele>
        <time>2021-05-23T11:52:50Z</time>
      </trkpt>
      <trkpt lat="46.82434" lon="4.69036">
        <ele>381.29736328125</ele>
        <time>2021-05-23T11:52:54Z</time>
      </trkpt>
      <trkpt lat="46.82423" lon="4.6905">
        <ele>380.29690551758</ele>
        <time>2021-05-23T11:52:58Z</time>
      </trkpt>
      <trkpt lat="46.82411" lon="4.69062">
        <ele>379.29644775391</ele>
        <time>2021-05-23T11:53:02Z</time>
      </trkpt>
      <trkpt lat="46.82398" lon="4.69071">
        <ele>382.29592895508</ele>
        <time>2021-05-23T11:53:06Z</time>
      </trkpt>
      <trkpt lat="46.82362" lon="4.69075">
        <ele>346.29449462891</ele>
        <time>2021-05-23T11:53:11Z</time>
      </trkpt>
      <trkpt lat="46.82362" lon="4.69088">
        <ele>342.29446411133</ele>
        <time>2021-05-23T11:53:17Z</time>
      </trkpt>
      <trkpt lat="46.82365" lon="4.69099">
        <ele>346.29461669922</ele>
        <time>2021-05-23T11:53:22Z</time>
      </trkpt>
      <trkpt lat="46.82369" lon="4.69108">
        <ele>349.29476928711</ele>
        <time>2021-05-23T11:53:26Z</time>
      </trkpt>
      <trkpt lat="46.82372" lon="4.69124">
        <ele>350.29489135742</ele>
        <time>2021-05-23T11:53:30Z</time>
      </trkpt>
      <trkpt lat="46.8238" lon="4.69157">
        <ele>340.2951965332</ele>
        <time>2021-05-23T11:53:34Z</time>
      </trkpt>
      <trkpt lat="46.82382" lon="4.69182">
        <ele>338.29528808594</ele>
        <time>2021-05-23T11:53:38Z</time>
      </trkpt>
      <trkpt lat="46.82381" lon="4.69196">
        <ele>335.29525756836</ele>
        <time>2021-05-23T11:53:43Z</time>
      </trkpt>
      <trkpt lat="46.82373" lon="4.692">
        <ele>342.294921875</ele>
        <time>2021-05-23T11:55:24Z</time>
      </trkpt>
      <trkpt lat="46.82365" lon="4.69201">
        <ele>341.29461669922</ele>
        <time>2021-05-23T11:55:29Z</time>
      </trkpt>
      <trkpt lat="46.82354" lon="4.69199">
        <ele>341.29415893555</ele>
        <time>2021-05-23T11:55:34Z</time>
      </trkpt>
      <trkpt lat="46.82342" lon="4.69197">
        <ele>341.2936706543</ele>
        <time>2021-05-23T11:55:38Z</time>
      </trkpt>
      <trkpt lat="46.82326" lon="4.69195">
        <ele>341.29302978516</ele>
        <time>2021-05-23T11:55:43Z</time>
      </trkpt>
      <trkpt lat="46.82314" lon="4.69192">
        <ele>341.29254150391</ele>
        <time>2021-05-23T11:55:47Z</time>
      </trkpt>
      <trkpt lat="46.82302" lon="4.6919">
        <ele>341.29208374023</ele>
        <time>2021-05-23T11:55:51Z</time>
      </trkpt>
      <trkpt lat="46.82291" lon="4.69188">
        <ele>341.29162597656</ele>
        <time>2021-05-23T11:55:55Z</time>
      </trkpt>
      <trkpt lat="46.82275" lon="4.69185">
        <ele>340.291015625</ele>
        <time>2021-05-23T11:56:00Z</time>
      </trkpt>
      <trkpt lat="46.82263" lon="4.69182">
        <ele>340.29049682617</ele>
        <time>2021-05-23T11:56:04Z</time>
      </trkpt>
      <trkpt lat="46.82249" lon="4.69179">
        <ele>340.28997802734</ele>
        <time>2021-05-23T11:56:08Z</time>
      </trkpt>
      <trkpt lat="46.82235" lon="4.69177">
        <ele>340.28939819336</ele>
        <time>2021-05-23T11:56:12Z</time>
      </trkpt>
      <trkpt lat="46.82217" lon="4.69173">
        <ele>339.28866577148</ele>
        <time>2021-05-23T11:56:17Z</time>
      </trkpt>
      <trkpt lat="46.82202" lon="4.69171">
        <ele>339.2880859375</ele>
        <time>2021-05-23T11:56:21Z</time>
      </trkpt>
      <trkpt lat="46.82187" lon="4.69168">
        <ele>338.28747558594</ele>
        <time>2021-05-23T11:56:25Z</time>
      </trkpt>
      <trkpt lat="46.82172" lon="4.69165">
        <ele>337.28686523438</ele>
        <time>2021-05-23T11:56:29Z</time>
      </trkpt>
      <trkpt lat="46.82158" lon="4.69163">
        <ele>337.28631591797</ele>
        <time>2021-05-23T11:56:33Z</time>
      </trkpt>
      <trkpt lat="46.82144" lon="4.69162">
        <ele>337.28576660156</ele>
        <time>2021-05-23T11:56:37Z</time>
      </trkpt>
      <trkpt lat="46.82125" lon="4.69159">
        <ele>336.28500366211</ele>
        <time>2021-05-23T11:56:42Z</time>
      </trkpt>
      <trkpt lat="46.8211" lon="4.69156">
        <ele>335.28439331055</ele>
        <time>2021-05-23T11:56:46Z</time>
      </trkpt>
      <trkpt lat="46.82093" lon="4.6915">
        <ele>334.28372192383</ele>
        <time>2021-05-23T11:56:50Z</time>
      </trkpt>
      <trkpt lat="46.82077" lon="4.69144">
        <ele>332.28305053711</ele>
        <time>2021-05-23T11:56:54Z</time>
      </trkpt>
      <trkpt lat="46.82056" lon="4.69137">
        <ele>332.28225708008</ele>
        <time>2021-05-23T11:56:59Z</time>
      </trkpt>
      <trkpt lat="46.82041" lon="4.69132">
        <ele>332.28164672852</ele>
        <time>2021-05-23T11:57:03Z</time>
      </trkpt>
      <trkpt lat="46.82022" lon="4.69126">
        <ele>331.28088378906</ele>
        <time>2021-05-23T11:57:08Z</time>
      </trkpt>
      <trkpt lat="46.82007" lon="4.69121">
        <ele>332.2802734375</ele>
        <time>2021-05-23T11:57:12Z</time>
      </trkpt>
      <trkpt lat="46.81989" lon="4.69115">
        <ele>333.27954101562</ele>
        <time>2021-05-23T11:57:17Z</time>
      </trkpt>
      <trkpt lat="46.81972" lon="4.6911">
        <ele>334.27886962891</ele>
        <time>2021-05-23T11:57:22Z</time>
      </trkpt>
      <trkpt lat="46.81957" lon="4.69105">
        <ele>334.27828979492</ele>
        <time>2021-05-23T11:57:27Z</time>
      </trkpt>
      <trkpt lat="46.81949" lon="4.69115">
        <ele>334.27795410156</ele>
        <time>2021-05-23T11:57:31Z</time>
      </trkpt>
      <trkpt lat="46.81946" lon="4.69131">
        <ele>335.27783203125</ele>
        <time>2021-05-23T11:57:35Z</time>
      </trkpt>
      <trkpt lat="46.81946" lon="4.69143">
        <ele>335.27783203125</ele>
        <time>2021-05-23T11:57:40Z</time>
      </trkpt>
      <trkpt lat="46.81944" lon="4.69157">
        <ele>336.27777099609</ele>
        <time>2021-05-23T11:57:45Z</time>
      </trkpt>
      <trkpt lat="46.81943" lon="4.69169">
        <ele>336.27774047852</ele>
        <time>2021-05-23T11:57:49Z</time>
      </trkpt>
      <trkpt lat="46.8194" lon="4.69186">
        <ele>336.27758789062</ele>
        <time>2021-05-23T11:57:54Z</time>
      </trkpt>
      <trkpt lat="46.81936" lon="4.69202">
        <ele>337.27743530273</ele>
        <time>2021-05-23T11:57:59Z</time>
      </trkpt>
      <trkpt lat="46.81933" lon="4.69215">
        <ele>336.27731323242</ele>
        <time>2021-05-23T11:58:03Z</time>
      </trkpt>
      <trkpt lat="46.81929" lon="4.69229">
        <ele>333.27716064453</ele>
        <time>2021-05-23T11:58:07Z</time>
      </trkpt>
      <trkpt lat="46.81926" lon="4.69246">
        <ele>334.27703857422</ele>
        <time>2021-05-23T11:58:12Z</time>
      </trkpt>
      <trkpt lat="46.81924" lon="4.6926">
        <ele>334.27694702148</ele>
        <time>2021-05-23T11:58:16Z</time>
      </trkpt>
      <trkpt lat="46.81921" lon="4.69282">
        <ele>331.27682495117</ele>
        <time>2021-05-23T11:58:21Z</time>
      </trkpt>
      <trkpt lat="46.81915" lon="4.69306">
        <ele>333.27661132812</ele>
        <time>2021-05-23T11:58:26Z</time>
      </trkpt>
      <trkpt lat="46.81912" lon="4.69321">
        <ele>333.27648925781</ele>
        <time>2021-05-23T11:58:30Z</time>
      </trkpt>
      <trkpt lat="46.81911" lon="4.6934">
        <ele>334.27645874023</ele>
        <time>2021-05-23T11:58:35Z</time>
      </trkpt>
      <trkpt lat="46.81912" lon="4.69356">
        <ele>335.27645874023</ele>
        <time>2021-05-23T11:58:39Z</time>
      </trkpt>
      <trkpt lat="46.81912" lon="4.69372">
        <ele>334.27648925781</ele>
        <time>2021-05-23T11:58:43Z</time>
      </trkpt>
      <trkpt lat="46.81913" lon="4.69386">
        <ele>335.27651977539</ele>
        <time>2021-05-23T11:58:47Z</time>
      </trkpt>
      <trkpt lat="46.81915" lon="4.69399">
        <ele>336.27658081055</ele>
        <time>2021-05-23T11:58:51Z</time>
      </trkpt>
      <trkpt lat="46.81919" lon="4.69419">
        <ele>336.27676391602</ele>
        <time>2021-05-23T11:58:56Z</time>
      </trkpt>
      <trkpt lat="46.81923" lon="4.69435">
        <ele>340.27691650391</ele>
        <time>2021-05-23T11:59:00Z</time>
      </trkpt>
      <trkpt lat="46.81928" lon="4.69454">
        <ele>341.27713012695</ele>
        <time>2021-05-23T11:59:05Z</time>
      </trkpt>
      <trkpt lat="46.81933" lon="4.69473">
        <ele>341.27734375</ele>
        <time>2021-05-23T11:59:10Z</time>
      </trkpt>
      <trkpt lat="46.81937" lon="4.69488">
        <ele>342.27746582031</ele>
        <time>2021-05-23T11:59:14Z</time>
      </trkpt>
      <trkpt lat="46.81938" lon="4.69506">
        <ele>343.27749633789</ele>
        <time>2021-05-23T11:59:18Z</time>
      </trkpt>
      <trkpt lat="46.81939" lon="4.6952">
        <ele>342.27758789062</ele>
        <time>2021-05-23T11:59:21Z</time>
      </trkpt>
      <trkpt lat="46.81945" lon="4.69541">
        <ele>342.27777099609</ele>
        <time>2021-05-23T11:59:26Z</time>
      </trkpt>
      <trkpt lat="46.81948" lon="4.69556">
        <ele>343.27792358398</ele>
        <time>2021-05-23T11:59:30Z</time>
      </trkpt>
      <trkpt lat="46.81952" lon="4.69567">
        <ele>345.27807617188</ele>
        <time>2021-05-23T11:59:34Z</time>
      </trkpt>
      <trkpt lat="46.81951" lon="4.69578">
        <ele>349.2780456543</ele>
        <time>2021-05-23T11:59:38Z</time>
      </trkpt>
      <trkpt lat="46.81943" lon="4.69582">
        <ele>350.27770996094</ele>
        <time>2021-05-23T11:59:46Z</time>
      </trkpt>
      <trkpt lat="46.81936" lon="4.69591">
        <ele>350.27743530273</ele>
        <time>2021-05-23T11:59:51Z</time>
      </trkpt>
      <trkpt lat="46.81932" lon="4.69624">
        <ele>352.27728271484</ele>
        <time>2021-05-23T11:59:55Z</time>
      </trkpt>
      <trkpt lat="46.81944" lon="4.69643">
        <ele>356.27774047852</ele>
        <time>2021-05-23T12:00:00Z</time>
      </trkpt>
      <trkpt lat="46.81952" lon="4.69646">
        <ele>365.27807617188</ele>
        <time>2021-05-23T12:00:05Z</time>
      </trkpt>
      <trkpt lat="46.81953" lon="4.69657">
        <ele>367.27813720703</ele>
        <time>2021-05-23T12:00:09Z</time>
      </trkpt>
      <trkpt lat="46.81952" lon="4.69668">
        <ele>370.2780456543</ele>
        <time>2021-05-23T12:00:15Z</time>
      </trkpt>
      <trkpt lat="46.81955" lon="4.69679">
        <ele>369.27819824219</ele>
        <time>2021-05-23T12:00:20Z</time>
      </trkpt>
      <trkpt lat="46.81959" lon="4.69693">
        <ele>365.27835083008</ele>
        <time>2021-05-23T12:00:24Z</time>
      </trkpt>
      <trkpt lat="46.81958" lon="4.69705">
        <ele>369.27828979492</ele>
        <time>2021-05-23T12:00:28Z</time>
      </trkpt>
      <trkpt lat="46.81951" lon="4.69716">
        <ele>369.2780456543</ele>
        <time>2021-05-23T12:00:33Z</time>
      </trkpt>
      <trkpt lat="46.81948" lon="4.69729">
        <ele>373.27792358398</ele>
        <time>2021-05-23T12:00:39Z</time>
      </trkpt>
      <trkpt lat="46.81951" lon="4.6974">
        <ele>373.2780456543</ele>
        <time>2021-05-23T12:00:47Z</time>
      </trkpt>
      <trkpt lat="46.81949" lon="4.69751">
        <ele>372.27798461914</ele>
        <time>2021-05-23T12:00:52Z</time>
      </trkpt>
      <trkpt lat="46.8195" lon="4.69763">
        <ele>376.27798461914</ele>
        <time>2021-05-23T12:00:59Z</time>
      </trkpt>
      <trkpt lat="46.81947" lon="4.69778">
        <ele>376.27786254883</ele>
        <time>2021-05-23T12:01:04Z</time>
      </trkpt>
      <trkpt lat="46.81944" lon="4.69788">
        <ele>378.27774047852</ele>
        <time>2021-05-23T12:01:08Z</time>
      </trkpt>
      <trkpt lat="46.81938" lon="4.69798">
        <ele>377.27752685547</ele>
        <time>2021-05-23T12:01:12Z</time>
      </trkpt>
      <trkpt lat="46.81934" lon="4.69811">
        <ele>379.27734375</ele>
        <time>2021-05-23T12:01:17Z</time>
      </trkpt>
      <trkpt lat="46.81927" lon="4.69826">
        <ele>379.27709960938</ele>
        <time>2021-05-23T12:01:22Z</time>
      </trkpt>
      <trkpt lat="46.81923" lon="4.69837">
        <ele>379.27691650391</ele>
        <time>2021-05-23T12:01:26Z</time>
      </trkpt>
      <trkpt lat="46.81918" lon="4.69848">
        <ele>382.27673339844</ele>
        <time>2021-05-23T12:01:30Z</time>
      </trkpt>
      <trkpt lat="46.81917" lon="4.69865">
        <ele>382.27667236328</ele>
        <time>2021-05-23T12:01:35Z</time>
      </trkpt>
      <trkpt lat="46.81923" lon="4.69874">
        <ele>383.27691650391</ele>
        <time>2021-05-23T12:01:39Z</time>
      </trkpt>
      <trkpt lat="46.81928" lon="4.69883">
        <ele>383.27713012695</ele>
        <time>2021-05-23T12:01:43Z</time>
      </trkpt>
      <trkpt lat="46.8193" lon="4.69896">
        <ele>381.27719116211</ele>
        <time>2021-05-23T12:01:47Z</time>
      </trkpt>
      <trkpt lat="46.81919" lon="4.69908">
        <ele>385.27673339844</ele>
        <time>2021-05-23T12:01:52Z</time>
      </trkpt>
      <trkpt lat="46.81911" lon="4.69919">
        <ele>385.27642822266</ele>
        <time>2021-05-23T12:01:56Z</time>
      </trkpt>
      <trkpt lat="46.81902" lon="4.69932">
        <ele>384.2760925293</ele>
        <time>2021-05-23T12:02:00Z</time>
      </trkpt>
      <trkpt lat="46.81898" lon="4.69947">
        <ele>383.27590942383</ele>
        <time>2021-05-23T12:02:04Z</time>
      </trkpt>
      <trkpt lat="46.81895" lon="4.69966">
        <ele>387.27581787109</ele>
        <time>2021-05-23T12:02:09Z</time>
      </trkpt>
      <trkpt lat="46.81917" lon="4.69868">
        <ele>372.27667236328</ele>
        <time>2021-05-23T12:36:52Z</time>
      </trkpt>
      <trkpt lat="46.81919" lon="4.69879">
        <ele>370.27679443359</ele>
        <time>2021-05-23T12:42:32Z</time>
      </trkpt>
      <trkpt lat="46.8192" lon="4.69869">
        <ele>373.27682495117</ele>
        <time>2021-05-23T12:42:45Z</time>
      </trkpt>
      <trkpt lat="46.81918" lon="4.69848">
        <ele>373.27673339844</ele>
        <time>2021-05-23T12:42:50Z</time>
      </trkpt>
      <trkpt lat="46.81933" lon="4.69813">
        <ele>373.27731323242</ele>
        <time>2021-05-23T12:42:55Z</time>
      </trkpt>
      <trkpt lat="46.81942" lon="4.69783">
        <ele>371.27767944336</ele>
        <time>2021-05-23T12:42:59Z</time>
      </trkpt>
      <trkpt lat="46.81956" lon="4.69742">
        <ele>372.27825927734</ele>
        <time>2021-05-23T12:43:04Z</time>
      </trkpt>
      <trkpt lat="46.81962" lon="4.69707">
        <ele>369.27850341797</ele>
        <time>2021-05-23T12:43:09Z</time>
      </trkpt>
      <trkpt lat="46.81964" lon="4.69684">
        <ele>369.2785949707</ele>
        <time>2021-05-23T12:43:13Z</time>
      </trkpt>
      <trkpt lat="46.81952" lon="4.69657">
        <ele>368.27810668945</ele>
        <time>2021-05-23T12:43:17Z</time>
      </trkpt>
      <trkpt lat="46.8194" lon="4.69631">
        <ele>370.27758789062</ele>
        <time>2021-05-23T12:43:21Z</time>
      </trkpt>
      <trkpt lat="46.81916" lon="4.69597">
        <ele>368.27667236328</ele>
        <time>2021-05-23T12:43:26Z</time>
      </trkpt>
      <trkpt lat="46.81915" lon="4.6959">
        <ele>368.27658081055</ele>
        <time>2021-05-23T12:43:27Z</time>
      </trkpt>
      <trkpt lat="46.81915" lon="4.69564">
        <ele>363.27661132812</ele>
        <time>2021-05-23T12:43:32Z</time>
      </trkpt>
      <trkpt lat="46.81914" lon="4.69573">
        <ele>352.27655029297</ele>
        <time>2021-05-23T12:43:38Z</time>
      </trkpt>
      <trkpt lat="46.81921" lon="4.69581">
        <ele>349.27682495117</ele>
        <time>2021-05-23T12:43:44Z</time>
      </trkpt>
      <trkpt lat="46.81926" lon="4.69589">
        <ele>346.2770690918</ele>
        <time>2021-05-23T12:43:48Z</time>
      </trkpt>
      <trkpt lat="46.81935" lon="4.69589">
        <ele>346.27740478516</ele>
        <time>2021-05-23T12:43:52Z</time>
      </trkpt>
      <trkpt lat="46.81939" lon="4.69599">
        <ele>340.27758789062</ele>
        <time>2021-05-23T12:44:41Z</time>
      </trkpt>
      <trkpt lat="46.81946" lon="4.69613">
        <ele>340.27783203125</ele>
        <time>2021-05-23T12:44:45Z</time>
      </trkpt>
      <trkpt lat="46.81953" lon="4.69627">
        <ele>335.27810668945</ele>
        <time>2021-05-23T12:44:50Z</time>
      </trkpt>
      <trkpt lat="46.81955" lon="4.69641">
        <ele>337.27819824219</ele>
        <time>2021-05-23T12:44:54Z</time>
      </trkpt>
      <trkpt lat="46.81959" lon="4.69656">
        <ele>342.27835083008</ele>
        <time>2021-05-23T12:44:59Z</time>
      </trkpt>
      <trkpt lat="46.81962" lon="4.69668">
        <ele>343.27847290039</ele>
        <time>2021-05-23T12:45:04Z</time>
      </trkpt>
      <trkpt lat="46.8196" lon="4.69681">
        <ele>342.27838134766</ele>
        <time>2021-05-23T12:45:09Z</time>
      </trkpt>
      <trkpt lat="46.81957" lon="4.69691">
        <ele>343.27828979492</ele>
        <time>2021-05-23T12:45:15Z</time>
      </trkpt>
      <trkpt lat="46.81952" lon="4.69705">
        <ele>347.27810668945</ele>
        <time>2021-05-23T12:45:20Z</time>
      </trkpt>
      <trkpt lat="46.81947" lon="4.6972">
        <ele>346.27789306641</ele>
        <time>2021-05-23T12:45:24Z</time>
      </trkpt>
      <trkpt lat="46.81951" lon="4.69731">
        <ele>352.2780456543</ele>
        <time>2021-05-23T12:45:44Z</time>
      </trkpt>
      <trkpt lat="46.81948" lon="4.6974">
        <ele>350.27792358398</ele>
        <time>2021-05-23T12:45:48Z</time>
      </trkpt>
      <trkpt lat="46.81945" lon="4.69752">
        <ele>353.27780151367</ele>
        <time>2021-05-23T12:45:53Z</time>
      </trkpt>
      <trkpt lat="46.81942" lon="4.69762">
        <ele>350.27767944336</ele>
        <time>2021-05-23T12:45:58Z</time>
      </trkpt>
      <trkpt lat="46.81936" lon="4.69771">
        <ele>357.27743530273</ele>
        <time>2021-05-23T12:46:05Z</time>
      </trkpt>
      <trkpt lat="46.81932" lon="4.69783">
        <ele>355.27728271484</ele>
        <time>2021-05-23T12:46:10Z</time>
      </trkpt>
      <trkpt lat="46.81929" lon="4.69797">
        <ele>357.27716064453</ele>
        <time>2021-05-23T12:46:15Z</time>
      </trkpt>
      <trkpt lat="46.81925" lon="4.69808">
        <ele>356.27697753906</ele>
        <time>2021-05-23T12:46:20Z</time>
      </trkpt>
      <trkpt lat="46.81923" lon="4.69819">
        <ele>360.27688598633</ele>
        <time>2021-05-23T12:46:24Z</time>
      </trkpt>
      <trkpt lat="46.81923" lon="4.69835">
        <ele>363.27691650391</ele>
        <time>2021-05-23T12:46:29Z</time>
      </trkpt>
      <trkpt lat="46.81922" lon="4.69846">
        <ele>362.27688598633</ele>
        <time>2021-05-23T12:46:33Z</time>
      </trkpt>
      <trkpt lat="46.81917" lon="4.69857">
        <ele>369.27667236328</ele>
        <time>2021-05-23T12:46:38Z</time>
      </trkpt>
      <trkpt lat="46.81917" lon="4.6987">
        <ele>370.27670288086</ele>
        <time>2021-05-23T12:46:45Z</time>
      </trkpt>
      <trkpt lat="46.81924" lon="4.69879">
        <ele>369.27694702148</ele>
        <time>2021-05-23T12:46:52Z</time>
      </trkpt>
      <trkpt lat="46.81927" lon="4.69889">
        <ele>373.2770690918</ele>
        <time>2021-05-23T12:46:58Z</time>
      </trkpt>
      <trkpt lat="46.81928" lon="4.69903">
        <ele>375.27713012695</ele>
        <time>2021-05-23T12:47:03Z</time>
      </trkpt>
      <trkpt lat="46.8192" lon="4.69906">
        <ele>372.27679443359</ele>
        <time>2021-05-23T12:47:20Z</time>
      </trkpt>
      <trkpt lat="46.81912" lon="4.69893">
        <ele>372.27648925781</ele>
        <time>2021-05-23T12:47:25Z</time>
      </trkpt>
      <trkpt lat="46.81912" lon="4.69904">
        <ele>370.27648925781</ele>
        <time>2021-05-23T12:47:44Z</time>
      </trkpt>
      <trkpt lat="46.81904" lon="4.69918">
        <ele>375.27615356445</ele>
        <time>2021-05-23T12:47:49Z</time>
      </trkpt>
      <trkpt lat="46.81898" lon="4.69933">
        <ele>374.27593994141</ele>
        <time>2021-05-23T12:47:53Z</time>
      </trkpt>
      <trkpt lat="46.81894" lon="4.69946">
        <ele>376.27572631836</ele>
        <time>2021-05-23T12:47:57Z</time>
      </trkpt>
      <trkpt lat="46.81886" lon="4.69958">
        <ele>374.27542114258</ele>
        <time>2021-05-23T12:48:01Z</time>
      </trkpt>
      <trkpt lat="46.81879" lon="4.69975">
        <ele>374.27514648438</ele>
        <time>2021-05-23T12:48:05Z</time>
      </trkpt>
      <trkpt lat="46.81869" lon="4.69988">
        <ele>374.27474975586</ele>
        <time>2021-05-23T12:48:10Z</time>
      </trkpt>
      <trkpt lat="46.81862" lon="4.70001">
        <ele>373.27447509766</ele>
        <time>2021-05-23T12:48:14Z</time>
      </trkpt>
      <trkpt lat="46.81855" lon="4.70017">
        <ele>371.27420043945</ele>
        <time>2021-05-23T12:48:18Z</time>
      </trkpt>
      <trkpt lat="46.8185" lon="4.70044">
        <ele>371.27401733398</ele>
        <time>2021-05-23T12:48:23Z</time>
      </trkpt>
      <trkpt lat="46.81865" lon="4.70051">
        <ele>374.27456665039</ele>
        <time>2021-05-23T12:48:28Z</time>
      </trkpt>
      <trkpt lat="46.81872" lon="4.70055">
        <ele>377.27487182617</ele>
        <time>2021-05-23T12:48:42Z</time>
      </trkpt>
      <trkpt lat="46.81875" lon="4.70056">
        <ele>377.27499389648</ele>
        <time>2021-05-23T12:48:45Z</time>
      </trkpt>
      <trkpt lat="46.81878" lon="4.70068">
        <ele>377.27514648438</ele>
        <time>2021-05-23T12:48:51Z</time>
      </trkpt>
      <trkpt lat="46.81898" lon="4.70083">
        <ele>384.27593994141</ele>
        <time>2021-05-23T12:48:56Z</time>
      </trkpt>
      <trkpt lat="46.81905" lon="4.70091">
        <ele>376.27621459961</ele>
        <time>2021-05-23T12:49:00Z</time>
      </trkpt>
      <trkpt lat="46.81915" lon="4.70098">
        <ele>376.27661132812</ele>
        <time>2021-05-23T12:49:04Z</time>
      </trkpt>
      <trkpt lat="46.81922" lon="4.70109">
        <ele>376.27688598633</ele>
        <time>2021-05-23T12:49:08Z</time>
      </trkpt>
      <trkpt lat="46.81929" lon="4.70117">
        <ele>377.27716064453</ele>
        <time>2021-05-23T12:49:13Z</time>
      </trkpt>
      <trkpt lat="46.81936" lon="4.70124">
        <ele>380.27743530273</ele>
        <time>2021-05-23T12:49:21Z</time>
      </trkpt>
      <trkpt lat="46.81945" lon="4.70129">
        <ele>380.27783203125</ele>
        <time>2021-05-23T12:49:25Z</time>
      </trkpt>
      <trkpt lat="46.81945" lon="4.70141">
        <ele>383.27780151367</ele>
        <time>2021-05-23T12:49:33Z</time>
      </trkpt>
      <trkpt lat="46.81939" lon="4.70153">
        <ele>386.27758789062</ele>
        <time>2021-05-23T12:49:38Z</time>
      </trkpt>
      <trkpt lat="46.81938" lon="4.70164">
        <ele>387.27752685547</ele>
        <time>2021-05-23T12:49:42Z</time>
      </trkpt>
      <trkpt lat="46.81943" lon="4.70173">
        <ele>389.27770996094</ele>
        <time>2021-05-23T12:49:47Z</time>
      </trkpt>
      <trkpt lat="46.81985" lon="4.70209">
        <ele>385.27938842773</ele>
        <time>2021-05-23T12:49:52Z</time>
      </trkpt>
      <trkpt lat="46.8199" lon="4.7022">
        <ele>386.27960205078</ele>
        <time>2021-05-23T12:49:56Z</time>
      </trkpt>
      <trkpt lat="46.81992" lon="4.70232">
        <ele>388.27969360352</ele>
        <time>2021-05-23T12:50:02Z</time>
      </trkpt>
      <trkpt lat="46.81994" lon="4.70249">
        <ele>387.27975463867</ele>
        <time>2021-05-23T12:50:07Z</time>
      </trkpt>
      <trkpt lat="46.81989" lon="4.70265">
        <ele>384.2795715332</ele>
        <time>2021-05-23T12:50:11Z</time>
      </trkpt>
      <trkpt lat="46.81984" lon="4.70282">
        <ele>384.27935791016</ele>
        <time>2021-05-23T12:50:15Z</time>
      </trkpt>
      <trkpt lat="46.81983" lon="4.70303">
        <ele>385.27932739258</ele>
        <time>2021-05-23T12:50:20Z</time>
      </trkpt>
      <trkpt lat="46.8199" lon="4.70372">
        <ele>380.27960205078</ele>
        <time>2021-05-23T12:50:25Z</time>
      </trkpt>
      <trkpt lat="46.81961" lon="4.70408">
        <ele>379.27844238281</ele>
        <time>2021-05-23T12:50:29Z</time>
      </trkpt>
      <trkpt lat="46.81937" lon="4.70429">
        <ele>374.27746582031</ele>
        <time>2021-05-23T12:50:33Z</time>
      </trkpt>
      <trkpt lat="46.81931" lon="4.70436">
        <ele>376.27722167969</ele>
        <time>2021-05-23T12:50:38Z</time>
      </trkpt>
      <trkpt lat="46.81928" lon="4.70425">
        <ele>371.27709960938</ele>
        <time>2021-05-23T12:50:42Z</time>
      </trkpt>
      <trkpt lat="46.8192" lon="4.70428">
        <ele>372.27679443359</ele>
        <time>2021-05-23T12:50:50Z</time>
      </trkpt>
      <trkpt lat="46.81926" lon="4.7045">
        <ele>373.27700805664</ele>
        <time>2021-05-23T12:50:54Z</time>
      </trkpt>
      <trkpt lat="46.81933" lon="4.70483">
        <ele>370.27731323242</ele>
        <time>2021-05-23T12:50:58Z</time>
      </trkpt>
      <trkpt lat="46.81936" lon="4.70518">
        <ele>370.27740478516</ele>
        <time>2021-05-23T12:51:02Z</time>
      </trkpt>
      <trkpt lat="46.81947" lon="4.70549">
        <ele>365.27789306641</ele>
        <time>2021-05-23T12:51:07Z</time>
      </trkpt>
      <trkpt lat="46.81942" lon="4.70566">
        <ele>368.27767944336</ele>
        <time>2021-05-23T12:51:11Z</time>
      </trkpt>
      <trkpt lat="46.8194" lon="4.70597">
        <ele>365.2776184082</ele>
        <time>2021-05-23T12:51:16Z</time>
      </trkpt>
      <trkpt lat="46.81934" lon="4.70627">
        <ele>364.27737426758</ele>
        <time>2021-05-23T12:51:21Z</time>
      </trkpt>
      <trkpt lat="46.81895" lon="4.70685">
        <ele>352.27581787109</ele>
        <time>2021-05-23T12:51:26Z</time>
      </trkpt>
      <trkpt lat="46.81875" lon="4.70717">
        <ele>347.27499389648</ele>
        <time>2021-05-23T12:51:31Z</time>
      </trkpt>
      <trkpt lat="46.81877" lon="4.70751">
        <ele>347.27508544922</ele>
        <time>2021-05-23T12:51:35Z</time>
      </trkpt>
      <trkpt lat="46.81884" lon="4.7078">
        <ele>347.27532958984</ele>
        <time>2021-05-23T12:51:39Z</time>
      </trkpt>
      <trkpt lat="46.81887" lon="4.70788">
        <ele>347.27548217773</ele>
        <time>2021-05-23T12:51:44Z</time>
      </trkpt>
      <trkpt lat="46.81873" lon="4.70799">
        <ele>332.27493286133</ele>
        <time>2021-05-23T12:51:49Z</time>
      </trkpt>
      <trkpt lat="46.81878" lon="4.7081">
        <ele>325.2751159668</ele>
        <time>2021-05-23T12:52:20Z</time>
      </trkpt>
      <trkpt lat="46.81887" lon="4.70817">
        <ele>322.27545166016</ele>
        <time>2021-05-23T12:52:24Z</time>
      </trkpt>
      <trkpt lat="46.81895" lon="4.70833">
        <ele>322.27581787109</ele>
        <time>2021-05-23T12:52:29Z</time>
      </trkpt>
      <trkpt lat="46.81901" lon="4.70849">
        <ele>322.27603149414</ele>
        <time>2021-05-23T12:52:33Z</time>
      </trkpt>
      <trkpt lat="46.81902" lon="4.7087">
        <ele>321.27606201172</ele>
        <time>2021-05-23T12:52:38Z</time>
      </trkpt>
      <trkpt lat="46.81912" lon="4.70882">
        <ele>322.27645874023</ele>
        <time>2021-05-23T12:52:42Z</time>
      </trkpt>
      <trkpt lat="46.81919" lon="4.70889">
        <ele>323.27676391602</ele>
        <time>2021-05-23T12:52:46Z</time>
      </trkpt>
      <trkpt lat="46.81925" lon="4.70906">
        <ele>323.27697753906</ele>
        <time>2021-05-23T12:52:50Z</time>
      </trkpt>
      <trkpt lat="46.81934" lon="4.70923">
        <ele>321.27734375</ele>
        <time>2021-05-23T12:52:54Z</time>
      </trkpt>
      <trkpt lat="46.81958" lon="4.70949">
        <ele>326.2783203125</ele>
        <time>2021-05-23T12:52:58Z</time>
      </trkpt>
      <trkpt lat="46.8197" lon="4.70983">
        <ele>326.27877807617</ele>
        <time>2021-05-23T12:53:02Z</time>
      </trkpt>
      <trkpt lat="46.81962" lon="4.71019">
        <ele>321.27847290039</ele>
        <time>2021-05-23T12:53:07Z</time>
      </trkpt>
      <trkpt lat="46.81957" lon="4.71037">
        <ele>322.27828979492</ele>
        <time>2021-05-23T12:53:11Z</time>
      </trkpt>
      <trkpt lat="46.81947" lon="4.71056">
        <ele>320.27789306641</ele>
        <time>2021-05-23T12:53:15Z</time>
      </trkpt>
      <trkpt lat="46.8194" lon="4.71061">
        <ele>305.2776184082</ele>
        <time>2021-05-23T12:53:34Z</time>
      </trkpt>
      <trkpt lat="46.8193" lon="4.71059">
        <ele>306.27719116211</ele>
        <time>2021-05-23T12:53:38Z</time>
      </trkpt>
      <trkpt lat="46.81918" lon="4.71057">
        <ele>305.27670288086</ele>
        <time>2021-05-23T12:53:42Z</time>
      </trkpt>
      <trkpt lat="46.81903" lon="4.71062">
        <ele>300.27612304688</ele>
        <time>2021-05-23T12:53:47Z</time>
      </trkpt>
      <trkpt lat="46.81901" lon="4.71085">
        <ele>301.27603149414</ele>
        <time>2021-05-23T12:53:51Z</time>
      </trkpt>
      <trkpt lat="46.81902" lon="4.7111">
        <ele>302.27606201172</ele>
        <time>2021-05-23T12:53:56Z</time>
      </trkpt>
      <trkpt lat="46.81911" lon="4.71113">
        <ele>300.27645874023</ele>
        <time>2021-05-23T12:54:00Z</time>
      </trkpt>
      <trkpt lat="46.81932" lon="4.71123">
        <ele>301.27728271484</ele>
        <time>2021-05-23T12:54:04Z</time>
      </trkpt>
      <trkpt lat="46.81951" lon="4.71136">
        <ele>300.2780456543</ele>
        <time>2021-05-23T12:54:08Z</time>
      </trkpt>
      <trkpt lat="46.81978" lon="4.71162">
        <ele>299.27911376953</ele>
        <time>2021-05-23T12:54:12Z</time>
      </trkpt>
      <trkpt lat="46.8199" lon="4.71166">
        <ele>298.27960205078</ele>
        <time>2021-05-23T12:54:17Z</time>
      </trkpt>
      <trkpt lat="46.82016" lon="4.7119">
        <ele>297.28063964844</ele>
        <time>2021-05-23T12:54:21Z</time>
      </trkpt>
      <trkpt lat="46.82011" lon="4.71189">
        <ele>294.28045654297</ele>
        <time>2021-05-23T12:54:27Z</time>
      </trkpt>
      <trkpt lat="46.82018" lon="4.71188">
        <ele>294.28073120117</ele>
        <time>2021-05-23T12:54:34Z</time>
      </trkpt>
      <trkpt lat="46.82028" lon="4.71188">
        <ele>296.28112792969</ele>
        <time>2021-05-23T12:54:38Z</time>
      </trkpt>
      <trkpt lat="46.82043" lon="4.71192">
        <ele>295.28170776367</ele>
        <time>2021-05-23T12:54:42Z</time>
      </trkpt>
      <trkpt lat="46.82061" lon="4.71187">
        <ele>292.28244018555</ele>
        <time>2021-05-23T12:54:46Z</time>
      </trkpt>
      <trkpt lat="46.82076" lon="4.71187">
        <ele>297.28305053711</ele>
        <time>2021-05-23T12:54:51Z</time>
      </trkpt>
      <trkpt lat="46.82095" lon="4.71181">
        <ele>299.28381347656</ele>
        <time>2021-05-23T12:54:56Z</time>
      </trkpt>
      <trkpt lat="46.82126" lon="4.71192">
        <ele>297.28506469727</ele>
        <time>2021-05-23T12:55:00Z</time>
      </trkpt>
      <trkpt lat="46.82157" lon="4.71206">
        <ele>297.28628540039</ele>
        <time>2021-05-23T12:55:05Z</time>
      </trkpt>
      <trkpt lat="46.82182" lon="4.7122">
        <ele>297.28726196289</ele>
        <time>2021-05-23T12:55:09Z</time>
      </trkpt>
      <trkpt lat="46.82211" lon="4.71233">
        <ele>299.28845214844</ele>
        <time>2021-05-23T12:55:13Z</time>
      </trkpt>
      <trkpt lat="46.8222" lon="4.71239">
        <ele>296.2887878418</ele>
        <time>2021-05-23T12:55:18Z</time>
      </trkpt>
      <trkpt lat="46.82235" lon="4.71246">
        <ele>296.28939819336</ele>
        <time>2021-05-23T12:55:21Z</time>
      </trkpt>
      <trkpt lat="46.82248" lon="4.71251">
        <ele>298.28994750977</ele>
        <time>2021-05-23T12:55:24Z</time>
      </trkpt>
      <trkpt lat="46.82279" lon="4.7127">
        <ele>292.29113769531</ele>
        <time>2021-05-23T12:55:31Z</time>
      </trkpt>
      <trkpt lat="46.82297" lon="4.71275">
        <ele>298.29187011719</ele>
        <time>2021-05-23T12:55:36Z</time>
      </trkpt>
      <trkpt lat="46.82309" lon="4.71278">
        <ele>297.29235839844</ele>
        <time>2021-05-23T12:55:40Z</time>
      </trkpt>
      <trkpt lat="46.82321" lon="4.71283">
        <ele>297.29281616211</ele>
        <time>2021-05-23T12:55:45Z</time>
      </trkpt>
      <trkpt lat="46.82329" lon="4.71288">
        <ele>296.29315185547</ele>
        <time>2021-05-23T12:55:59Z</time>
      </trkpt>
      <trkpt lat="46.82336" lon="4.71283">
        <ele>299.29345703125</ele>
        <time>2021-05-23T12:57:14Z</time>
      </trkpt>
      <trkpt lat="46.82351" lon="4.71286">
        <ele>301.29400634766</ele>
        <time>2021-05-23T12:57:19Z</time>
      </trkpt>
      <trkpt lat="46.82361" lon="4.71288">
        <ele>300.29443359375</ele>
        <time>2021-05-23T12:57:23Z</time>
      </trkpt>
      <trkpt lat="46.82369" lon="4.71286">
        <ele>301.29476928711</ele>
        <time>2021-05-23T12:57:28Z</time>
      </trkpt>
      <trkpt lat="46.82376" lon="4.71282">
        <ele>305.29507446289</ele>
        <time>2021-05-23T12:57:33Z</time>
      </trkpt>
      <trkpt lat="46.82383" lon="4.71272">
        <ele>308.29531860352</ele>
        <time>2021-05-23T12:57:38Z</time>
      </trkpt>
      <trkpt lat="46.82386" lon="4.71259">
        <ele>313.29541015625</ele>
        <time>2021-05-23T12:57:59Z</time>
      </trkpt>
      <trkpt lat="46.82387" lon="4.71247">
        <ele>312.29547119141</ele>
        <time>2021-05-23T12:58:05Z</time>
      </trkpt>
      <trkpt lat="46.82389" lon="4.71235">
        <ele>314.29556274414</ele>
        <time>2021-05-23T12:58:10Z</time>
      </trkpt>
      <trkpt lat="46.82391" lon="4.71225">
        <ele>315.29565429688</ele>
        <time>2021-05-23T12:58:15Z</time>
      </trkpt>
      <trkpt lat="46.82393" lon="4.71213">
        <ele>316.29568481445</ele>
        <time>2021-05-23T12:58:20Z</time>
      </trkpt>
      <trkpt lat="46.82395" lon="4.71202">
        <ele>317.29577636719</ele>
        <time>2021-05-23T12:58:25Z</time>
      </trkpt>
      <trkpt lat="46.82401" lon="4.71193">
        <ele>317.29602050781</ele>
        <time>2021-05-23T12:58:31Z</time>
      </trkpt>
      <trkpt lat="46.82402" lon="4.71183">
        <ele>315.29608154297</ele>
        <time>2021-05-23T12:59:32Z</time>
      </trkpt>
      <trkpt lat="46.82411" lon="4.71163">
        <ele>315.29644775391</ele>
        <time>2021-05-23T12:59:37Z</time>
      </trkpt>
      <trkpt lat="46.82426" lon="4.71138">
        <ele>315.29702758789</ele>
        <time>2021-05-23T12:59:42Z</time>
      </trkpt>
      <trkpt lat="46.82432" lon="4.71118">
        <ele>313.29727172852</ele>
        <time>2021-05-23T12:59:46Z</time>
      </trkpt>
      <trkpt lat="46.82439" lon="4.71098">
        <ele>314.2975769043</ele>
        <time>2021-05-23T12:59:50Z</time>
      </trkpt>
      <trkpt lat="46.8245" lon="4.71071">
        <ele>313.29800415039</ele>
        <time>2021-05-23T12:59:55Z</time>
      </trkpt>
      <trkpt lat="46.82464" lon="4.71047">
        <ele>317.2985534668</ele>
        <time>2021-05-23T13:00:00Z</time>
      </trkpt>
      <trkpt lat="46.82478" lon="4.71035">
        <ele>317.29913330078</ele>
        <time>2021-05-23T13:00:04Z</time>
      </trkpt>
      <trkpt lat="46.82492" lon="4.71023">
        <ele>315.29968261719</ele>
        <time>2021-05-23T13:00:08Z</time>
      </trkpt>
      <trkpt lat="46.82502" lon="4.71008">
        <ele>318.3000793457</ele>
        <time>2021-05-23T13:00:12Z</time>
      </trkpt>
      <trkpt lat="46.82513" lon="4.70996">
        <ele>319.30053710938</ele>
        <time>2021-05-23T13:00:16Z</time>
      </trkpt>
      <trkpt lat="46.82524" lon="4.70978">
        <ele>318.30096435547</ele>
        <time>2021-05-23T13:00:21Z</time>
      </trkpt>
      <trkpt lat="46.82537" lon="4.70962">
        <ele>316.3014831543</ele>
        <time>2021-05-23T13:00:26Z</time>
      </trkpt>
      <trkpt lat="46.82544" lon="4.70951">
        <ele>317.3017578125</ele>
        <time>2021-05-23T13:00:30Z</time>
      </trkpt>
      <trkpt lat="46.82551" lon="4.70937">
        <ele>319.3020324707</ele>
        <time>2021-05-23T13:00:34Z</time>
      </trkpt>
      <trkpt lat="46.82563" lon="4.70923">
        <ele>316.30252075195</ele>
        <time>2021-05-23T13:00:39Z</time>
      </trkpt>
      <trkpt lat="46.82574" lon="4.70916">
        <ele>317.30297851562</ele>
        <time>2021-05-23T13:00:43Z</time>
      </trkpt>
      <trkpt lat="46.82587" lon="4.70911">
        <ele>316.30346679688</ele>
        <time>2021-05-23T13:00:47Z</time>
      </trkpt>
      <trkpt lat="46.82602" lon="4.70905">
        <ele>317.30407714844</ele>
        <time>2021-05-23T13:00:52Z</time>
      </trkpt>
      <trkpt lat="46.82612" lon="4.70896">
        <ele>318.30447387695</ele>
        <time>2021-05-23T13:00:56Z</time>
      </trkpt>
      <trkpt lat="46.82625" lon="4.70888">
        <ele>319.30499267578</ele>
        <time>2021-05-23T13:01:01Z</time>
      </trkpt>
      <trkpt lat="46.82635" lon="4.7088">
        <ele>320.3053894043</ele>
        <time>2021-05-23T13:01:05Z</time>
      </trkpt>
      <trkpt lat="46.82646" lon="4.70868">
        <ele>321.30584716797</ele>
        <time>2021-05-23T13:01:10Z</time>
      </trkpt>
      <trkpt lat="46.82655" lon="4.7086">
        <ele>322.30618286133</ele>
        <time>2021-05-23T13:01:14Z</time>
      </trkpt>
      <trkpt lat="46.82661" lon="4.70849">
        <ele>321.30645751953</ele>
        <time>2021-05-23T13:01:18Z</time>
      </trkpt>
      <trkpt lat="46.82673" lon="4.70838">
        <ele>322.30688476562</ele>
        <time>2021-05-23T13:01:23Z</time>
      </trkpt>
      <trkpt lat="46.82681" lon="4.70823">
        <ele>325.30722045898</ele>
        <time>2021-05-23T13:01:28Z</time>
      </trkpt>
      <trkpt lat="46.82685" lon="4.70809">
        <ele>328.30740356445</ele>
        <time>2021-05-23T13:01:32Z</time>
      </trkpt>
      <trkpt lat="46.82692" lon="4.70792">
        <ele>331.30764770508</ele>
        <time>2021-05-23T13:01:37Z</time>
      </trkpt>
      <trkpt lat="46.82698" lon="4.7078">
        <ele>332.30792236328</ele>
        <time>2021-05-23T13:01:42Z</time>
      </trkpt>
      <trkpt lat="46.82704" lon="4.70774">
        <ele>331.30816650391</ele>
        <time>2021-05-23T13:01:46Z</time>
      </trkpt>
      <trkpt lat="46.8271" lon="4.70762">
        <ele>331.30838012695</ele>
        <time>2021-05-23T13:01:50Z</time>
      </trkpt>
      <trkpt lat="46.82719" lon="4.70749">
        <ele>331.30877685547</ele>
        <time>2021-05-23T13:01:55Z</time>
      </trkpt>
      <trkpt lat="46.82727" lon="4.70733">
        <ele>327.30911254883</ele>
        <time>2021-05-23T13:02:00Z</time>
      </trkpt>
      <trkpt lat="46.82734" lon="4.70719">
        <ele>326.30935668945</ele>
        <time>2021-05-23T13:02:04Z</time>
      </trkpt>
      <trkpt lat="46.82744" lon="4.70702">
        <ele>326.30975341797</ele>
        <time>2021-05-23T13:02:08Z</time>
      </trkpt>
      <trkpt lat="46.82756" lon="4.70686">
        <ele>327.3102722168</ele>
        <time>2021-05-23T13:02:12Z</time>
      </trkpt>
      <trkpt lat="46.8277" lon="4.70669">
        <ele>328.3108215332</ele>
        <time>2021-05-23T13:02:17Z</time>
      </trkpt>
      <trkpt lat="46.8278" lon="4.7066">
        <ele>328.31121826172</ele>
        <time>2021-05-23T13:02:21Z</time>
      </trkpt>
      <trkpt lat="46.82788" lon="4.70658">
        <ele>329.3115234375</ele>
        <time>2021-05-23T13:02:53Z</time>
      </trkpt>
      <trkpt lat="46.82799" lon="4.70659">
        <ele>327.31195068359</ele>
        <time>2021-05-23T13:02:58Z</time>
      </trkpt>
      <trkpt lat="46.82814" lon="4.70659">
        <ele>327.31256103516</ele>
        <time>2021-05-23T13:03:02Z</time>
      </trkpt>
      <trkpt lat="46.82831" lon="4.70656">
        <ele>329.31323242188</ele>
        <time>2021-05-23T13:03:07Z</time>
      </trkpt>
      <trkpt lat="46.82851" lon="4.70654">
        <ele>330.31402587891</ele>
        <time>2021-05-23T13:03:12Z</time>
      </trkpt>
      <trkpt lat="46.82873" lon="4.7065">
        <ele>328.31491088867</ele>
        <time>2021-05-23T13:03:16Z</time>
      </trkpt>
      <trkpt lat="46.82896" lon="4.70647">
        <ele>329.31585693359</ele>
        <time>2021-05-23T13:03:21Z</time>
      </trkpt>
      <trkpt lat="46.82921" lon="4.70644">
        <ele>329.31683349609</ele>
        <time>2021-05-23T13:03:25Z</time>
      </trkpt>
      <trkpt lat="46.82946" lon="4.70651">
        <ele>328.31781005859</ele>
        <time>2021-05-23T13:03:29Z</time>
      </trkpt>
      <trkpt lat="46.82965" lon="4.70651">
        <ele>329.31860351562</ele>
        <time>2021-05-23T13:03:33Z</time>
      </trkpt>
      <trkpt lat="46.82985" lon="4.7065">
        <ele>332.31939697266</ele>
        <time>2021-05-23T13:03:37Z</time>
      </trkpt>
      <trkpt lat="46.83006" lon="4.70648">
        <ele>330.32025146484</ele>
        <time>2021-05-23T13:03:41Z</time>
      </trkpt>
      <trkpt lat="46.83028" lon="4.70653">
        <ele>329.32113647461</ele>
        <time>2021-05-23T13:03:45Z</time>
      </trkpt>
      <trkpt lat="46.83052" lon="4.70659">
        <ele>328.32208251953</ele>
        <time>2021-05-23T13:03:50Z</time>
      </trkpt>
      <trkpt lat="46.83072" lon="4.70662">
        <ele>328.32284545898</ele>
        <time>2021-05-23T13:03:54Z</time>
      </trkpt>
      <trkpt lat="46.83098" lon="4.70677">
        <ele>327.32391357422</ele>
        <time>2021-05-23T13:03:59Z</time>
      </trkpt>
      <trkpt lat="46.83117" lon="4.70683">
        <ele>327.32467651367</ele>
        <time>2021-05-23T13:04:03Z</time>
      </trkpt>
      <trkpt lat="46.83141" lon="4.70704">
        <ele>324.32565307617</ele>
        <time>2021-05-23T13:04:08Z</time>
      </trkpt>
      <trkpt lat="46.83159" lon="4.70717">
        <ele>323.32635498047</ele>
        <time>2021-05-23T13:04:12Z</time>
      </trkpt>
      <trkpt lat="46.83173" lon="4.70728">
        <ele>323.32690429688</ele>
        <time>2021-05-23T13:04:16Z</time>
      </trkpt>
      <trkpt lat="46.83187" lon="4.70741">
        <ele>322.32748413086</ele>
        <time>2021-05-23T13:04:21Z</time>
      </trkpt>
      <trkpt lat="46.83198" lon="4.70751">
        <ele>322.32791137695</ele>
        <time>2021-05-23T13:04:25Z</time>
      </trkpt>
      <trkpt lat="46.83213" lon="4.70768">
        <ele>324.32849121094</ele>
        <time>2021-05-23T13:04:30Z</time>
      </trkpt>
      <trkpt lat="46.8322" lon="4.70784">
        <ele>326.32879638672</ele>
        <time>2021-05-23T13:04:35Z</time>
      </trkpt>
      <trkpt lat="46.83226" lon="4.70795">
        <ele>321.32904052734</ele>
        <time>2021-05-23T13:04:40Z</time>
      </trkpt>
      <trkpt lat="46.83233" lon="4.70801">
        <ele>319.32934570312</ele>
        <time>2021-05-23T13:04:45Z</time>
      </trkpt>
      <trkpt lat="46.83243" lon="4.70808">
        <ele>322.32971191406</ele>
        <time>2021-05-23T13:04:50Z</time>
      </trkpt>
      <trkpt lat="46.8325" lon="4.70815">
        <ele>320.32998657227</ele>
        <time>2021-05-23T13:04:54Z</time>
      </trkpt>
      <trkpt lat="46.8326" lon="4.70828">
        <ele>318.33038330078</ele>
        <time>2021-05-23T13:04:59Z</time>
      </trkpt>
      <trkpt lat="46.83261" lon="4.70844">
        <ele>320.33044433594</ele>
        <time>2021-05-23T13:05:03Z</time>
      </trkpt>
      <trkpt lat="46.83263" lon="4.7086">
        <ele>318.33050537109</ele>
        <time>2021-05-23T13:05:08Z</time>
      </trkpt>
      <trkpt lat="46.83271" lon="4.70876">
        <ele>317.33084106445</ele>
        <time>2021-05-23T13:05:12Z</time>
      </trkpt>
      <trkpt lat="46.83277" lon="4.70897">
        <ele>316.33108520508</ele>
        <time>2021-05-23T13:05:16Z</time>
      </trkpt>
      <trkpt lat="46.83291" lon="4.70917">
        <ele>324.33163452148</ele>
        <time>2021-05-23T13:05:21Z</time>
      </trkpt>
      <trkpt lat="46.83307" lon="4.70935">
        <ele>330.33227539062</ele>
        <time>2021-05-23T13:05:26Z</time>
      </trkpt>
      <trkpt lat="46.83321" lon="4.70945">
        <ele>332.33285522461</ele>
        <time>2021-05-23T13:05:30Z</time>
      </trkpt>
      <trkpt lat="46.83334" lon="4.70946">
        <ele>334.33337402344</ele>
        <time>2021-05-23T13:05:35Z</time>
      </trkpt>
      <trkpt lat="46.83356" lon="4.70987">
        <ele>334.33422851562</ele>
        <time>2021-05-23T13:05:39Z</time>
      </trkpt>
      <trkpt lat="46.83385" lon="4.71009">
        <ele>333.33541870117</ele>
        <time>2021-05-23T13:05:43Z</time>
      </trkpt>
      <trkpt lat="46.83404" lon="4.71035">
        <ele>328.33615112305</ele>
        <time>2021-05-23T13:05:48Z</time>
      </trkpt>
      <trkpt lat="46.83414" lon="4.71062">
        <ele>325.33657836914</ele>
        <time>2021-05-23T13:05:52Z</time>
      </trkpt>
      <trkpt lat="46.83433" lon="4.71088">
        <ele>314.33734130859</ele>
        <time>2021-05-23T13:05:56Z</time>
      </trkpt>
      <trkpt lat="46.8344" lon="4.71094">
        <ele>312.33758544922</ele>
        <time>2021-05-23T13:06:09Z</time>
      </trkpt>
      <trkpt lat="46.83454" lon="4.711">
        <ele>308.3381652832</ele>
        <time>2021-05-23T13:06:13Z</time>
      </trkpt>
      <trkpt lat="46.83479" lon="4.71113">
        <ele>305.33917236328</ele>
        <time>2021-05-23T13:06:17Z</time>
      </trkpt>
      <trkpt lat="46.83508" lon="4.71141">
        <ele>300.34033203125</ele>
        <time>2021-05-23T13:06:22Z</time>
      </trkpt>
      <trkpt lat="46.83526" lon="4.71189">
        <ele>298.34103393555</ele>
        <time>2021-05-23T13:06:27Z</time>
      </trkpt>
      <trkpt lat="46.83548" lon="4.71227">
        <ele>293.34191894531</ele>
        <time>2021-05-23T13:06:31Z</time>
      </trkpt>
      <trkpt lat="46.83565" lon="4.71261">
        <ele>293.34259033203</ele>
        <time>2021-05-23T13:06:35Z</time>
      </trkpt>
      <trkpt lat="46.83599" lon="4.71301">
        <ele>288.34396362305</ele>
        <time>2021-05-23T13:06:40Z</time>
      </trkpt>
      <trkpt lat="46.83616" lon="4.71336">
        <ele>278.34463500977</ele>
        <time>2021-05-23T13:06:44Z</time>
      </trkpt>
      <trkpt lat="46.83617" lon="4.71369">
        <ele>272.34466552734</ele>
        <time>2021-05-23T13:06:48Z</time>
      </trkpt>
      <trkpt lat="46.83628" lon="4.71391">
        <ele>270.34512329102</ele>
        <time>2021-05-23T13:06:52Z</time>
      </trkpt>
      <trkpt lat="46.83646" lon="4.71399">
        <ele>266.34582519531</ele>
        <time>2021-05-23T13:06:56Z</time>
      </trkpt>
      <trkpt lat="46.8366" lon="4.71412">
        <ele>261.3464050293</ele>
        <time>2021-05-23T13:07:01Z</time>
      </trkpt>
      <trkpt lat="46.83664" lon="4.71452">
        <ele>258.34658813477</ele>
        <time>2021-05-23T13:07:06Z</time>
      </trkpt>
      <trkpt lat="46.83666" lon="4.7149">
        <ele>254.34664916992</ele>
        <time>2021-05-23T13:07:10Z</time>
      </trkpt>
      <trkpt lat="46.83657" lon="4.71537">
        <ele>250.34629821777</ele>
        <time>2021-05-23T13:07:15Z</time>
      </trkpt>
      <trkpt lat="46.83646" lon="4.71574">
        <ele>248.34582519531</ele>
        <time>2021-05-23T13:07:19Z</time>
      </trkpt>
      <trkpt lat="46.83637" lon="4.71621">
        <ele>244.34547424316</ele>
        <time>2021-05-23T13:07:23Z</time>
      </trkpt>
      <trkpt lat="46.83625" lon="4.71665">
        <ele>241.3450012207</ele>
        <time>2021-05-23T13:07:27Z</time>
      </trkpt>
      <trkpt lat="46.83627" lon="4.71695">
        <ele>239.34509277344</ele>
        <time>2021-05-23T13:07:32Z</time>
      </trkpt>
      <trkpt lat="46.83637" lon="4.71694">
        <ele>238.34548950195</ele>
        <time>2021-05-23T13:07:36Z</time>
      </trkpt>
      <trkpt lat="46.83642" lon="4.71685">
        <ele>239.34568786621</ele>
        <time>2021-05-23T13:07:40Z</time>
      </trkpt>
      <trkpt lat="46.83636" lon="4.7169">
        <ele>238.34545898438</ele>
        <time>2021-05-23T13:07:49Z</time>
      </trkpt>
      <trkpt lat="46.83637" lon="4.7171">
        <ele>236.34548950195</ele>
        <time>2021-05-23T13:07:54Z</time>
      </trkpt>
      <trkpt lat="46.83644" lon="4.71716">
        <ele>236.34577941894</ele>
        <time>2021-05-23T13:07:59Z</time>
      </trkpt>
      <trkpt lat="46.83639" lon="4.71721">
        <ele>236.34555053711</ele>
        <time>2021-05-23T13:08:08Z</time>
      </trkpt>
      <trkpt lat="46.83629" lon="4.71732">
        <ele>232.34516906738</ele>
        <time>2021-05-23T13:08:12Z</time>
      </trkpt>
      <trkpt lat="46.83622" lon="4.71746">
        <ele>233.3448638916</ele>
        <time>2021-05-23T13:08:17Z</time>
      </trkpt>
      <trkpt lat="46.83617" lon="4.71755">
        <ele>234.34468078613</ele>
        <time>2021-05-23T13:08:22Z</time>
      </trkpt>
      <trkpt lat="46.83623" lon="4.71746">
        <ele>234.34490966797</ele>
        <time>2021-05-23T13:08:34Z</time>
      </trkpt>
      <trkpt lat="46.8363" lon="4.71735">
        <ele>234.34518432617</ele>
        <time>2021-05-23T13:08:39Z</time>
      </trkpt>
      <trkpt lat="46.83636" lon="4.71727">
        <ele>234.3454284668</ele>
        <time>2021-05-23T13:08:44Z</time>
      </trkpt>
      <trkpt lat="46.83643" lon="4.71719">
        <ele>235.34568786621</ele>
        <time>2021-05-23T13:08:49Z</time>
      </trkpt>
      <trkpt lat="46.83651" lon="4.71714">
        <ele>235.34602355957</ele>
        <time>2021-05-23T13:09:54Z</time>
      </trkpt>
      <trkpt lat="46.83664" lon="4.71715">
        <ele>237.34655761719</ele>
        <time>2021-05-23T13:09:58Z</time>
      </trkpt>
      <trkpt lat="46.8368" lon="4.71724">
        <ele>237.34719848633</ele>
        <time>2021-05-23T13:10:03Z</time>
      </trkpt>
      <trkpt lat="46.83689" lon="4.71735">
        <ele>237.34757995606</ele>
        <time>2021-05-23T13:10:07Z</time>
      </trkpt>
      <trkpt lat="46.83699" lon="4.71745">
        <ele>237.34794616699</ele>
        <time>2021-05-23T13:10:11Z</time>
      </trkpt>
      <trkpt lat="46.83707" lon="4.71755">
        <ele>240.34829711914</ele>
        <time>2021-05-23T13:10:15Z</time>
      </trkpt>
      <trkpt lat="46.83716" lon="4.71765">
        <ele>240.3486328125</ele>
        <time>2021-05-23T13:10:19Z</time>
      </trkpt>
      <trkpt lat="46.83727" lon="4.7177">
        <ele>234.34907531738</ele>
        <time>2021-05-23T13:10:24Z</time>
      </trkpt>
      <trkpt lat="46.83738" lon="4.7178">
        <ele>239.34951782227</ele>
        <time>2021-05-23T13:10:29Z</time>
      </trkpt>
      <trkpt lat="46.83747" lon="4.71786">
        <ele>234.3498840332</ele>
        <time>2021-05-23T13:10:33Z</time>
      </trkpt>
      <trkpt lat="46.83756" lon="4.71791">
        <ele>234.35025024414</ele>
        <time>2021-05-23T13:10:37Z</time>
      </trkpt>
      <trkpt lat="46.83765" lon="4.718">
        <ele>235.3505859375</ele>
        <time>2021-05-23T13:10:41Z</time>
      </trkpt>
      <trkpt lat="46.83777" lon="4.71811">
        <ele>236.35107421875</ele>
        <time>2021-05-23T13:10:46Z</time>
      </trkpt>
      <trkpt lat="46.83788" lon="4.71817">
        <ele>238.35150146484</ele>
        <time>2021-05-23T13:10:50Z</time>
      </trkpt>
      <trkpt lat="46.83797" lon="4.7183">
        <ele>238.35189819336</ele>
        <time>2021-05-23T13:10:54Z</time>
      </trkpt>
      <trkpt lat="46.83803" lon="4.71836">
        <ele>237.35212707519</ele>
        <time>2021-05-23T13:10:58Z</time>
      </trkpt>
      <trkpt lat="46.83821" lon="4.71843">
        <ele>236.35284423828</ele>
        <time>2021-05-23T13:11:03Z</time>
      </trkpt>
      <trkpt lat="46.83833" lon="4.71848">
        <ele>236.35330200195</ele>
        <time>2021-05-23T13:11:07Z</time>
      </trkpt>
      <trkpt lat="46.83842" lon="4.71853">
        <ele>236.35369873047</ele>
        <time>2021-05-23T13:11:11Z</time>
      </trkpt>
      <trkpt lat="46.83848" lon="4.71865">
        <ele>242.35392761231</ele>
        <time>2021-05-23T13:11:15Z</time>
      </trkpt>
      <trkpt lat="46.83859" lon="4.71866">
        <ele>243.3543548584</ele>
        <time>2021-05-23T13:11:20Z</time>
      </trkpt>
      <trkpt lat="46.83867" lon="4.71869">
        <ele>243.35467529297</ele>
        <time>2021-05-23T13:11:24Z</time>
      </trkpt>
      <trkpt lat="46.83876" lon="4.71875">
        <ele>241.35504150391</ele>
        <time>2021-05-23T13:11:28Z</time>
      </trkpt>
      <trkpt lat="46.8389" lon="4.71881">
        <ele>241.3556060791</ele>
        <time>2021-05-23T13:11:33Z</time>
      </trkpt>
      <trkpt lat="46.83901" lon="4.71888">
        <ele>240.35603332519</ele>
        <time>2021-05-23T13:11:37Z</time>
      </trkpt>
      <trkpt lat="46.83908" lon="4.71895">
        <ele>240.35633850098</ele>
        <time>2021-05-23T13:11:42Z</time>
      </trkpt>
      <trkpt lat="46.83917" lon="4.71898">
        <ele>242.35667419434</ele>
        <time>2021-05-23T13:11:47Z</time>
      </trkpt>
      <trkpt lat="46.8393" lon="4.71904">
        <ele>241.35719299316</ele>
        <time>2021-05-23T13:11:52Z</time>
      </trkpt>
      <trkpt lat="46.8394" lon="4.71915">
        <ele>243.35760498047</ele>
        <time>2021-05-23T13:11:57Z</time>
      </trkpt>
      <trkpt lat="46.83944" lon="4.71935">
        <ele>246.35775756836</ele>
        <time>2021-05-23T13:12:01Z</time>
      </trkpt>
      <trkpt lat="46.83948" lon="4.71958">
        <ele>247.35791015625</ele>
        <time>2021-05-23T13:12:05Z</time>
      </trkpt>
      <trkpt lat="46.83953" lon="4.71983">
        <ele>248.35813903809</ele>
        <time>2021-05-23T13:12:10Z</time>
      </trkpt>
      <trkpt lat="46.83953" lon="4.71999">
        <ele>256.3581237793</ele>
        <time>2021-05-23T13:12:14Z</time>
      </trkpt>
      <trkpt lat="46.83952" lon="4.72022">
        <ele>261.35809326172</ele>
        <time>2021-05-23T13:12:19Z</time>
      </trkpt>
      <trkpt lat="46.8395" lon="4.72047">
        <ele>261.35797119141</ele>
        <time>2021-05-23T13:12:23Z</time>
      </trkpt>
      <trkpt lat="46.83947" lon="4.72073">
        <ele>260.35791015625</ele>
        <time>2021-05-23T13:12:27Z</time>
      </trkpt>
      <trkpt lat="46.83944" lon="4.72103">
        <ele>259.35775756836</ele>
        <time>2021-05-23T13:12:32Z</time>
      </trkpt>
      <trkpt lat="46.83942" lon="4.72127">
        <ele>258.35766601562</ele>
        <time>2021-05-23T13:12:36Z</time>
      </trkpt>
      <trkpt lat="46.83939" lon="4.72156">
        <ele>258.35757446289</ele>
        <time>2021-05-23T13:12:41Z</time>
      </trkpt>
      <trkpt lat="46.83936" lon="4.72172">
        <ele>261.35745239258</ele>
        <time>2021-05-23T13:12:45Z</time>
      </trkpt>
      <trkpt lat="46.83936" lon="4.72189">
        <ele>262.357421875</ele>
        <time>2021-05-23T13:12:49Z</time>
      </trkpt>
      <trkpt lat="46.83933" lon="4.72207">
        <ele>266.35733032227</ele>
        <time>2021-05-23T13:12:53Z</time>
      </trkpt>
      <trkpt lat="46.83932" lon="4.72222">
        <ele>266.35726928711</ele>
        <time>2021-05-23T13:12:57Z</time>
      </trkpt>
      <trkpt lat="46.83933" lon="4.72212">
        <ele>259.35729980469</ele>
        <time>2021-05-23T13:16:24Z</time>
      </trkpt>
      <trkpt lat="46.83934" lon="4.72197">
        <ele>259.35736083984</ele>
        <time>2021-05-23T13:16:28Z</time>
      </trkpt>
      <trkpt lat="46.83933" lon="4.7218">
        <ele>263.35733032227</ele>
        <time>2021-05-23T13:16:32Z</time>
      </trkpt>
      <trkpt lat="46.83933" lon="4.72157">
        <ele>260.35733032227</ele>
        <time>2021-05-23T13:16:36Z</time>
      </trkpt>
      <trkpt lat="46.8394" lon="4.72138">
        <ele>261.35757446289</ele>
        <time>2021-05-23T13:16:40Z</time>
      </trkpt>
      <trkpt lat="46.83942" lon="4.72126">
        <ele>260.35766601562</ele>
        <time>2021-05-23T13:16:44Z</time>
      </trkpt>
      <trkpt lat="46.83943" lon="4.7211">
        <ele>260.35772705078</ele>
        <time>2021-05-23T13:16:49Z</time>
      </trkpt>
      <trkpt lat="46.83945" lon="4.72095">
        <ele>258.35778808594</ele>
        <time>2021-05-23T13:16:53Z</time>
      </trkpt>
      <trkpt lat="46.83947" lon="4.72076">
        <ele>259.35791015625</ele>
        <time>2021-05-23T13:16:58Z</time>
      </trkpt>
      <trkpt lat="46.83949" lon="4.7206">
        <ele>260.35794067383</ele>
        <time>2021-05-23T13:17:02Z</time>
      </trkpt>
      <trkpt lat="46.8395" lon="4.7204">
        <ele>259.35800170898</ele>
        <time>2021-05-23T13:17:07Z</time>
      </trkpt>
      <trkpt lat="46.83952" lon="4.72025">
        <ele>259.35806274414</ele>
        <time>2021-05-23T13:17:11Z</time>
      </trkpt>
      <trkpt lat="46.83954" lon="4.72005">
        <ele>261.35815429688</ele>
        <time>2021-05-23T13:17:16Z</time>
      </trkpt>
      <trkpt lat="46.83954" lon="4.71987">
        <ele>261.35815429688</ele>
        <time>2021-05-23T13:17:20Z</time>
      </trkpt>
      <trkpt lat="46.8395" lon="4.71965">
        <ele>261.35800170898</ele>
        <time>2021-05-23T13:17:24Z</time>
      </trkpt>
      <trkpt lat="46.83945" lon="4.71942">
        <ele>259.35781860352</ele>
        <time>2021-05-23T13:17:28Z</time>
      </trkpt>
      <trkpt lat="46.83942" lon="4.71913">
        <ele>256.35766601562</ele>
        <time>2021-05-23T13:17:33Z</time>
      </trkpt>
      <trkpt lat="46.83943" lon="4.71896">
        <ele>257.35772705078</ele>
        <time>2021-05-23T13:17:37Z</time>
      </trkpt>
      <trkpt lat="46.83949" lon="4.71875">
        <ele>255.35795593262</ele>
        <time>2021-05-23T13:17:41Z</time>
      </trkpt>
      <trkpt lat="46.83954" lon="4.71838">
        <ele>256.35818481445</ele>
        <time>2021-05-23T13:17:46Z</time>
      </trkpt>
      <trkpt lat="46.83958" lon="4.71803">
        <ele>256.35833740234</ele>
        <time>2021-05-23T13:17:51Z</time>
      </trkpt>
      <trkpt lat="46.83963" lon="4.71775">
        <ele>257.35848999023</ele>
        <time>2021-05-23T13:17:55Z</time>
      </trkpt>
      <trkpt lat="46.83968" lon="4.71744">
        <ele>256.35870361328</ele>
        <time>2021-05-23T13:18:00Z</time>
      </trkpt>
      <trkpt lat="46.83973" lon="4.71718">
        <ele>258.35888671875</ele>
        <time>2021-05-23T13:18:05Z</time>
      </trkpt>
      <trkpt lat="46.83977" lon="4.71697">
        <ele>257.35906982422</ele>
        <time>2021-05-23T13:18:09Z</time>
      </trkpt>
      <trkpt lat="46.83981" lon="4.71677">
        <ele>257.35922241211</ele>
        <time>2021-05-23T13:18:13Z</time>
      </trkpt>
      <trkpt lat="46.83983" lon="4.71656">
        <ele>259.35934448242</ele>
        <time>2021-05-23T13:18:18Z</time>
      </trkpt>
      <trkpt lat="46.83983" lon="4.71638">
        <ele>259.35931396484</ele>
        <time>2021-05-23T13:18:22Z</time>
      </trkpt>
      <trkpt lat="46.83984" lon="4.71619">
        <ele>257.35934448242</ele>
        <time>2021-05-23T13:18:26Z</time>
      </trkpt>
      <trkpt lat="46.83985" lon="4.716">
        <ele>258.35940551758</ele>
        <time>2021-05-23T13:18:30Z</time>
      </trkpt>
      <trkpt lat="46.83991" lon="4.71573">
        <ele>255.3596496582</ele>
        <time>2021-05-23T13:18:35Z</time>
      </trkpt>
      <trkpt lat="46.83998" lon="4.71545">
        <ele>255.35993957519</ele>
        <time>2021-05-23T13:18:39Z</time>
      </trkpt>
      <trkpt lat="46.84005" lon="4.7152">
        <ele>254.36019897461</ele>
        <time>2021-05-23T13:18:43Z</time>
      </trkpt>
      <trkpt lat="46.84009" lon="4.71496">
        <ele>255.36036682129</ele>
        <time>2021-05-23T13:18:48Z</time>
      </trkpt>
      <trkpt lat="46.84013" lon="4.71485">
        <ele>253.36051940918</ele>
        <time>2021-05-23T13:19:28Z</time>
      </trkpt>
      <trkpt lat="46.84019" lon="4.71478">
        <ele>259.36077880859</ele>
        <time>2021-05-23T13:19:34Z</time>
      </trkpt>
      <trkpt lat="46.84026" lon="4.71471">
        <ele>258.36102294922</ele>
        <time>2021-05-23T13:19:38Z</time>
      </trkpt>
      <trkpt lat="46.84034" lon="4.71463">
        <ele>262.361328125</ele>
        <time>2021-05-23T13:19:43Z</time>
      </trkpt>
      <trkpt lat="46.84042" lon="4.71451">
        <ele>258.36166381836</ele>
        <time>2021-05-23T13:19:48Z</time>
      </trkpt>
      <trkpt lat="46.84052" lon="4.71446">
        <ele>257.36206054688</ele>
        <time>2021-05-23T13:19:52Z</time>
      </trkpt>
      <trkpt lat="46.84061" lon="4.71441">
        <ele>259.36245727539</ele>
        <time>2021-05-23T13:19:56Z</time>
      </trkpt>
      <trkpt lat="46.8407" lon="4.71438">
        <ele>261.36279296875</ele>
        <time>2021-05-23T13:20:00Z</time>
      </trkpt>
      <trkpt lat="46.8408" lon="4.71437">
        <ele>259.36318969727</ele>
        <time>2021-05-23T13:20:05Z</time>
      </trkpt>
      <trkpt lat="46.84088" lon="4.71436">
        <ele>260.36352539062</ele>
        <time>2021-05-23T13:20:09Z</time>
      </trkpt>
      <trkpt lat="46.84098" lon="4.71431">
        <ele>262.36395263672</ele>
        <time>2021-05-23T13:20:13Z</time>
      </trkpt>
      <trkpt lat="46.8411" lon="4.71427">
        <ele>264.36437988281</ele>
        <time>2021-05-23T13:20:17Z</time>
      </trkpt>
      <trkpt lat="46.84122" lon="4.71424">
        <ele>263.36489868164</ele>
        <time>2021-05-23T13:20:21Z</time>
      </trkpt>
      <trkpt lat="46.84136" lon="4.7142">
        <ele>260.36541748047</ele>
        <time>2021-05-23T13:20:26Z</time>
      </trkpt>
      <trkpt lat="46.84146" lon="4.71412">
        <ele>256.36587524414</ele>
        <time>2021-05-23T13:20:31Z</time>
      </trkpt>
      <trkpt lat="46.84157" lon="4.71406">
        <ele>258.36627197266</ele>
        <time>2021-05-23T13:20:35Z</time>
      </trkpt>
      <trkpt lat="46.84172" lon="4.71401">
        <ele>255.36686706543</ele>
        <time>2021-05-23T13:20:40Z</time>
      </trkpt>
      <trkpt lat="46.84185" lon="4.71397">
        <ele>259.36740112305</ele>
        <time>2021-05-23T13:20:44Z</time>
      </trkpt>
      <trkpt lat="46.84196" lon="4.71391">
        <ele>260.36782836914</ele>
        <time>2021-05-23T13:20:48Z</time>
      </trkpt>
      <trkpt lat="46.84206" lon="4.71386">
        <ele>259.36825561523</ele>
        <time>2021-05-23T13:20:52Z</time>
      </trkpt>
      <trkpt lat="46.84225" lon="4.71381">
        <ele>258.36901855469</ele>
        <time>2021-05-23T13:20:57Z</time>
      </trkpt>
      <trkpt lat="46.84241" lon="4.71378">
        <ele>260.36965942383</ele>
        <time>2021-05-23T13:21:01Z</time>
      </trkpt>
      <trkpt lat="46.84257" lon="4.71373">
        <ele>261.37026977539</ele>
        <time>2021-05-23T13:21:05Z</time>
      </trkpt>
      <trkpt lat="46.84275" lon="4.71368">
        <ele>260.37100219727</ele>
        <time>2021-05-23T13:21:10Z</time>
      </trkpt>
      <trkpt lat="46.84288" lon="4.71365">
        <ele>260.37152099609</ele>
        <time>2021-05-23T13:21:14Z</time>
      </trkpt>
      <trkpt lat="46.84304" lon="4.71361">
        <ele>261.37216186523</ele>
        <time>2021-05-23T13:21:19Z</time>
      </trkpt>
      <trkpt lat="46.84321" lon="4.71358">
        <ele>262.37283325195</ele>
        <time>2021-05-23T13:21:24Z</time>
      </trkpt>
      <trkpt lat="46.84339" lon="4.71354">
        <ele>266.37356567383</ele>
        <time>2021-05-23T13:21:29Z</time>
      </trkpt>
      <trkpt lat="46.84353" lon="4.71349">
        <ele>270.37411499023</ele>
        <time>2021-05-23T13:21:33Z</time>
      </trkpt>
      <trkpt lat="46.84369" lon="4.71344">
        <ele>272.37478637695</ele>
        <time>2021-05-23T13:21:38Z</time>
      </trkpt>
      <trkpt lat="46.84381" lon="4.71341">
        <ele>272.37524414062</ele>
        <time>2021-05-23T13:21:42Z</time>
      </trkpt>
      <trkpt lat="46.84396" lon="4.71336">
        <ele>274.37585449219</ele>
        <time>2021-05-23T13:21:47Z</time>
      </trkpt>
      <trkpt lat="46.8441" lon="4.71329">
        <ele>276.37640380859</ele>
        <time>2021-05-23T13:21:52Z</time>
      </trkpt>
      <trkpt lat="46.84422" lon="4.71325">
        <ele>273.37689208984</ele>
        <time>2021-05-23T13:21:56Z</time>
      </trkpt>
      <trkpt lat="46.84435" lon="4.71321">
        <ele>273.37738037109</ele>
        <time>2021-05-23T13:22:00Z</time>
      </trkpt>
      <trkpt lat="46.84448" lon="4.71318">
        <ele>276.37789916992</ele>
        <time>2021-05-23T13:22:04Z</time>
      </trkpt>
      <trkpt lat="46.84464" lon="4.71314">
        <ele>277.37854003906</ele>
        <time>2021-05-23T13:22:09Z</time>
      </trkpt>
      <trkpt lat="46.84477" lon="4.71311">
        <ele>276.37908935547</ele>
        <time>2021-05-23T13:22:13Z</time>
      </trkpt>
      <trkpt lat="46.84494" lon="4.71307">
        <ele>277.37979125977</ele>
        <time>2021-05-23T13:22:18Z</time>
      </trkpt>
      <trkpt lat="46.8451" lon="4.71302">
        <ele>275.38040161133</ele>
        <time>2021-05-23T13:22:23Z</time>
      </trkpt>
      <trkpt lat="46.84523" lon="4.71294">
        <ele>277.38088989258</ele>
        <time>2021-05-23T13:22:27Z</time>
      </trkpt>
      <trkpt lat="46.84535" lon="4.71286">
        <ele>280.38140869141</ele>
        <time>2021-05-23T13:22:31Z</time>
      </trkpt>
      <trkpt lat="46.84551" lon="4.7128">
        <ele>280.38204956055</ele>
        <time>2021-05-23T13:22:36Z</time>
      </trkpt>
      <trkpt lat="46.84563" lon="4.71273">
        <ele>283.3825378418</ele>
        <time>2021-05-23T13:22:40Z</time>
      </trkpt>
      <trkpt lat="46.84575" lon="4.71264">
        <ele>280.38299560547</ele>
        <time>2021-05-23T13:22:44Z</time>
      </trkpt>
      <trkpt lat="46.84587" lon="4.71257">
        <ele>281.38348388672</ele>
        <time>2021-05-23T13:22:48Z</time>
      </trkpt>
      <trkpt lat="46.846" lon="4.71246">
        <ele>283.38397216797</ele>
        <time>2021-05-23T13:22:52Z</time>
      </trkpt>
      <trkpt lat="46.84611" lon="4.71234">
        <ele>285.38442993164</ele>
        <time>2021-05-23T13:22:56Z</time>
      </trkpt>
      <trkpt lat="46.84619" lon="4.7121">
        <ele>289.384765625</ele>
        <time>2021-05-23T13:23:01Z</time>
      </trkpt>
      <trkpt lat="46.84623" lon="4.71189">
        <ele>291.38491821289</ele>
        <time>2021-05-23T13:23:05Z</time>
      </trkpt>
      <trkpt lat="46.84626" lon="4.71167">
        <ele>293.38500976562</ele>
        <time>2021-05-23T13:23:09Z</time>
      </trkpt>
      <trkpt lat="46.84626" lon="4.7114">
        <ele>293.3850402832</ele>
        <time>2021-05-23T13:23:14Z</time>
      </trkpt>
      <trkpt lat="46.84622" lon="4.71114">
        <ele>295.38488769531</ele>
        <time>2021-05-23T13:23:19Z</time>
      </trkpt>
      <trkpt lat="46.84619" lon="4.71093">
        <ele>295.38473510742</ele>
        <time>2021-05-23T13:23:23Z</time>
      </trkpt>
      <trkpt lat="46.84621" lon="4.71082">
        <ele>295.38482666016</ele>
        <time>2021-05-23T13:23:28Z</time>
      </trkpt>
      <trkpt lat="46.84621" lon="4.71066">
        <ele>300.38482666016</ele>
        <time>2021-05-23T13:23:33Z</time>
      </trkpt>
      <trkpt lat="46.84621" lon="4.71049">
        <ele>297.38482666016</ele>
        <time>2021-05-23T13:23:37Z</time>
      </trkpt>
      <trkpt lat="46.84619" lon="4.7103">
        <ele>297.38473510742</ele>
        <time>2021-05-23T13:23:41Z</time>
      </trkpt>
      <trkpt lat="46.84618" lon="4.71008">
        <ele>302.38473510742</ele>
        <time>2021-05-23T13:23:46Z</time>
      </trkpt>
      <trkpt lat="46.84621" lon="4.70992">
        <ele>302.38485717773</ele>
        <time>2021-05-23T13:23:51Z</time>
      </trkpt>
      <trkpt lat="46.84618" lon="4.70974">
        <ele>300.38473510742</ele>
        <time>2021-05-23T13:23:55Z</time>
      </trkpt>
      <trkpt lat="46.8462" lon="4.70962">
        <ele>306.38479614258</ele>
        <time>2021-05-23T13:24:43Z</time>
      </trkpt>
      <trkpt lat="46.8462" lon="4.70942">
        <ele>310.384765625</ele>
        <time>2021-05-23T13:24:48Z</time>
      </trkpt>
      <trkpt lat="46.84618" lon="4.70927">
        <ele>312.38470458984</ele>
        <time>2021-05-23T13:24:52Z</time>
      </trkpt>
      <trkpt lat="46.8462" lon="4.70913">
        <ele>312.38482666016</ele>
        <time>2021-05-23T13:24:57Z</time>
      </trkpt>
      <trkpt lat="46.84629" lon="4.70912">
        <ele>311.38516235352</ele>
        <time>2021-05-23T13:26:54Z</time>
      </trkpt>
      <trkpt lat="46.84647" lon="4.7091">
        <ele>309.38586425781</ele>
        <time>2021-05-23T13:26:59Z</time>
      </trkpt>
      <trkpt lat="46.84669" lon="4.70897">
        <ele>308.38677978516</ele>
        <time>2021-05-23T13:27:03Z</time>
      </trkpt>
      <trkpt lat="46.84689" lon="4.70875">
        <ele>308.38754272461</ele>
        <time>2021-05-23T13:27:07Z</time>
      </trkpt>
      <trkpt lat="46.84724" lon="4.70846">
        <ele>303.3889465332</ele>
        <time>2021-05-23T13:27:12Z</time>
      </trkpt>
      <trkpt lat="46.84754" lon="4.7082">
        <ele>299.39016723633</ele>
        <time>2021-05-23T13:27:16Z</time>
      </trkpt>
      <trkpt lat="46.84796" lon="4.70786">
        <ele>296.39184570312</ele>
        <time>2021-05-23T13:27:21Z</time>
      </trkpt>
      <trkpt lat="46.8483" lon="4.70731">
        <ele>291.39318847656</ele>
        <time>2021-05-23T13:27:26Z</time>
      </trkpt>
      <trkpt lat="46.84859" lon="4.707">
        <ele>291.39437866211</ele>
        <time>2021-05-23T13:27:30Z</time>
      </trkpt>
      <trkpt lat="46.84893" lon="4.70677">
        <ele>290.39572143555</ele>
        <time>2021-05-23T13:27:35Z</time>
      </trkpt>
      <trkpt lat="46.84912" lon="4.70656">
        <ele>290.396484375</ele>
        <time>2021-05-23T13:27:39Z</time>
      </trkpt>
      <trkpt lat="46.84944" lon="4.7064">
        <ele>291.39776611328</ele>
        <time>2021-05-23T13:27:44Z</time>
      </trkpt>
      <trkpt lat="46.84975" lon="4.7064">
        <ele>289.39901733398</ele>
        <time>2021-05-23T13:27:48Z</time>
      </trkpt>
      <trkpt lat="46.85011" lon="4.70657">
        <ele>287.40045166016</ele>
        <time>2021-05-23T13:27:53Z</time>
      </trkpt>
      <trkpt lat="46.85037" lon="4.70672">
        <ele>287.40148925781</ele>
        <time>2021-05-23T13:27:57Z</time>
      </trkpt>
      <trkpt lat="46.8507" lon="4.707">
        <ele>284.40277099609</ele>
        <time>2021-05-23T13:28:01Z</time>
      </trkpt>
      <trkpt lat="46.85115" lon="4.70727">
        <ele>279.40460205078</ele>
        <time>2021-05-23T13:28:05Z</time>
      </trkpt>
      <trkpt lat="46.85169" lon="4.70744">
        <ele>274.40676879883</ele>
        <time>2021-05-23T13:28:10Z</time>
      </trkpt>
      <trkpt lat="46.85201" lon="4.70753">
        <ele>278.40805053711</ele>
        <time>2021-05-23T13:28:15Z</time>
      </trkpt>
      <trkpt lat="46.85223" lon="4.70745">
        <ele>278.40893554688</ele>
        <time>2021-05-23T13:28:19Z</time>
      </trkpt>
      <trkpt lat="46.8526" lon="4.70737">
        <ele>281.41036987305</ele>
        <time>2021-05-23T13:28:24Z</time>
      </trkpt>
      <trkpt lat="46.85284" lon="4.70736">
        <ele>283.41134643555</ele>
        <time>2021-05-23T13:28:28Z</time>
      </trkpt>
      <trkpt lat="46.85307" lon="4.70742">
        <ele>284.41229248047</ele>
        <time>2021-05-23T13:28:33Z</time>
      </trkpt>
      <trkpt lat="46.8532" lon="4.70741">
        <ele>285.4128112793</ele>
        <time>2021-05-23T13:28:37Z</time>
      </trkpt>
      <trkpt lat="46.85318" lon="4.7073">
        <ele>282.41271972656</ele>
        <time>2021-05-23T13:29:29Z</time>
      </trkpt>
      <trkpt lat="46.85318" lon="4.70707">
        <ele>283.41271972656</ele>
        <time>2021-05-23T13:29:34Z</time>
      </trkpt>
      <trkpt lat="46.85305" lon="4.7067">
        <ele>282.41220092773</ele>
        <time>2021-05-23T13:29:39Z</time>
      </trkpt>
      <trkpt lat="46.85286" lon="4.70642">
        <ele>282.41143798828</ele>
        <time>2021-05-23T13:29:43Z</time>
      </trkpt>
      <trkpt lat="46.85259" lon="4.70602">
        <ele>280.41036987305</ele>
        <time>2021-05-23T13:29:48Z</time>
      </trkpt>
      <trkpt lat="46.85244" lon="4.7057">
        <ele>280.40975952148</ele>
        <time>2021-05-23T13:29:52Z</time>
      </trkpt>
      <trkpt lat="46.85229" lon="4.70537">
        <ele>280.40914916992</ele>
        <time>2021-05-23T13:29:56Z</time>
      </trkpt>
      <trkpt lat="46.85213" lon="4.70507">
        <ele>277.40853881836</ele>
        <time>2021-05-23T13:30:01Z</time>
      </trkpt>
      <trkpt lat="46.85201" lon="4.70483">
        <ele>277.40802001953</ele>
        <time>2021-05-23T13:30:05Z</time>
      </trkpt>
      <trkpt lat="46.85187" lon="4.70458">
        <ele>276.40747070312</ele>
        <time>2021-05-23T13:30:09Z</time>
      </trkpt>
      <trkpt lat="46.85176" lon="4.70437">
        <ele>275.40704345703</ele>
        <time>2021-05-23T13:30:13Z</time>
      </trkpt>
      <trkpt lat="46.85165" lon="4.70422">
        <ele>273.40661621094</ele>
        <time>2021-05-23T13:30:17Z</time>
      </trkpt>
      <trkpt lat="46.85149" lon="4.70398">
        <ele>272.40594482422</ele>
        <time>2021-05-23T13:30:22Z</time>
      </trkpt>
      <trkpt lat="46.85136" lon="4.70381">
        <ele>273.40545654297</ele>
        <time>2021-05-23T13:30:27Z</time>
      </trkpt>
      <trkpt lat="46.85122" lon="4.70362">
        <ele>273.40487670898</ele>
        <time>2021-05-23T13:30:31Z</time>
      </trkpt>
      <trkpt lat="46.85108" lon="4.70343">
        <ele>273.40432739258</ele>
        <time>2021-05-23T13:30:36Z</time>
      </trkpt>
      <trkpt lat="46.85093" lon="4.70321">
        <ele>273.40371704102</ele>
        <time>2021-05-23T13:30:40Z</time>
      </trkpt>
      <trkpt lat="46.85086" lon="4.70306">
        <ele>274.40344238281</ele>
        <time>2021-05-23T13:30:44Z</time>
      </trkpt>
      <trkpt lat="46.85076" lon="4.70286">
        <ele>270.4030456543</ele>
        <time>2021-05-23T13:30:49Z</time>
      </trkpt>
      <trkpt lat="46.85073" lon="4.70266">
        <ele>272.40292358398</ele>
        <time>2021-05-23T13:30:53Z</time>
      </trkpt>
      <trkpt lat="46.85072" lon="4.70246">
        <ele>273.40286254883</ele>
        <time>2021-05-23T13:30:58Z</time>
      </trkpt>
      <trkpt lat="46.85071" lon="4.70225">
        <ele>276.40283203125</ele>
        <time>2021-05-23T13:31:03Z</time>
      </trkpt>
      <trkpt lat="46.85072" lon="4.70205">
        <ele>276.40289306641</ele>
        <time>2021-05-23T13:31:08Z</time>
      </trkpt>
      <trkpt lat="46.85073" lon="4.70192">
        <ele>280.40289306641</ele>
        <time>2021-05-23T13:31:12Z</time>
      </trkpt>
      <trkpt lat="46.85076" lon="4.70181">
        <ele>280.4030456543</ele>
        <time>2021-05-23T13:31:16Z</time>
      </trkpt>
      <trkpt lat="46.85078" lon="4.7017">
        <ele>279.40310668945</ele>
        <time>2021-05-23T13:31:20Z</time>
      </trkpt>
      <trkpt lat="46.8508" lon="4.70157">
        <ele>278.40316772461</ele>
        <time>2021-05-23T13:31:25Z</time>
      </trkpt>
      <trkpt lat="46.85082" lon="4.70139">
        <ele>278.40328979492</ele>
        <time>2021-05-23T13:31:30Z</time>
      </trkpt>
      <trkpt lat="46.85086" lon="4.70129">
        <ele>281.40344238281</ele>
        <time>2021-05-23T13:31:34Z</time>
      </trkpt>
      <trkpt lat="46.85085" lon="4.70112">
        <ele>280.40338134766</ele>
        <time>2021-05-23T13:31:38Z</time>
      </trkpt>
      <trkpt lat="46.85082" lon="4.70093">
        <ele>282.40325927734</ele>
        <time>2021-05-23T13:31:42Z</time>
      </trkpt>
      <trkpt lat="46.85077" lon="4.70078">
        <ele>288.40307617188</ele>
        <time>2021-05-23T13:31:47Z</time>
      </trkpt>
      <trkpt lat="46.85074" lon="4.70066">
        <ele>287.40295410156</ele>
        <time>2021-05-23T13:31:51Z</time>
      </trkpt>
      <trkpt lat="46.85073" lon="4.70048">
        <ele>287.40292358398</ele>
        <time>2021-05-23T13:31:56Z</time>
      </trkpt>
      <trkpt lat="46.85073" lon="4.70029">
        <ele>287.40292358398</ele>
        <time>2021-05-23T13:32:01Z</time>
      </trkpt>
      <trkpt lat="46.85075" lon="4.70014">
        <ele>286.40298461914</ele>
        <time>2021-05-23T13:32:05Z</time>
      </trkpt>
      <trkpt lat="46.85073" lon="4.70001">
        <ele>289.40295410156</ele>
        <time>2021-05-23T13:32:09Z</time>
      </trkpt>
      <trkpt lat="46.85069" lon="4.69986">
        <ele>292.40274047852</ele>
        <time>2021-05-23T13:32:13Z</time>
      </trkpt>
      <trkpt lat="46.85073" lon="4.69975">
        <ele>290.40289306641</ele>
        <time>2021-05-23T13:32:17Z</time>
      </trkpt>
      <trkpt lat="46.85072" lon="4.69958">
        <ele>289.40286254883</ele>
        <time>2021-05-23T13:32:22Z</time>
      </trkpt>
      <trkpt lat="46.85073" lon="4.69945">
        <ele>288.40295410156</ele>
        <time>2021-05-23T13:32:27Z</time>
      </trkpt>
      <trkpt lat="46.85072" lon="4.69933">
        <ele>290.40289306641</ele>
        <time>2021-05-23T13:32:32Z</time>
      </trkpt>
      <trkpt lat="46.85076" lon="4.69922">
        <ele>286.4030456543</ele>
        <time>2021-05-23T13:32:36Z</time>
      </trkpt>
      <trkpt lat="46.85078" lon="4.69906">
        <ele>283.40313720703</ele>
        <time>2021-05-23T13:32:41Z</time>
      </trkpt>
      <trkpt lat="46.85075" lon="4.69885">
        <ele>283.40298461914</ele>
        <time>2021-05-23T13:32:46Z</time>
      </trkpt>
      <trkpt lat="46.85075" lon="4.69868">
        <ele>291.40298461914</ele>
        <time>2021-05-23T13:32:50Z</time>
      </trkpt>
      <trkpt lat="46.85074" lon="4.69852">
        <ele>291.40298461914</ele>
        <time>2021-05-23T13:32:54Z</time>
      </trkpt>
      <trkpt lat="46.85078" lon="4.69841">
        <ele>291.40310668945</ele>
        <time>2021-05-23T13:32:58Z</time>
      </trkpt>
      <trkpt lat="46.85081" lon="4.69829">
        <ele>295.40325927734</ele>
        <time>2021-05-23T13:33:03Z</time>
      </trkpt>
      <trkpt lat="46.8508" lon="4.69815">
        <ele>296.40322875977</ele>
        <time>2021-05-23T13:33:07Z</time>
      </trkpt>
      <trkpt lat="46.85078" lon="4.698">
        <ele>299.40313720703</ele>
        <time>2021-05-23T13:33:11Z</time>
      </trkpt>
      <trkpt lat="46.85076" lon="4.69781">
        <ele>298.4030456543</ele>
        <time>2021-05-23T13:33:16Z</time>
      </trkpt>
      <trkpt lat="46.85075" lon="4.69765">
        <ele>299.40298461914</ele>
        <time>2021-05-23T13:33:21Z</time>
      </trkpt>
      <trkpt lat="46.85072" lon="4.69752">
        <ele>299.40286254883</ele>
        <time>2021-05-23T13:33:25Z</time>
      </trkpt>
      <trkpt lat="46.85067" lon="4.69738">
        <ele>304.40267944336</ele>
        <time>2021-05-23T13:33:29Z</time>
      </trkpt>
      <trkpt lat="46.85062" lon="4.69721">
        <ele>306.40249633789</ele>
        <time>2021-05-23T13:33:33Z</time>
      </trkpt>
      <trkpt lat="46.85057" lon="4.69705">
        <ele>307.40228271484</ele>
        <time>2021-05-23T13:33:37Z</time>
      </trkpt>
      <trkpt lat="46.85052" lon="4.69686">
        <ele>308.4020690918</ele>
        <time>2021-05-23T13:33:42Z</time>
      </trkpt>
      <trkpt lat="46.85046" lon="4.6967">
        <ele>309.40185546875</ele>
        <time>2021-05-23T13:33:47Z</time>
      </trkpt>
      <trkpt lat="46.85042" lon="4.69657">
        <ele>310.40167236328</ele>
        <time>2021-05-23T13:33:51Z</time>
      </trkpt>
      <trkpt lat="46.85036" lon="4.69641">
        <ele>310.40142822266</ele>
        <time>2021-05-23T13:33:56Z</time>
      </trkpt>
      <trkpt lat="46.85031" lon="4.69628">
        <ele>311.40124511719</ele>
        <time>2021-05-23T13:34:00Z</time>
      </trkpt>
      <trkpt lat="46.85025" lon="4.69611">
        <ele>312.40100097656</ele>
        <time>2021-05-23T13:34:05Z</time>
      </trkpt>
      <trkpt lat="46.8502" lon="4.69598">
        <ele>312.40081787109</ele>
        <time>2021-05-23T13:34:09Z</time>
      </trkpt>
      <trkpt lat="46.85016" lon="4.69579">
        <ele>313.40063476562</ele>
        <time>2021-05-23T13:34:14Z</time>
      </trkpt>
      <trkpt lat="46.85012" lon="4.69564">
        <ele>314.40048217773</ele>
        <time>2021-05-23T13:34:18Z</time>
      </trkpt>
      <trkpt lat="46.85009" lon="4.69549">
        <ele>315.40036010742</ele>
        <time>2021-05-23T13:34:22Z</time>
      </trkpt>
      <trkpt lat="46.85004" lon="4.6953">
        <ele>316.40017700195</ele>
        <time>2021-05-23T13:34:27Z</time>
      </trkpt>
      <trkpt lat="46.85001" lon="4.69515">
        <ele>317.40002441406</ele>
        <time>2021-05-23T13:34:31Z</time>
      </trkpt>
      <trkpt lat="46.84996" lon="4.69495">
        <ele>318.39984130859</ele>
        <time>2021-05-23T13:34:36Z</time>
      </trkpt>
      <trkpt lat="46.84993" lon="4.69475">
        <ele>319.39971923828</ele>
        <time>2021-05-23T13:34:41Z</time>
      </trkpt>
      <trkpt lat="46.8499" lon="4.6946">
        <ele>320.39959716797</ele>
        <time>2021-05-23T13:34:45Z</time>
      </trkpt>
      <trkpt lat="46.84986" lon="4.69441">
        <ele>321.39947509766</ele>
        <time>2021-05-23T13:34:50Z</time>
      </trkpt>
      <trkpt lat="46.84983" lon="4.69422">
        <ele>322.39932250977</ele>
        <time>2021-05-23T13:34:55Z</time>
      </trkpt>
      <trkpt lat="46.8498" lon="4.69407">
        <ele>323.39916992188</ele>
        <time>2021-05-23T13:34:59Z</time>
      </trkpt>
      <trkpt lat="46.84976" lon="4.6939">
        <ele>324.39904785156</ele>
        <time>2021-05-23T13:35:03Z</time>
      </trkpt>
      <trkpt lat="46.84973" lon="4.69374">
        <ele>325.39892578125</ele>
        <time>2021-05-23T13:35:07Z</time>
      </trkpt>
      <trkpt lat="46.84972" lon="4.69357">
        <ele>325.39886474609</ele>
        <time>2021-05-23T13:35:11Z</time>
      </trkpt>
      <trkpt lat="46.8497" lon="4.69336">
        <ele>326.39880371094</ele>
        <time>2021-05-23T13:35:16Z</time>
      </trkpt>
      <trkpt lat="46.8497" lon="4.69319">
        <ele>326.39880371094</ele>
        <time>2021-05-23T13:35:20Z</time>
      </trkpt>
      <trkpt lat="46.8497" lon="4.69303">
        <ele>327.39880371094</ele>
        <time>2021-05-23T13:35:24Z</time>
      </trkpt>
      <trkpt lat="46.84972" lon="4.69288">
        <ele>329.39886474609</ele>
        <time>2021-05-23T13:35:28Z</time>
      </trkpt>
      <trkpt lat="46.84975" lon="4.69274">
        <ele>330.39898681641</ele>
        <time>2021-05-23T13:35:32Z</time>
      </trkpt>
      <trkpt lat="46.84975" lon="4.69258">
        <ele>330.39901733398</ele>
        <time>2021-05-23T13:35:36Z</time>
      </trkpt>
      <trkpt lat="46.84978" lon="4.69239">
        <ele>330.39910888672</ele>
        <time>2021-05-23T13:35:41Z</time>
      </trkpt>
      <trkpt lat="46.8498" lon="4.69225">
        <ele>328.39916992188</ele>
        <time>2021-05-23T13:35:45Z</time>
      </trkpt>
      <trkpt lat="46.84983" lon="4.69207">
        <ele>328.39932250977</ele>
        <time>2021-05-23T13:35:50Z</time>
      </trkpt>
      <trkpt lat="46.84985" lon="4.69192">
        <ele>328.3994140625</ele>
        <time>2021-05-23T13:35:54Z</time>
      </trkpt>
      <trkpt lat="46.84988" lon="4.69176">
        <ele>329.39953613281</ele>
        <time>2021-05-23T13:35:58Z</time>
      </trkpt>
      <trkpt lat="46.84992" lon="4.69156">
        <ele>331.3996887207</ele>
        <time>2021-05-23T13:36:03Z</time>
      </trkpt>
      <trkpt lat="46.84993" lon="4.69136">
        <ele>333.39974975586</ele>
        <time>2021-05-23T13:36:08Z</time>
      </trkpt>
      <trkpt lat="46.84993" lon="4.6912">
        <ele>333.39971923828</ele>
        <time>2021-05-23T13:36:12Z</time>
      </trkpt>
      <trkpt lat="46.84991" lon="4.69105">
        <ele>334.39962768555</ele>
        <time>2021-05-23T13:36:16Z</time>
      </trkpt>
      <trkpt lat="46.84986" lon="4.69091">
        <ele>336.39944458008</ele>
        <time>2021-05-23T13:36:20Z</time>
      </trkpt>
      <trkpt lat="46.84979" lon="4.69075">
        <ele>337.3991394043</ele>
        <time>2021-05-23T13:36:25Z</time>
      </trkpt>
      <trkpt lat="46.84973" lon="4.69062">
        <ele>338.39889526367</ele>
        <time>2021-05-23T13:36:29Z</time>
      </trkpt>
      <trkpt lat="46.84966" lon="4.69049">
        <ele>339.39865112305</ele>
        <time>2021-05-23T13:36:33Z</time>
      </trkpt>
      <trkpt lat="46.84956" lon="4.69035">
        <ele>339.39822387695</ele>
        <time>2021-05-23T13:36:38Z</time>
      </trkpt>
      <trkpt lat="46.84948" lon="4.69024">
        <ele>339.39791870117</ele>
        <time>2021-05-23T13:36:42Z</time>
      </trkpt>
      <trkpt lat="46.84938" lon="4.69009">
        <ele>339.39752197266</ele>
        <time>2021-05-23T13:36:47Z</time>
      </trkpt>
      <trkpt lat="46.8493" lon="4.68995">
        <ele>341.39721679688</ele>
        <time>2021-05-23T13:36:51Z</time>
      </trkpt>
      <trkpt lat="46.84922" lon="4.68977">
        <ele>343.39688110352</ele>
        <time>2021-05-23T13:36:56Z</time>
      </trkpt>
      <trkpt lat="46.84915" lon="4.68964">
        <ele>343.39660644531</ele>
        <time>2021-05-23T13:37:00Z</time>
      </trkpt>
      <trkpt lat="46.84908" lon="4.68951">
        <ele>346.39630126953</ele>
        <time>2021-05-23T13:37:04Z</time>
      </trkpt>
      <trkpt lat="46.849" lon="4.68939">
        <ele>346.39599609375</ele>
        <time>2021-05-23T13:37:08Z</time>
      </trkpt>
      <trkpt lat="46.84889" lon="4.68925">
        <ele>346.39553833008</ele>
        <time>2021-05-23T13:37:13Z</time>
      </trkpt>
      <trkpt lat="46.84879" lon="4.68916">
        <ele>347.39517211914</ele>
        <time>2021-05-23T13:37:17Z</time>
      </trkpt>
      <trkpt lat="46.84867" lon="4.68906">
        <ele>349.39465332031</ele>
        <time>2021-05-23T13:37:22Z</time>
      </trkpt>
      <trkpt lat="46.84857" lon="4.68897">
        <ele>350.39428710938</ele>
        <time>2021-05-23T13:37:26Z</time>
      </trkpt>
      <trkpt lat="46.84847" lon="4.68889">
        <ele>351.39389038086</ele>
        <time>2021-05-23T13:37:30Z</time>
      </trkpt>
      <trkpt lat="46.84837" lon="4.68883">
        <ele>352.39346313477</ele>
        <time>2021-05-23T13:37:34Z</time>
      </trkpt>
      <trkpt lat="46.84823" lon="4.68876">
        <ele>355.39291381836</ele>
        <time>2021-05-23T13:37:39Z</time>
      </trkpt>
      <trkpt lat="46.84812" lon="4.6887">
        <ele>356.39248657227</ele>
        <time>2021-05-23T13:37:43Z</time>
      </trkpt>
      <trkpt lat="46.84801" lon="4.68864">
        <ele>356.39202880859</ele>
        <time>2021-05-23T13:37:47Z</time>
      </trkpt>
      <trkpt lat="46.84788" lon="4.68855">
        <ele>356.39151000977</ele>
        <time>2021-05-23T13:37:52Z</time>
      </trkpt>
      <trkpt lat="46.84778" lon="4.68848">
        <ele>358.39111328125</ele>
        <time>2021-05-23T13:37:56Z</time>
      </trkpt>
      <trkpt lat="46.84769" lon="4.68838">
        <ele>358.39074707031</ele>
        <time>2021-05-23T13:38:00Z</time>
      </trkpt>
      <trkpt lat="46.84757" lon="4.68824">
        <ele>359.39028930664</ele>
        <time>2021-05-23T13:38:05Z</time>
      </trkpt>
      <trkpt lat="46.84748" lon="4.68814">
        <ele>359.3899230957</ele>
        <time>2021-05-23T13:38:09Z</time>
      </trkpt>
      <trkpt lat="46.84738" lon="4.68805">
        <ele>361.38952636719</ele>
        <time>2021-05-23T13:38:13Z</time>
      </trkpt>
      <trkpt lat="46.84727" lon="4.68798">
        <ele>361.38909912109</ele>
        <time>2021-05-23T13:38:17Z</time>
      </trkpt>
      <trkpt lat="46.84713" lon="4.68792">
        <ele>362.38851928711</ele>
        <time>2021-05-23T13:38:22Z</time>
      </trkpt>
      <trkpt lat="46.84702" lon="4.68786">
        <ele>363.38806152344</ele>
        <time>2021-05-23T13:38:26Z</time>
      </trkpt>
      <trkpt lat="46.8469" lon="4.68781">
        <ele>364.38760375977</ele>
        <time>2021-05-23T13:38:30Z</time>
      </trkpt>
      <trkpt lat="46.84681" lon="4.68773">
        <ele>366.38726806641</ele>
        <time>2021-05-23T13:38:34Z</time>
      </trkpt>
      <trkpt lat="46.84678" lon="4.68762">
        <ele>365.38711547852</ele>
        <time>2021-05-23T13:38:40Z</time>
      </trkpt>
      <trkpt lat="46.84685" lon="4.68769">
        <ele>365.38739013672</ele>
        <time>2021-05-23T13:38:48Z</time>
      </trkpt>
      <trkpt lat="46.84691" lon="4.68777">
        <ele>370.38763427734</ele>
        <time>2021-05-23T13:40:10Z</time>
      </trkpt>
      <trkpt lat="46.84701" lon="4.68786">
        <ele>369.38803100586</ele>
        <time>2021-05-23T13:40:14Z</time>
      </trkpt>
      <trkpt lat="46.84718" lon="4.68793">
        <ele>365.38870239258</ele>
        <time>2021-05-23T13:40:18Z</time>
      </trkpt>
      <trkpt lat="46.84732" lon="4.68801">
        <ele>365.38928222656</ele>
        <time>2021-05-23T13:40:22Z</time>
      </trkpt>
      <trkpt lat="46.84726" lon="4.68796">
        <ele>366.38903808594</ele>
        <time>2021-05-23T13:40:30Z</time>
      </trkpt>
      <trkpt lat="46.84716" lon="4.68792">
        <ele>366.38864135742</ele>
        <time>2021-05-23T13:40:34Z</time>
      </trkpt>
      <trkpt lat="46.84708" lon="4.68787">
        <ele>367.38830566406</ele>
        <time>2021-05-23T13:40:38Z</time>
      </trkpt>
      <trkpt lat="46.84698" lon="4.68783">
        <ele>370.38793945312</ele>
        <time>2021-05-23T13:40:42Z</time>
      </trkpt>
      <trkpt lat="46.84687" lon="4.68777">
        <ele>373.38748168945</ele>
        <time>2021-05-23T13:40:47Z</time>
      </trkpt>
      <trkpt lat="46.84681" lon="4.68769">
        <ele>375.38723754883</ele>
        <time>2021-05-23T13:40:54Z</time>
      </trkpt>
      <trkpt lat="46.84688" lon="4.68773">
        <ele>372.38751220703</ele>
        <time>2021-05-23T13:41:07Z</time>
      </trkpt>
      <trkpt lat="46.84698" lon="4.68777">
        <ele>373.38793945312</ele>
        <time>2021-05-23T13:41:12Z</time>
      </trkpt>
      <trkpt lat="46.84716" lon="4.68784">
        <ele>372.38864135742</ele>
        <time>2021-05-23T13:41:16Z</time>
      </trkpt>
      <trkpt lat="46.84747" lon="4.68811">
        <ele>369.38989257812</ele>
        <time>2021-05-23T13:41:21Z</time>
      </trkpt>
      <trkpt lat="46.84776" lon="4.68845">
        <ele>365.39105224609</ele>
        <time>2021-05-23T13:41:26Z</time>
      </trkpt>
      <trkpt lat="46.84792" lon="4.68854">
        <ele>366.39169311523</ele>
        <time>2021-05-23T13:41:30Z</time>
      </trkpt>
      <trkpt lat="46.84787" lon="4.68863">
        <ele>361.39144897461</ele>
        <time>2021-05-23T13:41:41Z</time>
      </trkpt>
      <trkpt lat="46.84778" lon="4.68862">
        <ele>364.39111328125</ele>
        <time>2021-05-23T13:41:46Z</time>
      </trkpt>
      <trkpt lat="46.84771" lon="4.68856">
        <ele>368.39083862305</ele>
        <time>2021-05-23T13:41:51Z</time>
      </trkpt>
      <trkpt lat="46.84764" lon="4.68851">
        <ele>367.39056396484</ele>
        <time>2021-05-23T13:41:55Z</time>
      </trkpt>
      <trkpt lat="46.84758" lon="4.68845">
        <ele>366.39031982422</ele>
        <time>2021-05-23T13:41:59Z</time>
      </trkpt>
      <trkpt lat="46.84752" lon="4.68835">
        <ele>368.39007568359</ele>
        <time>2021-05-23T13:42:04Z</time>
      </trkpt>
      <trkpt lat="46.84746" lon="4.68829">
        <ele>369.38983154297</ele>
        <time>2021-05-23T13:42:08Z</time>
      </trkpt>
      <trkpt lat="46.84739" lon="4.68822">
        <ele>369.38955688477</ele>
        <time>2021-05-23T13:42:12Z</time>
      </trkpt>
      <trkpt lat="46.84732" lon="4.68814">
        <ele>369.38928222656</ele>
        <time>2021-05-23T13:42:16Z</time>
      </trkpt>
      <trkpt lat="46.84724" lon="4.68806">
        <ele>370.38897705078</ele>
        <time>2021-05-23T13:42:20Z</time>
      </trkpt>
      <trkpt lat="46.84714" lon="4.68799">
        <ele>372.38858032227</ele>
        <time>2021-05-23T13:42:25Z</time>
      </trkpt>
      <trkpt lat="46.84703" lon="4.68792">
        <ele>371.38809204102</ele>
        <time>2021-05-23T13:42:30Z</time>
      </trkpt>
      <trkpt lat="46.84694" lon="4.68788">
        <ele>371.38775634766</ele>
        <time>2021-05-23T13:42:34Z</time>
      </trkpt>
      <trkpt lat="46.84684" lon="4.68783">
        <ele>372.38735961914</ele>
        <time>2021-05-23T13:42:39Z</time>
      </trkpt>
      <trkpt lat="46.84679" lon="4.68773">
        <ele>372.38714599609</ele>
        <time>2021-05-23T13:42:46Z</time>
      </trkpt>
      <trkpt lat="46.84681" lon="4.68761">
        <ele>375.38723754883</ele>
        <time>2021-05-23T13:44:53Z</time>
      </trkpt>
      <trkpt lat="46.84679" lon="4.68745">
        <ele>373.38717651367</ele>
        <time>2021-05-23T13:44:58Z</time>
      </trkpt>
      <trkpt lat="46.84682" lon="4.68725">
        <ele>373.38726806641</ele>
        <time>2021-05-23T13:45:02Z</time>
      </trkpt>
      <trkpt lat="46.84687" lon="4.68703">
        <ele>373.38745117188</ele>
        <time>2021-05-23T13:45:07Z</time>
      </trkpt>
      <trkpt lat="46.8469" lon="4.68686">
        <ele>374.38760375977</ele>
        <time>2021-05-23T13:45:11Z</time>
      </trkpt>
      <trkpt lat="46.84693" lon="4.6867">
        <ele>374.38772583008</ele>
        <time>2021-05-23T13:45:15Z</time>
      </trkpt>
      <trkpt lat="46.84692" lon="4.6865">
        <ele>374.38766479492</ele>
        <time>2021-05-23T13:45:20Z</time>
      </trkpt>
      <trkpt lat="46.84682" lon="4.68637">
        <ele>374.38726806641</ele>
        <time>2021-05-23T13:45:24Z</time>
      </trkpt>
      <trkpt lat="46.84669" lon="4.68603">
        <ele>371.38677978516</ele>
        <time>2021-05-23T13:45:29Z</time>
      </trkpt>
      <trkpt lat="46.84663" lon="4.6857">
        <ele>370.38650512695</ele>
        <time>2021-05-23T13:45:34Z</time>
      </trkpt>
      <trkpt lat="46.84661" lon="4.6855">
        <ele>371.38647460938</ele>
        <time>2021-05-23T13:45:38Z</time>
      </trkpt>
      <trkpt lat="46.8466" lon="4.68531">
        <ele>370.38638305664</ele>
        <time>2021-05-23T13:45:43Z</time>
      </trkpt>
      <trkpt lat="46.84669" lon="4.68514">
        <ele>369.38674926758</ele>
        <time>2021-05-23T13:45:48Z</time>
      </trkpt>
      <trkpt lat="46.84678" lon="4.68505">
        <ele>368.38711547852</ele>
        <time>2021-05-23T13:45:52Z</time>
      </trkpt>
      <trkpt lat="46.84692" lon="4.68498">
        <ele>371.38766479492</ele>
        <time>2021-05-23T13:45:57Z</time>
      </trkpt>
      <trkpt lat="46.84713" lon="4.68489">
        <ele>375.38848876953</ele>
        <time>2021-05-23T13:46:01Z</time>
      </trkpt>
      <trkpt lat="46.84714" lon="4.68465">
        <ele>372.38858032227</ele>
        <time>2021-05-23T13:46:06Z</time>
      </trkpt>
      <trkpt lat="46.84721" lon="4.68442">
        <ele>372.38885498047</ele>
        <time>2021-05-23T13:46:10Z</time>
      </trkpt>
      <trkpt lat="46.84727" lon="4.68393">
        <ele>375.38909912109</ele>
        <time>2021-05-23T13:46:15Z</time>
      </trkpt>
      <trkpt lat="46.84724" lon="4.68339">
        <ele>370.3889465332</ele>
        <time>2021-05-23T13:46:19Z</time>
      </trkpt>
      <trkpt lat="46.84727" lon="4.68286">
        <ele>371.38906860352</ele>
        <time>2021-05-23T13:46:24Z</time>
      </trkpt>
      <trkpt lat="46.84729" lon="4.68236">
        <ele>368.38916015625</ele>
        <time>2021-05-23T13:46:29Z</time>
      </trkpt>
      <trkpt lat="46.84731" lon="4.682">
        <ele>366.38922119141</ele>
        <time>2021-05-23T13:46:33Z</time>
      </trkpt>
      <trkpt lat="46.84739" lon="4.68167">
        <ele>367.38955688477</ele>
        <time>2021-05-23T13:46:37Z</time>
      </trkpt>
      <trkpt lat="46.84744" lon="4.68131">
        <ele>368.38977050781</ele>
        <time>2021-05-23T13:46:42Z</time>
      </trkpt>
      <trkpt lat="46.84751" lon="4.68095">
        <ele>365.39004516602</ele>
        <time>2021-05-23T13:46:47Z</time>
      </trkpt>
      <trkpt lat="46.84758" lon="4.68058">
        <ele>367.39031982422</ele>
        <time>2021-05-23T13:46:52Z</time>
      </trkpt>
      <trkpt lat="46.84758" lon="4.68031">
        <ele>365.3903503418</ele>
        <time>2021-05-23T13:46:56Z</time>
      </trkpt>
      <trkpt lat="46.84761" lon="4.68001">
        <ele>367.39044189453</ele>
        <time>2021-05-23T13:47:00Z</time>
      </trkpt>
      <trkpt lat="46.84766" lon="4.6797">
        <ele>368.390625</ele>
        <time>2021-05-23T13:47:04Z</time>
      </trkpt>
      <trkpt lat="46.84769" lon="4.67938">
        <ele>369.39077758789</ele>
        <time>2021-05-23T13:47:09Z</time>
      </trkpt>
      <trkpt lat="46.84774" lon="4.67904">
        <ele>368.39099121094</ele>
        <time>2021-05-23T13:47:14Z</time>
      </trkpt>
      <trkpt lat="46.84774" lon="4.67879">
        <ele>368.39093017578</ele>
        <time>2021-05-23T13:47:18Z</time>
      </trkpt>
      <trkpt lat="46.84776" lon="4.67846">
        <ele>368.39102172852</ele>
        <time>2021-05-23T13:47:23Z</time>
      </trkpt>
      <trkpt lat="46.84779" lon="4.67821">
        <ele>367.39114379883</ele>
        <time>2021-05-23T13:47:27Z</time>
      </trkpt>
      <trkpt lat="46.84787" lon="4.67793">
        <ele>366.39147949219</ele>
        <time>2021-05-23T13:47:32Z</time>
      </trkpt>
      <trkpt lat="46.84793" lon="4.67767">
        <ele>366.39175415039</ele>
        <time>2021-05-23T13:47:36Z</time>
      </trkpt>
      <trkpt lat="46.84808" lon="4.67743">
        <ele>365.3923034668</ele>
        <time>2021-05-23T13:47:41Z</time>
      </trkpt>
      <trkpt lat="46.84824" lon="4.67716">
        <ele>367.39294433594</ele>
        <time>2021-05-23T13:47:46Z</time>
      </trkpt>
      <trkpt lat="46.84832" lon="4.67691">
        <ele>367.3932800293</ele>
        <time>2021-05-23T13:47:50Z</time>
      </trkpt>
      <trkpt lat="46.84844" lon="4.67662">
        <ele>366.39376831055</ele>
        <time>2021-05-23T13:47:55Z</time>
      </trkpt>
      <trkpt lat="46.84865" lon="4.67639">
        <ele>369.39459228516</ele>
        <time>2021-05-23T13:48:00Z</time>
      </trkpt>
      <trkpt lat="46.84884" lon="4.67624">
        <ele>369.39535522461</ele>
        <time>2021-05-23T13:48:04Z</time>
      </trkpt>
      <trkpt lat="46.84905" lon="4.6761">
        <ele>368.3962097168</ele>
        <time>2021-05-23T13:48:08Z</time>
      </trkpt>
      <trkpt lat="46.84925" lon="4.67595">
        <ele>371.39700317383</ele>
        <time>2021-05-23T13:48:12Z</time>
      </trkpt>
      <trkpt lat="46.84947" lon="4.67572">
        <ele>373.39788818359</ele>
        <time>2021-05-23T13:48:17Z</time>
      </trkpt>
      <trkpt lat="46.84964" lon="4.6755">
        <ele>375.39859008789</ele>
        <time>2021-05-23T13:48:21Z</time>
      </trkpt>
      <trkpt lat="46.84987" lon="4.6752">
        <ele>378.39947509766</ele>
        <time>2021-05-23T13:48:26Z</time>
      </trkpt>
      <trkpt lat="46.85013" lon="4.67486">
        <ele>379.40051269531</ele>
        <time>2021-05-23T13:48:31Z</time>
      </trkpt>
      <trkpt lat="46.85034" lon="4.67454">
        <ele>379.4013671875</ele>
        <time>2021-05-23T13:48:35Z</time>
      </trkpt>
      <trkpt lat="46.85061" lon="4.67414">
        <ele>380.40243530273</ele>
        <time>2021-05-23T13:48:40Z</time>
      </trkpt>
      <trkpt lat="46.85081" lon="4.67383">
        <ele>380.40322875977</ele>
        <time>2021-05-23T13:48:44Z</time>
      </trkpt>
      <trkpt lat="46.85104" lon="4.67348">
        <ele>382.40417480469</ele>
        <time>2021-05-23T13:48:49Z</time>
      </trkpt>
      <trkpt lat="46.8512" lon="4.67323">
        <ele>380.40481567383</ele>
        <time>2021-05-23T13:48:53Z</time>
      </trkpt>
      <trkpt lat="46.85131" lon="4.67306">
        <ele>378.40524291992</ele>
        <time>2021-05-23T13:48:57Z</time>
      </trkpt>
      <trkpt lat="46.85139" lon="4.67288">
        <ele>377.40557861328</ele>
        <time>2021-05-23T13:49:01Z</time>
      </trkpt>
      <trkpt lat="46.8515" lon="4.67269">
        <ele>377.40600585938</ele>
        <time>2021-05-23T13:49:05Z</time>
      </trkpt>
      <trkpt lat="46.85163" lon="4.67246">
        <ele>377.4065246582</ele>
        <time>2021-05-23T13:49:10Z</time>
      </trkpt>
      <trkpt lat="46.85175" lon="4.67224">
        <ele>375.40701293945</ele>
        <time>2021-05-23T13:49:14Z</time>
      </trkpt>
      <trkpt lat="46.85188" lon="4.672">
        <ele>373.40753173828</ele>
        <time>2021-05-23T13:49:18Z</time>
      </trkpt>
      <trkpt lat="46.85207" lon="4.67165">
        <ele>369.40829467773</ele>
        <time>2021-05-23T13:49:23Z</time>
      </trkpt>
      <trkpt lat="46.85231" lon="4.67121">
        <ele>368.40924072266</ele>
        <time>2021-05-23T13:49:28Z</time>
      </trkpt>
      <trkpt lat="46.85253" lon="4.67083">
        <ele>367.41012573242</ele>
        <time>2021-05-23T13:49:32Z</time>
      </trkpt>
      <trkpt lat="46.85273" lon="4.67043">
        <ele>363.41094970703</ele>
        <time>2021-05-23T13:49:36Z</time>
      </trkpt>
      <trkpt lat="46.85302" lon="4.66993">
        <ele>361.41207885742</ele>
        <time>2021-05-23T13:49:41Z</time>
      </trkpt>
      <trkpt lat="46.85334" lon="4.66951">
        <ele>360.4133605957</ele>
        <time>2021-05-23T13:49:46Z</time>
      </trkpt>
      <trkpt lat="46.85368" lon="4.66909">
        <ele>359.41470336914</ele>
        <time>2021-05-23T13:49:51Z</time>
      </trkpt>
      <trkpt lat="46.85396" lon="4.66864">
        <ele>358.41586303711</ele>
        <time>2021-05-23T13:49:55Z</time>
      </trkpt>
      <trkpt lat="46.8543" lon="4.66793">
        <ele>356.41720581055</ele>
        <time>2021-05-23T13:50:00Z</time>
      </trkpt>
      <trkpt lat="46.85454" lon="4.66722">
        <ele>355.41815185547</ele>
        <time>2021-05-23T13:50:04Z</time>
      </trkpt>
      <trkpt lat="46.8549" lon="4.66636">
        <ele>350.41961669922</ele>
        <time>2021-05-23T13:50:09Z</time>
      </trkpt>
      <trkpt lat="46.85545" lon="4.66572">
        <ele>344.42178344727</ele>
        <time>2021-05-23T13:50:14Z</time>
      </trkpt>
      <trkpt lat="46.85607" lon="4.66523">
        <ele>337.42428588867</ele>
        <time>2021-05-23T13:50:19Z</time>
      </trkpt>
      <trkpt lat="46.8566" lon="4.66481">
        <ele>332.42642211914</ele>
        <time>2021-05-23T13:50:23Z</time>
      </trkpt>
      <trkpt lat="46.85708" lon="4.66432">
        <ele>330.42831420898</ele>
        <time>2021-05-23T13:50:27Z</time>
      </trkpt>
      <trkpt lat="46.85763" lon="4.66386">
        <ele>330.43051147461</ele>
        <time>2021-05-23T13:50:32Z</time>
      </trkpt>
      <trkpt lat="46.85807" lon="4.66406">
        <ele>328.43225097656</ele>
        <time>2021-05-23T13:50:36Z</time>
      </trkpt>
      <trkpt lat="46.85859" lon="4.66413">
        <ele>326.43438720703</ele>
        <time>2021-05-23T13:50:41Z</time>
      </trkpt>
      <trkpt lat="46.85901" lon="4.66404">
        <ele>324.43603515625</ele>
        <time>2021-05-23T13:50:45Z</time>
      </trkpt>
      <trkpt lat="46.85939" lon="4.66388">
        <ele>322.43756103516</ele>
        <time>2021-05-23T13:50:49Z</time>
      </trkpt>
      <trkpt lat="46.85982" lon="4.66348">
        <ele>320.43930053711</ele>
        <time>2021-05-23T13:50:54Z</time>
      </trkpt>
      <trkpt lat="46.86014" lon="4.66314">
        <ele>319.44055175781</ele>
        <time>2021-05-23T13:50:58Z</time>
      </trkpt>
      <trkpt lat="46.86049" lon="4.66273">
        <ele>320.44195556641</ele>
        <time>2021-05-23T13:51:03Z</time>
      </trkpt>
      <trkpt lat="46.86067" lon="4.66252">
        <ele>318.44268798828</ele>
        <time>2021-05-23T13:51:08Z</time>
      </trkpt>
      <trkpt lat="46.86076" lon="4.66238">
        <ele>319.44305419922</ele>
        <time>2021-05-23T13:51:12Z</time>
      </trkpt>
      <trkpt lat="46.86088" lon="4.66226">
        <ele>317.44354248047</ele>
        <time>2021-05-23T13:51:17Z</time>
      </trkpt>
      <trkpt lat="46.86095" lon="4.66216">
        <ele>316.44381713867</ele>
        <time>2021-05-23T13:51:21Z</time>
      </trkpt>
      <trkpt lat="46.86105" lon="4.66207">
        <ele>314.44418334961</ele>
        <time>2021-05-23T13:51:26Z</time>
      </trkpt>
      <trkpt lat="46.86111" lon="4.66197">
        <ele>313.44445800781</ele>
        <time>2021-05-23T13:51:31Z</time>
      </trkpt>
      <trkpt lat="46.86118" lon="4.66188">
        <ele>313.44470214844</ele>
        <time>2021-05-23T13:51:35Z</time>
      </trkpt>
      <trkpt lat="46.86126" lon="4.66182">
        <ele>313.4450378418</ele>
        <time>2021-05-23T13:51:39Z</time>
      </trkpt>
      <trkpt lat="46.86134" lon="4.66172">
        <ele>312.44534301758</ele>
        <time>2021-05-23T13:51:43Z</time>
      </trkpt>
      <trkpt lat="46.8614" lon="4.66164">
        <ele>311.44561767578</ele>
        <time>2021-05-23T13:51:47Z</time>
      </trkpt>
      <trkpt lat="46.8615" lon="4.66152">
        <ele>309.44598388672</ele>
        <time>2021-05-23T13:51:52Z</time>
      </trkpt>
      <trkpt lat="46.8616" lon="4.6614">
        <ele>310.44638061523</ele>
        <time>2021-05-23T13:51:56Z</time>
      </trkpt>
      <trkpt lat="46.8617" lon="4.66127">
        <ele>309.44680786133</ele>
        <time>2021-05-23T13:52:00Z</time>
      </trkpt>
      <trkpt lat="46.86177" lon="4.66117">
        <ele>308.44708251953</ele>
        <time>2021-05-23T13:52:04Z</time>
      </trkpt>
      <trkpt lat="46.86176" lon="4.66108">
        <ele>309.44702148438</ele>
        <time>2021-05-23T13:52:08Z</time>
      </trkpt>
      <trkpt lat="46.86163" lon="4.66073">
        <ele>309.44650268555</ele>
        <time>2021-05-23T13:52:13Z</time>
      </trkpt>
      <trkpt lat="46.86152" lon="4.66036">
        <ele>309.44607543945</ele>
        <time>2021-05-23T13:52:17Z</time>
      </trkpt>
      <trkpt lat="46.86135" lon="4.65983">
        <ele>309.44540405273</ele>
        <time>2021-05-23T13:52:22Z</time>
      </trkpt>
      <trkpt lat="46.86128" lon="4.65917">
        <ele>308.44512939453</ele>
        <time>2021-05-23T13:52:27Z</time>
      </trkpt>
      <trkpt lat="46.86133" lon="4.65859">
        <ele>305.44534301758</ele>
        <time>2021-05-23T13:52:31Z</time>
      </trkpt>
      <trkpt lat="46.8613" lon="4.65795">
        <ele>307.44519042969</ele>
        <time>2021-05-23T13:52:35Z</time>
      </trkpt>
      <trkpt lat="46.86146" lon="4.65719">
        <ele>302.44583129883</ele>
        <time>2021-05-23T13:52:39Z</time>
      </trkpt>
      <trkpt lat="46.86173" lon="4.65663">
        <ele>304.44689941406</ele>
        <time>2021-05-23T13:52:43Z</time>
      </trkpt>
      <trkpt lat="46.8622" lon="4.65611">
        <ele>296.44882202148</ele>
        <time>2021-05-23T13:52:48Z</time>
      </trkpt>
      <trkpt lat="46.86259" lon="4.65579">
        <ele>293.45034790039</ele>
        <time>2021-05-23T13:52:52Z</time>
      </trkpt>
      <trkpt lat="46.86293" lon="4.6552">
        <ele>290.45175170898</ele>
        <time>2021-05-23T13:52:57Z</time>
      </trkpt>
      <trkpt lat="46.86314" lon="4.65463">
        <ele>283.45254516602</ele>
        <time>2021-05-23T13:53:01Z</time>
      </trkpt>
      <trkpt lat="46.86324" lon="4.65431">
        <ele>281.45294189453</ele>
        <time>2021-05-23T13:53:05Z</time>
      </trkpt>
      <trkpt lat="46.86337" lon="4.65393">
        <ele>277.45349121094</ele>
        <time>2021-05-23T13:53:10Z</time>
      </trkpt>
      <trkpt lat="46.86349" lon="4.65354">
        <ele>275.45394897461</ele>
        <time>2021-05-23T13:53:14Z</time>
      </trkpt>
      <trkpt lat="46.8638" lon="4.65304">
        <ele>270.45516967773</ele>
        <time>2021-05-23T13:53:19Z</time>
      </trkpt>
      <trkpt lat="46.86411" lon="4.65267">
        <ele>264.45645141602</ele>
        <time>2021-05-23T13:53:23Z</time>
      </trkpt>
      <trkpt lat="46.86446" lon="4.6524">
        <ele>260.45782470703</ele>
        <time>2021-05-23T13:53:27Z</time>
      </trkpt>
      <trkpt lat="46.86469" lon="4.65207">
        <ele>257.45874023438</ele>
        <time>2021-05-23T13:53:31Z</time>
      </trkpt>
      <trkpt lat="46.86485" lon="4.65162">
        <ele>253.45941162109</ele>
        <time>2021-05-23T13:53:36Z</time>
      </trkpt>
      <trkpt lat="46.86501" lon="4.6513">
        <ele>252.46003723144</ele>
        <time>2021-05-23T13:53:40Z</time>
      </trkpt>
      <trkpt lat="46.86523" lon="4.65094">
        <ele>251.4609375</ele>
        <time>2021-05-23T13:53:44Z</time>
      </trkpt>
      <trkpt lat="46.86551" lon="4.65049">
        <ele>251.46203613281</ele>
        <time>2021-05-23T13:53:49Z</time>
      </trkpt>
      <trkpt lat="46.86575" lon="4.65021">
        <ele>249.46298217773</ele>
        <time>2021-05-23T13:53:54Z</time>
      </trkpt>
      <trkpt lat="46.86598" lon="4.65027">
        <ele>247.46392822266</ele>
        <time>2021-05-23T13:53:58Z</time>
      </trkpt>
      <trkpt lat="46.86612" lon="4.65">
        <ele>245.46447753906</ele>
        <time>2021-05-23T13:54:02Z</time>
      </trkpt>
      <trkpt lat="46.86628" lon="4.64969">
        <ele>247.46510314941</ele>
        <time>2021-05-23T13:54:07Z</time>
      </trkpt>
      <trkpt lat="46.86636" lon="4.64959">
        <ele>249.46542358398</ele>
        <time>2021-05-23T13:54:11Z</time>
      </trkpt>
      <trkpt lat="46.86642" lon="4.64959">
        <ele>247.4656829834</ele>
        <time>2021-05-23T13:54:46Z</time>
      </trkpt>
      <trkpt lat="46.86657" lon="4.64969">
        <ele>243.46626281738</ele>
        <time>2021-05-23T13:54:50Z</time>
      </trkpt>
      <trkpt lat="46.8668" lon="4.64994">
        <ele>243.46719360352</ele>
        <time>2021-05-23T13:54:54Z</time>
      </trkpt>
      <trkpt lat="46.86699" lon="4.65009">
        <ele>241.46794128418</ele>
        <time>2021-05-23T13:54:59Z</time>
      </trkpt>
      <trkpt lat="46.8672" lon="4.65022">
        <ele>240.46881103516</ele>
        <time>2021-05-23T13:55:03Z</time>
      </trkpt>
      <trkpt lat="46.8674" lon="4.6503">
        <ele>237.46960449219</ele>
        <time>2021-05-23T13:55:07Z</time>
      </trkpt>
      <trkpt lat="46.8676" lon="4.65042">
        <ele>236.47039794922</ele>
        <time>2021-05-23T13:55:11Z</time>
      </trkpt>
      <trkpt lat="46.86776" lon="4.65054">
        <ele>235.47103881836</ele>
        <time>2021-05-23T13:55:15Z</time>
      </trkpt>
      <trkpt lat="46.86783" lon="4.65065">
        <ele>236.47131347656</ele>
        <time>2021-05-23T13:55:20Z</time>
      </trkpt>
      <trkpt lat="46.86778" lon="4.65074">
        <ele>238.47113037109</ele>
        <time>2021-05-23T13:55:25Z</time>
      </trkpt>
      <trkpt lat="46.86773" lon="4.65084">
        <ele>239.47090148926</ele>
        <time>2021-05-23T13:55:29Z</time>
      </trkpt>
      <trkpt lat="46.86765" lon="4.65094">
        <ele>240.47061157227</ele>
        <time>2021-05-23T13:55:34Z</time>
      </trkpt>
      <trkpt lat="46.86761" lon="4.65091">
        <ele>241.47045898438</ele>
        <time>2021-05-23T13:55:55Z</time>
      </trkpt>
      <trkpt lat="46.86761" lon="4.65091">
        <ele>241.47045898438</ele>
        <time>2021-05-23T13:55:55Z</time>
      </trkpt>
    </trkseg>
  </trk>
</gpx>